<?xml version="1.0" encoding="UTF-8" standalone="no" ?>
<gpx xmlns="http://www.topografix.com/GPX/1/1" xmlns:xsi="http://www.w3.org/2001/XMLSchema-instance" xsi:schemaLocation="http://www.topografix.com/GPX/1/1 http://www.topografix.com/GPX/1/1/gpx.xsd" version="1.1" creator="VisuGPX - https://www.visugpx.com">
  <metadata>
    <name>Dimanche 31 mai 2015</name>
    <desc><![CDATA[..........]]></desc>
  </metadata>
  <trk>
    <name><![CDATA[Dimanche 31 mai 2015_1]]></name>
    <trkseg>
      <trkpt lat="49.1837" lon="1.33194">
        <ele>24.395927</ele>
        <time>2015-05-31T05:59:44Z</time>
      </trkpt>
      <trkpt lat="49.1837" lon="1.33194">
        <ele>24.395927</ele>
        <time>2015-05-31T05:59:45Z</time>
      </trkpt>
      <trkpt lat="49.18378" lon="1.33199">
        <ele>21.066675</ele>
        <time>2015-05-31T06:00:20Z</time>
      </trkpt>
      <trkpt lat="49.18387" lon="1.33199">
        <ele>20.9</ele>
        <time>2015-05-31T06:00:26Z</time>
      </trkpt>
      <trkpt lat="49.18396" lon="1.33207">
        <ele>20.9</ele>
        <time>2015-05-31T06:00:33Z</time>
      </trkpt>
      <trkpt lat="49.18388" lon="1.33213">
        <ele>20.7</ele>
        <time>2015-05-31T06:00:51Z</time>
      </trkpt>
      <trkpt lat="49.18397" lon="1.33209">
        <ele>20.7</ele>
        <time>2015-05-31T06:01:35Z</time>
      </trkpt>
      <trkpt lat="49.18388" lon="1.33199">
        <ele>20.9</ele>
        <time>2015-05-31T06:03:07Z</time>
      </trkpt>
      <trkpt lat="49.18378" lon="1.33196">
        <ele>21</ele>
        <time>2015-05-31T06:03:11Z</time>
      </trkpt>
      <trkpt lat="49.18369" lon="1.33195">
        <ele>21.1</ele>
        <time>2015-05-31T06:04:00Z</time>
      </trkpt>
      <trkpt lat="49.1836" lon="1.33199">
        <ele>21.1</ele>
        <time>2015-05-31T06:04:07Z</time>
      </trkpt>
      <trkpt lat="49.18351" lon="1.33196">
        <ele>21.2</ele>
        <time>2015-05-31T06:04:14Z</time>
      </trkpt>
      <trkpt lat="49.18342" lon="1.33189">
        <ele>21.9</ele>
        <time>2015-05-31T06:04:25Z</time>
      </trkpt>
      <trkpt lat="49.18332" lon="1.33188">
        <ele>22</ele>
        <time>2015-05-31T06:04:28Z</time>
      </trkpt>
      <trkpt lat="49.18321" lon="1.33186">
        <ele>22.2</ele>
        <time>2015-05-31T06:04:31Z</time>
      </trkpt>
      <trkpt lat="49.1831" lon="1.33183">
        <ele>22.3</ele>
        <time>2015-05-31T06:04:34Z</time>
      </trkpt>
      <trkpt lat="49.183" lon="1.33182">
        <ele>22.4</ele>
        <time>2015-05-31T06:04:37Z</time>
      </trkpt>
      <trkpt lat="49.18291" lon="1.33178">
        <ele>22.5</ele>
        <time>2015-05-31T06:04:40Z</time>
      </trkpt>
      <trkpt lat="49.18281" lon="1.33175">
        <ele>22.6</ele>
        <time>2015-05-31T06:04:43Z</time>
      </trkpt>
      <trkpt lat="49.18272" lon="1.33172">
        <ele>22.6</ele>
        <time>2015-05-31T06:04:46Z</time>
      </trkpt>
      <trkpt lat="49.18261" lon="1.33171">
        <ele>22.7</ele>
        <time>2015-05-31T06:04:49Z</time>
      </trkpt>
      <trkpt lat="49.18249" lon="1.33171">
        <ele>22.7</ele>
        <time>2015-05-31T06:04:52Z</time>
      </trkpt>
      <trkpt lat="49.18236" lon="1.33173">
        <ele>22.8</ele>
        <time>2015-05-31T06:04:55Z</time>
      </trkpt>
      <trkpt lat="49.18223" lon="1.33175">
        <ele>22.8</ele>
        <time>2015-05-31T06:04:58Z</time>
      </trkpt>
      <trkpt lat="49.18214" lon="1.33176">
        <ele>22.7</ele>
        <time>2015-05-31T06:05:00Z</time>
      </trkpt>
      <trkpt lat="49.18205" lon="1.33178">
        <ele>22.7</ele>
        <time>2015-05-31T06:05:02Z</time>
      </trkpt>
      <trkpt lat="49.18196" lon="1.33179">
        <ele>22.6</ele>
        <time>2015-05-31T06:05:04Z</time>
      </trkpt>
      <trkpt lat="49.18183" lon="1.33181">
        <ele>22.5</ele>
        <time>2015-05-31T06:05:07Z</time>
      </trkpt>
      <trkpt lat="49.18171" lon="1.33183">
        <ele>22.5</ele>
        <time>2015-05-31T06:05:10Z</time>
      </trkpt>
      <trkpt lat="49.18158" lon="1.33186">
        <ele>22.4</ele>
        <time>2015-05-31T06:05:13Z</time>
      </trkpt>
      <trkpt lat="49.18147" lon="1.3319">
        <ele>22.3</ele>
        <time>2015-05-31T06:05:16Z</time>
      </trkpt>
      <trkpt lat="49.18136" lon="1.33194">
        <ele>22.3</ele>
        <time>2015-05-31T06:05:19Z</time>
      </trkpt>
      <trkpt lat="49.18126" lon="1.33199">
        <ele>22.2</ele>
        <time>2015-05-31T06:05:23Z</time>
      </trkpt>
      <trkpt lat="49.18126" lon="1.33214">
        <ele>21.4</ele>
        <time>2015-05-31T06:05:43Z</time>
      </trkpt>
      <trkpt lat="49.18126" lon="1.3323">
        <ele>21.3</ele>
        <time>2015-05-31T06:05:48Z</time>
      </trkpt>
      <trkpt lat="49.18126" lon="1.33249">
        <ele>21.1</ele>
        <time>2015-05-31T06:05:52Z</time>
      </trkpt>
      <trkpt lat="49.18127" lon="1.33265">
        <ele>20.9</ele>
        <time>2015-05-31T06:05:55Z</time>
      </trkpt>
      <trkpt lat="49.18128" lon="1.33282">
        <ele>20.8</ele>
        <time>2015-05-31T06:05:58Z</time>
      </trkpt>
      <trkpt lat="49.18129" lon="1.333">
        <ele>20.7</ele>
        <time>2015-05-31T06:06:01Z</time>
      </trkpt>
      <trkpt lat="49.1813" lon="1.33318">
        <ele>20.7</ele>
        <time>2015-05-31T06:06:04Z</time>
      </trkpt>
      <trkpt lat="49.1813" lon="1.33338">
        <ele>20.6</ele>
        <time>2015-05-31T06:06:07Z</time>
      </trkpt>
      <trkpt lat="49.18131" lon="1.33357">
        <ele>20.6</ele>
        <time>2015-05-31T06:06:10Z</time>
      </trkpt>
      <trkpt lat="49.1813" lon="1.33376">
        <ele>20.5</ele>
        <time>2015-05-31T06:06:13Z</time>
      </trkpt>
      <trkpt lat="49.18127" lon="1.33395">
        <ele>20.5</ele>
        <time>2015-05-31T06:06:16Z</time>
      </trkpt>
      <trkpt lat="49.1812" lon="1.33412">
        <ele>20.5</ele>
        <time>2015-05-31T06:06:19Z</time>
      </trkpt>
      <trkpt lat="49.18115" lon="1.33431">
        <ele>20.5</ele>
        <time>2015-05-31T06:06:22Z</time>
      </trkpt>
      <trkpt lat="49.18112" lon="1.3345">
        <ele>20.4</ele>
        <time>2015-05-31T06:06:25Z</time>
      </trkpt>
      <trkpt lat="49.18107" lon="1.33468">
        <ele>20.4</ele>
        <time>2015-05-31T06:06:28Z</time>
      </trkpt>
      <trkpt lat="49.18106" lon="1.33488">
        <ele>20.4</ele>
        <time>2015-05-31T06:06:31Z</time>
      </trkpt>
      <trkpt lat="49.18109" lon="1.33502">
        <ele>20.4</ele>
        <time>2015-05-31T06:06:33Z</time>
      </trkpt>
      <trkpt lat="49.18114" lon="1.33519">
        <ele>20.4</ele>
        <time>2015-05-31T06:06:36Z</time>
      </trkpt>
      <trkpt lat="49.18123" lon="1.33518">
        <ele>20.4</ele>
        <time>2015-05-31T06:06:39Z</time>
      </trkpt>
      <trkpt lat="49.18135" lon="1.3351">
        <ele>20.4</ele>
        <time>2015-05-31T06:06:42Z</time>
      </trkpt>
      <trkpt lat="49.18144" lon="1.33511">
        <ele>20.4</ele>
        <time>2015-05-31T06:06:44Z</time>
      </trkpt>
      <trkpt lat="49.18153" lon="1.33517">
        <ele>20.4</ele>
        <time>2015-05-31T06:06:46Z</time>
      </trkpt>
      <trkpt lat="49.18163" lon="1.33524">
        <ele>20.4</ele>
        <time>2015-05-31T06:06:48Z</time>
      </trkpt>
      <trkpt lat="49.18172" lon="1.33533">
        <ele>20.3</ele>
        <time>2015-05-31T06:06:50Z</time>
      </trkpt>
      <trkpt lat="49.1818" lon="1.33543">
        <ele>20.3</ele>
        <time>2015-05-31T06:06:52Z</time>
      </trkpt>
      <trkpt lat="49.18188" lon="1.33554">
        <ele>20.2</ele>
        <time>2015-05-31T06:06:54Z</time>
      </trkpt>
      <trkpt lat="49.18196" lon="1.33567">
        <ele>20.2</ele>
        <time>2015-05-31T06:06:56Z</time>
      </trkpt>
      <trkpt lat="49.18202" lon="1.33581">
        <ele>20.1</ele>
        <time>2015-05-31T06:06:58Z</time>
      </trkpt>
      <trkpt lat="49.18207" lon="1.33597">
        <ele>20</ele>
        <time>2015-05-31T06:07:00Z</time>
      </trkpt>
      <trkpt lat="49.18212" lon="1.33613">
        <ele>19.9</ele>
        <time>2015-05-31T06:07:02Z</time>
      </trkpt>
      <trkpt lat="49.18216" lon="1.33628">
        <ele>19.8</ele>
        <time>2015-05-31T06:07:04Z</time>
      </trkpt>
      <trkpt lat="49.18221" lon="1.33644">
        <ele>19.7</ele>
        <time>2015-05-31T06:07:06Z</time>
      </trkpt>
      <trkpt lat="49.18225" lon="1.3366">
        <ele>19.6</ele>
        <time>2015-05-31T06:07:08Z</time>
      </trkpt>
      <trkpt lat="49.1823" lon="1.33674">
        <ele>19.5</ele>
        <time>2015-05-31T06:07:10Z</time>
      </trkpt>
      <trkpt lat="49.18235" lon="1.33689">
        <ele>19.5</ele>
        <time>2015-05-31T06:07:12Z</time>
      </trkpt>
      <trkpt lat="49.1824" lon="1.33702">
        <ele>19.4</ele>
        <time>2015-05-31T06:07:14Z</time>
      </trkpt>
      <trkpt lat="49.18245" lon="1.33715">
        <ele>19.3</ele>
        <time>2015-05-31T06:07:16Z</time>
      </trkpt>
      <trkpt lat="49.18251" lon="1.33728">
        <ele>19.2</ele>
        <time>2015-05-31T06:07:18Z</time>
      </trkpt>
      <trkpt lat="49.18257" lon="1.33741">
        <ele>19.2</ele>
        <time>2015-05-31T06:07:20Z</time>
      </trkpt>
      <trkpt lat="49.18264" lon="1.33754">
        <ele>19.1</ele>
        <time>2015-05-31T06:07:22Z</time>
      </trkpt>
      <trkpt lat="49.18271" lon="1.33766">
        <ele>19.1</ele>
        <time>2015-05-31T06:07:24Z</time>
      </trkpt>
      <trkpt lat="49.18278" lon="1.33778">
        <ele>19</ele>
        <time>2015-05-31T06:07:26Z</time>
      </trkpt>
      <trkpt lat="49.18286" lon="1.3379">
        <ele>19</ele>
        <time>2015-05-31T06:07:28Z</time>
      </trkpt>
      <trkpt lat="49.18293" lon="1.33801">
        <ele>18.9</ele>
        <time>2015-05-31T06:07:30Z</time>
      </trkpt>
      <trkpt lat="49.18299" lon="1.33813">
        <ele>18.9</ele>
        <time>2015-05-31T06:07:32Z</time>
      </trkpt>
      <trkpt lat="49.18305" lon="1.33826">
        <ele>18.9</ele>
        <time>2015-05-31T06:07:34Z</time>
      </trkpt>
      <trkpt lat="49.18311" lon="1.33838">
        <ele>18.8</ele>
        <time>2015-05-31T06:07:36Z</time>
      </trkpt>
      <trkpt lat="49.18317" lon="1.33849">
        <ele>18.8</ele>
        <time>2015-05-31T06:07:38Z</time>
      </trkpt>
      <trkpt lat="49.18323" lon="1.3386">
        <ele>18.8</ele>
        <time>2015-05-31T06:07:40Z</time>
      </trkpt>
      <trkpt lat="49.1833" lon="1.3387">
        <ele>18.7</ele>
        <time>2015-05-31T06:07:42Z</time>
      </trkpt>
      <trkpt lat="49.18337" lon="1.33879">
        <ele>18.7</ele>
        <time>2015-05-31T06:07:44Z</time>
      </trkpt>
      <trkpt lat="49.18344" lon="1.3389">
        <ele>18.7</ele>
        <time>2015-05-31T06:07:46Z</time>
      </trkpt>
      <trkpt lat="49.1835" lon="1.339">
        <ele>18.7</ele>
        <time>2015-05-31T06:07:48Z</time>
      </trkpt>
      <trkpt lat="49.18357" lon="1.33911">
        <ele>18.6</ele>
        <time>2015-05-31T06:07:50Z</time>
      </trkpt>
      <trkpt lat="49.18365" lon="1.33925">
        <ele>18.6</ele>
        <time>2015-05-31T06:07:53Z</time>
      </trkpt>
      <trkpt lat="49.18371" lon="1.33935">
        <ele>18.6</ele>
        <time>2015-05-31T06:07:56Z</time>
      </trkpt>
      <trkpt lat="49.18372" lon="1.33951">
        <ele>18.6</ele>
        <time>2015-05-31T06:08:02Z</time>
      </trkpt>
      <trkpt lat="49.18365" lon="1.33965">
        <ele>18.6</ele>
        <time>2015-05-31T06:08:06Z</time>
      </trkpt>
      <trkpt lat="49.18359" lon="1.33979">
        <ele>18.6</ele>
        <time>2015-05-31T06:08:09Z</time>
      </trkpt>
      <trkpt lat="49.18351" lon="1.33995">
        <ele>18.6</ele>
        <time>2015-05-31T06:08:12Z</time>
      </trkpt>
      <trkpt lat="49.18343" lon="1.34011">
        <ele>18.5</ele>
        <time>2015-05-31T06:08:15Z</time>
      </trkpt>
      <trkpt lat="49.18335" lon="1.34027">
        <ele>18.5</ele>
        <time>2015-05-31T06:08:18Z</time>
      </trkpt>
      <trkpt lat="49.18327" lon="1.34044">
        <ele>18.5</ele>
        <time>2015-05-31T06:08:21Z</time>
      </trkpt>
      <trkpt lat="49.1832" lon="1.3406">
        <ele>18.5</ele>
        <time>2015-05-31T06:08:24Z</time>
      </trkpt>
      <trkpt lat="49.18312" lon="1.34076">
        <ele>18.5</ele>
        <time>2015-05-31T06:08:27Z</time>
      </trkpt>
      <trkpt lat="49.18303" lon="1.34092">
        <ele>18.5</ele>
        <time>2015-05-31T06:08:30Z</time>
      </trkpt>
      <trkpt lat="49.18296" lon="1.34108">
        <ele>18.5</ele>
        <time>2015-05-31T06:08:33Z</time>
      </trkpt>
      <trkpt lat="49.1829" lon="1.34119">
        <ele>18.5</ele>
        <time>2015-05-31T06:08:35Z</time>
      </trkpt>
      <trkpt lat="49.18284" lon="1.34131">
        <ele>18.5</ele>
        <time>2015-05-31T06:08:37Z</time>
      </trkpt>
      <trkpt lat="49.18279" lon="1.34142">
        <ele>18.5</ele>
        <time>2015-05-31T06:08:39Z</time>
      </trkpt>
      <trkpt lat="49.18273" lon="1.34154">
        <ele>18.5</ele>
        <time>2015-05-31T06:08:41Z</time>
      </trkpt>
      <trkpt lat="49.18268" lon="1.34165">
        <ele>18.5</ele>
        <time>2015-05-31T06:08:43Z</time>
      </trkpt>
      <trkpt lat="49.18263" lon="1.34176">
        <ele>18.5</ele>
        <time>2015-05-31T06:08:45Z</time>
      </trkpt>
      <trkpt lat="49.18254" lon="1.34193">
        <ele>18.5</ele>
        <time>2015-05-31T06:08:48Z</time>
      </trkpt>
      <trkpt lat="49.18249" lon="1.34204">
        <ele>18.5</ele>
        <time>2015-05-31T06:08:50Z</time>
      </trkpt>
      <trkpt lat="49.18243" lon="1.34215">
        <ele>18.5</ele>
        <time>2015-05-31T06:08:52Z</time>
      </trkpt>
      <trkpt lat="49.18238" lon="1.34227">
        <ele>18.5</ele>
        <time>2015-05-31T06:08:54Z</time>
      </trkpt>
      <trkpt lat="49.18232" lon="1.34239">
        <ele>18.5</ele>
        <time>2015-05-31T06:08:56Z</time>
      </trkpt>
      <trkpt lat="49.18227" lon="1.34251">
        <ele>18.5</ele>
        <time>2015-05-31T06:08:58Z</time>
      </trkpt>
      <trkpt lat="49.18221" lon="1.34263">
        <ele>18.5</ele>
        <time>2015-05-31T06:09:00Z</time>
      </trkpt>
      <trkpt lat="49.18216" lon="1.34274">
        <ele>18.5</ele>
        <time>2015-05-31T06:09:02Z</time>
      </trkpt>
      <trkpt lat="49.1821" lon="1.34286">
        <ele>18.5</ele>
        <time>2015-05-31T06:09:04Z</time>
      </trkpt>
      <trkpt lat="49.18204" lon="1.34297">
        <ele>18.5</ele>
        <time>2015-05-31T06:09:06Z</time>
      </trkpt>
      <trkpt lat="49.18198" lon="1.34309">
        <ele>18.5</ele>
        <time>2015-05-31T06:09:08Z</time>
      </trkpt>
      <trkpt lat="49.18193" lon="1.3432">
        <ele>18.5</ele>
        <time>2015-05-31T06:09:10Z</time>
      </trkpt>
      <trkpt lat="49.18187" lon="1.34332">
        <ele>18.5</ele>
        <time>2015-05-31T06:09:12Z</time>
      </trkpt>
      <trkpt lat="49.18182" lon="1.34344">
        <ele>18.5</ele>
        <time>2015-05-31T06:09:14Z</time>
      </trkpt>
      <trkpt lat="49.18177" lon="1.34355">
        <ele>18.5</ele>
        <time>2015-05-31T06:09:16Z</time>
      </trkpt>
      <trkpt lat="49.18171" lon="1.34368">
        <ele>18.5</ele>
        <time>2015-05-31T06:09:18Z</time>
      </trkpt>
      <trkpt lat="49.18165" lon="1.34379">
        <ele>18.5</ele>
        <time>2015-05-31T06:09:20Z</time>
      </trkpt>
      <trkpt lat="49.1816" lon="1.34392">
        <ele>18.5</ele>
        <time>2015-05-31T06:09:22Z</time>
      </trkpt>
      <trkpt lat="49.18155" lon="1.34404">
        <ele>18.5</ele>
        <time>2015-05-31T06:09:24Z</time>
      </trkpt>
      <trkpt lat="49.1815" lon="1.34416">
        <ele>18.5</ele>
        <time>2015-05-31T06:09:26Z</time>
      </trkpt>
      <trkpt lat="49.18145" lon="1.34428">
        <ele>18.5</ele>
        <time>2015-05-31T06:09:28Z</time>
      </trkpt>
      <trkpt lat="49.1814" lon="1.3444">
        <ele>18.5</ele>
        <time>2015-05-31T06:09:30Z</time>
      </trkpt>
      <trkpt lat="49.18134" lon="1.34455">
        <ele>18.5</ele>
        <time>2015-05-31T06:09:33Z</time>
      </trkpt>
      <trkpt lat="49.18128" lon="1.34466">
        <ele>18.5</ele>
        <time>2015-05-31T06:09:35Z</time>
      </trkpt>
      <trkpt lat="49.18122" lon="1.3448">
        <ele>18.5</ele>
        <time>2015-05-31T06:09:37Z</time>
      </trkpt>
      <trkpt lat="49.18116" lon="1.34492">
        <ele>18.5</ele>
        <time>2015-05-31T06:09:39Z</time>
      </trkpt>
      <trkpt lat="49.1811" lon="1.34505">
        <ele>18.5</ele>
        <time>2015-05-31T06:09:41Z</time>
      </trkpt>
      <trkpt lat="49.18105" lon="1.34518">
        <ele>18.5</ele>
        <time>2015-05-31T06:09:43Z</time>
      </trkpt>
      <trkpt lat="49.181" lon="1.3453">
        <ele>18.5</ele>
        <time>2015-05-31T06:09:45Z</time>
      </trkpt>
      <trkpt lat="49.18095" lon="1.34542">
        <ele>18.5</ele>
        <time>2015-05-31T06:09:47Z</time>
      </trkpt>
      <trkpt lat="49.18088" lon="1.34558">
        <ele>18.5</ele>
        <time>2015-05-31T06:09:50Z</time>
      </trkpt>
      <trkpt lat="49.18084" lon="1.3457">
        <ele>18.5</ele>
        <time>2015-05-31T06:09:52Z</time>
      </trkpt>
      <trkpt lat="49.18079" lon="1.34583">
        <ele>18.5</ele>
        <time>2015-05-31T06:09:54Z</time>
      </trkpt>
      <trkpt lat="49.18074" lon="1.34595">
        <ele>18.5</ele>
        <time>2015-05-31T06:09:56Z</time>
      </trkpt>
      <trkpt lat="49.18069" lon="1.34608">
        <ele>18.5</ele>
        <time>2015-05-31T06:09:58Z</time>
      </trkpt>
      <trkpt lat="49.18065" lon="1.34621">
        <ele>18.5</ele>
        <time>2015-05-31T06:10:00Z</time>
      </trkpt>
      <trkpt lat="49.1806" lon="1.34633">
        <ele>18.5</ele>
        <time>2015-05-31T06:10:02Z</time>
      </trkpt>
      <trkpt lat="49.18054" lon="1.34646">
        <ele>18.5</ele>
        <time>2015-05-31T06:10:04Z</time>
      </trkpt>
      <trkpt lat="49.18049" lon="1.34659">
        <ele>18.5</ele>
        <time>2015-05-31T06:10:06Z</time>
      </trkpt>
      <trkpt lat="49.18044" lon="1.34672">
        <ele>18.5</ele>
        <time>2015-05-31T06:10:08Z</time>
      </trkpt>
      <trkpt lat="49.18039" lon="1.34684">
        <ele>18.5</ele>
        <time>2015-05-31T06:10:10Z</time>
      </trkpt>
      <trkpt lat="49.18034" lon="1.34696">
        <ele>18.5</ele>
        <time>2015-05-31T06:10:12Z</time>
      </trkpt>
      <trkpt lat="49.18029" lon="1.34709">
        <ele>18.5</ele>
        <time>2015-05-31T06:10:14Z</time>
      </trkpt>
      <trkpt lat="49.18025" lon="1.34723">
        <ele>18.5</ele>
        <time>2015-05-31T06:10:16Z</time>
      </trkpt>
      <trkpt lat="49.1802" lon="1.34736">
        <ele>18.5</ele>
        <time>2015-05-31T06:10:18Z</time>
      </trkpt>
      <trkpt lat="49.18016" lon="1.34749">
        <ele>18.5</ele>
        <time>2015-05-31T06:10:20Z</time>
      </trkpt>
      <trkpt lat="49.1801" lon="1.34768">
        <ele>18.5</ele>
        <time>2015-05-31T06:10:23Z</time>
      </trkpt>
      <trkpt lat="49.18004" lon="1.34786">
        <ele>18.5</ele>
        <time>2015-05-31T06:10:26Z</time>
      </trkpt>
      <trkpt lat="49.18" lon="1.34799">
        <ele>18.5</ele>
        <time>2015-05-31T06:10:28Z</time>
      </trkpt>
      <trkpt lat="49.17994" lon="1.34815">
        <ele>18.5</ele>
        <time>2015-05-31T06:10:31Z</time>
      </trkpt>
      <trkpt lat="49.17986" lon="1.34833">
        <ele>18.5</ele>
        <time>2015-05-31T06:10:34Z</time>
      </trkpt>
      <trkpt lat="49.17982" lon="1.34848">
        <ele>18.5</ele>
        <time>2015-05-31T06:10:36Z</time>
      </trkpt>
      <trkpt lat="49.17978" lon="1.34861">
        <ele>18.5</ele>
        <time>2015-05-31T06:10:38Z</time>
      </trkpt>
      <trkpt lat="49.17971" lon="1.34878">
        <ele>18.5</ele>
        <time>2015-05-31T06:10:41Z</time>
      </trkpt>
      <trkpt lat="49.17965" lon="1.34896">
        <ele>18.5</ele>
        <time>2015-05-31T06:10:44Z</time>
      </trkpt>
      <trkpt lat="49.17961" lon="1.3491">
        <ele>18.5</ele>
        <time>2015-05-31T06:10:46Z</time>
      </trkpt>
      <trkpt lat="49.17956" lon="1.34926">
        <ele>18.5</ele>
        <time>2015-05-31T06:10:48Z</time>
      </trkpt>
      <trkpt lat="49.17952" lon="1.34941">
        <ele>18.5</ele>
        <time>2015-05-31T06:10:50Z</time>
      </trkpt>
      <trkpt lat="49.17948" lon="1.34956">
        <ele>18.5</ele>
        <time>2015-05-31T06:10:52Z</time>
      </trkpt>
      <trkpt lat="49.17944" lon="1.34969">
        <ele>18.5</ele>
        <time>2015-05-31T06:10:54Z</time>
      </trkpt>
      <trkpt lat="49.17939" lon="1.34983">
        <ele>18.5</ele>
        <time>2015-05-31T06:10:56Z</time>
      </trkpt>
      <trkpt lat="49.17934" lon="1.34996">
        <ele>18.5</ele>
        <time>2015-05-31T06:10:58Z</time>
      </trkpt>
      <trkpt lat="49.17929" lon="1.3501">
        <ele>18.5</ele>
        <time>2015-05-31T06:11:00Z</time>
      </trkpt>
      <trkpt lat="49.17924" lon="1.35024">
        <ele>18.5</ele>
        <time>2015-05-31T06:11:02Z</time>
      </trkpt>
      <trkpt lat="49.17919" lon="1.35038">
        <ele>18.5</ele>
        <time>2015-05-31T06:11:04Z</time>
      </trkpt>
      <trkpt lat="49.17914" lon="1.35052">
        <ele>18.4</ele>
        <time>2015-05-31T06:11:06Z</time>
      </trkpt>
      <trkpt lat="49.1791" lon="1.35066">
        <ele>18.4</ele>
        <time>2015-05-31T06:11:08Z</time>
      </trkpt>
      <trkpt lat="49.17905" lon="1.3508">
        <ele>18.4</ele>
        <time>2015-05-31T06:11:10Z</time>
      </trkpt>
      <trkpt lat="49.179" lon="1.35099">
        <ele>18.3</ele>
        <time>2015-05-31T06:11:13Z</time>
      </trkpt>
      <trkpt lat="49.17893" lon="1.35117">
        <ele>18.3</ele>
        <time>2015-05-31T06:11:16Z</time>
      </trkpt>
      <trkpt lat="49.17888" lon="1.35131">
        <ele>18.3</ele>
        <time>2015-05-31T06:11:18Z</time>
      </trkpt>
      <trkpt lat="49.17884" lon="1.35145">
        <ele>18.2</ele>
        <time>2015-05-31T06:11:20Z</time>
      </trkpt>
      <trkpt lat="49.17881" lon="1.35159">
        <ele>18.2</ele>
        <time>2015-05-31T06:11:22Z</time>
      </trkpt>
      <trkpt lat="49.17877" lon="1.35173">
        <ele>18.2</ele>
        <time>2015-05-31T06:11:24Z</time>
      </trkpt>
      <trkpt lat="49.17873" lon="1.35187">
        <ele>18.2</ele>
        <time>2015-05-31T06:11:26Z</time>
      </trkpt>
      <trkpt lat="49.17869" lon="1.352">
        <ele>18.2</ele>
        <time>2015-05-31T06:11:28Z</time>
      </trkpt>
      <trkpt lat="49.17865" lon="1.35214">
        <ele>18.1</ele>
        <time>2015-05-31T06:11:30Z</time>
      </trkpt>
      <trkpt lat="49.17861" lon="1.35227">
        <ele>18.1</ele>
        <time>2015-05-31T06:11:32Z</time>
      </trkpt>
      <trkpt lat="49.17857" lon="1.35241">
        <ele>18.1</ele>
        <time>2015-05-31T06:11:34Z</time>
      </trkpt>
      <trkpt lat="49.17853" lon="1.35254">
        <ele>18</ele>
        <time>2015-05-31T06:11:36Z</time>
      </trkpt>
      <trkpt lat="49.1785" lon="1.35268">
        <ele>18</ele>
        <time>2015-05-31T06:11:38Z</time>
      </trkpt>
      <trkpt lat="49.17844" lon="1.35285">
        <ele>17.9</ele>
        <time>2015-05-31T06:11:41Z</time>
      </trkpt>
      <trkpt lat="49.1784" lon="1.35302">
        <ele>17.8</ele>
        <time>2015-05-31T06:11:44Z</time>
      </trkpt>
      <trkpt lat="49.17834" lon="1.35317">
        <ele>17.7</ele>
        <time>2015-05-31T06:11:47Z</time>
      </trkpt>
      <trkpt lat="49.17827" lon="1.35335">
        <ele>17.7</ele>
        <time>2015-05-31T06:11:50Z</time>
      </trkpt>
      <trkpt lat="49.17824" lon="1.35349">
        <ele>17.6</ele>
        <time>2015-05-31T06:11:52Z</time>
      </trkpt>
      <trkpt lat="49.17819" lon="1.35365">
        <ele>17.5</ele>
        <time>2015-05-31T06:11:54Z</time>
      </trkpt>
      <trkpt lat="49.17815" lon="1.3538">
        <ele>17.4</ele>
        <time>2015-05-31T06:11:56Z</time>
      </trkpt>
      <trkpt lat="49.17809" lon="1.35397">
        <ele>17.3</ele>
        <time>2015-05-31T06:11:59Z</time>
      </trkpt>
      <trkpt lat="49.17803" lon="1.35413">
        <ele>17.3</ele>
        <time>2015-05-31T06:12:02Z</time>
      </trkpt>
      <trkpt lat="49.17797" lon="1.35429">
        <ele>17.2</ele>
        <time>2015-05-31T06:12:05Z</time>
      </trkpt>
      <trkpt lat="49.17791" lon="1.35446">
        <ele>17.2</ele>
        <time>2015-05-31T06:12:08Z</time>
      </trkpt>
      <trkpt lat="49.17786" lon="1.35464">
        <ele>17.3</ele>
        <time>2015-05-31T06:12:11Z</time>
      </trkpt>
      <trkpt lat="49.1778" lon="1.35481">
        <ele>17.3</ele>
        <time>2015-05-31T06:12:14Z</time>
      </trkpt>
      <trkpt lat="49.17775" lon="1.355">
        <ele>17.3</ele>
        <time>2015-05-31T06:12:17Z</time>
      </trkpt>
      <trkpt lat="49.17771" lon="1.35512">
        <ele>17.3</ele>
        <time>2015-05-31T06:12:19Z</time>
      </trkpt>
      <trkpt lat="49.17767" lon="1.35525">
        <ele>17.3</ele>
        <time>2015-05-31T06:12:21Z</time>
      </trkpt>
      <trkpt lat="49.17761" lon="1.35543">
        <ele>17.4</ele>
        <time>2015-05-31T06:12:24Z</time>
      </trkpt>
      <trkpt lat="49.17754" lon="1.35561">
        <ele>17.4</ele>
        <time>2015-05-31T06:12:27Z</time>
      </trkpt>
      <trkpt lat="49.17748" lon="1.35579">
        <ele>17.5</ele>
        <time>2015-05-31T06:12:30Z</time>
      </trkpt>
      <trkpt lat="49.17744" lon="1.35592">
        <ele>17.6</ele>
        <time>2015-05-31T06:12:32Z</time>
      </trkpt>
      <trkpt lat="49.1774" lon="1.35605">
        <ele>17.6</ele>
        <time>2015-05-31T06:12:34Z</time>
      </trkpt>
      <trkpt lat="49.17736" lon="1.35618">
        <ele>17.7</ele>
        <time>2015-05-31T06:12:36Z</time>
      </trkpt>
      <trkpt lat="49.17731" lon="1.35631">
        <ele>17.7</ele>
        <time>2015-05-31T06:12:38Z</time>
      </trkpt>
      <trkpt lat="49.17726" lon="1.35643">
        <ele>17.7</ele>
        <time>2015-05-31T06:12:40Z</time>
      </trkpt>
      <trkpt lat="49.17722" lon="1.35657">
        <ele>17.8</ele>
        <time>2015-05-31T06:12:42Z</time>
      </trkpt>
      <trkpt lat="49.17717" lon="1.3567">
        <ele>17.8</ele>
        <time>2015-05-31T06:12:44Z</time>
      </trkpt>
      <trkpt lat="49.17713" lon="1.35683">
        <ele>17.8</ele>
        <time>2015-05-31T06:12:46Z</time>
      </trkpt>
      <trkpt lat="49.17709" lon="1.35695">
        <ele>17.9</ele>
        <time>2015-05-31T06:12:48Z</time>
      </trkpt>
      <trkpt lat="49.17703" lon="1.35712">
        <ele>17.9</ele>
        <time>2015-05-31T06:12:51Z</time>
      </trkpt>
      <trkpt lat="49.17697" lon="1.3573">
        <ele>17.9</ele>
        <time>2015-05-31T06:12:54Z</time>
      </trkpt>
      <trkpt lat="49.17693" lon="1.35743">
        <ele>17.9</ele>
        <time>2015-05-31T06:12:56Z</time>
      </trkpt>
      <trkpt lat="49.17688" lon="1.35755">
        <ele>17.9</ele>
        <time>2015-05-31T06:12:58Z</time>
      </trkpt>
      <trkpt lat="49.17683" lon="1.35767">
        <ele>17.9</ele>
        <time>2015-05-31T06:13:00Z</time>
      </trkpt>
      <trkpt lat="49.17679" lon="1.35779">
        <ele>18</ele>
        <time>2015-05-31T06:13:02Z</time>
      </trkpt>
      <trkpt lat="49.17673" lon="1.35797">
        <ele>18</ele>
        <time>2015-05-31T06:13:05Z</time>
      </trkpt>
      <trkpt lat="49.17667" lon="1.35815">
        <ele>18</ele>
        <time>2015-05-31T06:13:08Z</time>
      </trkpt>
      <trkpt lat="49.17662" lon="1.35828">
        <ele>18</ele>
        <time>2015-05-31T06:13:10Z</time>
      </trkpt>
      <trkpt lat="49.17658" lon="1.35842">
        <ele>18</ele>
        <time>2015-05-31T06:13:12Z</time>
      </trkpt>
      <trkpt lat="49.17655" lon="1.35855">
        <ele>18</ele>
        <time>2015-05-31T06:13:14Z</time>
      </trkpt>
      <trkpt lat="49.17649" lon="1.35874">
        <ele>18</ele>
        <time>2015-05-31T06:13:17Z</time>
      </trkpt>
      <trkpt lat="49.17645" lon="1.35887">
        <ele>18</ele>
        <time>2015-05-31T06:13:19Z</time>
      </trkpt>
      <trkpt lat="49.1764" lon="1.359">
        <ele>18</ele>
        <time>2015-05-31T06:13:21Z</time>
      </trkpt>
      <trkpt lat="49.17636" lon="1.35914">
        <ele>18</ele>
        <time>2015-05-31T06:13:23Z</time>
      </trkpt>
      <trkpt lat="49.17632" lon="1.35928">
        <ele>18</ele>
        <time>2015-05-31T06:13:25Z</time>
      </trkpt>
      <trkpt lat="49.17628" lon="1.35942">
        <ele>18</ele>
        <time>2015-05-31T06:13:27Z</time>
      </trkpt>
      <trkpt lat="49.17624" lon="1.35955">
        <ele>18</ele>
        <time>2015-05-31T06:13:29Z</time>
      </trkpt>
      <trkpt lat="49.17619" lon="1.3597">
        <ele>18</ele>
        <time>2015-05-31T06:13:31Z</time>
      </trkpt>
      <trkpt lat="49.17616" lon="1.35985">
        <ele>18</ele>
        <time>2015-05-31T06:13:33Z</time>
      </trkpt>
      <trkpt lat="49.17613" lon="1.36">
        <ele>18</ele>
        <time>2015-05-31T06:13:35Z</time>
      </trkpt>
      <trkpt lat="49.17615" lon="1.36017">
        <ele>18</ele>
        <time>2015-05-31T06:13:38Z</time>
      </trkpt>
      <trkpt lat="49.17617" lon="1.36032">
        <ele>18</ele>
        <time>2015-05-31T06:13:41Z</time>
      </trkpt>
      <trkpt lat="49.1761" lon="1.36046">
        <ele>18.1</ele>
        <time>2015-05-31T06:13:44Z</time>
      </trkpt>
      <trkpt lat="49.17603" lon="1.36059">
        <ele>18.2</ele>
        <time>2015-05-31T06:13:46Z</time>
      </trkpt>
      <trkpt lat="49.17597" lon="1.36073">
        <ele>18.2</ele>
        <time>2015-05-31T06:13:48Z</time>
      </trkpt>
      <trkpt lat="49.17592" lon="1.3609">
        <ele>18.2</ele>
        <time>2015-05-31T06:13:50Z</time>
      </trkpt>
      <trkpt lat="49.17588" lon="1.36109">
        <ele>18.3</ele>
        <time>2015-05-31T06:13:52Z</time>
      </trkpt>
      <trkpt lat="49.17585" lon="1.36126">
        <ele>18.3</ele>
        <time>2015-05-31T06:13:54Z</time>
      </trkpt>
      <trkpt lat="49.17581" lon="1.36142">
        <ele>18.3</ele>
        <time>2015-05-31T06:13:56Z</time>
      </trkpt>
      <trkpt lat="49.17576" lon="1.36159">
        <ele>18.3</ele>
        <time>2015-05-31T06:13:58Z</time>
      </trkpt>
      <trkpt lat="49.17571" lon="1.36175">
        <ele>18.4</ele>
        <time>2015-05-31T06:14:00Z</time>
      </trkpt>
      <trkpt lat="49.17568" lon="1.36193">
        <ele>18.4</ele>
        <time>2015-05-31T06:14:02Z</time>
      </trkpt>
      <trkpt lat="49.17565" lon="1.36209">
        <ele>18.4</ele>
        <time>2015-05-31T06:14:04Z</time>
      </trkpt>
      <trkpt lat="49.17562" lon="1.36227">
        <ele>18.3</ele>
        <time>2015-05-31T06:14:06Z</time>
      </trkpt>
      <trkpt lat="49.17557" lon="1.36243">
        <ele>18.3</ele>
        <time>2015-05-31T06:14:08Z</time>
      </trkpt>
      <trkpt lat="49.17553" lon="1.3626">
        <ele>18.3</ele>
        <time>2015-05-31T06:14:10Z</time>
      </trkpt>
      <trkpt lat="49.17549" lon="1.36279">
        <ele>18.3</ele>
        <time>2015-05-31T06:14:12Z</time>
      </trkpt>
      <trkpt lat="49.17546" lon="1.36297">
        <ele>18.3</ele>
        <time>2015-05-31T06:14:14Z</time>
      </trkpt>
      <trkpt lat="49.17542" lon="1.36314">
        <ele>18.3</ele>
        <time>2015-05-31T06:14:16Z</time>
      </trkpt>
      <trkpt lat="49.17539" lon="1.3633">
        <ele>18.3</ele>
        <time>2015-05-31T06:14:18Z</time>
      </trkpt>
      <trkpt lat="49.17535" lon="1.36348">
        <ele>18.3</ele>
        <time>2015-05-31T06:14:21Z</time>
      </trkpt>
      <trkpt lat="49.17533" lon="1.36365">
        <ele>18.3</ele>
        <time>2015-05-31T06:14:23Z</time>
      </trkpt>
      <trkpt lat="49.17532" lon="1.3638">
        <ele>18.3</ele>
        <time>2015-05-31T06:14:25Z</time>
      </trkpt>
      <trkpt lat="49.1753" lon="1.36394">
        <ele>18.3</ele>
        <time>2015-05-31T06:14:27Z</time>
      </trkpt>
      <trkpt lat="49.17526" lon="1.36413">
        <ele>18.3</ele>
        <time>2015-05-31T06:14:29Z</time>
      </trkpt>
      <trkpt lat="49.17521" lon="1.36432">
        <ele>18.3</ele>
        <time>2015-05-31T06:14:31Z</time>
      </trkpt>
      <trkpt lat="49.17519" lon="1.36448">
        <ele>18.3</ele>
        <time>2015-05-31T06:14:33Z</time>
      </trkpt>
      <trkpt lat="49.17517" lon="1.36464">
        <ele>18.3</ele>
        <time>2015-05-31T06:14:35Z</time>
      </trkpt>
      <trkpt lat="49.17514" lon="1.36483">
        <ele>18.3</ele>
        <time>2015-05-31T06:14:37Z</time>
      </trkpt>
      <trkpt lat="49.17511" lon="1.36502">
        <ele>18.3</ele>
        <time>2015-05-31T06:14:39Z</time>
      </trkpt>
      <trkpt lat="49.17508" lon="1.3652">
        <ele>18.3</ele>
        <time>2015-05-31T06:14:41Z</time>
      </trkpt>
      <trkpt lat="49.17505" lon="1.36537">
        <ele>18.3</ele>
        <time>2015-05-31T06:14:43Z</time>
      </trkpt>
      <trkpt lat="49.17502" lon="1.36554">
        <ele>18.3</ele>
        <time>2015-05-31T06:14:45Z</time>
      </trkpt>
      <trkpt lat="49.175" lon="1.36569">
        <ele>18.3</ele>
        <time>2015-05-31T06:14:47Z</time>
      </trkpt>
      <trkpt lat="49.17497" lon="1.36584">
        <ele>18.3</ele>
        <time>2015-05-31T06:14:49Z</time>
      </trkpt>
      <trkpt lat="49.17496" lon="1.36599">
        <ele>18.3</ele>
        <time>2015-05-31T06:14:51Z</time>
      </trkpt>
      <trkpt lat="49.17494" lon="1.36614">
        <ele>18.3</ele>
        <time>2015-05-31T06:14:53Z</time>
      </trkpt>
      <trkpt lat="49.17492" lon="1.36635">
        <ele>18.4</ele>
        <time>2015-05-31T06:14:56Z</time>
      </trkpt>
      <trkpt lat="49.1749" lon="1.36652">
        <ele>18.5</ele>
        <time>2015-05-31T06:14:59Z</time>
      </trkpt>
      <trkpt lat="49.17488" lon="1.36671">
        <ele>18.5</ele>
        <time>2015-05-31T06:15:02Z</time>
      </trkpt>
      <trkpt lat="49.17487" lon="1.36688">
        <ele>18.6</ele>
        <time>2015-05-31T06:15:05Z</time>
      </trkpt>
      <trkpt lat="49.17484" lon="1.36704">
        <ele>18.6</ele>
        <time>2015-05-31T06:15:07Z</time>
      </trkpt>
      <trkpt lat="49.17482" lon="1.36722">
        <ele>18.7</ele>
        <time>2015-05-31T06:15:09Z</time>
      </trkpt>
      <trkpt lat="49.17478" lon="1.36744">
        <ele>18.7</ele>
        <time>2015-05-31T06:15:11Z</time>
      </trkpt>
      <trkpt lat="49.17475" lon="1.36767">
        <ele>18.8</ele>
        <time>2015-05-31T06:15:13Z</time>
      </trkpt>
      <trkpt lat="49.1747" lon="1.36786">
        <ele>18.8</ele>
        <time>2015-05-31T06:15:15Z</time>
      </trkpt>
      <trkpt lat="49.17467" lon="1.36805">
        <ele>18.9</ele>
        <time>2015-05-31T06:15:17Z</time>
      </trkpt>
      <trkpt lat="49.17463" lon="1.36824">
        <ele>18.9</ele>
        <time>2015-05-31T06:15:19Z</time>
      </trkpt>
      <trkpt lat="49.1746" lon="1.36843">
        <ele>18.9</ele>
        <time>2015-05-31T06:15:21Z</time>
      </trkpt>
      <trkpt lat="49.17457" lon="1.36861">
        <ele>18.9</ele>
        <time>2015-05-31T06:15:23Z</time>
      </trkpt>
      <trkpt lat="49.17455" lon="1.36879">
        <ele>19</ele>
        <time>2015-05-31T06:15:25Z</time>
      </trkpt>
      <trkpt lat="49.17452" lon="1.36897">
        <ele>19</ele>
        <time>2015-05-31T06:15:27Z</time>
      </trkpt>
      <trkpt lat="49.1745" lon="1.36915">
        <ele>19</ele>
        <time>2015-05-31T06:15:29Z</time>
      </trkpt>
      <trkpt lat="49.17448" lon="1.36931">
        <ele>19</ele>
        <time>2015-05-31T06:15:31Z</time>
      </trkpt>
      <trkpt lat="49.17444" lon="1.36945">
        <ele>19</ele>
        <time>2015-05-31T06:15:33Z</time>
      </trkpt>
      <trkpt lat="49.17441" lon="1.36958">
        <ele>19</ele>
        <time>2015-05-31T06:15:35Z</time>
      </trkpt>
      <trkpt lat="49.17436" lon="1.36976">
        <ele>19</ele>
        <time>2015-05-31T06:15:37Z</time>
      </trkpt>
      <trkpt lat="49.17433" lon="1.36993">
        <ele>19</ele>
        <time>2015-05-31T06:15:39Z</time>
      </trkpt>
      <trkpt lat="49.17429" lon="1.3701">
        <ele>19.1</ele>
        <time>2015-05-31T06:15:41Z</time>
      </trkpt>
      <trkpt lat="49.17425" lon="1.37026">
        <ele>19.1</ele>
        <time>2015-05-31T06:15:43Z</time>
      </trkpt>
      <trkpt lat="49.1742" lon="1.37043">
        <ele>19.1</ele>
        <time>2015-05-31T06:15:45Z</time>
      </trkpt>
      <trkpt lat="49.17416" lon="1.37058">
        <ele>19.1</ele>
        <time>2015-05-31T06:15:47Z</time>
      </trkpt>
      <trkpt lat="49.17414" lon="1.37074">
        <ele>19</ele>
        <time>2015-05-31T06:15:49Z</time>
      </trkpt>
      <trkpt lat="49.17409" lon="1.37089">
        <ele>19</ele>
        <time>2015-05-31T06:15:51Z</time>
      </trkpt>
      <trkpt lat="49.17405" lon="1.37103">
        <ele>18.9</ele>
        <time>2015-05-31T06:15:53Z</time>
      </trkpt>
      <trkpt lat="49.17401" lon="1.37119">
        <ele>18.8</ele>
        <time>2015-05-31T06:15:55Z</time>
      </trkpt>
      <trkpt lat="49.17396" lon="1.37134">
        <ele>18.8</ele>
        <time>2015-05-31T06:15:57Z</time>
      </trkpt>
      <trkpt lat="49.17392" lon="1.37149">
        <ele>18.8</ele>
        <time>2015-05-31T06:15:59Z</time>
      </trkpt>
      <trkpt lat="49.17385" lon="1.37164">
        <ele>18.7</ele>
        <time>2015-05-31T06:16:01Z</time>
      </trkpt>
      <trkpt lat="49.17379" lon="1.37177">
        <ele>18.7</ele>
        <time>2015-05-31T06:16:03Z</time>
      </trkpt>
      <trkpt lat="49.17373" lon="1.37193">
        <ele>18.7</ele>
        <time>2015-05-31T06:16:05Z</time>
      </trkpt>
      <trkpt lat="49.17367" lon="1.37206">
        <ele>18.6</ele>
        <time>2015-05-31T06:16:07Z</time>
      </trkpt>
      <trkpt lat="49.1736" lon="1.37217">
        <ele>18.6</ele>
        <time>2015-05-31T06:16:09Z</time>
      </trkpt>
      <trkpt lat="49.17352" lon="1.3723">
        <ele>18.6</ele>
        <time>2015-05-31T06:16:12Z</time>
      </trkpt>
      <trkpt lat="49.17345" lon="1.37245">
        <ele>18.6</ele>
        <time>2015-05-31T06:16:14Z</time>
      </trkpt>
      <trkpt lat="49.17337" lon="1.37257">
        <ele>18.5</ele>
        <time>2015-05-31T06:16:16Z</time>
      </trkpt>
      <trkpt lat="49.17327" lon="1.37273">
        <ele>18.5</ele>
        <time>2015-05-31T06:16:19Z</time>
      </trkpt>
      <trkpt lat="49.17316" lon="1.37288">
        <ele>18.5</ele>
        <time>2015-05-31T06:16:22Z</time>
      </trkpt>
      <trkpt lat="49.17311" lon="1.37302">
        <ele>18.5</ele>
        <time>2015-05-31T06:16:24Z</time>
      </trkpt>
      <trkpt lat="49.17303" lon="1.37316">
        <ele>18.5</ele>
        <time>2015-05-31T06:16:26Z</time>
      </trkpt>
      <trkpt lat="49.17295" lon="1.37331">
        <ele>18.5</ele>
        <time>2015-05-31T06:16:28Z</time>
      </trkpt>
      <trkpt lat="49.17285" lon="1.37347">
        <ele>18.5</ele>
        <time>2015-05-31T06:16:30Z</time>
      </trkpt>
      <trkpt lat="49.17276" lon="1.37364">
        <ele>18.5</ele>
        <time>2015-05-31T06:16:32Z</time>
      </trkpt>
      <trkpt lat="49.17269" lon="1.37378">
        <ele>18.5</ele>
        <time>2015-05-31T06:16:34Z</time>
      </trkpt>
      <trkpt lat="49.17263" lon="1.37389">
        <ele>18.5</ele>
        <time>2015-05-31T06:16:36Z</time>
      </trkpt>
      <trkpt lat="49.17255" lon="1.37403">
        <ele>18.5</ele>
        <time>2015-05-31T06:16:38Z</time>
      </trkpt>
      <trkpt lat="49.17249" lon="1.37416">
        <ele>18.5</ele>
        <time>2015-05-31T06:16:40Z</time>
      </trkpt>
      <trkpt lat="49.17241" lon="1.3743">
        <ele>18.5</ele>
        <time>2015-05-31T06:16:42Z</time>
      </trkpt>
      <trkpt lat="49.17235" lon="1.37443">
        <ele>18.5</ele>
        <time>2015-05-31T06:16:44Z</time>
      </trkpt>
      <trkpt lat="49.17228" lon="1.37455">
        <ele>18.5</ele>
        <time>2015-05-31T06:16:46Z</time>
      </trkpt>
      <trkpt lat="49.17221" lon="1.37471">
        <ele>18.5</ele>
        <time>2015-05-31T06:16:48Z</time>
      </trkpt>
      <trkpt lat="49.17215" lon="1.37486">
        <ele>18.5</ele>
        <time>2015-05-31T06:16:50Z</time>
      </trkpt>
      <trkpt lat="49.17208" lon="1.375">
        <ele>18.5</ele>
        <time>2015-05-31T06:16:52Z</time>
      </trkpt>
      <trkpt lat="49.17201" lon="1.37513">
        <ele>18.4</ele>
        <time>2015-05-31T06:16:54Z</time>
      </trkpt>
      <trkpt lat="49.17194" lon="1.37524">
        <ele>18.4</ele>
        <time>2015-05-31T06:16:56Z</time>
      </trkpt>
      <trkpt lat="49.17187" lon="1.37538">
        <ele>18.4</ele>
        <time>2015-05-31T06:16:58Z</time>
      </trkpt>
      <trkpt lat="49.17181" lon="1.37552">
        <ele>18.4</ele>
        <time>2015-05-31T06:17:00Z</time>
      </trkpt>
      <trkpt lat="49.17174" lon="1.37563">
        <ele>18.4</ele>
        <time>2015-05-31T06:17:02Z</time>
      </trkpt>
      <trkpt lat="49.17168" lon="1.37576">
        <ele>18.5</ele>
        <time>2015-05-31T06:17:04Z</time>
      </trkpt>
      <trkpt lat="49.17162" lon="1.37589">
        <ele>18.6</ele>
        <time>2015-05-31T06:17:06Z</time>
      </trkpt>
      <trkpt lat="49.17155" lon="1.37604">
        <ele>18.6</ele>
        <time>2015-05-31T06:17:09Z</time>
      </trkpt>
      <trkpt lat="49.17148" lon="1.37622">
        <ele>18.7</ele>
        <time>2015-05-31T06:17:12Z</time>
      </trkpt>
      <trkpt lat="49.17143" lon="1.37634">
        <ele>18.7</ele>
        <time>2015-05-31T06:17:14Z</time>
      </trkpt>
      <trkpt lat="49.17137" lon="1.37647">
        <ele>18.8</ele>
        <time>2015-05-31T06:17:16Z</time>
      </trkpt>
      <trkpt lat="49.17132" lon="1.37659">
        <ele>18.8</ele>
        <time>2015-05-31T06:17:18Z</time>
      </trkpt>
      <trkpt lat="49.17124" lon="1.37675">
        <ele>18.9</ele>
        <time>2015-05-31T06:17:21Z</time>
      </trkpt>
      <trkpt lat="49.17116" lon="1.37692">
        <ele>19</ele>
        <time>2015-05-31T06:17:24Z</time>
      </trkpt>
      <trkpt lat="49.17111" lon="1.37703">
        <ele>19</ele>
        <time>2015-05-31T06:17:26Z</time>
      </trkpt>
      <trkpt lat="49.17105" lon="1.37714">
        <ele>19</ele>
        <time>2015-05-31T06:17:28Z</time>
      </trkpt>
      <trkpt lat="49.17099" lon="1.37726">
        <ele>19.1</ele>
        <time>2015-05-31T06:17:30Z</time>
      </trkpt>
      <trkpt lat="49.17093" lon="1.37738">
        <ele>19.1</ele>
        <time>2015-05-31T06:17:32Z</time>
      </trkpt>
      <trkpt lat="49.17086" lon="1.3775">
        <ele>19.1</ele>
        <time>2015-05-31T06:17:34Z</time>
      </trkpt>
      <trkpt lat="49.1708" lon="1.37763">
        <ele>19.1</ele>
        <time>2015-05-31T06:17:36Z</time>
      </trkpt>
      <trkpt lat="49.17075" lon="1.37776">
        <ele>19.1</ele>
        <time>2015-05-31T06:17:38Z</time>
      </trkpt>
      <trkpt lat="49.17069" lon="1.37788">
        <ele>19.2</ele>
        <time>2015-05-31T06:17:40Z</time>
      </trkpt>
      <trkpt lat="49.17064" lon="1.37801">
        <ele>19.2</ele>
        <time>2015-05-31T06:17:42Z</time>
      </trkpt>
      <trkpt lat="49.17056" lon="1.37814">
        <ele>19.2</ele>
        <time>2015-05-31T06:17:44Z</time>
      </trkpt>
      <trkpt lat="49.1705" lon="1.37827">
        <ele>19.2</ele>
        <time>2015-05-31T06:17:46Z</time>
      </trkpt>
      <trkpt lat="49.17043" lon="1.3784">
        <ele>19.3</ele>
        <time>2015-05-31T06:17:48Z</time>
      </trkpt>
      <trkpt lat="49.17037" lon="1.37853">
        <ele>19.5</ele>
        <time>2015-05-31T06:17:50Z</time>
      </trkpt>
      <trkpt lat="49.17031" lon="1.37866">
        <ele>19.6</ele>
        <time>2015-05-31T06:17:52Z</time>
      </trkpt>
      <trkpt lat="49.17025" lon="1.37879">
        <ele>19.6</ele>
        <time>2015-05-31T06:17:54Z</time>
      </trkpt>
      <trkpt lat="49.17018" lon="1.37892">
        <ele>19.7</ele>
        <time>2015-05-31T06:17:56Z</time>
      </trkpt>
      <trkpt lat="49.17012" lon="1.37906">
        <ele>19.8</ele>
        <time>2015-05-31T06:17:58Z</time>
      </trkpt>
      <trkpt lat="49.17006" lon="1.37919">
        <ele>19.8</ele>
        <time>2015-05-31T06:18:00Z</time>
      </trkpt>
      <trkpt lat="49.16999" lon="1.37933">
        <ele>19.9</ele>
        <time>2015-05-31T06:18:02Z</time>
      </trkpt>
      <trkpt lat="49.16991" lon="1.37945">
        <ele>19.9</ele>
        <time>2015-05-31T06:18:04Z</time>
      </trkpt>
      <trkpt lat="49.16983" lon="1.37958">
        <ele>20</ele>
        <time>2015-05-31T06:18:06Z</time>
      </trkpt>
      <trkpt lat="49.16976" lon="1.37971">
        <ele>20</ele>
        <time>2015-05-31T06:18:08Z</time>
      </trkpt>
      <trkpt lat="49.16969" lon="1.37985">
        <ele>20</ele>
        <time>2015-05-31T06:18:10Z</time>
      </trkpt>
      <trkpt lat="49.16964" lon="1.37999">
        <ele>20</ele>
        <time>2015-05-31T06:18:12Z</time>
      </trkpt>
      <trkpt lat="49.16959" lon="1.38013">
        <ele>19.9</ele>
        <time>2015-05-31T06:18:14Z</time>
      </trkpt>
      <trkpt lat="49.16953" lon="1.38027">
        <ele>19.9</ele>
        <time>2015-05-31T06:18:16Z</time>
      </trkpt>
      <trkpt lat="49.16947" lon="1.38042">
        <ele>19.9</ele>
        <time>2015-05-31T06:18:18Z</time>
      </trkpt>
      <trkpt lat="49.16942" lon="1.38056">
        <ele>19.9</ele>
        <time>2015-05-31T06:18:20Z</time>
      </trkpt>
      <trkpt lat="49.16936" lon="1.3807">
        <ele>19.9</ele>
        <time>2015-05-31T06:18:22Z</time>
      </trkpt>
      <trkpt lat="49.1693" lon="1.38085">
        <ele>19.9</ele>
        <time>2015-05-31T06:18:24Z</time>
      </trkpt>
      <trkpt lat="49.16924" lon="1.38099">
        <ele>19.9</ele>
        <time>2015-05-31T06:18:26Z</time>
      </trkpt>
      <trkpt lat="49.16918" lon="1.38113">
        <ele>19.8</ele>
        <time>2015-05-31T06:18:28Z</time>
      </trkpt>
      <trkpt lat="49.16912" lon="1.38128">
        <ele>19.8</ele>
        <time>2015-05-31T06:18:30Z</time>
      </trkpt>
      <trkpt lat="49.16906" lon="1.38143">
        <ele>19.7</ele>
        <time>2015-05-31T06:18:32Z</time>
      </trkpt>
      <trkpt lat="49.16901" lon="1.38158">
        <ele>19.7</ele>
        <time>2015-05-31T06:18:34Z</time>
      </trkpt>
      <trkpt lat="49.16895" lon="1.38173">
        <ele>19.6</ele>
        <time>2015-05-31T06:18:36Z</time>
      </trkpt>
      <trkpt lat="49.16889" lon="1.38187">
        <ele>19.5</ele>
        <time>2015-05-31T06:18:38Z</time>
      </trkpt>
      <trkpt lat="49.16883" lon="1.38202">
        <ele>19.5</ele>
        <time>2015-05-31T06:18:40Z</time>
      </trkpt>
      <trkpt lat="49.16877" lon="1.38216">
        <ele>19.4</ele>
        <time>2015-05-31T06:18:42Z</time>
      </trkpt>
      <trkpt lat="49.1687" lon="1.3823">
        <ele>19.4</ele>
        <time>2015-05-31T06:18:44Z</time>
      </trkpt>
      <trkpt lat="49.16865" lon="1.38244">
        <ele>19.4</ele>
        <time>2015-05-31T06:18:46Z</time>
      </trkpt>
      <trkpt lat="49.16857" lon="1.38259">
        <ele>19.3</ele>
        <time>2015-05-31T06:18:49Z</time>
      </trkpt>
      <trkpt lat="49.16851" lon="1.38273">
        <ele>19.3</ele>
        <time>2015-05-31T06:18:52Z</time>
      </trkpt>
      <trkpt lat="49.16846" lon="1.38285">
        <ele>19.2</ele>
        <time>2015-05-31T06:18:55Z</time>
      </trkpt>
      <trkpt lat="49.1684" lon="1.383">
        <ele>19.2</ele>
        <time>2015-05-31T06:18:58Z</time>
      </trkpt>
      <trkpt lat="49.16834" lon="1.38312">
        <ele>19.2</ele>
        <time>2015-05-31T06:19:00Z</time>
      </trkpt>
      <trkpt lat="49.16828" lon="1.38326">
        <ele>19.2</ele>
        <time>2015-05-31T06:19:02Z</time>
      </trkpt>
      <trkpt lat="49.16823" lon="1.38339">
        <ele>19.2</ele>
        <time>2015-05-31T06:19:04Z</time>
      </trkpt>
      <trkpt lat="49.16818" lon="1.38352">
        <ele>19.2</ele>
        <time>2015-05-31T06:19:06Z</time>
      </trkpt>
      <trkpt lat="49.16813" lon="1.38364">
        <ele>19.2</ele>
        <time>2015-05-31T06:19:08Z</time>
      </trkpt>
      <trkpt lat="49.16807" lon="1.38377">
        <ele>19.2</ele>
        <time>2015-05-31T06:19:10Z</time>
      </trkpt>
      <trkpt lat="49.16802" lon="1.38389">
        <ele>19.2</ele>
        <time>2015-05-31T06:19:12Z</time>
      </trkpt>
      <trkpt lat="49.16796" lon="1.38401">
        <ele>19.1</ele>
        <time>2015-05-31T06:19:14Z</time>
      </trkpt>
      <trkpt lat="49.16791" lon="1.38413">
        <ele>19.1</ele>
        <time>2015-05-31T06:19:16Z</time>
      </trkpt>
      <trkpt lat="49.16785" lon="1.38425">
        <ele>19.1</ele>
        <time>2015-05-31T06:19:18Z</time>
      </trkpt>
      <trkpt lat="49.1678" lon="1.38438">
        <ele>19.1</ele>
        <time>2015-05-31T06:19:20Z</time>
      </trkpt>
      <trkpt lat="49.16774" lon="1.38451">
        <ele>19.1</ele>
        <time>2015-05-31T06:19:22Z</time>
      </trkpt>
      <trkpt lat="49.16769" lon="1.38463">
        <ele>19.1</ele>
        <time>2015-05-31T06:19:24Z</time>
      </trkpt>
      <trkpt lat="49.16763" lon="1.38476">
        <ele>19.1</ele>
        <time>2015-05-31T06:19:26Z</time>
      </trkpt>
      <trkpt lat="49.16758" lon="1.38488">
        <ele>19.1</ele>
        <time>2015-05-31T06:19:28Z</time>
      </trkpt>
      <trkpt lat="49.16752" lon="1.38501">
        <ele>19.1</ele>
        <time>2015-05-31T06:19:30Z</time>
      </trkpt>
      <trkpt lat="49.16747" lon="1.38514">
        <ele>19.1</ele>
        <time>2015-05-31T06:19:32Z</time>
      </trkpt>
      <trkpt lat="49.16741" lon="1.38526">
        <ele>19.1</ele>
        <time>2015-05-31T06:19:34Z</time>
      </trkpt>
      <trkpt lat="49.16735" lon="1.38537">
        <ele>19.2</ele>
        <time>2015-05-31T06:19:36Z</time>
      </trkpt>
      <trkpt lat="49.16727" lon="1.38553">
        <ele>19.2</ele>
        <time>2015-05-31T06:19:39Z</time>
      </trkpt>
      <trkpt lat="49.16719" lon="1.3857">
        <ele>19.3</ele>
        <time>2015-05-31T06:19:42Z</time>
      </trkpt>
      <trkpt lat="49.16711" lon="1.38586">
        <ele>19.5</ele>
        <time>2015-05-31T06:19:45Z</time>
      </trkpt>
      <trkpt lat="49.16706" lon="1.38598">
        <ele>19.6</ele>
        <time>2015-05-31T06:19:47Z</time>
      </trkpt>
      <trkpt lat="49.167" lon="1.3861">
        <ele>19.6</ele>
        <time>2015-05-31T06:19:49Z</time>
      </trkpt>
      <trkpt lat="49.16694" lon="1.38622">
        <ele>19.7</ele>
        <time>2015-05-31T06:19:51Z</time>
      </trkpt>
      <trkpt lat="49.16689" lon="1.38635">
        <ele>19.8</ele>
        <time>2015-05-31T06:19:53Z</time>
      </trkpt>
      <trkpt lat="49.16684" lon="1.38647">
        <ele>19.9</ele>
        <time>2015-05-31T06:19:55Z</time>
      </trkpt>
      <trkpt lat="49.16679" lon="1.38659">
        <ele>19.9</ele>
        <time>2015-05-31T06:19:57Z</time>
      </trkpt>
      <trkpt lat="49.16673" lon="1.38671">
        <ele>19.9</ele>
        <time>2015-05-31T06:19:59Z</time>
      </trkpt>
      <trkpt lat="49.16667" lon="1.38684">
        <ele>20</ele>
        <time>2015-05-31T06:20:01Z</time>
      </trkpt>
      <trkpt lat="49.16661" lon="1.38696">
        <ele>20</ele>
        <time>2015-05-31T06:20:03Z</time>
      </trkpt>
      <trkpt lat="49.16656" lon="1.38709">
        <ele>20.1</ele>
        <time>2015-05-31T06:20:05Z</time>
      </trkpt>
      <trkpt lat="49.1665" lon="1.38721">
        <ele>20.1</ele>
        <time>2015-05-31T06:20:07Z</time>
      </trkpt>
      <trkpt lat="49.16643" lon="1.38733">
        <ele>20.1</ele>
        <time>2015-05-31T06:20:09Z</time>
      </trkpt>
      <trkpt lat="49.16638" lon="1.38746">
        <ele>20.1</ele>
        <time>2015-05-31T06:20:11Z</time>
      </trkpt>
      <trkpt lat="49.16633" lon="1.38758">
        <ele>20.1</ele>
        <time>2015-05-31T06:20:13Z</time>
      </trkpt>
      <trkpt lat="49.16628" lon="1.38771">
        <ele>20.2</ele>
        <time>2015-05-31T06:20:15Z</time>
      </trkpt>
      <trkpt lat="49.16623" lon="1.38784">
        <ele>20.2</ele>
        <time>2015-05-31T06:20:17Z</time>
      </trkpt>
      <trkpt lat="49.16618" lon="1.38797">
        <ele>20.2</ele>
        <time>2015-05-31T06:20:19Z</time>
      </trkpt>
      <trkpt lat="49.16613" lon="1.38809">
        <ele>20.2</ele>
        <time>2015-05-31T06:20:21Z</time>
      </trkpt>
      <trkpt lat="49.16602" lon="1.38818">
        <ele>20.2</ele>
        <time>2015-05-31T06:20:24Z</time>
      </trkpt>
      <trkpt lat="49.16593" lon="1.38812">
        <ele>20.2</ele>
        <time>2015-05-31T06:20:26Z</time>
      </trkpt>
      <trkpt lat="49.16582" lon="1.38799">
        <ele>20.2</ele>
        <time>2015-05-31T06:20:29Z</time>
      </trkpt>
      <trkpt lat="49.16572" lon="1.38787">
        <ele>20.3</ele>
        <time>2015-05-31T06:20:32Z</time>
      </trkpt>
      <trkpt lat="49.16562" lon="1.38775">
        <ele>20.6</ele>
        <time>2015-05-31T06:20:35Z</time>
      </trkpt>
      <trkpt lat="49.16551" lon="1.38764">
        <ele>20.8</ele>
        <time>2015-05-31T06:20:38Z</time>
      </trkpt>
      <trkpt lat="49.16541" lon="1.38752">
        <ele>21.1</ele>
        <time>2015-05-31T06:20:41Z</time>
      </trkpt>
      <trkpt lat="49.16532" lon="1.38741">
        <ele>21.4</ele>
        <time>2015-05-31T06:20:44Z</time>
      </trkpt>
      <trkpt lat="49.16522" lon="1.3873">
        <ele>21.7</ele>
        <time>2015-05-31T06:20:47Z</time>
      </trkpt>
      <trkpt lat="49.16514" lon="1.38722">
        <ele>22</ele>
        <time>2015-05-31T06:20:50Z</time>
      </trkpt>
      <trkpt lat="49.16505" lon="1.38717">
        <ele>22.4</ele>
        <time>2015-05-31T06:20:54Z</time>
      </trkpt>
      <trkpt lat="49.16493" lon="1.38711">
        <ele>22.7</ele>
        <time>2015-05-31T06:20:57Z</time>
      </trkpt>
      <trkpt lat="49.16484" lon="1.38706">
        <ele>22.9</ele>
        <time>2015-05-31T06:20:59Z</time>
      </trkpt>
      <trkpt lat="49.16476" lon="1.387">
        <ele>23.1</ele>
        <time>2015-05-31T06:21:01Z</time>
      </trkpt>
      <trkpt lat="49.16467" lon="1.38694">
        <ele>23.2</ele>
        <time>2015-05-31T06:21:03Z</time>
      </trkpt>
      <trkpt lat="49.16458" lon="1.38687">
        <ele>23.4</ele>
        <time>2015-05-31T06:21:05Z</time>
      </trkpt>
      <trkpt lat="49.16448" lon="1.3868">
        <ele>23.6</ele>
        <time>2015-05-31T06:21:07Z</time>
      </trkpt>
      <trkpt lat="49.16439" lon="1.38672">
        <ele>23.8</ele>
        <time>2015-05-31T06:21:09Z</time>
      </trkpt>
      <trkpt lat="49.16429" lon="1.38665">
        <ele>23.9</ele>
        <time>2015-05-31T06:21:11Z</time>
      </trkpt>
      <trkpt lat="49.1642" lon="1.38656">
        <ele>24</ele>
        <time>2015-05-31T06:21:13Z</time>
      </trkpt>
      <trkpt lat="49.16411" lon="1.38648">
        <ele>24.1</ele>
        <time>2015-05-31T06:21:15Z</time>
      </trkpt>
      <trkpt lat="49.16401" lon="1.38639">
        <ele>24.2</ele>
        <time>2015-05-31T06:21:17Z</time>
      </trkpt>
      <trkpt lat="49.16391" lon="1.3863">
        <ele>24.3</ele>
        <time>2015-05-31T06:21:19Z</time>
      </trkpt>
      <trkpt lat="49.16382" lon="1.38622">
        <ele>24.4</ele>
        <time>2015-05-31T06:21:21Z</time>
      </trkpt>
      <trkpt lat="49.16372" lon="1.38613">
        <ele>24.4</ele>
        <time>2015-05-31T06:21:23Z</time>
      </trkpt>
      <trkpt lat="49.16363" lon="1.38604">
        <ele>24.5</ele>
        <time>2015-05-31T06:21:25Z</time>
      </trkpt>
      <trkpt lat="49.16354" lon="1.38595">
        <ele>24.5</ele>
        <time>2015-05-31T06:21:27Z</time>
      </trkpt>
      <trkpt lat="49.16346" lon="1.38585">
        <ele>24.6</ele>
        <time>2015-05-31T06:21:29Z</time>
      </trkpt>
      <trkpt lat="49.16338" lon="1.38575">
        <ele>24.6</ele>
        <time>2015-05-31T06:21:31Z</time>
      </trkpt>
      <trkpt lat="49.16329" lon="1.38564">
        <ele>24.6</ele>
        <time>2015-05-31T06:21:33Z</time>
      </trkpt>
      <trkpt lat="49.1632" lon="1.38553">
        <ele>24.6</ele>
        <time>2015-05-31T06:21:35Z</time>
      </trkpt>
      <trkpt lat="49.1631" lon="1.38543">
        <ele>24.5</ele>
        <time>2015-05-31T06:21:37Z</time>
      </trkpt>
      <trkpt lat="49.163" lon="1.38534">
        <ele>24.5</ele>
        <time>2015-05-31T06:21:39Z</time>
      </trkpt>
      <trkpt lat="49.16289" lon="1.38525">
        <ele>24.5</ele>
        <time>2015-05-31T06:21:41Z</time>
      </trkpt>
      <trkpt lat="49.16279" lon="1.38517">
        <ele>24.5</ele>
        <time>2015-05-31T06:21:43Z</time>
      </trkpt>
      <trkpt lat="49.16267" lon="1.38509">
        <ele>24.5</ele>
        <time>2015-05-31T06:21:45Z</time>
      </trkpt>
      <trkpt lat="49.16256" lon="1.38501">
        <ele>24.4</ele>
        <time>2015-05-31T06:21:47Z</time>
      </trkpt>
      <trkpt lat="49.16244" lon="1.38492">
        <ele>24.2</ele>
        <time>2015-05-31T06:21:49Z</time>
      </trkpt>
      <trkpt lat="49.16232" lon="1.38485">
        <ele>24</ele>
        <time>2015-05-31T06:21:51Z</time>
      </trkpt>
      <trkpt lat="49.1622" lon="1.38478">
        <ele>23.9</ele>
        <time>2015-05-31T06:21:53Z</time>
      </trkpt>
      <trkpt lat="49.16209" lon="1.38471">
        <ele>23.7</ele>
        <time>2015-05-31T06:21:55Z</time>
      </trkpt>
      <trkpt lat="49.16199" lon="1.38463">
        <ele>23.4</ele>
        <time>2015-05-31T06:21:57Z</time>
      </trkpt>
      <trkpt lat="49.1619" lon="1.38453">
        <ele>23.1</ele>
        <time>2015-05-31T06:21:59Z</time>
      </trkpt>
      <trkpt lat="49.16178" lon="1.38444">
        <ele>22.9</ele>
        <time>2015-05-31T06:22:01Z</time>
      </trkpt>
      <trkpt lat="49.16166" lon="1.38444">
        <ele>22.6</ele>
        <time>2015-05-31T06:22:04Z</time>
      </trkpt>
      <trkpt lat="49.16161" lon="1.38461">
        <ele>22.2</ele>
        <time>2015-05-31T06:22:08Z</time>
      </trkpt>
      <trkpt lat="49.16156" lon="1.38477">
        <ele>21.9</ele>
        <time>2015-05-31T06:22:11Z</time>
      </trkpt>
      <trkpt lat="49.16149" lon="1.38491">
        <ele>21.8</ele>
        <time>2015-05-31T06:22:14Z</time>
      </trkpt>
      <trkpt lat="49.16142" lon="1.38506">
        <ele>21.8</ele>
        <time>2015-05-31T06:22:17Z</time>
      </trkpt>
      <trkpt lat="49.16135" lon="1.38521">
        <ele>21.8</ele>
        <time>2015-05-31T06:22:20Z</time>
      </trkpt>
      <trkpt lat="49.16129" lon="1.38533">
        <ele>21.8</ele>
        <time>2015-05-31T06:22:23Z</time>
      </trkpt>
      <trkpt lat="49.16122" lon="1.38548">
        <ele>21.8</ele>
        <time>2015-05-31T06:22:26Z</time>
      </trkpt>
      <trkpt lat="49.16114" lon="1.38564">
        <ele>21.8</ele>
        <time>2015-05-31T06:22:29Z</time>
      </trkpt>
      <trkpt lat="49.16106" lon="1.38581">
        <ele>21.8</ele>
        <time>2015-05-31T06:22:32Z</time>
      </trkpt>
      <trkpt lat="49.161" lon="1.38597">
        <ele>21.9</ele>
        <time>2015-05-31T06:22:35Z</time>
      </trkpt>
      <trkpt lat="49.16093" lon="1.38616">
        <ele>21.9</ele>
        <time>2015-05-31T06:22:38Z</time>
      </trkpt>
      <trkpt lat="49.16088" lon="1.3863">
        <ele>21.9</ele>
        <time>2015-05-31T06:22:40Z</time>
      </trkpt>
      <trkpt lat="49.16084" lon="1.38645">
        <ele>21.9</ele>
        <time>2015-05-31T06:22:42Z</time>
      </trkpt>
      <trkpt lat="49.16079" lon="1.38658">
        <ele>21.9</ele>
        <time>2015-05-31T06:22:44Z</time>
      </trkpt>
      <trkpt lat="49.16074" lon="1.38672">
        <ele>21.9</ele>
        <time>2015-05-31T06:22:46Z</time>
      </trkpt>
      <trkpt lat="49.16069" lon="1.38685">
        <ele>21.9</ele>
        <time>2015-05-31T06:22:48Z</time>
      </trkpt>
      <trkpt lat="49.16064" lon="1.38697">
        <ele>21.9</ele>
        <time>2015-05-31T06:22:50Z</time>
      </trkpt>
      <trkpt lat="49.16058" lon="1.38713">
        <ele>21.9</ele>
        <time>2015-05-31T06:22:53Z</time>
      </trkpt>
      <trkpt lat="49.16053" lon="1.38725">
        <ele>21.9</ele>
        <time>2015-05-31T06:22:55Z</time>
      </trkpt>
      <trkpt lat="49.16048" lon="1.38739">
        <ele>21.9</ele>
        <time>2015-05-31T06:22:57Z</time>
      </trkpt>
      <trkpt lat="49.16044" lon="1.38752">
        <ele>21.9</ele>
        <time>2015-05-31T06:22:59Z</time>
      </trkpt>
      <trkpt lat="49.16038" lon="1.38766">
        <ele>21.9</ele>
        <time>2015-05-31T06:23:01Z</time>
      </trkpt>
      <trkpt lat="49.16033" lon="1.38779">
        <ele>21.9</ele>
        <time>2015-05-31T06:23:03Z</time>
      </trkpt>
      <trkpt lat="49.16028" lon="1.38792">
        <ele>21.9</ele>
        <time>2015-05-31T06:23:05Z</time>
      </trkpt>
      <trkpt lat="49.16023" lon="1.38805">
        <ele>21.9</ele>
        <time>2015-05-31T06:23:07Z</time>
      </trkpt>
      <trkpt lat="49.16018" lon="1.38817">
        <ele>21.9</ele>
        <time>2015-05-31T06:23:09Z</time>
      </trkpt>
      <trkpt lat="49.16012" lon="1.38831">
        <ele>21.9</ele>
        <time>2015-05-31T06:23:11Z</time>
      </trkpt>
      <trkpt lat="49.16007" lon="1.38844">
        <ele>21.9</ele>
        <time>2015-05-31T06:23:13Z</time>
      </trkpt>
      <trkpt lat="49.16001" lon="1.3886">
        <ele>21.9</ele>
        <time>2015-05-31T06:23:16Z</time>
      </trkpt>
      <trkpt lat="49.15997" lon="1.38872">
        <ele>21.8</ele>
        <time>2015-05-31T06:23:18Z</time>
      </trkpt>
      <trkpt lat="49.15992" lon="1.38884">
        <ele>21.8</ele>
        <time>2015-05-31T06:23:20Z</time>
      </trkpt>
      <trkpt lat="49.15982" lon="1.38891">
        <ele>21.8</ele>
        <time>2015-05-31T06:23:23Z</time>
      </trkpt>
      <trkpt lat="49.15974" lon="1.38899">
        <ele>21.8</ele>
        <time>2015-05-31T06:23:25Z</time>
      </trkpt>
      <trkpt lat="49.15964" lon="1.38904">
        <ele>21.8</ele>
        <time>2015-05-31T06:23:27Z</time>
      </trkpt>
      <trkpt lat="49.15955" lon="1.38909">
        <ele>21.8</ele>
        <time>2015-05-31T06:23:29Z</time>
      </trkpt>
      <trkpt lat="49.15943" lon="1.38918">
        <ele>21.8</ele>
        <time>2015-05-31T06:23:32Z</time>
      </trkpt>
      <trkpt lat="49.15931" lon="1.38924">
        <ele>21.9</ele>
        <time>2015-05-31T06:23:35Z</time>
      </trkpt>
      <trkpt lat="49.15922" lon="1.38929">
        <ele>22.1</ele>
        <time>2015-05-31T06:23:37Z</time>
      </trkpt>
      <trkpt lat="49.15909" lon="1.38932">
        <ele>22.3</ele>
        <time>2015-05-31T06:23:40Z</time>
      </trkpt>
      <trkpt lat="49.15899" lon="1.38932">
        <ele>22.4</ele>
        <time>2015-05-31T06:23:42Z</time>
      </trkpt>
      <trkpt lat="49.15889" lon="1.38932">
        <ele>22.6</ele>
        <time>2015-05-31T06:23:44Z</time>
      </trkpt>
      <trkpt lat="49.1588" lon="1.38934">
        <ele>22.7</ele>
        <time>2015-05-31T06:23:46Z</time>
      </trkpt>
      <trkpt lat="49.15866" lon="1.38934">
        <ele>22.8</ele>
        <time>2015-05-31T06:23:49Z</time>
      </trkpt>
      <trkpt lat="49.15854" lon="1.38937">
        <ele>23.1</ele>
        <time>2015-05-31T06:23:52Z</time>
      </trkpt>
      <trkpt lat="49.15843" lon="1.38939">
        <ele>23.2</ele>
        <time>2015-05-31T06:23:54Z</time>
      </trkpt>
      <trkpt lat="49.15833" lon="1.3894">
        <ele>23.4</ele>
        <time>2015-05-31T06:23:56Z</time>
      </trkpt>
      <trkpt lat="49.1582" lon="1.38942">
        <ele>23.5</ele>
        <time>2015-05-31T06:23:59Z</time>
      </trkpt>
      <trkpt lat="49.15811" lon="1.38945">
        <ele>23.6</ele>
        <time>2015-05-31T06:24:01Z</time>
      </trkpt>
      <trkpt lat="49.15799" lon="1.38948">
        <ele>23.8</ele>
        <time>2015-05-31T06:24:04Z</time>
      </trkpt>
      <trkpt lat="49.1579" lon="1.3895">
        <ele>24</ele>
        <time>2015-05-31T06:24:06Z</time>
      </trkpt>
      <trkpt lat="49.1578" lon="1.38952">
        <ele>24.1</ele>
        <time>2015-05-31T06:24:08Z</time>
      </trkpt>
      <trkpt lat="49.15769" lon="1.38956">
        <ele>24.2</ele>
        <time>2015-05-31T06:24:10Z</time>
      </trkpt>
      <trkpt lat="49.15759" lon="1.38959">
        <ele>24.4</ele>
        <time>2015-05-31T06:24:12Z</time>
      </trkpt>
      <trkpt lat="49.15751" lon="1.38962">
        <ele>24.5</ele>
        <time>2015-05-31T06:24:14Z</time>
      </trkpt>
      <trkpt lat="49.15741" lon="1.38966">
        <ele>24.6</ele>
        <time>2015-05-31T06:24:16Z</time>
      </trkpt>
      <trkpt lat="49.15732" lon="1.38971">
        <ele>24.8</ele>
        <time>2015-05-31T06:24:18Z</time>
      </trkpt>
      <trkpt lat="49.15723" lon="1.38976">
        <ele>25</ele>
        <time>2015-05-31T06:24:20Z</time>
      </trkpt>
      <trkpt lat="49.15713" lon="1.3898">
        <ele>25.2</ele>
        <time>2015-05-31T06:24:22Z</time>
      </trkpt>
      <trkpt lat="49.15704" lon="1.38983">
        <ele>25.3</ele>
        <time>2015-05-31T06:24:24Z</time>
      </trkpt>
      <trkpt lat="49.15692" lon="1.38989">
        <ele>25.5</ele>
        <time>2015-05-31T06:24:27Z</time>
      </trkpt>
      <trkpt lat="49.15679" lon="1.38995">
        <ele>25.7</ele>
        <time>2015-05-31T06:24:30Z</time>
      </trkpt>
      <trkpt lat="49.15667" lon="1.39001">
        <ele>26</ele>
        <time>2015-05-31T06:24:33Z</time>
      </trkpt>
      <trkpt lat="49.15657" lon="1.39006">
        <ele>26.2</ele>
        <time>2015-05-31T06:24:35Z</time>
      </trkpt>
      <trkpt lat="49.15648" lon="1.39011">
        <ele>26.3</ele>
        <time>2015-05-31T06:24:37Z</time>
      </trkpt>
      <trkpt lat="49.15638" lon="1.39017">
        <ele>26.5</ele>
        <time>2015-05-31T06:24:39Z</time>
      </trkpt>
      <trkpt lat="49.15629" lon="1.39022">
        <ele>26.7</ele>
        <time>2015-05-31T06:24:41Z</time>
      </trkpt>
      <trkpt lat="49.15619" lon="1.39027">
        <ele>26.9</ele>
        <time>2015-05-31T06:24:43Z</time>
      </trkpt>
      <trkpt lat="49.1561" lon="1.39032">
        <ele>27</ele>
        <time>2015-05-31T06:24:45Z</time>
      </trkpt>
      <trkpt lat="49.15601" lon="1.39036">
        <ele>27.2</ele>
        <time>2015-05-31T06:24:47Z</time>
      </trkpt>
      <trkpt lat="49.15589" lon="1.39043">
        <ele>27.4</ele>
        <time>2015-05-31T06:24:50Z</time>
      </trkpt>
      <trkpt lat="49.1558" lon="1.39048">
        <ele>27.6</ele>
        <time>2015-05-31T06:24:52Z</time>
      </trkpt>
      <trkpt lat="49.15572" lon="1.39053">
        <ele>27.8</ele>
        <time>2015-05-31T06:24:54Z</time>
      </trkpt>
      <trkpt lat="49.1556" lon="1.39059">
        <ele>28.1</ele>
        <time>2015-05-31T06:24:57Z</time>
      </trkpt>
      <trkpt lat="49.15548" lon="1.39065">
        <ele>28.4</ele>
        <time>2015-05-31T06:25:00Z</time>
      </trkpt>
      <trkpt lat="49.15536" lon="1.39071">
        <ele>28.7</ele>
        <time>2015-05-31T06:25:03Z</time>
      </trkpt>
      <trkpt lat="49.15527" lon="1.39075">
        <ele>28.9</ele>
        <time>2015-05-31T06:25:05Z</time>
      </trkpt>
      <trkpt lat="49.15517" lon="1.3908">
        <ele>29</ele>
        <time>2015-05-31T06:25:07Z</time>
      </trkpt>
      <trkpt lat="49.15508" lon="1.39083">
        <ele>29.1</ele>
        <time>2015-05-31T06:25:09Z</time>
      </trkpt>
      <trkpt lat="49.15499" lon="1.39086">
        <ele>29.3</ele>
        <time>2015-05-31T06:25:11Z</time>
      </trkpt>
      <trkpt lat="49.15489" lon="1.39088">
        <ele>29.4</ele>
        <time>2015-05-31T06:25:13Z</time>
      </trkpt>
      <trkpt lat="49.1548" lon="1.39091">
        <ele>29.6</ele>
        <time>2015-05-31T06:25:15Z</time>
      </trkpt>
      <trkpt lat="49.15471" lon="1.39095">
        <ele>29.8</ele>
        <time>2015-05-31T06:25:17Z</time>
      </trkpt>
      <trkpt lat="49.15461" lon="1.39099">
        <ele>30</ele>
        <time>2015-05-31T06:25:19Z</time>
      </trkpt>
      <trkpt lat="49.15451" lon="1.39104">
        <ele>30.2</ele>
        <time>2015-05-31T06:25:21Z</time>
      </trkpt>
      <trkpt lat="49.15441" lon="1.39109">
        <ele>30.3</ele>
        <time>2015-05-31T06:25:23Z</time>
      </trkpt>
      <trkpt lat="49.15431" lon="1.39113">
        <ele>30.5</ele>
        <time>2015-05-31T06:25:25Z</time>
      </trkpt>
      <trkpt lat="49.15423" lon="1.39116">
        <ele>30.6</ele>
        <time>2015-05-31T06:25:27Z</time>
      </trkpt>
      <trkpt lat="49.15414" lon="1.3912">
        <ele>30.7</ele>
        <time>2015-05-31T06:25:29Z</time>
      </trkpt>
      <trkpt lat="49.15404" lon="1.39124">
        <ele>30.9</ele>
        <time>2015-05-31T06:25:31Z</time>
      </trkpt>
      <trkpt lat="49.15395" lon="1.39128">
        <ele>31</ele>
        <time>2015-05-31T06:25:33Z</time>
      </trkpt>
      <trkpt lat="49.15386" lon="1.39132">
        <ele>31.2</ele>
        <time>2015-05-31T06:25:35Z</time>
      </trkpt>
      <trkpt lat="49.15377" lon="1.39136">
        <ele>31.4</ele>
        <time>2015-05-31T06:25:37Z</time>
      </trkpt>
      <trkpt lat="49.15369" lon="1.3914">
        <ele>31.5</ele>
        <time>2015-05-31T06:25:39Z</time>
      </trkpt>
      <trkpt lat="49.1536" lon="1.39145">
        <ele>31.6</ele>
        <time>2015-05-31T06:25:41Z</time>
      </trkpt>
      <trkpt lat="49.1535" lon="1.3915">
        <ele>31.8</ele>
        <time>2015-05-31T06:25:43Z</time>
      </trkpt>
      <trkpt lat="49.15341" lon="1.39155">
        <ele>31.9</ele>
        <time>2015-05-31T06:25:45Z</time>
      </trkpt>
      <trkpt lat="49.15333" lon="1.3916">
        <ele>32.1</ele>
        <time>2015-05-31T06:25:47Z</time>
      </trkpt>
      <trkpt lat="49.15324" lon="1.39165">
        <ele>32.2</ele>
        <time>2015-05-31T06:25:49Z</time>
      </trkpt>
      <trkpt lat="49.15312" lon="1.39172">
        <ele>32.4</ele>
        <time>2015-05-31T06:25:52Z</time>
      </trkpt>
      <trkpt lat="49.153" lon="1.39179">
        <ele>32.7</ele>
        <time>2015-05-31T06:25:55Z</time>
      </trkpt>
      <trkpt lat="49.15288" lon="1.39186">
        <ele>32.9</ele>
        <time>2015-05-31T06:25:58Z</time>
      </trkpt>
      <trkpt lat="49.15276" lon="1.39193">
        <ele>33.1</ele>
        <time>2015-05-31T06:26:01Z</time>
      </trkpt>
      <trkpt lat="49.15265" lon="1.39201">
        <ele>33.4</ele>
        <time>2015-05-31T06:26:04Z</time>
      </trkpt>
      <trkpt lat="49.15254" lon="1.39209">
        <ele>33.8</ele>
        <time>2015-05-31T06:26:07Z</time>
      </trkpt>
      <trkpt lat="49.15242" lon="1.39217">
        <ele>34</ele>
        <time>2015-05-31T06:26:10Z</time>
      </trkpt>
      <trkpt lat="49.1523" lon="1.39224">
        <ele>34.3</ele>
        <time>2015-05-31T06:26:13Z</time>
      </trkpt>
      <trkpt lat="49.15218" lon="1.39231">
        <ele>34.5</ele>
        <time>2015-05-31T06:26:16Z</time>
      </trkpt>
      <trkpt lat="49.15207" lon="1.39236">
        <ele>34.7</ele>
        <time>2015-05-31T06:26:19Z</time>
      </trkpt>
      <trkpt lat="49.15197" lon="1.3924">
        <ele>35</ele>
        <time>2015-05-31T06:26:22Z</time>
      </trkpt>
      <trkpt lat="49.15189" lon="1.39245">
        <ele>35.3</ele>
        <time>2015-05-31T06:26:25Z</time>
      </trkpt>
      <trkpt lat="49.15177" lon="1.39249">
        <ele>35.7</ele>
        <time>2015-05-31T06:26:28Z</time>
      </trkpt>
      <trkpt lat="49.15165" lon="1.39252">
        <ele>36</ele>
        <time>2015-05-31T06:26:31Z</time>
      </trkpt>
      <trkpt lat="49.15152" lon="1.39256">
        <ele>36.3</ele>
        <time>2015-05-31T06:26:34Z</time>
      </trkpt>
      <trkpt lat="49.1514" lon="1.39261">
        <ele>36.7</ele>
        <time>2015-05-31T06:26:37Z</time>
      </trkpt>
      <trkpt lat="49.15128" lon="1.39268">
        <ele>37.1</ele>
        <time>2015-05-31T06:26:40Z</time>
      </trkpt>
      <trkpt lat="49.15117" lon="1.39277">
        <ele>37.5</ele>
        <time>2015-05-31T06:26:43Z</time>
      </trkpt>
      <trkpt lat="49.15107" lon="1.39285">
        <ele>37.9</ele>
        <time>2015-05-31T06:26:46Z</time>
      </trkpt>
      <trkpt lat="49.15097" lon="1.39294">
        <ele>38.3</ele>
        <time>2015-05-31T06:26:49Z</time>
      </trkpt>
      <trkpt lat="49.15088" lon="1.39303">
        <ele>38.6</ele>
        <time>2015-05-31T06:26:52Z</time>
      </trkpt>
      <trkpt lat="49.15078" lon="1.3931">
        <ele>39</ele>
        <time>2015-05-31T06:26:55Z</time>
      </trkpt>
      <trkpt lat="49.15068" lon="1.39317">
        <ele>39.4</ele>
        <time>2015-05-31T06:26:58Z</time>
      </trkpt>
      <trkpt lat="49.15059" lon="1.39324">
        <ele>39.7</ele>
        <time>2015-05-31T06:27:01Z</time>
      </trkpt>
      <trkpt lat="49.1505" lon="1.39329">
        <ele>40</ele>
        <time>2015-05-31T06:27:04Z</time>
      </trkpt>
      <trkpt lat="49.15039" lon="1.39334">
        <ele>40.4</ele>
        <time>2015-05-31T06:27:08Z</time>
      </trkpt>
      <trkpt lat="49.15029" lon="1.3934">
        <ele>41.1</ele>
        <time>2015-05-31T06:27:13Z</time>
      </trkpt>
      <trkpt lat="49.1502" lon="1.39345">
        <ele>41.9</ele>
        <time>2015-05-31T06:27:20Z</time>
      </trkpt>
      <trkpt lat="49.15012" lon="1.3935">
        <ele>42.5</ele>
        <time>2015-05-31T06:27:25Z</time>
      </trkpt>
      <trkpt lat="49.15001" lon="1.39355">
        <ele>42.9</ele>
        <time>2015-05-31T06:27:29Z</time>
      </trkpt>
      <trkpt lat="49.1499" lon="1.39361">
        <ele>43.4</ele>
        <time>2015-05-31T06:27:32Z</time>
      </trkpt>
      <trkpt lat="49.14979" lon="1.39368">
        <ele>43.9</ele>
        <time>2015-05-31T06:27:35Z</time>
      </trkpt>
      <trkpt lat="49.14967" lon="1.39374">
        <ele>44.3</ele>
        <time>2015-05-31T06:27:38Z</time>
      </trkpt>
      <trkpt lat="49.14955" lon="1.39381">
        <ele>44.7</ele>
        <time>2015-05-31T06:27:41Z</time>
      </trkpt>
      <trkpt lat="49.14944" lon="1.39387">
        <ele>45.2</ele>
        <time>2015-05-31T06:27:44Z</time>
      </trkpt>
      <trkpt lat="49.14933" lon="1.39393">
        <ele>45.7</ele>
        <time>2015-05-31T06:27:47Z</time>
      </trkpt>
      <trkpt lat="49.14921" lon="1.39399">
        <ele>46.1</ele>
        <time>2015-05-31T06:27:50Z</time>
      </trkpt>
      <trkpt lat="49.1491" lon="1.39405">
        <ele>46.7</ele>
        <time>2015-05-31T06:27:53Z</time>
      </trkpt>
      <trkpt lat="49.14898" lon="1.39411">
        <ele>47.2</ele>
        <time>2015-05-31T06:27:56Z</time>
      </trkpt>
      <trkpt lat="49.14886" lon="1.39417">
        <ele>47.7</ele>
        <time>2015-05-31T06:27:59Z</time>
      </trkpt>
      <trkpt lat="49.14875" lon="1.39424">
        <ele>48.1</ele>
        <time>2015-05-31T06:28:02Z</time>
      </trkpt>
      <trkpt lat="49.14864" lon="1.39429">
        <ele>48.7</ele>
        <time>2015-05-31T06:28:05Z</time>
      </trkpt>
      <trkpt lat="49.14853" lon="1.39435">
        <ele>49.3</ele>
        <time>2015-05-31T06:28:08Z</time>
      </trkpt>
      <trkpt lat="49.14842" lon="1.39441">
        <ele>49.7</ele>
        <time>2015-05-31T06:28:11Z</time>
      </trkpt>
      <trkpt lat="49.14832" lon="1.39445">
        <ele>50.2</ele>
        <time>2015-05-31T06:28:14Z</time>
      </trkpt>
      <trkpt lat="49.14821" lon="1.39448">
        <ele>50.7</ele>
        <time>2015-05-31T06:28:17Z</time>
      </trkpt>
      <trkpt lat="49.14809" lon="1.3945">
        <ele>51.2</ele>
        <time>2015-05-31T06:28:20Z</time>
      </trkpt>
      <trkpt lat="49.14797" lon="1.39453">
        <ele>51.6</ele>
        <time>2015-05-31T06:28:23Z</time>
      </trkpt>
      <trkpt lat="49.14785" lon="1.39454">
        <ele>52.1</ele>
        <time>2015-05-31T06:28:26Z</time>
      </trkpt>
      <trkpt lat="49.14774" lon="1.39453">
        <ele>52.7</ele>
        <time>2015-05-31T06:28:29Z</time>
      </trkpt>
      <trkpt lat="49.14762" lon="1.39451">
        <ele>53.2</ele>
        <time>2015-05-31T06:28:32Z</time>
      </trkpt>
      <trkpt lat="49.14752" lon="1.39448">
        <ele>53.7</ele>
        <time>2015-05-31T06:28:35Z</time>
      </trkpt>
      <trkpt lat="49.14741" lon="1.39446">
        <ele>54.2</ele>
        <time>2015-05-31T06:28:38Z</time>
      </trkpt>
      <trkpt lat="49.1473" lon="1.39445">
        <ele>54.7</ele>
        <time>2015-05-31T06:28:41Z</time>
      </trkpt>
      <trkpt lat="49.1472" lon="1.39451">
        <ele>55.1</ele>
        <time>2015-05-31T06:28:44Z</time>
      </trkpt>
      <trkpt lat="49.14712" lon="1.39465">
        <ele>55.7</ele>
        <time>2015-05-31T06:28:47Z</time>
      </trkpt>
      <trkpt lat="49.14707" lon="1.39481">
        <ele>56.2</ele>
        <time>2015-05-31T06:28:50Z</time>
      </trkpt>
      <trkpt lat="49.14702" lon="1.395">
        <ele>56.6</ele>
        <time>2015-05-31T06:28:53Z</time>
      </trkpt>
      <trkpt lat="49.14698" lon="1.39518">
        <ele>57</ele>
        <time>2015-05-31T06:28:56Z</time>
      </trkpt>
      <trkpt lat="49.14693" lon="1.39538">
        <ele>57.4</ele>
        <time>2015-05-31T06:28:59Z</time>
      </trkpt>
      <trkpt lat="49.1469" lon="1.39551">
        <ele>57.6</ele>
        <time>2015-05-31T06:29:01Z</time>
      </trkpt>
      <trkpt lat="49.14687" lon="1.39564">
        <ele>57.7</ele>
        <time>2015-05-31T06:29:03Z</time>
      </trkpt>
      <trkpt lat="49.14684" lon="1.39578">
        <ele>57.9</ele>
        <time>2015-05-31T06:29:05Z</time>
      </trkpt>
      <trkpt lat="49.14681" lon="1.39591">
        <ele>58.1</ele>
        <time>2015-05-31T06:29:07Z</time>
      </trkpt>
      <trkpt lat="49.14679" lon="1.39608">
        <ele>58.3</ele>
        <time>2015-05-31T06:29:10Z</time>
      </trkpt>
      <trkpt lat="49.14675" lon="1.39623">
        <ele>58.6</ele>
        <time>2015-05-31T06:29:14Z</time>
      </trkpt>
      <trkpt lat="49.14662" lon="1.39624">
        <ele>58.8</ele>
        <time>2015-05-31T06:29:18Z</time>
      </trkpt>
      <trkpt lat="49.14651" lon="1.39616">
        <ele>58.9</ele>
        <time>2015-05-31T06:29:21Z</time>
      </trkpt>
      <trkpt lat="49.1464" lon="1.39607">
        <ele>59</ele>
        <time>2015-05-31T06:29:24Z</time>
      </trkpt>
      <trkpt lat="49.14628" lon="1.396">
        <ele>59.3</ele>
        <time>2015-05-31T06:29:27Z</time>
      </trkpt>
      <trkpt lat="49.14617" lon="1.39593">
        <ele>59.5</ele>
        <time>2015-05-31T06:29:30Z</time>
      </trkpt>
      <trkpt lat="49.14605" lon="1.39586">
        <ele>59.8</ele>
        <time>2015-05-31T06:29:33Z</time>
      </trkpt>
      <trkpt lat="49.14593" lon="1.39578">
        <ele>60.1</ele>
        <time>2015-05-31T06:29:36Z</time>
      </trkpt>
      <trkpt lat="49.14582" lon="1.39571">
        <ele>60.5</ele>
        <time>2015-05-31T06:29:39Z</time>
      </trkpt>
      <trkpt lat="49.14571" lon="1.39564">
        <ele>61</ele>
        <time>2015-05-31T06:29:42Z</time>
      </trkpt>
      <trkpt lat="49.14559" lon="1.39556">
        <ele>61.5</ele>
        <time>2015-05-31T06:29:45Z</time>
      </trkpt>
      <trkpt lat="49.14548" lon="1.39548">
        <ele>61.9</ele>
        <time>2015-05-31T06:29:48Z</time>
      </trkpt>
      <trkpt lat="49.14535" lon="1.3954">
        <ele>62.2</ele>
        <time>2015-05-31T06:29:51Z</time>
      </trkpt>
      <trkpt lat="49.14524" lon="1.39533">
        <ele>62.5</ele>
        <time>2015-05-31T06:29:54Z</time>
      </trkpt>
      <trkpt lat="49.14511" lon="1.39525">
        <ele>63</ele>
        <time>2015-05-31T06:29:57Z</time>
      </trkpt>
      <trkpt lat="49.14499" lon="1.39519">
        <ele>63.3</ele>
        <time>2015-05-31T06:30:00Z</time>
      </trkpt>
      <trkpt lat="49.14486" lon="1.39513">
        <ele>63.7</ele>
        <time>2015-05-31T06:30:03Z</time>
      </trkpt>
      <trkpt lat="49.14473" lon="1.39507">
        <ele>64.2</ele>
        <time>2015-05-31T06:30:06Z</time>
      </trkpt>
      <trkpt lat="49.14461" lon="1.39501">
        <ele>64.8</ele>
        <time>2015-05-31T06:30:09Z</time>
      </trkpt>
      <trkpt lat="49.14452" lon="1.39498">
        <ele>65.1</ele>
        <time>2015-05-31T06:30:11Z</time>
      </trkpt>
      <trkpt lat="49.14443" lon="1.39494">
        <ele>65.5</ele>
        <time>2015-05-31T06:30:13Z</time>
      </trkpt>
      <trkpt lat="49.1443" lon="1.39488">
        <ele>66</ele>
        <time>2015-05-31T06:30:16Z</time>
      </trkpt>
      <trkpt lat="49.14417" lon="1.39483">
        <ele>66.6</ele>
        <time>2015-05-31T06:30:19Z</time>
      </trkpt>
      <trkpt lat="49.14409" lon="1.39479">
        <ele>66.9</ele>
        <time>2015-05-31T06:30:21Z</time>
      </trkpt>
      <trkpt lat="49.14396" lon="1.39475">
        <ele>67.4</ele>
        <time>2015-05-31T06:30:24Z</time>
      </trkpt>
      <trkpt lat="49.14392" lon="1.39458">
        <ele>68</ele>
        <time>2015-05-31T06:30:27Z</time>
      </trkpt>
      <trkpt lat="49.14397" lon="1.39439">
        <ele>68.6</ele>
        <time>2015-05-31T06:30:30Z</time>
      </trkpt>
      <trkpt lat="49.14401" lon="1.39425">
        <ele>69</ele>
        <time>2015-05-31T06:30:32Z</time>
      </trkpt>
      <trkpt lat="49.14404" lon="1.39411">
        <ele>69.3</ele>
        <time>2015-05-31T06:30:34Z</time>
      </trkpt>
      <trkpt lat="49.14407" lon="1.39397">
        <ele>69.6</ele>
        <time>2015-05-31T06:30:36Z</time>
      </trkpt>
      <trkpt lat="49.1441" lon="1.39382">
        <ele>69.9</ele>
        <time>2015-05-31T06:30:38Z</time>
      </trkpt>
      <trkpt lat="49.14414" lon="1.39366">
        <ele>70.2</ele>
        <time>2015-05-31T06:30:40Z</time>
      </trkpt>
      <trkpt lat="49.14418" lon="1.39351">
        <ele>70.5</ele>
        <time>2015-05-31T06:30:42Z</time>
      </trkpt>
      <trkpt lat="49.14422" lon="1.39335">
        <ele>70.7</ele>
        <time>2015-05-31T06:30:44Z</time>
      </trkpt>
      <trkpt lat="49.14426" lon="1.39318">
        <ele>70.9</ele>
        <time>2015-05-31T06:30:46Z</time>
      </trkpt>
      <trkpt lat="49.1443" lon="1.39301">
        <ele>71.1</ele>
        <time>2015-05-31T06:30:48Z</time>
      </trkpt>
      <trkpt lat="49.14434" lon="1.39283">
        <ele>71.2</ele>
        <time>2015-05-31T06:30:50Z</time>
      </trkpt>
      <trkpt lat="49.14439" lon="1.39265">
        <ele>71.3</ele>
        <time>2015-05-31T06:30:52Z</time>
      </trkpt>
      <trkpt lat="49.14444" lon="1.39247">
        <ele>71.4</ele>
        <time>2015-05-31T06:30:54Z</time>
      </trkpt>
      <trkpt lat="49.14448" lon="1.3923">
        <ele>71.5</ele>
        <time>2015-05-31T06:30:56Z</time>
      </trkpt>
      <trkpt lat="49.14447" lon="1.39216">
        <ele>71.5</ele>
        <time>2015-05-31T06:30:58Z</time>
      </trkpt>
      <trkpt lat="49.14437" lon="1.39203">
        <ele>71.4</ele>
        <time>2015-05-31T06:31:01Z</time>
      </trkpt>
      <trkpt lat="49.14426" lon="1.39193">
        <ele>71.3</ele>
        <time>2015-05-31T06:31:04Z</time>
      </trkpt>
      <trkpt lat="49.14415" lon="1.39184">
        <ele>71.4</ele>
        <time>2015-05-31T06:31:07Z</time>
      </trkpt>
      <trkpt lat="49.14404" lon="1.39175">
        <ele>71.4</ele>
        <time>2015-05-31T06:31:10Z</time>
      </trkpt>
      <trkpt lat="49.14392" lon="1.39167">
        <ele>71.6</ele>
        <time>2015-05-31T06:31:13Z</time>
      </trkpt>
      <trkpt lat="49.14381" lon="1.3916">
        <ele>71.9</ele>
        <time>2015-05-31T06:31:16Z</time>
      </trkpt>
      <trkpt lat="49.1437" lon="1.39153">
        <ele>72.2</ele>
        <time>2015-05-31T06:31:19Z</time>
      </trkpt>
      <trkpt lat="49.1436" lon="1.39146">
        <ele>72.5</ele>
        <time>2015-05-31T06:31:22Z</time>
      </trkpt>
      <trkpt lat="49.14352" lon="1.3914">
        <ele>72.9</ele>
        <time>2015-05-31T06:31:25Z</time>
      </trkpt>
      <trkpt lat="49.14342" lon="1.39131">
        <ele>73.7</ele>
        <time>2015-05-31T06:31:30Z</time>
      </trkpt>
      <trkpt lat="49.14333" lon="1.39123">
        <ele>74.7</ele>
        <time>2015-05-31T06:31:36Z</time>
      </trkpt>
      <trkpt lat="49.14325" lon="1.39117">
        <ele>75.9</ele>
        <time>2015-05-31T06:31:42Z</time>
      </trkpt>
      <trkpt lat="49.14315" lon="1.39109">
        <ele>76.9</ele>
        <time>2015-05-31T06:31:47Z</time>
      </trkpt>
      <trkpt lat="49.14306" lon="1.39103">
        <ele>78.3</ele>
        <time>2015-05-31T06:31:52Z</time>
      </trkpt>
      <trkpt lat="49.14296" lon="1.39099">
        <ele>79.4</ele>
        <time>2015-05-31T06:31:56Z</time>
      </trkpt>
      <trkpt lat="49.14287" lon="1.39096">
        <ele>80.6</ele>
        <time>2015-05-31T06:32:00Z</time>
      </trkpt>
      <trkpt lat="49.14278" lon="1.39094">
        <ele>81.7</ele>
        <time>2015-05-31T06:32:04Z</time>
      </trkpt>
      <trkpt lat="49.14268" lon="1.3909">
        <ele>82.7</ele>
        <time>2015-05-31T06:32:08Z</time>
      </trkpt>
      <trkpt lat="49.14257" lon="1.39086">
        <ele>83.7</ele>
        <time>2015-05-31T06:32:12Z</time>
      </trkpt>
      <trkpt lat="49.14248" lon="1.39083">
        <ele>84.7</ele>
        <time>2015-05-31T06:32:16Z</time>
      </trkpt>
      <trkpt lat="49.14239" lon="1.39079">
        <ele>85.7</ele>
        <time>2015-05-31T06:32:20Z</time>
      </trkpt>
      <trkpt lat="49.14229" lon="1.39074">
        <ele>87</ele>
        <time>2015-05-31T06:32:25Z</time>
      </trkpt>
      <trkpt lat="49.1422" lon="1.39071">
        <ele>87.7</ele>
        <time>2015-05-31T06:32:28Z</time>
      </trkpt>
      <trkpt lat="49.1421" lon="1.39067">
        <ele>88.7</ele>
        <time>2015-05-31T06:32:32Z</time>
      </trkpt>
      <trkpt lat="49.14199" lon="1.39064">
        <ele>89.7</ele>
        <time>2015-05-31T06:32:36Z</time>
      </trkpt>
      <trkpt lat="49.1419" lon="1.3906">
        <ele>90.8</ele>
        <time>2015-05-31T06:32:40Z</time>
      </trkpt>
      <trkpt lat="49.1418" lon="1.39056">
        <ele>92.3</ele>
        <time>2015-05-31T06:32:45Z</time>
      </trkpt>
      <trkpt lat="49.1417" lon="1.39053">
        <ele>93.7</ele>
        <time>2015-05-31T06:32:50Z</time>
      </trkpt>
      <trkpt lat="49.1416" lon="1.39052">
        <ele>94.7</ele>
        <time>2015-05-31T06:32:54Z</time>
      </trkpt>
      <trkpt lat="49.14149" lon="1.39049">
        <ele>96.2</ele>
        <time>2015-05-31T06:32:59Z</time>
      </trkpt>
      <trkpt lat="49.14138" lon="1.39046">
        <ele>97.5</ele>
        <time>2015-05-31T06:33:04Z</time>
      </trkpt>
      <trkpt lat="49.14128" lon="1.39044">
        <ele>98.8</ele>
        <time>2015-05-31T06:33:09Z</time>
      </trkpt>
      <trkpt lat="49.14117" lon="1.39042">
        <ele>100.1</ele>
        <time>2015-05-31T06:33:14Z</time>
      </trkpt>
      <trkpt lat="49.14107" lon="1.39038">
        <ele>101</ele>
        <time>2015-05-31T06:33:18Z</time>
      </trkpt>
      <trkpt lat="49.14097" lon="1.39037">
        <ele>101.9</ele>
        <time>2015-05-31T06:33:22Z</time>
      </trkpt>
      <trkpt lat="49.14086" lon="1.39035">
        <ele>102.8</ele>
        <time>2015-05-31T06:33:26Z</time>
      </trkpt>
      <trkpt lat="49.14075" lon="1.39032">
        <ele>103.8</ele>
        <time>2015-05-31T06:33:30Z</time>
      </trkpt>
      <trkpt lat="49.14065" lon="1.3903">
        <ele>104.7</ele>
        <time>2015-05-31T06:33:34Z</time>
      </trkpt>
      <trkpt lat="49.14055" lon="1.39029">
        <ele>105.6</ele>
        <time>2015-05-31T06:33:38Z</time>
      </trkpt>
      <trkpt lat="49.14044" lon="1.39027">
        <ele>106.6</ele>
        <time>2015-05-31T06:33:42Z</time>
      </trkpt>
      <trkpt lat="49.14034" lon="1.39025">
        <ele>107.6</ele>
        <time>2015-05-31T06:33:46Z</time>
      </trkpt>
      <trkpt lat="49.14024" lon="1.39022">
        <ele>108.5</ele>
        <time>2015-05-31T06:33:50Z</time>
      </trkpt>
      <trkpt lat="49.14013" lon="1.39024">
        <ele>109.5</ele>
        <time>2015-05-31T06:33:54Z</time>
      </trkpt>
      <trkpt lat="49.14001" lon="1.39026">
        <ele>110.4</ele>
        <time>2015-05-31T06:33:58Z</time>
      </trkpt>
      <trkpt lat="49.1399" lon="1.39029">
        <ele>111.3</ele>
        <time>2015-05-31T06:34:02Z</time>
      </trkpt>
      <trkpt lat="49.13981" lon="1.39031">
        <ele>112</ele>
        <time>2015-05-31T06:34:05Z</time>
      </trkpt>
      <trkpt lat="49.13972" lon="1.39033">
        <ele>112.6</ele>
        <time>2015-05-31T06:34:08Z</time>
      </trkpt>
      <trkpt lat="49.13962" lon="1.39036">
        <ele>113.3</ele>
        <time>2015-05-31T06:34:11Z</time>
      </trkpt>
      <trkpt lat="49.13952" lon="1.39039">
        <ele>113.9</ele>
        <time>2015-05-31T06:34:14Z</time>
      </trkpt>
      <trkpt lat="49.13942" lon="1.39043">
        <ele>114.5</ele>
        <time>2015-05-31T06:34:17Z</time>
      </trkpt>
      <trkpt lat="49.13932" lon="1.39047">
        <ele>115</ele>
        <time>2015-05-31T06:34:20Z</time>
      </trkpt>
      <trkpt lat="49.13922" lon="1.3905">
        <ele>115.5</ele>
        <time>2015-05-31T06:34:23Z</time>
      </trkpt>
      <trkpt lat="49.13911" lon="1.3905">
        <ele>116</ele>
        <time>2015-05-31T06:34:26Z</time>
      </trkpt>
      <trkpt lat="49.139" lon="1.39047">
        <ele>116.5</ele>
        <time>2015-05-31T06:34:29Z</time>
      </trkpt>
      <trkpt lat="49.13889" lon="1.39045">
        <ele>116.9</ele>
        <time>2015-05-31T06:34:32Z</time>
      </trkpt>
      <trkpt lat="49.13879" lon="1.39042">
        <ele>117.3</ele>
        <time>2015-05-31T06:34:35Z</time>
      </trkpt>
      <trkpt lat="49.13868" lon="1.3904">
        <ele>117.7</ele>
        <time>2015-05-31T06:34:38Z</time>
      </trkpt>
      <trkpt lat="49.13858" lon="1.39037">
        <ele>118</ele>
        <time>2015-05-31T06:34:41Z</time>
      </trkpt>
      <trkpt lat="49.13848" lon="1.39034">
        <ele>118.3</ele>
        <time>2015-05-31T06:34:44Z</time>
      </trkpt>
      <trkpt lat="49.13839" lon="1.39031">
        <ele>118.6</ele>
        <time>2015-05-31T06:34:47Z</time>
      </trkpt>
      <trkpt lat="49.13829" lon="1.39029">
        <ele>119</ele>
        <time>2015-05-31T06:34:50Z</time>
      </trkpt>
      <trkpt lat="49.1382" lon="1.39027">
        <ele>119.6</ele>
        <time>2015-05-31T06:34:53Z</time>
      </trkpt>
      <trkpt lat="49.1381" lon="1.39025">
        <ele>120.1</ele>
        <time>2015-05-31T06:34:56Z</time>
      </trkpt>
      <trkpt lat="49.13799" lon="1.39023">
        <ele>120.6</ele>
        <time>2015-05-31T06:34:59Z</time>
      </trkpt>
      <trkpt lat="49.13789" lon="1.39021">
        <ele>121.1</ele>
        <time>2015-05-31T06:35:02Z</time>
      </trkpt>
      <trkpt lat="49.13779" lon="1.39019">
        <ele>121.6</ele>
        <time>2015-05-31T06:35:05Z</time>
      </trkpt>
      <trkpt lat="49.13769" lon="1.39014">
        <ele>122</ele>
        <time>2015-05-31T06:35:08Z</time>
      </trkpt>
      <trkpt lat="49.13758" lon="1.3901">
        <ele>122.4</ele>
        <time>2015-05-31T06:35:11Z</time>
      </trkpt>
      <trkpt lat="49.13747" lon="1.39006">
        <ele>122.9</ele>
        <time>2015-05-31T06:35:14Z</time>
      </trkpt>
      <trkpt lat="49.13737" lon="1.39002">
        <ele>123.3</ele>
        <time>2015-05-31T06:35:17Z</time>
      </trkpt>
      <trkpt lat="49.13727" lon="1.38997">
        <ele>123.8</ele>
        <time>2015-05-31T06:35:20Z</time>
      </trkpt>
      <trkpt lat="49.13716" lon="1.38992">
        <ele>124.3</ele>
        <time>2015-05-31T06:35:23Z</time>
      </trkpt>
      <trkpt lat="49.13706" lon="1.38983">
        <ele>124.7</ele>
        <time>2015-05-31T06:35:26Z</time>
      </trkpt>
      <trkpt lat="49.13695" lon="1.38972">
        <ele>125</ele>
        <time>2015-05-31T06:35:29Z</time>
      </trkpt>
      <trkpt lat="49.13687" lon="1.38964">
        <ele>125.2</ele>
        <time>2015-05-31T06:35:31Z</time>
      </trkpt>
      <trkpt lat="49.13677" lon="1.38953">
        <ele>125.5</ele>
        <time>2015-05-31T06:35:34Z</time>
      </trkpt>
      <trkpt lat="49.13668" lon="1.38944">
        <ele>125.8</ele>
        <time>2015-05-31T06:35:37Z</time>
      </trkpt>
      <trkpt lat="49.13658" lon="1.38934">
        <ele>126.1</ele>
        <time>2015-05-31T06:35:40Z</time>
      </trkpt>
      <trkpt lat="49.13647" lon="1.38923">
        <ele>126.3</ele>
        <time>2015-05-31T06:35:43Z</time>
      </trkpt>
      <trkpt lat="49.13636" lon="1.38913">
        <ele>126.6</ele>
        <time>2015-05-31T06:35:46Z</time>
      </trkpt>
      <trkpt lat="49.13628" lon="1.38905">
        <ele>126.8</ele>
        <time>2015-05-31T06:35:48Z</time>
      </trkpt>
      <trkpt lat="49.13621" lon="1.38895">
        <ele>127</ele>
        <time>2015-05-31T06:35:50Z</time>
      </trkpt>
      <trkpt lat="49.13613" lon="1.38886">
        <ele>127.2</ele>
        <time>2015-05-31T06:35:52Z</time>
      </trkpt>
      <trkpt lat="49.13605" lon="1.38878">
        <ele>127.4</ele>
        <time>2015-05-31T06:35:54Z</time>
      </trkpt>
      <trkpt lat="49.13597" lon="1.38869">
        <ele>127.6</ele>
        <time>2015-05-31T06:35:56Z</time>
      </trkpt>
      <trkpt lat="49.1359" lon="1.38861">
        <ele>127.8</ele>
        <time>2015-05-31T06:35:58Z</time>
      </trkpt>
      <trkpt lat="49.13579" lon="1.3885">
        <ele>128.1</ele>
        <time>2015-05-31T06:36:01Z</time>
      </trkpt>
      <trkpt lat="49.13572" lon="1.38842">
        <ele>128.4</ele>
        <time>2015-05-31T06:36:03Z</time>
      </trkpt>
      <trkpt lat="49.13564" lon="1.38833">
        <ele>128.6</ele>
        <time>2015-05-31T06:36:05Z</time>
      </trkpt>
      <trkpt lat="49.13557" lon="1.38824">
        <ele>128.7</ele>
        <time>2015-05-31T06:36:07Z</time>
      </trkpt>
      <trkpt lat="49.13549" lon="1.38815">
        <ele>128.9</ele>
        <time>2015-05-31T06:36:09Z</time>
      </trkpt>
      <trkpt lat="49.13542" lon="1.38806">
        <ele>129</ele>
        <time>2015-05-31T06:36:11Z</time>
      </trkpt>
      <trkpt lat="49.13535" lon="1.38797">
        <ele>129.2</ele>
        <time>2015-05-31T06:36:13Z</time>
      </trkpt>
      <trkpt lat="49.13527" lon="1.38787">
        <ele>129.3</ele>
        <time>2015-05-31T06:36:15Z</time>
      </trkpt>
      <trkpt lat="49.1352" lon="1.38778">
        <ele>129.5</ele>
        <time>2015-05-31T06:36:17Z</time>
      </trkpt>
      <trkpt lat="49.13513" lon="1.38768">
        <ele>129.7</ele>
        <time>2015-05-31T06:36:19Z</time>
      </trkpt>
      <trkpt lat="49.13506" lon="1.38759">
        <ele>129.9</ele>
        <time>2015-05-31T06:36:21Z</time>
      </trkpt>
      <trkpt lat="49.13499" lon="1.3875">
        <ele>130</ele>
        <time>2015-05-31T06:36:23Z</time>
      </trkpt>
      <trkpt lat="49.13491" lon="1.38741">
        <ele>130.2</ele>
        <time>2015-05-31T06:36:25Z</time>
      </trkpt>
      <trkpt lat="49.13484" lon="1.38732">
        <ele>130.3</ele>
        <time>2015-05-31T06:36:27Z</time>
      </trkpt>
      <trkpt lat="49.13476" lon="1.38723">
        <ele>130.5</ele>
        <time>2015-05-31T06:36:29Z</time>
      </trkpt>
      <trkpt lat="49.13469" lon="1.38715">
        <ele>130.6</ele>
        <time>2015-05-31T06:36:31Z</time>
      </trkpt>
      <trkpt lat="49.13461" lon="1.38706">
        <ele>130.8</ele>
        <time>2015-05-31T06:36:33Z</time>
      </trkpt>
      <trkpt lat="49.13453" lon="1.38698">
        <ele>131</ele>
        <time>2015-05-31T06:36:35Z</time>
      </trkpt>
      <trkpt lat="49.13445" lon="1.3869">
        <ele>131.2</ele>
        <time>2015-05-31T06:36:37Z</time>
      </trkpt>
      <trkpt lat="49.13437" lon="1.38682">
        <ele>131.4</ele>
        <time>2015-05-31T06:36:39Z</time>
      </trkpt>
      <trkpt lat="49.13426" lon="1.38671">
        <ele>131.7</ele>
        <time>2015-05-31T06:36:42Z</time>
      </trkpt>
      <trkpt lat="49.13418" lon="1.38664">
        <ele>131.9</ele>
        <time>2015-05-31T06:36:44Z</time>
      </trkpt>
      <trkpt lat="49.13405" lon="1.38657">
        <ele>132.2</ele>
        <time>2015-05-31T06:36:47Z</time>
      </trkpt>
      <trkpt lat="49.13393" lon="1.38652">
        <ele>132.4</ele>
        <time>2015-05-31T06:36:50Z</time>
      </trkpt>
      <trkpt lat="49.1338" lon="1.38647">
        <ele>132.6</ele>
        <time>2015-05-31T06:36:53Z</time>
      </trkpt>
      <trkpt lat="49.13371" lon="1.38643">
        <ele>132.8</ele>
        <time>2015-05-31T06:36:55Z</time>
      </trkpt>
      <trkpt lat="49.13363" lon="1.38635">
        <ele>132.9</ele>
        <time>2015-05-31T06:36:57Z</time>
      </trkpt>
      <trkpt lat="49.13355" lon="1.38625">
        <ele>133</ele>
        <time>2015-05-31T06:36:59Z</time>
      </trkpt>
      <trkpt lat="49.13347" lon="1.38615">
        <ele>133.1</ele>
        <time>2015-05-31T06:37:01Z</time>
      </trkpt>
      <trkpt lat="49.13339" lon="1.38606">
        <ele>133.2</ele>
        <time>2015-05-31T06:37:03Z</time>
      </trkpt>
      <trkpt lat="49.13331" lon="1.38598">
        <ele>133.3</ele>
        <time>2015-05-31T06:37:05Z</time>
      </trkpt>
      <trkpt lat="49.13323" lon="1.3859">
        <ele>133.5</ele>
        <time>2015-05-31T06:37:07Z</time>
      </trkpt>
      <trkpt lat="49.13314" lon="1.38583">
        <ele>133.6</ele>
        <time>2015-05-31T06:37:09Z</time>
      </trkpt>
      <trkpt lat="49.13305" lon="1.38577">
        <ele>133.7</ele>
        <time>2015-05-31T06:37:11Z</time>
      </trkpt>
      <trkpt lat="49.13297" lon="1.3857">
        <ele>133.8</ele>
        <time>2015-05-31T06:37:13Z</time>
      </trkpt>
      <trkpt lat="49.13288" lon="1.38563">
        <ele>133.9</ele>
        <time>2015-05-31T06:37:15Z</time>
      </trkpt>
      <trkpt lat="49.13279" lon="1.38556">
        <ele>134</ele>
        <time>2015-05-31T06:37:17Z</time>
      </trkpt>
      <trkpt lat="49.1327" lon="1.38549">
        <ele>134.1</ele>
        <time>2015-05-31T06:37:19Z</time>
      </trkpt>
      <trkpt lat="49.1326" lon="1.38542">
        <ele>134.1</ele>
        <time>2015-05-31T06:37:21Z</time>
      </trkpt>
      <trkpt lat="49.13251" lon="1.38535">
        <ele>134.2</ele>
        <time>2015-05-31T06:37:23Z</time>
      </trkpt>
      <trkpt lat="49.13242" lon="1.38528">
        <ele>134.3</ele>
        <time>2015-05-31T06:37:25Z</time>
      </trkpt>
      <trkpt lat="49.13232" lon="1.38522">
        <ele>134.4</ele>
        <time>2015-05-31T06:37:27Z</time>
      </trkpt>
      <trkpt lat="49.13223" lon="1.38516">
        <ele>134.5</ele>
        <time>2015-05-31T06:37:29Z</time>
      </trkpt>
      <trkpt lat="49.13214" lon="1.38511">
        <ele>134.6</ele>
        <time>2015-05-31T06:37:31Z</time>
      </trkpt>
      <trkpt lat="49.13205" lon="1.38506">
        <ele>134.7</ele>
        <time>2015-05-31T06:37:33Z</time>
      </trkpt>
      <trkpt lat="49.13196" lon="1.38502">
        <ele>134.7</ele>
        <time>2015-05-31T06:37:35Z</time>
      </trkpt>
      <trkpt lat="49.13187" lon="1.38498">
        <ele>134.8</ele>
        <time>2015-05-31T06:37:37Z</time>
      </trkpt>
      <trkpt lat="49.13177" lon="1.38495">
        <ele>134.9</ele>
        <time>2015-05-31T06:37:39Z</time>
      </trkpt>
      <trkpt lat="49.13167" lon="1.38492">
        <ele>135</ele>
        <time>2015-05-31T06:37:41Z</time>
      </trkpt>
      <trkpt lat="49.13158" lon="1.38491">
        <ele>135.1</ele>
        <time>2015-05-31T06:37:43Z</time>
      </trkpt>
      <trkpt lat="49.13149" lon="1.38491">
        <ele>135.2</ele>
        <time>2015-05-31T06:37:45Z</time>
      </trkpt>
      <trkpt lat="49.13139" lon="1.38492">
        <ele>135.4</ele>
        <time>2015-05-31T06:37:47Z</time>
      </trkpt>
      <trkpt lat="49.13129" lon="1.38492">
        <ele>135.5</ele>
        <time>2015-05-31T06:37:49Z</time>
      </trkpt>
      <trkpt lat="49.13119" lon="1.38493">
        <ele>135.7</ele>
        <time>2015-05-31T06:37:51Z</time>
      </trkpt>
      <trkpt lat="49.1311" lon="1.38493">
        <ele>135.8</ele>
        <time>2015-05-31T06:37:53Z</time>
      </trkpt>
      <trkpt lat="49.131" lon="1.38493">
        <ele>136</ele>
        <time>2015-05-31T06:37:55Z</time>
      </trkpt>
      <trkpt lat="49.13089" lon="1.38493">
        <ele>136.1</ele>
        <time>2015-05-31T06:37:57Z</time>
      </trkpt>
      <trkpt lat="49.13079" lon="1.38494">
        <ele>136.2</ele>
        <time>2015-05-31T06:37:59Z</time>
      </trkpt>
      <trkpt lat="49.13069" lon="1.38496">
        <ele>136.3</ele>
        <time>2015-05-31T06:38:01Z</time>
      </trkpt>
      <trkpt lat="49.13059" lon="1.38498">
        <ele>136.4</ele>
        <time>2015-05-31T06:38:03Z</time>
      </trkpt>
      <trkpt lat="49.13049" lon="1.38501">
        <ele>136.5</ele>
        <time>2015-05-31T06:38:05Z</time>
      </trkpt>
      <trkpt lat="49.13038" lon="1.38503">
        <ele>136.7</ele>
        <time>2015-05-31T06:38:07Z</time>
      </trkpt>
      <trkpt lat="49.13028" lon="1.38499">
        <ele>136.8</ele>
        <time>2015-05-31T06:38:09Z</time>
      </trkpt>
      <trkpt lat="49.13018" lon="1.38493">
        <ele>137.1</ele>
        <time>2015-05-31T06:38:11Z</time>
      </trkpt>
      <trkpt lat="49.13009" lon="1.38486">
        <ele>137.2</ele>
        <time>2015-05-31T06:38:13Z</time>
      </trkpt>
      <trkpt lat="49.12999" lon="1.3848">
        <ele>137.4</ele>
        <time>2015-05-31T06:38:15Z</time>
      </trkpt>
      <trkpt lat="49.12989" lon="1.38474">
        <ele>137.5</ele>
        <time>2015-05-31T06:38:17Z</time>
      </trkpt>
      <trkpt lat="49.1298" lon="1.38466">
        <ele>137.7</ele>
        <time>2015-05-31T06:38:19Z</time>
      </trkpt>
      <trkpt lat="49.1297" lon="1.38459">
        <ele>137.8</ele>
        <time>2015-05-31T06:38:21Z</time>
      </trkpt>
      <trkpt lat="49.12961" lon="1.38452">
        <ele>137.9</ele>
        <time>2015-05-31T06:38:23Z</time>
      </trkpt>
      <trkpt lat="49.12952" lon="1.38445">
        <ele>138</ele>
        <time>2015-05-31T06:38:25Z</time>
      </trkpt>
      <trkpt lat="49.12943" lon="1.38437">
        <ele>138.1</ele>
        <time>2015-05-31T06:38:27Z</time>
      </trkpt>
      <trkpt lat="49.12935" lon="1.3843">
        <ele>138.1</ele>
        <time>2015-05-31T06:38:29Z</time>
      </trkpt>
      <trkpt lat="49.12931" lon="1.38417">
        <ele>138.3</ele>
        <time>2015-05-31T06:38:32Z</time>
      </trkpt>
      <trkpt lat="49.12939" lon="1.38403">
        <ele>138.4</ele>
        <time>2015-05-31T06:38:35Z</time>
      </trkpt>
      <trkpt lat="49.12946" lon="1.38393">
        <ele>138.4</ele>
        <time>2015-05-31T06:38:37Z</time>
      </trkpt>
      <trkpt lat="49.12954" lon="1.38383">
        <ele>138.5</ele>
        <time>2015-05-31T06:38:39Z</time>
      </trkpt>
      <trkpt lat="49.12963" lon="1.38373">
        <ele>138.5</ele>
        <time>2015-05-31T06:38:41Z</time>
      </trkpt>
      <trkpt lat="49.12971" lon="1.3836">
        <ele>138.6</ele>
        <time>2015-05-31T06:38:43Z</time>
      </trkpt>
      <trkpt lat="49.12979" lon="1.38347">
        <ele>138.6</ele>
        <time>2015-05-31T06:38:45Z</time>
      </trkpt>
      <trkpt lat="49.12985" lon="1.38332">
        <ele>138.6</ele>
        <time>2015-05-31T06:38:47Z</time>
      </trkpt>
      <trkpt lat="49.12991" lon="1.38315">
        <ele>138.5</ele>
        <time>2015-05-31T06:38:49Z</time>
      </trkpt>
      <trkpt lat="49.12995" lon="1.38298">
        <ele>138.5</ele>
        <time>2015-05-31T06:38:51Z</time>
      </trkpt>
      <trkpt lat="49.12999" lon="1.38279">
        <ele>138.4</ele>
        <time>2015-05-31T06:38:53Z</time>
      </trkpt>
      <trkpt lat="49.13004" lon="1.38261">
        <ele>138.3</ele>
        <time>2015-05-31T06:38:55Z</time>
      </trkpt>
      <trkpt lat="49.13007" lon="1.38243">
        <ele>138.3</ele>
        <time>2015-05-31T06:38:57Z</time>
      </trkpt>
      <trkpt lat="49.13011" lon="1.38225">
        <ele>138.2</ele>
        <time>2015-05-31T06:38:59Z</time>
      </trkpt>
      <trkpt lat="49.13015" lon="1.38207">
        <ele>138</ele>
        <time>2015-05-31T06:39:01Z</time>
      </trkpt>
      <trkpt lat="49.13017" lon="1.38189">
        <ele>137.9</ele>
        <time>2015-05-31T06:39:03Z</time>
      </trkpt>
      <trkpt lat="49.1302" lon="1.38171">
        <ele>137.8</ele>
        <time>2015-05-31T06:39:05Z</time>
      </trkpt>
      <trkpt lat="49.13023" lon="1.38154">
        <ele>137.7</ele>
        <time>2015-05-31T06:39:07Z</time>
      </trkpt>
      <trkpt lat="49.13026" lon="1.38137">
        <ele>137.6</ele>
        <time>2015-05-31T06:39:09Z</time>
      </trkpt>
      <trkpt lat="49.1303" lon="1.3812">
        <ele>137.5</ele>
        <time>2015-05-31T06:39:11Z</time>
      </trkpt>
      <trkpt lat="49.13035" lon="1.38103">
        <ele>137.4</ele>
        <time>2015-05-31T06:39:13Z</time>
      </trkpt>
      <trkpt lat="49.13039" lon="1.38087">
        <ele>137.4</ele>
        <time>2015-05-31T06:39:15Z</time>
      </trkpt>
      <trkpt lat="49.13043" lon="1.3807">
        <ele>137.2</ele>
        <time>2015-05-31T06:39:17Z</time>
      </trkpt>
      <trkpt lat="49.13047" lon="1.38053">
        <ele>137.1</ele>
        <time>2015-05-31T06:39:19Z</time>
      </trkpt>
      <trkpt lat="49.13051" lon="1.38036">
        <ele>137</ele>
        <time>2015-05-31T06:39:21Z</time>
      </trkpt>
      <trkpt lat="49.13055" lon="1.3802">
        <ele>136.9</ele>
        <time>2015-05-31T06:39:23Z</time>
      </trkpt>
      <trkpt lat="49.13059" lon="1.38003">
        <ele>136.8</ele>
        <time>2015-05-31T06:39:25Z</time>
      </trkpt>
      <trkpt lat="49.13062" lon="1.37987">
        <ele>136.7</ele>
        <time>2015-05-31T06:39:27Z</time>
      </trkpt>
      <trkpt lat="49.13066" lon="1.3797">
        <ele>136.6</ele>
        <time>2015-05-31T06:39:29Z</time>
      </trkpt>
      <trkpt lat="49.13069" lon="1.37954">
        <ele>136.6</ele>
        <time>2015-05-31T06:39:31Z</time>
      </trkpt>
      <trkpt lat="49.13073" lon="1.37938">
        <ele>136.5</ele>
        <time>2015-05-31T06:39:33Z</time>
      </trkpt>
      <trkpt lat="49.13077" lon="1.37922">
        <ele>136.5</ele>
        <time>2015-05-31T06:39:35Z</time>
      </trkpt>
      <trkpt lat="49.13081" lon="1.37907">
        <ele>136.4</ele>
        <time>2015-05-31T06:39:37Z</time>
      </trkpt>
      <trkpt lat="49.13085" lon="1.37891">
        <ele>136.4</ele>
        <time>2015-05-31T06:39:39Z</time>
      </trkpt>
      <trkpt lat="49.13088" lon="1.37876">
        <ele>136.4</ele>
        <time>2015-05-31T06:39:41Z</time>
      </trkpt>
      <trkpt lat="49.13093" lon="1.37861">
        <ele>136.4</ele>
        <time>2015-05-31T06:39:43Z</time>
      </trkpt>
      <trkpt lat="49.13098" lon="1.37846">
        <ele>136.4</ele>
        <time>2015-05-31T06:39:45Z</time>
      </trkpt>
      <trkpt lat="49.13103" lon="1.37831">
        <ele>136.4</ele>
        <time>2015-05-31T06:39:47Z</time>
      </trkpt>
      <trkpt lat="49.13108" lon="1.37817">
        <ele>136.5</ele>
        <time>2015-05-31T06:39:49Z</time>
      </trkpt>
      <trkpt lat="49.13115" lon="1.37803">
        <ele>136.5</ele>
        <time>2015-05-31T06:39:51Z</time>
      </trkpt>
      <trkpt lat="49.13122" lon="1.3779">
        <ele>136.5</ele>
        <time>2015-05-31T06:39:53Z</time>
      </trkpt>
      <trkpt lat="49.13129" lon="1.37779">
        <ele>136.6</ele>
        <time>2015-05-31T06:39:55Z</time>
      </trkpt>
      <trkpt lat="49.13137" lon="1.37767">
        <ele>136.7</ele>
        <time>2015-05-31T06:39:57Z</time>
      </trkpt>
      <trkpt lat="49.13145" lon="1.37757">
        <ele>136.7</ele>
        <time>2015-05-31T06:39:59Z</time>
      </trkpt>
      <trkpt lat="49.13153" lon="1.37746">
        <ele>136.8</ele>
        <time>2015-05-31T06:40:01Z</time>
      </trkpt>
      <trkpt lat="49.1316" lon="1.37736">
        <ele>136.9</ele>
        <time>2015-05-31T06:40:03Z</time>
      </trkpt>
      <trkpt lat="49.13168" lon="1.37725">
        <ele>136.9</ele>
        <time>2015-05-31T06:40:05Z</time>
      </trkpt>
      <trkpt lat="49.13176" lon="1.37715">
        <ele>137</ele>
        <time>2015-05-31T06:40:07Z</time>
      </trkpt>
      <trkpt lat="49.13183" lon="1.37704">
        <ele>137.1</ele>
        <time>2015-05-31T06:40:09Z</time>
      </trkpt>
      <trkpt lat="49.13191" lon="1.37694">
        <ele>137.1</ele>
        <time>2015-05-31T06:40:11Z</time>
      </trkpt>
      <trkpt lat="49.13199" lon="1.37683">
        <ele>137.2</ele>
        <time>2015-05-31T06:40:13Z</time>
      </trkpt>
      <trkpt lat="49.13206" lon="1.3767">
        <ele>137.3</ele>
        <time>2015-05-31T06:40:15Z</time>
      </trkpt>
      <trkpt lat="49.13213" lon="1.37657">
        <ele>137.4</ele>
        <time>2015-05-31T06:40:17Z</time>
      </trkpt>
      <trkpt lat="49.1322" lon="1.37646">
        <ele>137.4</ele>
        <time>2015-05-31T06:40:19Z</time>
      </trkpt>
      <trkpt lat="49.13228" lon="1.37634">
        <ele>137.6</ele>
        <time>2015-05-31T06:40:21Z</time>
      </trkpt>
      <trkpt lat="49.13235" lon="1.37623">
        <ele>137.8</ele>
        <time>2015-05-31T06:40:23Z</time>
      </trkpt>
      <trkpt lat="49.13242" lon="1.3761">
        <ele>137.9</ele>
        <time>2015-05-31T06:40:25Z</time>
      </trkpt>
      <trkpt lat="49.13248" lon="1.37598">
        <ele>138.1</ele>
        <time>2015-05-31T06:40:27Z</time>
      </trkpt>
      <trkpt lat="49.13254" lon="1.37585">
        <ele>138.2</ele>
        <time>2015-05-31T06:40:29Z</time>
      </trkpt>
      <trkpt lat="49.1326" lon="1.37574">
        <ele>138.3</ele>
        <time>2015-05-31T06:40:31Z</time>
      </trkpt>
      <trkpt lat="49.13266" lon="1.37563">
        <ele>138.5</ele>
        <time>2015-05-31T06:40:33Z</time>
      </trkpt>
      <trkpt lat="49.13273" lon="1.37552">
        <ele>138.6</ele>
        <time>2015-05-31T06:40:35Z</time>
      </trkpt>
      <trkpt lat="49.13279" lon="1.3754">
        <ele>138.8</ele>
        <time>2015-05-31T06:40:37Z</time>
      </trkpt>
      <trkpt lat="49.13288" lon="1.37526">
        <ele>138.9</ele>
        <time>2015-05-31T06:40:40Z</time>
      </trkpt>
      <trkpt lat="49.13292" lon="1.37514">
        <ele>139</ele>
        <time>2015-05-31T06:40:42Z</time>
      </trkpt>
      <trkpt lat="49.13296" lon="1.37499">
        <ele>139.1</ele>
        <time>2015-05-31T06:40:44Z</time>
      </trkpt>
      <trkpt lat="49.13299" lon="1.37483">
        <ele>139.2</ele>
        <time>2015-05-31T06:40:46Z</time>
      </trkpt>
      <trkpt lat="49.13302" lon="1.37467">
        <ele>139.3</ele>
        <time>2015-05-31T06:40:48Z</time>
      </trkpt>
      <trkpt lat="49.13306" lon="1.37451">
        <ele>139.3</ele>
        <time>2015-05-31T06:40:50Z</time>
      </trkpt>
      <trkpt lat="49.13309" lon="1.37435">
        <ele>139.4</ele>
        <time>2015-05-31T06:40:52Z</time>
      </trkpt>
      <trkpt lat="49.13312" lon="1.37421">
        <ele>139.4</ele>
        <time>2015-05-31T06:40:54Z</time>
      </trkpt>
      <trkpt lat="49.13314" lon="1.37406">
        <ele>139.4</ele>
        <time>2015-05-31T06:40:56Z</time>
      </trkpt>
      <trkpt lat="49.13318" lon="1.37392">
        <ele>139.5</ele>
        <time>2015-05-31T06:40:58Z</time>
      </trkpt>
      <trkpt lat="49.13321" lon="1.37378">
        <ele>139.5</ele>
        <time>2015-05-31T06:41:00Z</time>
      </trkpt>
      <trkpt lat="49.13324" lon="1.37362">
        <ele>139.6</ele>
        <time>2015-05-31T06:41:02Z</time>
      </trkpt>
      <trkpt lat="49.13329" lon="1.37348">
        <ele>139.6</ele>
        <time>2015-05-31T06:41:04Z</time>
      </trkpt>
      <trkpt lat="49.13335" lon="1.37335">
        <ele>139.7</ele>
        <time>2015-05-31T06:41:06Z</time>
      </trkpt>
      <trkpt lat="49.13336" lon="1.37319">
        <ele>139.7</ele>
        <time>2015-05-31T06:41:08Z</time>
      </trkpt>
      <trkpt lat="49.13339" lon="1.37306">
        <ele>139.7</ele>
        <time>2015-05-31T06:41:10Z</time>
      </trkpt>
      <trkpt lat="49.13339" lon="1.37288">
        <ele>139.7</ele>
        <time>2015-05-31T06:41:12Z</time>
      </trkpt>
      <trkpt lat="49.13341" lon="1.37271">
        <ele>139.8</ele>
        <time>2015-05-31T06:41:14Z</time>
      </trkpt>
      <trkpt lat="49.13343" lon="1.3725">
        <ele>139.8</ele>
        <time>2015-05-31T06:41:17Z</time>
      </trkpt>
      <trkpt lat="49.13344" lon="1.37234">
        <ele>139.8</ele>
        <time>2015-05-31T06:41:19Z</time>
      </trkpt>
      <trkpt lat="49.13346" lon="1.37216">
        <ele>139.8</ele>
        <time>2015-05-31T06:41:21Z</time>
      </trkpt>
      <trkpt lat="49.13351" lon="1.37198">
        <ele>139.8</ele>
        <time>2015-05-31T06:41:23Z</time>
      </trkpt>
      <trkpt lat="49.13356" lon="1.37181">
        <ele>139.8</ele>
        <time>2015-05-31T06:41:25Z</time>
      </trkpt>
      <trkpt lat="49.13364" lon="1.3716">
        <ele>139.8</ele>
        <time>2015-05-31T06:41:27Z</time>
      </trkpt>
      <trkpt lat="49.13373" lon="1.37142">
        <ele>139.7</ele>
        <time>2015-05-31T06:41:29Z</time>
      </trkpt>
      <trkpt lat="49.13379" lon="1.37127">
        <ele>139.7</ele>
        <time>2015-05-31T06:41:31Z</time>
      </trkpt>
      <trkpt lat="49.13382" lon="1.3711">
        <ele>139.7</ele>
        <time>2015-05-31T06:41:33Z</time>
      </trkpt>
      <trkpt lat="49.13385" lon="1.37089">
        <ele>139.6</ele>
        <time>2015-05-31T06:41:35Z</time>
      </trkpt>
      <trkpt lat="49.1339" lon="1.37073">
        <ele>139.5</ele>
        <time>2015-05-31T06:41:37Z</time>
      </trkpt>
      <trkpt lat="49.13397" lon="1.37061">
        <ele>139.4</ele>
        <time>2015-05-31T06:41:40Z</time>
      </trkpt>
      <trkpt lat="49.13406" lon="1.37056">
        <ele>139.3</ele>
        <time>2015-05-31T06:41:42Z</time>
      </trkpt>
      <trkpt lat="49.13417" lon="1.37049">
        <ele>139.2</ele>
        <time>2015-05-31T06:41:44Z</time>
      </trkpt>
      <trkpt lat="49.13428" lon="1.37043">
        <ele>139.2</ele>
        <time>2015-05-31T06:41:46Z</time>
      </trkpt>
      <trkpt lat="49.13439" lon="1.37037">
        <ele>139.1</ele>
        <time>2015-05-31T06:41:48Z</time>
      </trkpt>
      <trkpt lat="49.1345" lon="1.37029">
        <ele>139</ele>
        <time>2015-05-31T06:41:51Z</time>
      </trkpt>
      <trkpt lat="49.13458" lon="1.37024">
        <ele>138.9</ele>
        <time>2015-05-31T06:41:53Z</time>
      </trkpt>
      <trkpt lat="49.13467" lon="1.37021">
        <ele>138.9</ele>
        <time>2015-05-31T06:41:55Z</time>
      </trkpt>
      <trkpt lat="49.13477" lon="1.37013">
        <ele>138.8</ele>
        <time>2015-05-31T06:41:57Z</time>
      </trkpt>
      <trkpt lat="49.13487" lon="1.37008">
        <ele>138.6</ele>
        <time>2015-05-31T06:41:59Z</time>
      </trkpt>
      <trkpt lat="49.13496" lon="1.37003">
        <ele>138.5</ele>
        <time>2015-05-31T06:42:01Z</time>
      </trkpt>
      <trkpt lat="49.13505" lon="1.36994">
        <ele>138.4</ele>
        <time>2015-05-31T06:42:03Z</time>
      </trkpt>
      <trkpt lat="49.13516" lon="1.36983">
        <ele>138.1</ele>
        <time>2015-05-31T06:42:06Z</time>
      </trkpt>
      <trkpt lat="49.13529" lon="1.36973">
        <ele>137.9</ele>
        <time>2015-05-31T06:42:09Z</time>
      </trkpt>
      <trkpt lat="49.13539" lon="1.36967">
        <ele>137.8</ele>
        <time>2015-05-31T06:42:11Z</time>
      </trkpt>
      <trkpt lat="49.13549" lon="1.36961">
        <ele>137.6</ele>
        <time>2015-05-31T06:42:13Z</time>
      </trkpt>
      <trkpt lat="49.13558" lon="1.36957">
        <ele>137.5</ele>
        <time>2015-05-31T06:42:15Z</time>
      </trkpt>
      <trkpt lat="49.13571" lon="1.36951">
        <ele>137.3</ele>
        <time>2015-05-31T06:42:17Z</time>
      </trkpt>
      <trkpt lat="49.13584" lon="1.36948">
        <ele>137.2</ele>
        <time>2015-05-31T06:42:19Z</time>
      </trkpt>
      <trkpt lat="49.13596" lon="1.36943">
        <ele>137</ele>
        <time>2015-05-31T06:42:21Z</time>
      </trkpt>
      <trkpt lat="49.13605" lon="1.36936">
        <ele>136.9</ele>
        <time>2015-05-31T06:42:23Z</time>
      </trkpt>
      <trkpt lat="49.13617" lon="1.36931">
        <ele>136.7</ele>
        <time>2015-05-31T06:42:25Z</time>
      </trkpt>
      <trkpt lat="49.1363" lon="1.36928">
        <ele>136.5</ele>
        <time>2015-05-31T06:42:28Z</time>
      </trkpt>
      <trkpt lat="49.13643" lon="1.36935">
        <ele>136.3</ele>
        <time>2015-05-31T06:42:31Z</time>
      </trkpt>
      <trkpt lat="49.13654" lon="1.3694">
        <ele>136.2</ele>
        <time>2015-05-31T06:42:33Z</time>
      </trkpt>
      <trkpt lat="49.13662" lon="1.36944">
        <ele>136.1</ele>
        <time>2015-05-31T06:42:35Z</time>
      </trkpt>
      <trkpt lat="49.13674" lon="1.36946">
        <ele>135.9</ele>
        <time>2015-05-31T06:42:37Z</time>
      </trkpt>
      <trkpt lat="49.13686" lon="1.36947">
        <ele>135.7</ele>
        <time>2015-05-31T06:42:39Z</time>
      </trkpt>
      <trkpt lat="49.137" lon="1.36949">
        <ele>135.3</ele>
        <time>2015-05-31T06:42:42Z</time>
      </trkpt>
      <trkpt lat="49.13711" lon="1.36953">
        <ele>135.1</ele>
        <time>2015-05-31T06:42:44Z</time>
      </trkpt>
      <trkpt lat="49.13722" lon="1.36961">
        <ele>134.9</ele>
        <time>2015-05-31T06:42:46Z</time>
      </trkpt>
      <trkpt lat="49.13729" lon="1.36973">
        <ele>134.7</ele>
        <time>2015-05-31T06:42:48Z</time>
      </trkpt>
      <trkpt lat="49.13738" lon="1.36988">
        <ele>134.5</ele>
        <time>2015-05-31T06:42:50Z</time>
      </trkpt>
      <trkpt lat="49.13747" lon="1.37004">
        <ele>134.2</ele>
        <time>2015-05-31T06:42:52Z</time>
      </trkpt>
      <trkpt lat="49.13757" lon="1.37019">
        <ele>134</ele>
        <time>2015-05-31T06:42:54Z</time>
      </trkpt>
      <trkpt lat="49.13763" lon="1.37034">
        <ele>133.7</ele>
        <time>2015-05-31T06:42:56Z</time>
      </trkpt>
      <trkpt lat="49.13773" lon="1.3705">
        <ele>133.5</ele>
        <time>2015-05-31T06:42:58Z</time>
      </trkpt>
      <trkpt lat="49.13781" lon="1.37064">
        <ele>133.2</ele>
        <time>2015-05-31T06:43:00Z</time>
      </trkpt>
      <trkpt lat="49.1379" lon="1.3708">
        <ele>133</ele>
        <time>2015-05-31T06:43:02Z</time>
      </trkpt>
      <trkpt lat="49.138" lon="1.37095">
        <ele>132.7</ele>
        <time>2015-05-31T06:43:04Z</time>
      </trkpt>
      <trkpt lat="49.13812" lon="1.37115">
        <ele>132.5</ele>
        <time>2015-05-31T06:43:06Z</time>
      </trkpt>
      <trkpt lat="49.13822" lon="1.37133">
        <ele>132.2</ele>
        <time>2015-05-31T06:43:08Z</time>
      </trkpt>
      <trkpt lat="49.13831" lon="1.37149">
        <ele>131.8</ele>
        <time>2015-05-31T06:43:10Z</time>
      </trkpt>
      <trkpt lat="49.13844" lon="1.37168">
        <ele>131.4</ele>
        <time>2015-05-31T06:43:12Z</time>
      </trkpt>
      <trkpt lat="49.13856" lon="1.37186">
        <ele>130.9</ele>
        <time>2015-05-31T06:43:14Z</time>
      </trkpt>
      <trkpt lat="49.13869" lon="1.37204">
        <ele>130.4</ele>
        <time>2015-05-31T06:43:16Z</time>
      </trkpt>
      <trkpt lat="49.13875" lon="1.37214">
        <ele>130.2</ele>
        <time>2015-05-31T06:43:17Z</time>
      </trkpt>
      <trkpt lat="49.13889" lon="1.37229">
        <ele>129.7</ele>
        <time>2015-05-31T06:43:19Z</time>
      </trkpt>
      <trkpt lat="49.13903" lon="1.37237">
        <ele>129.1</ele>
        <time>2015-05-31T06:43:21Z</time>
      </trkpt>
      <trkpt lat="49.13917" lon="1.37244">
        <ele>128.6</ele>
        <time>2015-05-31T06:43:23Z</time>
      </trkpt>
      <trkpt lat="49.13928" lon="1.37247">
        <ele>128.1</ele>
        <time>2015-05-31T06:43:25Z</time>
      </trkpt>
      <trkpt lat="49.13938" lon="1.37246">
        <ele>127.6</ele>
        <time>2015-05-31T06:43:27Z</time>
      </trkpt>
      <trkpt lat="49.13948" lon="1.37241">
        <ele>127</ele>
        <time>2015-05-31T06:43:29Z</time>
      </trkpt>
      <trkpt lat="49.13957" lon="1.37235">
        <ele>126.5</ele>
        <time>2015-05-31T06:43:31Z</time>
      </trkpt>
      <trkpt lat="49.13965" lon="1.3723">
        <ele>126</ele>
        <time>2015-05-31T06:43:33Z</time>
      </trkpt>
      <trkpt lat="49.13975" lon="1.37222">
        <ele>125.5</ele>
        <time>2015-05-31T06:43:35Z</time>
      </trkpt>
      <trkpt lat="49.13984" lon="1.37212">
        <ele>125.1</ele>
        <time>2015-05-31T06:43:37Z</time>
      </trkpt>
      <trkpt lat="49.1399" lon="1.37201">
        <ele>124.7</ele>
        <time>2015-05-31T06:43:39Z</time>
      </trkpt>
      <trkpt lat="49.14" lon="1.37193">
        <ele>124.3</ele>
        <time>2015-05-31T06:43:41Z</time>
      </trkpt>
      <trkpt lat="49.1401" lon="1.37184">
        <ele>123.9</ele>
        <time>2015-05-31T06:43:43Z</time>
      </trkpt>
      <trkpt lat="49.14018" lon="1.37173">
        <ele>123.5</ele>
        <time>2015-05-31T06:43:45Z</time>
      </trkpt>
      <trkpt lat="49.1403" lon="1.37167">
        <ele>123.1</ele>
        <time>2015-05-31T06:43:47Z</time>
      </trkpt>
      <trkpt lat="49.14041" lon="1.3716">
        <ele>122.7</ele>
        <time>2015-05-31T06:43:50Z</time>
      </trkpt>
      <trkpt lat="49.14057" lon="1.37151">
        <ele>122.2</ele>
        <time>2015-05-31T06:43:53Z</time>
      </trkpt>
      <trkpt lat="49.14068" lon="1.37138">
        <ele>121.8</ele>
        <time>2015-05-31T06:43:55Z</time>
      </trkpt>
      <trkpt lat="49.14078" lon="1.37124">
        <ele>121.3</ele>
        <time>2015-05-31T06:43:57Z</time>
      </trkpt>
      <trkpt lat="49.14091" lon="1.3711">
        <ele>120.8</ele>
        <time>2015-05-31T06:43:59Z</time>
      </trkpt>
      <trkpt lat="49.14103" lon="1.37097">
        <ele>120.3</ele>
        <time>2015-05-31T06:44:01Z</time>
      </trkpt>
      <trkpt lat="49.14111" lon="1.37078">
        <ele>119.7</ele>
        <time>2015-05-31T06:44:03Z</time>
      </trkpt>
      <trkpt lat="49.14117" lon="1.3706">
        <ele>119.3</ele>
        <time>2015-05-31T06:44:05Z</time>
      </trkpt>
      <trkpt lat="49.14126" lon="1.37044">
        <ele>118.8</ele>
        <time>2015-05-31T06:44:07Z</time>
      </trkpt>
      <trkpt lat="49.14134" lon="1.37029">
        <ele>118.4</ele>
        <time>2015-05-31T06:44:09Z</time>
      </trkpt>
      <trkpt lat="49.14143" lon="1.37011">
        <ele>118.1</ele>
        <time>2015-05-31T06:44:11Z</time>
      </trkpt>
      <trkpt lat="49.14152" lon="1.36995">
        <ele>117.7</ele>
        <time>2015-05-31T06:44:13Z</time>
      </trkpt>
      <trkpt lat="49.14162" lon="1.36979">
        <ele>117.2</ele>
        <time>2015-05-31T06:44:15Z</time>
      </trkpt>
      <trkpt lat="49.14178" lon="1.36967">
        <ele>116.4</ele>
        <time>2015-05-31T06:44:17Z</time>
      </trkpt>
      <trkpt lat="49.14193" lon="1.36956">
        <ele>115.6</ele>
        <time>2015-05-31T06:44:19Z</time>
      </trkpt>
      <trkpt lat="49.14205" lon="1.36949">
        <ele>114.7</ele>
        <time>2015-05-31T06:44:21Z</time>
      </trkpt>
      <trkpt lat="49.14214" lon="1.36941">
        <ele>113.7</ele>
        <time>2015-05-31T06:44:23Z</time>
      </trkpt>
      <trkpt lat="49.14225" lon="1.36933">
        <ele>112.8</ele>
        <time>2015-05-31T06:44:25Z</time>
      </trkpt>
      <trkpt lat="49.14234" lon="1.36927">
        <ele>111.8</ele>
        <time>2015-05-31T06:44:27Z</time>
      </trkpt>
      <trkpt lat="49.14243" lon="1.36921">
        <ele>110.9</ele>
        <time>2015-05-31T06:44:29Z</time>
      </trkpt>
      <trkpt lat="49.14254" lon="1.36915">
        <ele>110</ele>
        <time>2015-05-31T06:44:31Z</time>
      </trkpt>
      <trkpt lat="49.14264" lon="1.36911">
        <ele>109.2</ele>
        <time>2015-05-31T06:44:33Z</time>
      </trkpt>
      <trkpt lat="49.14278" lon="1.36909">
        <ele>108.4</ele>
        <time>2015-05-31T06:44:35Z</time>
      </trkpt>
      <trkpt lat="49.14286" lon="1.36916">
        <ele>107.2</ele>
        <time>2015-05-31T06:44:38Z</time>
      </trkpt>
      <trkpt lat="49.14294" lon="1.36927">
        <ele>106.2</ele>
        <time>2015-05-31T06:44:41Z</time>
      </trkpt>
      <trkpt lat="49.14302" lon="1.36935">
        <ele>105.5</ele>
        <time>2015-05-31T06:44:43Z</time>
      </trkpt>
      <trkpt lat="49.14313" lon="1.36947">
        <ele>104.4</ele>
        <time>2015-05-31T06:44:46Z</time>
      </trkpt>
      <trkpt lat="49.14323" lon="1.36956">
        <ele>103.6</ele>
        <time>2015-05-31T06:44:48Z</time>
      </trkpt>
      <trkpt lat="49.14333" lon="1.36966">
        <ele>102.8</ele>
        <time>2015-05-31T06:44:50Z</time>
      </trkpt>
      <trkpt lat="49.1434" lon="1.36975">
        <ele>101.9</ele>
        <time>2015-05-31T06:44:52Z</time>
      </trkpt>
      <trkpt lat="49.14349" lon="1.36985">
        <ele>100.9</ele>
        <time>2015-05-31T06:44:54Z</time>
      </trkpt>
      <trkpt lat="49.14361" lon="1.36993">
        <ele>99.5</ele>
        <time>2015-05-31T06:44:57Z</time>
      </trkpt>
      <trkpt lat="49.14372" lon="1.36997">
        <ele>97.9</ele>
        <time>2015-05-31T06:45:00Z</time>
      </trkpt>
      <trkpt lat="49.14382" lon="1.37">
        <ele>96</ele>
        <time>2015-05-31T06:45:04Z</time>
      </trkpt>
      <trkpt lat="49.14392" lon="1.37005">
        <ele>94.6</ele>
        <time>2015-05-31T06:45:07Z</time>
      </trkpt>
      <trkpt lat="49.14401" lon="1.37014">
        <ele>93.1</ele>
        <time>2015-05-31T06:45:10Z</time>
      </trkpt>
      <trkpt lat="49.14411" lon="1.37024">
        <ele>91.7</ele>
        <time>2015-05-31T06:45:13Z</time>
      </trkpt>
      <trkpt lat="49.14418" lon="1.37034">
        <ele>90.7</ele>
        <time>2015-05-31T06:45:15Z</time>
      </trkpt>
      <trkpt lat="49.14428" lon="1.37044">
        <ele>89.2</ele>
        <time>2015-05-31T06:45:18Z</time>
      </trkpt>
      <trkpt lat="49.14442" lon="1.37043">
        <ele>88.1</ele>
        <time>2015-05-31T06:45:20Z</time>
      </trkpt>
      <trkpt lat="49.14455" lon="1.37038">
        <ele>87.1</ele>
        <time>2015-05-31T06:45:22Z</time>
      </trkpt>
      <trkpt lat="49.14468" lon="1.37031">
        <ele>86.1</ele>
        <time>2015-05-31T06:45:24Z</time>
      </trkpt>
      <trkpt lat="49.14483" lon="1.3702">
        <ele>85.1</ele>
        <time>2015-05-31T06:45:26Z</time>
      </trkpt>
      <trkpt lat="49.14496" lon="1.37006">
        <ele>83.9</ele>
        <time>2015-05-31T06:45:28Z</time>
      </trkpt>
      <trkpt lat="49.14509" lon="1.36992">
        <ele>82.8</ele>
        <time>2015-05-31T06:45:30Z</time>
      </trkpt>
      <trkpt lat="49.1452" lon="1.36973">
        <ele>81.7</ele>
        <time>2015-05-31T06:45:32Z</time>
      </trkpt>
      <trkpt lat="49.14527" lon="1.36953">
        <ele>80.8</ele>
        <time>2015-05-31T06:45:34Z</time>
      </trkpt>
      <trkpt lat="49.14532" lon="1.3693">
        <ele>79.7</ele>
        <time>2015-05-31T06:45:36Z</time>
      </trkpt>
      <trkpt lat="49.14536" lon="1.36907">
        <ele>78.8</ele>
        <time>2015-05-31T06:45:38Z</time>
      </trkpt>
      <trkpt lat="49.14538" lon="1.36885">
        <ele>77.9</ele>
        <time>2015-05-31T06:45:40Z</time>
      </trkpt>
      <trkpt lat="49.14539" lon="1.36862">
        <ele>76.9</ele>
        <time>2015-05-31T06:45:42Z</time>
      </trkpt>
      <trkpt lat="49.1454" lon="1.36838">
        <ele>76</ele>
        <time>2015-05-31T06:45:44Z</time>
      </trkpt>
      <trkpt lat="49.14542" lon="1.36815">
        <ele>74.9</ele>
        <time>2015-05-31T06:45:46Z</time>
      </trkpt>
      <trkpt lat="49.14545" lon="1.36794">
        <ele>73.8</ele>
        <time>2015-05-31T06:45:48Z</time>
      </trkpt>
      <trkpt lat="49.14553" lon="1.36774">
        <ele>72.6</ele>
        <time>2015-05-31T06:45:50Z</time>
      </trkpt>
      <trkpt lat="49.14561" lon="1.3676">
        <ele>71.3</ele>
        <time>2015-05-31T06:45:52Z</time>
      </trkpt>
      <trkpt lat="49.14569" lon="1.36748">
        <ele>69.1</ele>
        <time>2015-05-31T06:45:55Z</time>
      </trkpt>
      <trkpt lat="49.14569" lon="1.36731">
        <ele>66.3</ele>
        <time>2015-05-31T06:45:59Z</time>
      </trkpt>
      <trkpt lat="49.1457" lon="1.36716">
        <ele>64.6</ele>
        <time>2015-05-31T06:46:02Z</time>
      </trkpt>
      <trkpt lat="49.1457" lon="1.36702">
        <ele>63.3</ele>
        <time>2015-05-31T06:46:05Z</time>
      </trkpt>
      <trkpt lat="49.14567" lon="1.36688">
        <ele>62</ele>
        <time>2015-05-31T06:46:09Z</time>
      </trkpt>
      <trkpt lat="49.14565" lon="1.36672">
        <ele>61.3</ele>
        <time>2015-05-31T06:46:13Z</time>
      </trkpt>
      <trkpt lat="49.14563" lon="1.36657">
        <ele>61.2</ele>
        <time>2015-05-31T06:46:17Z</time>
      </trkpt>
      <trkpt lat="49.1456" lon="1.36642">
        <ele>61.2</ele>
        <time>2015-05-31T06:46:21Z</time>
      </trkpt>
      <trkpt lat="49.14558" lon="1.36626">
        <ele>61.6</ele>
        <time>2015-05-31T06:46:25Z</time>
      </trkpt>
      <trkpt lat="49.14553" lon="1.36612">
        <ele>62.1</ele>
        <time>2015-05-31T06:46:29Z</time>
      </trkpt>
      <trkpt lat="49.14546" lon="1.36603">
        <ele>62.8</ele>
        <time>2015-05-31T06:46:34Z</time>
      </trkpt>
      <trkpt lat="49.14537" lon="1.36597">
        <ele>63.7</ele>
        <time>2015-05-31T06:46:39Z</time>
      </trkpt>
      <trkpt lat="49.14529" lon="1.36589">
        <ele>64.7</ele>
        <time>2015-05-31T06:46:44Z</time>
      </trkpt>
      <trkpt lat="49.14521" lon="1.36583">
        <ele>65.8</ele>
        <time>2015-05-31T06:46:49Z</time>
      </trkpt>
      <trkpt lat="49.14512" lon="1.36576">
        <ele>67</ele>
        <time>2015-05-31T06:46:54Z</time>
      </trkpt>
      <trkpt lat="49.14503" lon="1.36571">
        <ele>68.3</ele>
        <time>2015-05-31T06:46:59Z</time>
      </trkpt>
      <trkpt lat="49.14494" lon="1.36565">
        <ele>70</ele>
        <time>2015-05-31T06:47:05Z</time>
      </trkpt>
      <trkpt lat="49.14484" lon="1.36559">
        <ele>71.7</ele>
        <time>2015-05-31T06:47:11Z</time>
      </trkpt>
      <trkpt lat="49.14475" lon="1.36556">
        <ele>73.9</ele>
        <time>2015-05-31T06:47:19Z</time>
      </trkpt>
      <trkpt lat="49.14466" lon="1.36555">
        <ele>75.2</ele>
        <time>2015-05-31T06:47:24Z</time>
      </trkpt>
      <trkpt lat="49.14459" lon="1.36544">
        <ele>76.8</ele>
        <time>2015-05-31T06:47:30Z</time>
      </trkpt>
      <trkpt lat="49.14458" lon="1.36528">
        <ele>77.8</ele>
        <time>2015-05-31T06:47:35Z</time>
      </trkpt>
      <trkpt lat="49.14449" lon="1.36522">
        <ele>78.8</ele>
        <time>2015-05-31T06:47:40Z</time>
      </trkpt>
      <trkpt lat="49.14438" lon="1.36522">
        <ele>80.2</ele>
        <time>2015-05-31T06:47:47Z</time>
      </trkpt>
      <trkpt lat="49.14429" lon="1.36527">
        <ele>81.2</ele>
        <time>2015-05-31T06:47:52Z</time>
      </trkpt>
      <trkpt lat="49.1442" lon="1.36526">
        <ele>82.6</ele>
        <time>2015-05-31T06:47:58Z</time>
      </trkpt>
      <trkpt lat="49.1441" lon="1.36529">
        <ele>83.8</ele>
        <time>2015-05-31T06:48:03Z</time>
      </trkpt>
      <trkpt lat="49.144" lon="1.36532">
        <ele>85.2</ele>
        <time>2015-05-31T06:48:09Z</time>
      </trkpt>
      <trkpt lat="49.14391" lon="1.36535">
        <ele>86.1</ele>
        <time>2015-05-31T06:48:13Z</time>
      </trkpt>
      <trkpt lat="49.14381" lon="1.3654">
        <ele>87.6</ele>
        <time>2015-05-31T06:48:19Z</time>
      </trkpt>
      <trkpt lat="49.14373" lon="1.36548">
        <ele>89.2</ele>
        <time>2015-05-31T06:48:26Z</time>
      </trkpt>
      <trkpt lat="49.14364" lon="1.36554">
        <ele>90.3</ele>
        <time>2015-05-31T06:48:31Z</time>
      </trkpt>
      <trkpt lat="49.14352" lon="1.36562">
        <ele>90.9</ele>
        <time>2015-05-31T06:48:35Z</time>
      </trkpt>
      <trkpt lat="49.14343" lon="1.3657">
        <ele>91.8</ele>
        <time>2015-05-31T06:48:39Z</time>
      </trkpt>
      <trkpt lat="49.14336" lon="1.36578">
        <ele>92.5</ele>
        <time>2015-05-31T06:48:43Z</time>
      </trkpt>
      <trkpt lat="49.14327" lon="1.36587">
        <ele>93.6</ele>
        <time>2015-05-31T06:48:49Z</time>
      </trkpt>
      <trkpt lat="49.14319" lon="1.36599">
        <ele>94.6</ele>
        <time>2015-05-31T06:48:55Z</time>
      </trkpt>
      <trkpt lat="49.14312" lon="1.36607">
        <ele>95.5</ele>
        <time>2015-05-31T06:48:59Z</time>
      </trkpt>
      <trkpt lat="49.14304" lon="1.36616">
        <ele>96.3</ele>
        <time>2015-05-31T06:49:03Z</time>
      </trkpt>
      <trkpt lat="49.14295" lon="1.36626">
        <ele>97.4</ele>
        <time>2015-05-31T06:49:08Z</time>
      </trkpt>
      <trkpt lat="49.14286" lon="1.36632">
        <ele>98.3</ele>
        <time>2015-05-31T06:49:12Z</time>
      </trkpt>
      <trkpt lat="49.14278" lon="1.36639">
        <ele>99.4</ele>
        <time>2015-05-31T06:49:17Z</time>
      </trkpt>
      <trkpt lat="49.14269" lon="1.3664">
        <ele>100.6</ele>
        <time>2015-05-31T06:49:23Z</time>
      </trkpt>
      <trkpt lat="49.14263" lon="1.36651">
        <ele>103</ele>
        <time>2015-05-31T06:49:41Z</time>
      </trkpt>
      <trkpt lat="49.1426" lon="1.36666">
        <ele>103.8</ele>
        <time>2015-05-31T06:50:07Z</time>
      </trkpt>
      <trkpt lat="49.1426" lon="1.3668">
        <ele>103.9</ele>
        <time>2015-05-31T06:50:12Z</time>
      </trkpt>
      <trkpt lat="49.1425" lon="1.36685">
        <ele>104</ele>
        <time>2015-05-31T06:50:19Z</time>
      </trkpt>
      <trkpt lat="49.14241" lon="1.36681">
        <ele>104.1</ele>
        <time>2015-05-31T06:50:23Z</time>
      </trkpt>
      <trkpt lat="49.14229" lon="1.36679">
        <ele>104.6</ele>
        <time>2015-05-31T06:50:27Z</time>
      </trkpt>
      <trkpt lat="49.14219" lon="1.36682">
        <ele>105.2</ele>
        <time>2015-05-31T06:50:31Z</time>
      </trkpt>
      <trkpt lat="49.14208" lon="1.36684">
        <ele>105.9</ele>
        <time>2015-05-31T06:50:35Z</time>
      </trkpt>
      <trkpt lat="49.14198" lon="1.36687">
        <ele>106.7</ele>
        <time>2015-05-31T06:50:39Z</time>
      </trkpt>
      <trkpt lat="49.14188" lon="1.36685">
        <ele>107.8</ele>
        <time>2015-05-31T06:50:44Z</time>
      </trkpt>
      <trkpt lat="49.14178" lon="1.36681">
        <ele>108.7</ele>
        <time>2015-05-31T06:50:48Z</time>
      </trkpt>
      <trkpt lat="49.14168" lon="1.36675">
        <ele>109.6</ele>
        <time>2015-05-31T06:50:52Z</time>
      </trkpt>
      <trkpt lat="49.14159" lon="1.36671">
        <ele>110.6</ele>
        <time>2015-05-31T06:50:56Z</time>
      </trkpt>
      <trkpt lat="49.14149" lon="1.3667">
        <ele>112.1</ele>
        <time>2015-05-31T06:51:02Z</time>
      </trkpt>
      <trkpt lat="49.1414" lon="1.36669">
        <ele>113.2</ele>
        <time>2015-05-31T06:51:06Z</time>
      </trkpt>
      <trkpt lat="49.14131" lon="1.36664">
        <ele>114.5</ele>
        <time>2015-05-31T06:51:11Z</time>
      </trkpt>
      <trkpt lat="49.14121" lon="1.36661">
        <ele>115.7</ele>
        <time>2015-05-31T06:51:16Z</time>
      </trkpt>
      <trkpt lat="49.1411" lon="1.3666">
        <ele>116.6</ele>
        <time>2015-05-31T06:51:20Z</time>
      </trkpt>
      <trkpt lat="49.141" lon="1.36658">
        <ele>117.5</ele>
        <time>2015-05-31T06:51:24Z</time>
      </trkpt>
      <trkpt lat="49.14091" lon="1.36656">
        <ele>118.3</ele>
        <time>2015-05-31T06:51:27Z</time>
      </trkpt>
      <trkpt lat="49.14082" lon="1.36655">
        <ele>119</ele>
        <time>2015-05-31T06:51:30Z</time>
      </trkpt>
      <trkpt lat="49.14071" lon="1.36654">
        <ele>119.9</ele>
        <time>2015-05-31T06:51:34Z</time>
      </trkpt>
      <trkpt lat="49.1406" lon="1.36651">
        <ele>120.9</ele>
        <time>2015-05-31T06:51:38Z</time>
      </trkpt>
      <trkpt lat="49.14051" lon="1.36649">
        <ele>121.6</ele>
        <time>2015-05-31T06:51:41Z</time>
      </trkpt>
      <trkpt lat="49.1404" lon="1.36647">
        <ele>122.6</ele>
        <time>2015-05-31T06:51:45Z</time>
      </trkpt>
      <trkpt lat="49.14029" lon="1.36645">
        <ele>123.2</ele>
        <time>2015-05-31T06:51:48Z</time>
      </trkpt>
      <trkpt lat="49.14019" lon="1.36644">
        <ele>123.8</ele>
        <time>2015-05-31T06:51:51Z</time>
      </trkpt>
      <trkpt lat="49.1401" lon="1.36642">
        <ele>124.4</ele>
        <time>2015-05-31T06:51:54Z</time>
      </trkpt>
      <trkpt lat="49.14" lon="1.36639">
        <ele>125.1</ele>
        <time>2015-05-31T06:51:57Z</time>
      </trkpt>
      <trkpt lat="49.1399" lon="1.36638">
        <ele>125.7</ele>
        <time>2015-05-31T06:52:00Z</time>
      </trkpt>
      <trkpt lat="49.13979" lon="1.36635">
        <ele>126.1</ele>
        <time>2015-05-31T06:52:03Z</time>
      </trkpt>
      <trkpt lat="49.13968" lon="1.36631">
        <ele>126.6</ele>
        <time>2015-05-31T06:52:06Z</time>
      </trkpt>
      <trkpt lat="49.13958" lon="1.3663">
        <ele>126.9</ele>
        <time>2015-05-31T06:52:09Z</time>
      </trkpt>
      <trkpt lat="49.13947" lon="1.36628">
        <ele>127.3</ele>
        <time>2015-05-31T06:52:12Z</time>
      </trkpt>
      <trkpt lat="49.13935" lon="1.36624">
        <ele>127.7</ele>
        <time>2015-05-31T06:52:15Z</time>
      </trkpt>
      <trkpt lat="49.13924" lon="1.36621">
        <ele>128.1</ele>
        <time>2015-05-31T06:52:18Z</time>
      </trkpt>
      <trkpt lat="49.13913" lon="1.36618">
        <ele>128.4</ele>
        <time>2015-05-31T06:52:21Z</time>
      </trkpt>
      <trkpt lat="49.13899" lon="1.36615">
        <ele>128.7</ele>
        <time>2015-05-31T06:52:24Z</time>
      </trkpt>
      <trkpt lat="49.13887" lon="1.36613">
        <ele>128.9</ele>
        <time>2015-05-31T06:52:27Z</time>
      </trkpt>
      <trkpt lat="49.13875" lon="1.36611">
        <ele>129.2</ele>
        <time>2015-05-31T06:52:30Z</time>
      </trkpt>
      <trkpt lat="49.13866" lon="1.36607">
        <ele>129.4</ele>
        <time>2015-05-31T06:52:32Z</time>
      </trkpt>
      <trkpt lat="49.13858" lon="1.36597">
        <ele>129.6</ele>
        <time>2015-05-31T06:52:35Z</time>
      </trkpt>
      <trkpt lat="49.13854" lon="1.36581">
        <ele>129.8</ele>
        <time>2015-05-31T06:52:38Z</time>
      </trkpt>
      <trkpt lat="49.13851" lon="1.36564">
        <ele>130</ele>
        <time>2015-05-31T06:52:41Z</time>
      </trkpt>
      <trkpt lat="49.13847" lon="1.3655">
        <ele>130.1</ele>
        <time>2015-05-31T06:52:43Z</time>
      </trkpt>
      <trkpt lat="49.13844" lon="1.3653">
        <ele>130.2</ele>
        <time>2015-05-31T06:52:46Z</time>
      </trkpt>
      <trkpt lat="49.13838" lon="1.36514">
        <ele>130.2</ele>
        <time>2015-05-31T06:52:48Z</time>
      </trkpt>
      <trkpt lat="49.13836" lon="1.36497">
        <ele>130.3</ele>
        <time>2015-05-31T06:52:51Z</time>
      </trkpt>
      <trkpt lat="49.13831" lon="1.36484">
        <ele>130.4</ele>
        <time>2015-05-31T06:52:53Z</time>
      </trkpt>
      <trkpt lat="49.13828" lon="1.36471">
        <ele>130.4</ele>
        <time>2015-05-31T06:52:55Z</time>
      </trkpt>
      <trkpt lat="49.13826" lon="1.36454">
        <ele>130.5</ele>
        <time>2015-05-31T06:52:58Z</time>
      </trkpt>
      <trkpt lat="49.13823" lon="1.36437">
        <ele>130.5</ele>
        <time>2015-05-31T06:53:01Z</time>
      </trkpt>
      <trkpt lat="49.13822" lon="1.36423">
        <ele>130.5</ele>
        <time>2015-05-31T06:53:03Z</time>
      </trkpt>
      <trkpt lat="49.13821" lon="1.36409">
        <ele>130.6</ele>
        <time>2015-05-31T06:53:06Z</time>
      </trkpt>
      <trkpt lat="49.13818" lon="1.36394">
        <ele>130.6</ele>
        <time>2015-05-31T06:53:09Z</time>
      </trkpt>
      <trkpt lat="49.13815" lon="1.36375">
        <ele>130.6</ele>
        <time>2015-05-31T06:53:12Z</time>
      </trkpt>
      <trkpt lat="49.13813" lon="1.36361">
        <ele>130.6</ele>
        <time>2015-05-31T06:53:14Z</time>
      </trkpt>
      <trkpt lat="49.13811" lon="1.36346">
        <ele>130.6</ele>
        <time>2015-05-31T06:53:16Z</time>
      </trkpt>
      <trkpt lat="49.13807" lon="1.36331">
        <ele>130.6</ele>
        <time>2015-05-31T06:53:18Z</time>
      </trkpt>
      <trkpt lat="49.13804" lon="1.36317">
        <ele>130.4</ele>
        <time>2015-05-31T06:53:20Z</time>
      </trkpt>
      <trkpt lat="49.13802" lon="1.36301">
        <ele>130.2</ele>
        <time>2015-05-31T06:53:22Z</time>
      </trkpt>
      <trkpt lat="49.13799" lon="1.36283">
        <ele>129.7</ele>
        <time>2015-05-31T06:53:24Z</time>
      </trkpt>
      <trkpt lat="49.13797" lon="1.36263">
        <ele>129.1</ele>
        <time>2015-05-31T06:53:26Z</time>
      </trkpt>
      <trkpt lat="49.13794" lon="1.3624">
        <ele>128.3</ele>
        <time>2015-05-31T06:53:28Z</time>
      </trkpt>
      <trkpt lat="49.13791" lon="1.36222">
        <ele>127.2</ele>
        <time>2015-05-31T06:53:30Z</time>
      </trkpt>
      <trkpt lat="49.13787" lon="1.36207">
        <ele>125.9</ele>
        <time>2015-05-31T06:53:32Z</time>
      </trkpt>
      <trkpt lat="49.13785" lon="1.36189">
        <ele>123.5</ele>
        <time>2015-05-31T06:53:35Z</time>
      </trkpt>
      <trkpt lat="49.13778" lon="1.36176">
        <ele>120.9</ele>
        <time>2015-05-31T06:53:38Z</time>
      </trkpt>
      <trkpt lat="49.13768" lon="1.36178">
        <ele>118.1</ele>
        <time>2015-05-31T06:53:42Z</time>
      </trkpt>
      <trkpt lat="49.13756" lon="1.36176">
        <ele>116.4</ele>
        <time>2015-05-31T06:53:45Z</time>
      </trkpt>
      <trkpt lat="49.13746" lon="1.36175">
        <ele>115.5</ele>
        <time>2015-05-31T06:53:47Z</time>
      </trkpt>
      <trkpt lat="49.13736" lon="1.36177">
        <ele>114.7</ele>
        <time>2015-05-31T06:53:49Z</time>
      </trkpt>
      <trkpt lat="49.13722" lon="1.36175">
        <ele>113.7</ele>
        <time>2015-05-31T06:53:52Z</time>
      </trkpt>
      <trkpt lat="49.1371" lon="1.36172">
        <ele>112.9</ele>
        <time>2015-05-31T06:53:55Z</time>
      </trkpt>
      <trkpt lat="49.13699" lon="1.36169">
        <ele>112.4</ele>
        <time>2015-05-31T06:53:57Z</time>
      </trkpt>
      <trkpt lat="49.13688" lon="1.36163">
        <ele>112</ele>
        <time>2015-05-31T06:53:59Z</time>
      </trkpt>
      <trkpt lat="49.1368" lon="1.36155">
        <ele>111.7</ele>
        <time>2015-05-31T06:54:01Z</time>
      </trkpt>
      <trkpt lat="49.13669" lon="1.36145">
        <ele>111.2</ele>
        <time>2015-05-31T06:54:03Z</time>
      </trkpt>
      <trkpt lat="49.13661" lon="1.36139">
        <ele>110.7</ele>
        <time>2015-05-31T06:54:05Z</time>
      </trkpt>
      <trkpt lat="49.13653" lon="1.36128">
        <ele>110.2</ele>
        <time>2015-05-31T06:54:07Z</time>
      </trkpt>
      <trkpt lat="49.13644" lon="1.36118">
        <ele>109.7</ele>
        <time>2015-05-31T06:54:09Z</time>
      </trkpt>
      <trkpt lat="49.13629" lon="1.36097">
        <ele>109.3</ele>
        <time>2015-05-31T06:54:11Z</time>
      </trkpt>
      <trkpt lat="49.13619" lon="1.36078">
        <ele>108.9</ele>
        <time>2015-05-31T06:54:13Z</time>
      </trkpt>
      <trkpt lat="49.13611" lon="1.36067">
        <ele>108.6</ele>
        <time>2015-05-31T06:54:15Z</time>
      </trkpt>
      <trkpt lat="49.13604" lon="1.36052">
        <ele>108.2</ele>
        <time>2015-05-31T06:54:18Z</time>
      </trkpt>
      <trkpt lat="49.13599" lon="1.3604">
        <ele>107.9</ele>
        <time>2015-05-31T06:54:21Z</time>
      </trkpt>
      <trkpt lat="49.13591" lon="1.36028">
        <ele>107.7</ele>
        <time>2015-05-31T06:54:23Z</time>
      </trkpt>
      <trkpt lat="49.13583" lon="1.36019">
        <ele>107.5</ele>
        <time>2015-05-31T06:54:25Z</time>
      </trkpt>
      <trkpt lat="49.13575" lon="1.36006">
        <ele>107.3</ele>
        <time>2015-05-31T06:54:27Z</time>
      </trkpt>
      <trkpt lat="49.13568" lon="1.35996">
        <ele>106.6</ele>
        <time>2015-05-31T06:54:34Z</time>
      </trkpt>
      <trkpt lat="49.13561" lon="1.35982">
        <ele>105.9</ele>
        <time>2015-05-31T06:54:44Z</time>
      </trkpt>
      <trkpt lat="49.13558" lon="1.35969">
        <ele>105.8</ele>
        <time>2015-05-31T06:54:46Z</time>
      </trkpt>
      <trkpt lat="49.13556" lon="1.35955">
        <ele>105.6</ele>
        <time>2015-05-31T06:54:48Z</time>
      </trkpt>
      <trkpt lat="49.1355" lon="1.3594">
        <ele>105.3</ele>
        <time>2015-05-31T06:54:52Z</time>
      </trkpt>
      <trkpt lat="49.1354" lon="1.35936">
        <ele>104.9</ele>
        <time>2015-05-31T06:54:57Z</time>
      </trkpt>
      <trkpt lat="49.13531" lon="1.35935">
        <ele>104.7</ele>
        <time>2015-05-31T06:55:03Z</time>
      </trkpt>
      <trkpt lat="49.13519" lon="1.3593">
        <ele>104.7</ele>
        <time>2015-05-31T06:55:08Z</time>
      </trkpt>
      <trkpt lat="49.13508" lon="1.35926">
        <ele>104.7</ele>
        <time>2015-05-31T06:55:11Z</time>
      </trkpt>
      <trkpt lat="49.13499" lon="1.35919">
        <ele>104.9</ele>
        <time>2015-05-31T06:55:14Z</time>
      </trkpt>
      <trkpt lat="49.13488" lon="1.35915">
        <ele>105</ele>
        <time>2015-05-31T06:55:17Z</time>
      </trkpt>
      <trkpt lat="49.13475" lon="1.35913">
        <ele>105.3</ele>
        <time>2015-05-31T06:55:20Z</time>
      </trkpt>
      <trkpt lat="49.13464" lon="1.35911">
        <ele>105.7</ele>
        <time>2015-05-31T06:55:23Z</time>
      </trkpt>
      <trkpt lat="49.13453" lon="1.35911">
        <ele>106</ele>
        <time>2015-05-31T06:55:26Z</time>
      </trkpt>
      <trkpt lat="49.13443" lon="1.3591">
        <ele>106.3</ele>
        <time>2015-05-31T06:55:28Z</time>
      </trkpt>
      <trkpt lat="49.13433" lon="1.35907">
        <ele>106.7</ele>
        <time>2015-05-31T06:55:31Z</time>
      </trkpt>
      <trkpt lat="49.13419" lon="1.35905">
        <ele>107.5</ele>
        <time>2015-05-31T06:55:35Z</time>
      </trkpt>
      <trkpt lat="49.13408" lon="1.35897">
        <ele>108.1</ele>
        <time>2015-05-31T06:55:38Z</time>
      </trkpt>
      <trkpt lat="49.13399" lon="1.35892">
        <ele>108.7</ele>
        <time>2015-05-31T06:55:41Z</time>
      </trkpt>
      <trkpt lat="49.13391" lon="1.35887">
        <ele>109.2</ele>
        <time>2015-05-31T06:55:44Z</time>
      </trkpt>
      <trkpt lat="49.13388" lon="1.35872">
        <ele>110.2</ele>
        <time>2015-05-31T06:55:51Z</time>
      </trkpt>
      <trkpt lat="49.13389" lon="1.35857">
        <ele>111.3</ele>
        <time>2015-05-31T06:55:57Z</time>
      </trkpt>
      <trkpt lat="49.13384" lon="1.35844">
        <ele>113</ele>
        <time>2015-05-31T06:56:03Z</time>
      </trkpt>
      <trkpt lat="49.13378" lon="1.35833">
        <ele>114.7</ele>
        <time>2015-05-31T06:56:08Z</time>
      </trkpt>
      <trkpt lat="49.13374" lon="1.35821">
        <ele>116.3</ele>
        <time>2015-05-31T06:56:13Z</time>
      </trkpt>
      <trkpt lat="49.13367" lon="1.35808">
        <ele>117.9</ele>
        <time>2015-05-31T06:56:19Z</time>
      </trkpt>
      <trkpt lat="49.13367" lon="1.35791">
        <ele>119.3</ele>
        <time>2015-05-31T06:56:24Z</time>
      </trkpt>
      <trkpt lat="49.13367" lon="1.35776">
        <ele>120.3</ele>
        <time>2015-05-31T06:56:28Z</time>
      </trkpt>
      <trkpt lat="49.13368" lon="1.35759">
        <ele>121.2</ele>
        <time>2015-05-31T06:56:32Z</time>
      </trkpt>
      <trkpt lat="49.13368" lon="1.35742">
        <ele>122.1</ele>
        <time>2015-05-31T06:56:36Z</time>
      </trkpt>
      <trkpt lat="49.13372" lon="1.35726">
        <ele>122.8</ele>
        <time>2015-05-31T06:56:40Z</time>
      </trkpt>
      <trkpt lat="49.13373" lon="1.35711">
        <ele>123.3</ele>
        <time>2015-05-31T06:56:43Z</time>
      </trkpt>
      <trkpt lat="49.13373" lon="1.35695">
        <ele>123.7</ele>
        <time>2015-05-31T06:56:46Z</time>
      </trkpt>
      <trkpt lat="49.13374" lon="1.3568">
        <ele>124.1</ele>
        <time>2015-05-31T06:56:49Z</time>
      </trkpt>
      <trkpt lat="49.13377" lon="1.35667">
        <ele>124.5</ele>
        <time>2015-05-31T06:56:52Z</time>
      </trkpt>
      <trkpt lat="49.13377" lon="1.35651">
        <ele>124.8</ele>
        <time>2015-05-31T06:56:55Z</time>
      </trkpt>
      <trkpt lat="49.13381" lon="1.35633">
        <ele>125.3</ele>
        <time>2015-05-31T06:56:59Z</time>
      </trkpt>
      <trkpt lat="49.13386" lon="1.35617">
        <ele>125.7</ele>
        <time>2015-05-31T06:57:03Z</time>
      </trkpt>
      <trkpt lat="49.13391" lon="1.35607">
        <ele>125.8</ele>
        <time>2015-05-31T06:57:05Z</time>
      </trkpt>
      <trkpt lat="49.13396" lon="1.35594">
        <ele>126</ele>
        <time>2015-05-31T06:57:08Z</time>
      </trkpt>
      <trkpt lat="49.13405" lon="1.35579">
        <ele>126.3</ele>
        <time>2015-05-31T06:57:11Z</time>
      </trkpt>
      <trkpt lat="49.13413" lon="1.35563">
        <ele>126.5</ele>
        <time>2015-05-31T06:57:14Z</time>
      </trkpt>
      <trkpt lat="49.1342" lon="1.35551">
        <ele>126.7</ele>
        <time>2015-05-31T06:57:17Z</time>
      </trkpt>
      <trkpt lat="49.13427" lon="1.35537">
        <ele>126.9</ele>
        <time>2015-05-31T06:57:20Z</time>
      </trkpt>
      <trkpt lat="49.13434" lon="1.35524">
        <ele>127</ele>
        <time>2015-05-31T06:57:23Z</time>
      </trkpt>
      <trkpt lat="49.13439" lon="1.35513">
        <ele>127.1</ele>
        <time>2015-05-31T06:57:25Z</time>
      </trkpt>
      <trkpt lat="49.1344" lon="1.35498">
        <ele>127.2</ele>
        <time>2015-05-31T06:57:28Z</time>
      </trkpt>
      <trkpt lat="49.13439" lon="1.35483">
        <ele>127.4</ele>
        <time>2015-05-31T06:57:32Z</time>
      </trkpt>
      <trkpt lat="49.13451" lon="1.35479">
        <ele>127.6</ele>
        <time>2015-05-31T06:57:38Z</time>
      </trkpt>
      <trkpt lat="49.13462" lon="1.35484">
        <ele>127.7</ele>
        <time>2015-05-31T06:57:41Z</time>
      </trkpt>
      <trkpt lat="49.13474" lon="1.35488">
        <ele>127.8</ele>
        <time>2015-05-31T06:57:44Z</time>
      </trkpt>
      <trkpt lat="49.13485" lon="1.3549">
        <ele>127.8</ele>
        <time>2015-05-31T06:57:46Z</time>
      </trkpt>
      <trkpt lat="49.13495" lon="1.35494">
        <ele>127.8</ele>
        <time>2015-05-31T06:57:48Z</time>
      </trkpt>
      <trkpt lat="49.13506" lon="1.355">
        <ele>127.9</ele>
        <time>2015-05-31T06:57:50Z</time>
      </trkpt>
      <trkpt lat="49.13518" lon="1.35503">
        <ele>127.8</ele>
        <time>2015-05-31T06:57:53Z</time>
      </trkpt>
      <trkpt lat="49.13529" lon="1.35496">
        <ele>127.7</ele>
        <time>2015-05-31T06:57:56Z</time>
      </trkpt>
      <trkpt lat="49.13536" lon="1.35482">
        <ele>127.5</ele>
        <time>2015-05-31T06:57:59Z</time>
      </trkpt>
      <trkpt lat="49.13542" lon="1.35465">
        <ele>127.3</ele>
        <time>2015-05-31T06:58:02Z</time>
      </trkpt>
      <trkpt lat="49.13546" lon="1.35451">
        <ele>127.3</ele>
        <time>2015-05-31T06:58:04Z</time>
      </trkpt>
      <trkpt lat="49.13547" lon="1.35435">
        <ele>127.2</ele>
        <time>2015-05-31T06:58:07Z</time>
      </trkpt>
      <trkpt lat="49.13545" lon="1.35422">
        <ele>127.2</ele>
        <time>2015-05-31T06:58:09Z</time>
      </trkpt>
      <trkpt lat="49.13544" lon="1.35408">
        <ele>127.1</ele>
        <time>2015-05-31T06:58:11Z</time>
      </trkpt>
      <trkpt lat="49.13542" lon="1.35394">
        <ele>127.2</ele>
        <time>2015-05-31T06:58:13Z</time>
      </trkpt>
      <trkpt lat="49.13539" lon="1.3538">
        <ele>127.2</ele>
        <time>2015-05-31T06:58:15Z</time>
      </trkpt>
      <trkpt lat="49.13541" lon="1.35366">
        <ele>127.2</ele>
        <time>2015-05-31T06:58:17Z</time>
      </trkpt>
      <trkpt lat="49.1354" lon="1.35351">
        <ele>127.3</ele>
        <time>2015-05-31T06:58:19Z</time>
      </trkpt>
      <trkpt lat="49.13538" lon="1.35336">
        <ele>127.3</ele>
        <time>2015-05-31T06:58:21Z</time>
      </trkpt>
      <trkpt lat="49.13537" lon="1.35321">
        <ele>127.2</ele>
        <time>2015-05-31T06:58:23Z</time>
      </trkpt>
      <trkpt lat="49.13534" lon="1.35306">
        <ele>127</ele>
        <time>2015-05-31T06:58:25Z</time>
      </trkpt>
      <trkpt lat="49.1353" lon="1.35288">
        <ele>126.5</ele>
        <time>2015-05-31T06:58:28Z</time>
      </trkpt>
      <trkpt lat="49.13529" lon="1.35272">
        <ele>125.9</ele>
        <time>2015-05-31T06:58:30Z</time>
      </trkpt>
      <trkpt lat="49.13528" lon="1.35253">
        <ele>124.8</ele>
        <time>2015-05-31T06:58:33Z</time>
      </trkpt>
      <trkpt lat="49.13525" lon="1.3524">
        <ele>123.4</ele>
        <time>2015-05-31T06:58:36Z</time>
      </trkpt>
      <trkpt lat="49.13518" lon="1.35229">
        <ele>122</ele>
        <time>2015-05-31T06:58:39Z</time>
      </trkpt>
      <trkpt lat="49.13509" lon="1.3522">
        <ele>121.1</ele>
        <time>2015-05-31T06:58:41Z</time>
      </trkpt>
      <trkpt lat="49.13494" lon="1.35217">
        <ele>119.9</ele>
        <time>2015-05-31T06:58:44Z</time>
      </trkpt>
      <trkpt lat="49.13483" lon="1.35215">
        <ele>119.3</ele>
        <time>2015-05-31T06:58:46Z</time>
      </trkpt>
      <trkpt lat="49.13472" lon="1.35215">
        <ele>118.7</ele>
        <time>2015-05-31T06:58:48Z</time>
      </trkpt>
      <trkpt lat="49.13462" lon="1.35214">
        <ele>118.2</ele>
        <time>2015-05-31T06:58:50Z</time>
      </trkpt>
      <trkpt lat="49.13451" lon="1.35213">
        <ele>117.8</ele>
        <time>2015-05-31T06:58:52Z</time>
      </trkpt>
      <trkpt lat="49.13439" lon="1.35213">
        <ele>117.4</ele>
        <time>2015-05-31T06:58:54Z</time>
      </trkpt>
      <trkpt lat="49.13428" lon="1.35214">
        <ele>117.1</ele>
        <time>2015-05-31T06:58:56Z</time>
      </trkpt>
      <trkpt lat="49.13418" lon="1.35215">
        <ele>116.9</ele>
        <time>2015-05-31T06:58:58Z</time>
      </trkpt>
      <trkpt lat="49.13408" lon="1.35216">
        <ele>116.7</ele>
        <time>2015-05-31T06:59:00Z</time>
      </trkpt>
      <trkpt lat="49.13398" lon="1.35216">
        <ele>116.5</ele>
        <time>2015-05-31T06:59:02Z</time>
      </trkpt>
      <trkpt lat="49.13393" lon="1.352">
        <ele>116.2</ele>
        <time>2015-05-31T06:59:05Z</time>
      </trkpt>
      <trkpt lat="49.13396" lon="1.35182">
        <ele>116</ele>
        <time>2015-05-31T06:59:07Z</time>
      </trkpt>
      <trkpt lat="49.13398" lon="1.3516">
        <ele>115</ele>
        <time>2015-05-31T06:59:09Z</time>
      </trkpt>
      <trkpt lat="49.13401" lon="1.35128">
        <ele>114.9</ele>
        <time>2015-05-31T06:59:12Z</time>
      </trkpt>
      <trkpt lat="49.13401" lon="1.35112">
        <ele>114</ele>
        <time>2015-05-31T06:59:14Z</time>
      </trkpt>
      <trkpt lat="49.13403" lon="1.35099">
        <ele>111.5</ele>
        <time>2015-05-31T06:59:20Z</time>
      </trkpt>
      <trkpt lat="49.13423" lon="1.3509">
        <ele>109.8</ele>
        <time>2015-05-31T06:59:25Z</time>
      </trkpt>
      <trkpt lat="49.13434" lon="1.35087">
        <ele>109.2</ele>
        <time>2015-05-31T06:59:27Z</time>
      </trkpt>
      <trkpt lat="49.13444" lon="1.35082">
        <ele>108.6</ele>
        <time>2015-05-31T06:59:29Z</time>
      </trkpt>
      <trkpt lat="49.13458" lon="1.35076">
        <ele>108.1</ele>
        <time>2015-05-31T06:59:31Z</time>
      </trkpt>
      <trkpt lat="49.13472" lon="1.35064">
        <ele>107.6</ele>
        <time>2015-05-31T06:59:33Z</time>
      </trkpt>
      <trkpt lat="49.13485" lon="1.35048">
        <ele>107.1</ele>
        <time>2015-05-31T06:59:35Z</time>
      </trkpt>
      <trkpt lat="49.13496" lon="1.35028">
        <ele>106.5</ele>
        <time>2015-05-31T06:59:37Z</time>
      </trkpt>
      <trkpt lat="49.13508" lon="1.35007">
        <ele>105.9</ele>
        <time>2015-05-31T06:59:39Z</time>
      </trkpt>
      <trkpt lat="49.1352" lon="1.34987">
        <ele>105.3</ele>
        <time>2015-05-31T06:59:41Z</time>
      </trkpt>
      <trkpt lat="49.13527" lon="1.34979">
        <ele>104.9</ele>
        <time>2015-05-31T06:59:42Z</time>
      </trkpt>
      <trkpt lat="49.13534" lon="1.3497">
        <ele>104.6</ele>
        <time>2015-05-31T06:59:43Z</time>
      </trkpt>
      <trkpt lat="49.13542" lon="1.34963">
        <ele>104.2</ele>
        <time>2015-05-31T06:59:44Z</time>
      </trkpt>
      <trkpt lat="49.1355" lon="1.34955">
        <ele>103.8</ele>
        <time>2015-05-31T06:59:45Z</time>
      </trkpt>
      <trkpt lat="49.13568" lon="1.3495">
        <ele>102</ele>
        <time>2015-05-31T06:59:47Z</time>
      </trkpt>
      <trkpt lat="49.13594" lon="1.34945">
        <ele>101.7</ele>
        <time>2015-05-31T06:59:50Z</time>
      </trkpt>
      <trkpt lat="49.13608" lon="1.3494">
        <ele>100.9</ele>
        <time>2015-05-31T06:59:52Z</time>
      </trkpt>
      <trkpt lat="49.13617" lon="1.34935">
        <ele>100.5</ele>
        <time>2015-05-31T06:59:53Z</time>
      </trkpt>
      <trkpt lat="49.13628" lon="1.34927">
        <ele>99.5</ele>
        <time>2015-05-31T06:59:55Z</time>
      </trkpt>
      <trkpt lat="49.13642" lon="1.34921">
        <ele>98.5</ele>
        <time>2015-05-31T06:59:57Z</time>
      </trkpt>
      <trkpt lat="49.13656" lon="1.34914">
        <ele>97.5</ele>
        <time>2015-05-31T06:59:59Z</time>
      </trkpt>
      <trkpt lat="49.13666" lon="1.34906">
        <ele>96.5</ele>
        <time>2015-05-31T07:00:01Z</time>
      </trkpt>
      <trkpt lat="49.13672" lon="1.34895">
        <ele>95.5</ele>
        <time>2015-05-31T07:00:03Z</time>
      </trkpt>
      <trkpt lat="49.13675" lon="1.34882">
        <ele>93.7</ele>
        <time>2015-05-31T07:00:06Z</time>
      </trkpt>
      <trkpt lat="49.13676" lon="1.34865">
        <ele>92.4</ele>
        <time>2015-05-31T07:00:08Z</time>
      </trkpt>
      <trkpt lat="49.13677" lon="1.34851">
        <ele>90.7</ele>
        <time>2015-05-31T07:00:10Z</time>
      </trkpt>
      <trkpt lat="49.13678" lon="1.34833">
        <ele>88.9</ele>
        <time>2015-05-31T07:00:12Z</time>
      </trkpt>
      <trkpt lat="49.13675" lon="1.34814">
        <ele>87.2</ele>
        <time>2015-05-31T07:00:14Z</time>
      </trkpt>
      <trkpt lat="49.13672" lon="1.34796">
        <ele>85.7</ele>
        <time>2015-05-31T07:00:16Z</time>
      </trkpt>
      <trkpt lat="49.13672" lon="1.34781">
        <ele>84.4</ele>
        <time>2015-05-31T07:00:18Z</time>
      </trkpt>
      <trkpt lat="49.13672" lon="1.34763">
        <ele>82.7</ele>
        <time>2015-05-31T07:00:21Z</time>
      </trkpt>
      <trkpt lat="49.13678" lon="1.34749">
        <ele>80.5</ele>
        <time>2015-05-31T07:00:26Z</time>
      </trkpt>
      <trkpt lat="49.13684" lon="1.3474">
        <ele>78.9</ele>
        <time>2015-05-31T07:00:31Z</time>
      </trkpt>
      <trkpt lat="49.13695" lon="1.34735">
        <ele>78.2</ele>
        <time>2015-05-31T07:00:35Z</time>
      </trkpt>
      <trkpt lat="49.13701" lon="1.34722">
        <ele>77.6</ele>
        <time>2015-05-31T07:00:41Z</time>
      </trkpt>
      <trkpt lat="49.13702" lon="1.34705">
        <ele>77.8</ele>
        <time>2015-05-31T07:00:47Z</time>
      </trkpt>
      <trkpt lat="49.13702" lon="1.3469">
        <ele>78.6</ele>
        <time>2015-05-31T07:00:52Z</time>
      </trkpt>
      <trkpt lat="49.137" lon="1.34674">
        <ele>79.8</ele>
        <time>2015-05-31T07:00:57Z</time>
      </trkpt>
      <trkpt lat="49.13697" lon="1.34659">
        <ele>81.4</ele>
        <time>2015-05-31T07:01:03Z</time>
      </trkpt>
      <trkpt lat="49.13694" lon="1.34646">
        <ele>82.7</ele>
        <time>2015-05-31T07:01:08Z</time>
      </trkpt>
      <trkpt lat="49.13695" lon="1.3463">
        <ele>84</ele>
        <time>2015-05-31T07:01:13Z</time>
      </trkpt>
      <trkpt lat="49.13698" lon="1.34615">
        <ele>85.2</ele>
        <time>2015-05-31T07:01:18Z</time>
      </trkpt>
      <trkpt lat="49.13703" lon="1.34602">
        <ele>86.1</ele>
        <time>2015-05-31T07:01:22Z</time>
      </trkpt>
      <trkpt lat="49.13708" lon="1.34587">
        <ele>87.2</ele>
        <time>2015-05-31T07:01:27Z</time>
      </trkpt>
      <trkpt lat="49.13715" lon="1.34576">
        <ele>88.1</ele>
        <time>2015-05-31T07:01:31Z</time>
      </trkpt>
      <trkpt lat="49.13718" lon="1.34563">
        <ele>89.6</ele>
        <time>2015-05-31T07:01:36Z</time>
      </trkpt>
      <trkpt lat="49.13713" lon="1.34551">
        <ele>90.9</ele>
        <time>2015-05-31T07:01:41Z</time>
      </trkpt>
      <trkpt lat="49.13704" lon="1.34541">
        <ele>92.2</ele>
        <time>2015-05-31T07:01:46Z</time>
      </trkpt>
      <trkpt lat="49.13696" lon="1.34531">
        <ele>93.1</ele>
        <time>2015-05-31T07:01:50Z</time>
      </trkpt>
      <trkpt lat="49.13688" lon="1.34522">
        <ele>94</ele>
        <time>2015-05-31T07:01:54Z</time>
      </trkpt>
      <trkpt lat="49.1368" lon="1.34511">
        <ele>94.8</ele>
        <time>2015-05-31T07:01:58Z</time>
      </trkpt>
      <trkpt lat="49.13672" lon="1.34499">
        <ele>95.6</ele>
        <time>2015-05-31T07:02:02Z</time>
      </trkpt>
      <trkpt lat="49.13666" lon="1.34487">
        <ele>96.4</ele>
        <time>2015-05-31T07:02:06Z</time>
      </trkpt>
      <trkpt lat="49.1366" lon="1.34473">
        <ele>97.3</ele>
        <time>2015-05-31T07:02:10Z</time>
      </trkpt>
      <trkpt lat="49.13654" lon="1.34459">
        <ele>98.1</ele>
        <time>2015-05-31T07:02:14Z</time>
      </trkpt>
      <trkpt lat="49.13648" lon="1.34446">
        <ele>99</ele>
        <time>2015-05-31T07:02:18Z</time>
      </trkpt>
      <trkpt lat="49.13643" lon="1.34432">
        <ele>99.8</ele>
        <time>2015-05-31T07:02:22Z</time>
      </trkpt>
      <trkpt lat="49.13637" lon="1.34418">
        <ele>100.7</ele>
        <time>2015-05-31T07:02:26Z</time>
      </trkpt>
      <trkpt lat="49.13631" lon="1.34405">
        <ele>101.4</ele>
        <time>2015-05-31T07:02:30Z</time>
      </trkpt>
      <trkpt lat="49.13626" lon="1.34391">
        <ele>102.2</ele>
        <time>2015-05-31T07:02:34Z</time>
      </trkpt>
      <trkpt lat="49.1362" lon="1.34377">
        <ele>103</ele>
        <time>2015-05-31T07:02:38Z</time>
      </trkpt>
      <trkpt lat="49.13615" lon="1.34362">
        <ele>104</ele>
        <time>2015-05-31T07:02:42Z</time>
      </trkpt>
      <trkpt lat="49.13612" lon="1.34346">
        <ele>105</ele>
        <time>2015-05-31T07:02:46Z</time>
      </trkpt>
      <trkpt lat="49.1361" lon="1.34332">
        <ele>105.7</ele>
        <time>2015-05-31T07:02:49Z</time>
      </trkpt>
      <trkpt lat="49.13608" lon="1.34316">
        <ele>106.8</ele>
        <time>2015-05-31T07:02:53Z</time>
      </trkpt>
      <trkpt lat="49.136" lon="1.34302">
        <ele>107.9</ele>
        <time>2015-05-31T07:02:57Z</time>
      </trkpt>
      <trkpt lat="49.13592" lon="1.3429">
        <ele>108.9</ele>
        <time>2015-05-31T07:03:01Z</time>
      </trkpt>
      <trkpt lat="49.13585" lon="1.3428">
        <ele>109.6</ele>
        <time>2015-05-31T07:03:04Z</time>
      </trkpt>
      <trkpt lat="49.13578" lon="1.3427">
        <ele>110.3</ele>
        <time>2015-05-31T07:03:07Z</time>
      </trkpt>
      <trkpt lat="49.13571" lon="1.34259">
        <ele>110.9</ele>
        <time>2015-05-31T07:03:10Z</time>
      </trkpt>
      <trkpt lat="49.13564" lon="1.3425">
        <ele>111.5</ele>
        <time>2015-05-31T07:03:13Z</time>
      </trkpt>
      <trkpt lat="49.13556" lon="1.3424">
        <ele>112.1</ele>
        <time>2015-05-31T07:03:16Z</time>
      </trkpt>
      <trkpt lat="49.13549" lon="1.34229">
        <ele>112.6</ele>
        <time>2015-05-31T07:03:19Z</time>
      </trkpt>
      <trkpt lat="49.13541" lon="1.34218">
        <ele>113.1</ele>
        <time>2015-05-31T07:03:22Z</time>
      </trkpt>
      <trkpt lat="49.13534" lon="1.34208">
        <ele>113.8</ele>
        <time>2015-05-31T07:03:25Z</time>
      </trkpt>
      <trkpt lat="49.13526" lon="1.34199">
        <ele>114.4</ele>
        <time>2015-05-31T07:03:28Z</time>
      </trkpt>
      <trkpt lat="49.13517" lon="1.34187">
        <ele>115.3</ele>
        <time>2015-05-31T07:03:32Z</time>
      </trkpt>
      <trkpt lat="49.13508" lon="1.34175">
        <ele>116.1</ele>
        <time>2015-05-31T07:03:36Z</time>
      </trkpt>
      <trkpt lat="49.13499" lon="1.34163">
        <ele>116.8</ele>
        <time>2015-05-31T07:03:40Z</time>
      </trkpt>
      <trkpt lat="49.13493" lon="1.34147">
        <ele>117.4</ele>
        <time>2015-05-31T07:03:44Z</time>
      </trkpt>
      <trkpt lat="49.13494" lon="1.34131">
        <ele>118.1</ele>
        <time>2015-05-31T07:03:48Z</time>
      </trkpt>
      <trkpt lat="49.13499" lon="1.34118">
        <ele>118.8</ele>
        <time>2015-05-31T07:03:53Z</time>
      </trkpt>
      <trkpt lat="49.13493" lon="1.34108">
        <ele>119.6</ele>
        <time>2015-05-31T07:03:57Z</time>
      </trkpt>
      <trkpt lat="49.13484" lon="1.34097">
        <ele>120.4</ele>
        <time>2015-05-31T07:04:01Z</time>
      </trkpt>
      <trkpt lat="49.13477" lon="1.34086">
        <ele>121.3</ele>
        <time>2015-05-31T07:04:05Z</time>
      </trkpt>
      <trkpt lat="49.1347" lon="1.34076">
        <ele>122.1</ele>
        <time>2015-05-31T07:04:09Z</time>
      </trkpt>
      <trkpt lat="49.13461" lon="1.34064">
        <ele>123.1</ele>
        <time>2015-05-31T07:04:14Z</time>
      </trkpt>
      <trkpt lat="49.13453" lon="1.34054">
        <ele>123.9</ele>
        <time>2015-05-31T07:04:18Z</time>
      </trkpt>
      <trkpt lat="49.13445" lon="1.34043">
        <ele>124.7</ele>
        <time>2015-05-31T07:04:22Z</time>
      </trkpt>
      <trkpt lat="49.13437" lon="1.34034">
        <ele>125.4</ele>
        <time>2015-05-31T07:04:26Z</time>
      </trkpt>
      <trkpt lat="49.13428" lon="1.34024">
        <ele>126.2</ele>
        <time>2015-05-31T07:04:30Z</time>
      </trkpt>
      <trkpt lat="49.13419" lon="1.34013">
        <ele>126.8</ele>
        <time>2015-05-31T07:04:34Z</time>
      </trkpt>
      <trkpt lat="49.13409" lon="1.34001">
        <ele>127.2</ele>
        <time>2015-05-31T07:04:37Z</time>
      </trkpt>
      <trkpt lat="49.13401" lon="1.3399">
        <ele>127.6</ele>
        <time>2015-05-31T07:04:40Z</time>
      </trkpt>
      <trkpt lat="49.13394" lon="1.33981">
        <ele>127.8</ele>
        <time>2015-05-31T07:04:43Z</time>
      </trkpt>
      <trkpt lat="49.13386" lon="1.33973">
        <ele>128</ele>
        <time>2015-05-31T07:04:46Z</time>
      </trkpt>
      <trkpt lat="49.13378" lon="1.33964">
        <ele>128.2</ele>
        <time>2015-05-31T07:04:49Z</time>
      </trkpt>
      <trkpt lat="49.1337" lon="1.33956">
        <ele>128.4</ele>
        <time>2015-05-31T07:04:53Z</time>
      </trkpt>
      <trkpt lat="49.13361" lon="1.3395">
        <ele>128.7</ele>
        <time>2015-05-31T07:04:58Z</time>
      </trkpt>
      <trkpt lat="49.13352" lon="1.33944">
        <ele>129.2</ele>
        <time>2015-05-31T07:05:03Z</time>
      </trkpt>
      <trkpt lat="49.13351" lon="1.3393">
        <ele>130</ele>
        <time>2015-05-31T07:05:11Z</time>
      </trkpt>
      <trkpt lat="49.13354" lon="1.33914">
        <ele>130.8</ele>
        <time>2015-05-31T07:05:16Z</time>
      </trkpt>
      <trkpt lat="49.13357" lon="1.33901">
        <ele>131.7</ele>
        <time>2015-05-31T07:05:20Z</time>
      </trkpt>
      <trkpt lat="49.1336" lon="1.33888">
        <ele>132.5</ele>
        <time>2015-05-31T07:05:24Z</time>
      </trkpt>
      <trkpt lat="49.13363" lon="1.33874">
        <ele>133.3</ele>
        <time>2015-05-31T07:05:28Z</time>
      </trkpt>
      <trkpt lat="49.13368" lon="1.33859">
        <ele>133.9</ele>
        <time>2015-05-31T07:05:32Z</time>
      </trkpt>
      <trkpt lat="49.13372" lon="1.33844">
        <ele>134.4</ele>
        <time>2015-05-31T07:05:35Z</time>
      </trkpt>
      <trkpt lat="49.13377" lon="1.33827">
        <ele>135</ele>
        <time>2015-05-31T07:05:38Z</time>
      </trkpt>
      <trkpt lat="49.13382" lon="1.33809">
        <ele>135.5</ele>
        <time>2015-05-31T07:05:41Z</time>
      </trkpt>
      <trkpt lat="49.13387" lon="1.33796">
        <ele>135.8</ele>
        <time>2015-05-31T07:05:43Z</time>
      </trkpt>
      <trkpt lat="49.13392" lon="1.33784">
        <ele>136.1</ele>
        <time>2015-05-31T07:05:45Z</time>
      </trkpt>
      <trkpt lat="49.13398" lon="1.33771">
        <ele>136.3</ele>
        <time>2015-05-31T07:05:47Z</time>
      </trkpt>
      <trkpt lat="49.13403" lon="1.33758">
        <ele>136.6</ele>
        <time>2015-05-31T07:05:49Z</time>
      </trkpt>
      <trkpt lat="49.13409" lon="1.33746">
        <ele>136.8</ele>
        <time>2015-05-31T07:05:51Z</time>
      </trkpt>
      <trkpt lat="49.13415" lon="1.33734">
        <ele>137.1</ele>
        <time>2015-05-31T07:05:53Z</time>
      </trkpt>
      <trkpt lat="49.1342" lon="1.33723">
        <ele>137.3</ele>
        <time>2015-05-31T07:05:55Z</time>
      </trkpt>
      <trkpt lat="49.13427" lon="1.33711">
        <ele>137.6</ele>
        <time>2015-05-31T07:05:58Z</time>
      </trkpt>
      <trkpt lat="49.13434" lon="1.33702">
        <ele>137.8</ele>
        <time>2015-05-31T07:06:01Z</time>
      </trkpt>
      <trkpt lat="49.13443" lon="1.33687">
        <ele>138</ele>
        <time>2015-05-31T07:06:04Z</time>
      </trkpt>
      <trkpt lat="49.13451" lon="1.33676">
        <ele>138.1</ele>
        <time>2015-05-31T07:06:06Z</time>
      </trkpt>
      <trkpt lat="49.13459" lon="1.33666">
        <ele>138.3</ele>
        <time>2015-05-31T07:06:08Z</time>
      </trkpt>
      <trkpt lat="49.13466" lon="1.33654">
        <ele>138.4</ele>
        <time>2015-05-31T07:06:10Z</time>
      </trkpt>
      <trkpt lat="49.13474" lon="1.33643">
        <ele>138.6</ele>
        <time>2015-05-31T07:06:12Z</time>
      </trkpt>
      <trkpt lat="49.13482" lon="1.33631">
        <ele>138.8</ele>
        <time>2015-05-31T07:06:14Z</time>
      </trkpt>
      <trkpt lat="49.13489" lon="1.33618">
        <ele>138.9</ele>
        <time>2015-05-31T07:06:16Z</time>
      </trkpt>
      <trkpt lat="49.13497" lon="1.33607">
        <ele>139.1</ele>
        <time>2015-05-31T07:06:18Z</time>
      </trkpt>
      <trkpt lat="49.13505" lon="1.33595">
        <ele>139.2</ele>
        <time>2015-05-31T07:06:20Z</time>
      </trkpt>
      <trkpt lat="49.13513" lon="1.33583">
        <ele>139.3</ele>
        <time>2015-05-31T07:06:22Z</time>
      </trkpt>
      <trkpt lat="49.13521" lon="1.33569">
        <ele>139.3</ele>
        <time>2015-05-31T07:06:24Z</time>
      </trkpt>
      <trkpt lat="49.13529" lon="1.33554">
        <ele>139.3</ele>
        <time>2015-05-31T07:06:26Z</time>
      </trkpt>
      <trkpt lat="49.13538" lon="1.33537">
        <ele>139.3</ele>
        <time>2015-05-31T07:06:28Z</time>
      </trkpt>
      <trkpt lat="49.13546" lon="1.3352">
        <ele>139.2</ele>
        <time>2015-05-31T07:06:30Z</time>
      </trkpt>
      <trkpt lat="49.13553" lon="1.33502">
        <ele>139</ele>
        <time>2015-05-31T07:06:32Z</time>
      </trkpt>
      <trkpt lat="49.13561" lon="1.33484">
        <ele>138.8</ele>
        <time>2015-05-31T07:06:34Z</time>
      </trkpt>
      <trkpt lat="49.13568" lon="1.33467">
        <ele>138.5</ele>
        <time>2015-05-31T07:06:36Z</time>
      </trkpt>
      <trkpt lat="49.13576" lon="1.33449">
        <ele>138.2</ele>
        <time>2015-05-31T07:06:38Z</time>
      </trkpt>
      <trkpt lat="49.13583" lon="1.33431">
        <ele>137.9</ele>
        <time>2015-05-31T07:06:40Z</time>
      </trkpt>
      <trkpt lat="49.13591" lon="1.33413">
        <ele>137.6</ele>
        <time>2015-05-31T07:06:42Z</time>
      </trkpt>
      <trkpt lat="49.13598" lon="1.33395">
        <ele>137.2</ele>
        <time>2015-05-31T07:06:44Z</time>
      </trkpt>
      <trkpt lat="49.13605" lon="1.33377">
        <ele>136.8</ele>
        <time>2015-05-31T07:06:46Z</time>
      </trkpt>
      <trkpt lat="49.13611" lon="1.33361">
        <ele>136.4</ele>
        <time>2015-05-31T07:06:48Z</time>
      </trkpt>
      <trkpt lat="49.13618" lon="1.33346">
        <ele>135.6</ele>
        <time>2015-05-31T07:06:51Z</time>
      </trkpt>
      <trkpt lat="49.13625" lon="1.33331">
        <ele>134.8</ele>
        <time>2015-05-31T07:06:54Z</time>
      </trkpt>
      <trkpt lat="49.13633" lon="1.33319">
        <ele>134</ele>
        <time>2015-05-31T07:06:56Z</time>
      </trkpt>
      <trkpt lat="49.13639" lon="1.33302">
        <ele>133.2</ele>
        <time>2015-05-31T07:06:58Z</time>
      </trkpt>
      <trkpt lat="49.13644" lon="1.33285">
        <ele>132.3</ele>
        <time>2015-05-31T07:07:00Z</time>
      </trkpt>
      <trkpt lat="49.13648" lon="1.33268">
        <ele>131.3</ele>
        <time>2015-05-31T07:07:02Z</time>
      </trkpt>
      <trkpt lat="49.13645" lon="1.33246">
        <ele>130.4</ele>
        <time>2015-05-31T07:07:04Z</time>
      </trkpt>
      <trkpt lat="49.13648" lon="1.33229">
        <ele>129.3</ele>
        <time>2015-05-31T07:07:06Z</time>
      </trkpt>
      <trkpt lat="49.13655" lon="1.33217">
        <ele>127.4</ele>
        <time>2015-05-31T07:07:10Z</time>
      </trkpt>
      <trkpt lat="49.13658" lon="1.33202">
        <ele>126.5</ele>
        <time>2015-05-31T07:07:12Z</time>
      </trkpt>
      <trkpt lat="49.13667" lon="1.33196">
        <ele>125.2</ele>
        <time>2015-05-31T07:07:15Z</time>
      </trkpt>
      <trkpt lat="49.13676" lon="1.33189">
        <ele>124.1</ele>
        <time>2015-05-31T07:07:18Z</time>
      </trkpt>
      <trkpt lat="49.13684" lon="1.3318">
        <ele>123.3</ele>
        <time>2015-05-31T07:07:20Z</time>
      </trkpt>
      <trkpt lat="49.13693" lon="1.33174">
        <ele>122.2</ele>
        <time>2015-05-31T07:07:23Z</time>
      </trkpt>
      <trkpt lat="49.13703" lon="1.33167">
        <ele>121</ele>
        <time>2015-05-31T07:07:27Z</time>
      </trkpt>
      <trkpt lat="49.13713" lon="1.33161">
        <ele>120.2</ele>
        <time>2015-05-31T07:07:30Z</time>
      </trkpt>
      <trkpt lat="49.13722" lon="1.33154">
        <ele>119.5</ele>
        <time>2015-05-31T07:07:33Z</time>
      </trkpt>
      <trkpt lat="49.1373" lon="1.33143">
        <ele>118.4</ele>
        <time>2015-05-31T07:07:38Z</time>
      </trkpt>
      <trkpt lat="49.13736" lon="1.33132">
        <ele>115.7</ele>
        <time>2015-05-31T07:08:00Z</time>
      </trkpt>
      <trkpt lat="49.13746" lon="1.33129">
        <ele>115.3</ele>
        <time>2015-05-31T07:08:08Z</time>
      </trkpt>
      <trkpt lat="49.13756" lon="1.33126">
        <ele>115.1</ele>
        <time>2015-05-31T07:08:18Z</time>
      </trkpt>
      <trkpt lat="49.13763" lon="1.33115">
        <ele>115.3</ele>
        <time>2015-05-31T07:08:25Z</time>
      </trkpt>
      <trkpt lat="49.13771" lon="1.33103">
        <ele>115.6</ele>
        <time>2015-05-31T07:08:30Z</time>
      </trkpt>
      <trkpt lat="49.13778" lon="1.3309">
        <ele>116.1</ele>
        <time>2015-05-31T07:08:34Z</time>
      </trkpt>
      <trkpt lat="49.13786" lon="1.33079">
        <ele>116.6</ele>
        <time>2015-05-31T07:08:38Z</time>
      </trkpt>
      <trkpt lat="49.13793" lon="1.33067">
        <ele>117.2</ele>
        <time>2015-05-31T07:08:42Z</time>
      </trkpt>
      <trkpt lat="49.13799" lon="1.33056">
        <ele>118.1</ele>
        <time>2015-05-31T07:08:47Z</time>
      </trkpt>
      <trkpt lat="49.13806" lon="1.33046">
        <ele>119.3</ele>
        <time>2015-05-31T07:08:53Z</time>
      </trkpt>
      <trkpt lat="49.13812" lon="1.33035">
        <ele>120.5</ele>
        <time>2015-05-31T07:08:58Z</time>
      </trkpt>
      <trkpt lat="49.13818" lon="1.33024">
        <ele>122.1</ele>
        <time>2015-05-31T07:09:04Z</time>
      </trkpt>
      <trkpt lat="49.13825" lon="1.33014">
        <ele>123.5</ele>
        <time>2015-05-31T07:09:09Z</time>
      </trkpt>
      <trkpt lat="49.13833" lon="1.33004">
        <ele>124.9</ele>
        <time>2015-05-31T07:09:14Z</time>
      </trkpt>
      <trkpt lat="49.13838" lon="1.32991">
        <ele>126.2</ele>
        <time>2015-05-31T07:09:19Z</time>
      </trkpt>
      <trkpt lat="49.13845" lon="1.32981">
        <ele>127.5</ele>
        <time>2015-05-31T07:09:24Z</time>
      </trkpt>
      <trkpt lat="49.13852" lon="1.32969">
        <ele>129.6</ele>
        <time>2015-05-31T07:09:31Z</time>
      </trkpt>
      <trkpt lat="49.13858" lon="1.32956">
        <ele>130.8</ele>
        <time>2015-05-31T07:09:36Z</time>
      </trkpt>
      <trkpt lat="49.13863" lon="1.32944">
        <ele>132.1</ele>
        <time>2015-05-31T07:09:41Z</time>
      </trkpt>
      <trkpt lat="49.1387" lon="1.32935">
        <ele>133</ele>
        <time>2015-05-31T07:09:45Z</time>
      </trkpt>
      <trkpt lat="49.13876" lon="1.3292">
        <ele>134.1</ele>
        <time>2015-05-31T07:09:50Z</time>
      </trkpt>
      <trkpt lat="49.13884" lon="1.32906">
        <ele>134.9</ele>
        <time>2015-05-31T07:09:54Z</time>
      </trkpt>
      <trkpt lat="49.13893" lon="1.32895">
        <ele>135.8</ele>
        <time>2015-05-31T07:09:58Z</time>
      </trkpt>
      <trkpt lat="49.13902" lon="1.32885">
        <ele>136.5</ele>
        <time>2015-05-31T07:10:02Z</time>
      </trkpt>
      <trkpt lat="49.13911" lon="1.32874">
        <ele>137.2</ele>
        <time>2015-05-31T07:10:06Z</time>
      </trkpt>
      <trkpt lat="49.13919" lon="1.32862">
        <ele>137.7</ele>
        <time>2015-05-31T07:10:09Z</time>
      </trkpt>
      <trkpt lat="49.13927" lon="1.32851">
        <ele>138.1</ele>
        <time>2015-05-31T07:10:12Z</time>
      </trkpt>
      <trkpt lat="49.13933" lon="1.3284">
        <ele>138.5</ele>
        <time>2015-05-31T07:10:15Z</time>
      </trkpt>
      <trkpt lat="49.13939" lon="1.32828">
        <ele>138.8</ele>
        <time>2015-05-31T07:10:18Z</time>
      </trkpt>
      <trkpt lat="49.13949" lon="1.32821">
        <ele>139.3</ele>
        <time>2015-05-31T07:10:23Z</time>
      </trkpt>
      <trkpt lat="49.13959" lon="1.32816">
        <ele>139.5</ele>
        <time>2015-05-31T07:10:26Z</time>
      </trkpt>
      <trkpt lat="49.13969" lon="1.32813">
        <ele>139.7</ele>
        <time>2015-05-31T07:10:29Z</time>
      </trkpt>
      <trkpt lat="49.13969" lon="1.32796">
        <ele>139.9</ele>
        <time>2015-05-31T07:10:33Z</time>
      </trkpt>
      <trkpt lat="49.13962" lon="1.32778">
        <ele>140</ele>
        <time>2015-05-31T07:10:36Z</time>
      </trkpt>
      <trkpt lat="49.13956" lon="1.3276">
        <ele>140.1</ele>
        <time>2015-05-31T07:10:39Z</time>
      </trkpt>
      <trkpt lat="49.13952" lon="1.32747">
        <ele>140.2</ele>
        <time>2015-05-31T07:10:41Z</time>
      </trkpt>
      <trkpt lat="49.13945" lon="1.32729">
        <ele>140.4</ele>
        <time>2015-05-31T07:10:44Z</time>
      </trkpt>
      <trkpt lat="49.1394" lon="1.32716">
        <ele>140.5</ele>
        <time>2015-05-31T07:10:46Z</time>
      </trkpt>
      <trkpt lat="49.13935" lon="1.32703">
        <ele>140.6</ele>
        <time>2015-05-31T07:10:48Z</time>
      </trkpt>
      <trkpt lat="49.1393" lon="1.3269">
        <ele>140.7</ele>
        <time>2015-05-31T07:10:50Z</time>
      </trkpt>
      <trkpt lat="49.13924" lon="1.32678">
        <ele>140.8</ele>
        <time>2015-05-31T07:10:52Z</time>
      </trkpt>
      <trkpt lat="49.13919" lon="1.32664">
        <ele>140.8</ele>
        <time>2015-05-31T07:10:54Z</time>
      </trkpt>
      <trkpt lat="49.13914" lon="1.32651">
        <ele>140.9</ele>
        <time>2015-05-31T07:10:56Z</time>
      </trkpt>
      <trkpt lat="49.13909" lon="1.32638">
        <ele>141</ele>
        <time>2015-05-31T07:10:58Z</time>
      </trkpt>
      <trkpt lat="49.13904" lon="1.32625">
        <ele>141.1</ele>
        <time>2015-05-31T07:11:00Z</time>
      </trkpt>
      <trkpt lat="49.13899" lon="1.32611">
        <ele>141.1</ele>
        <time>2015-05-31T07:11:02Z</time>
      </trkpt>
      <trkpt lat="49.13893" lon="1.32598">
        <ele>141.2</ele>
        <time>2015-05-31T07:11:04Z</time>
      </trkpt>
      <trkpt lat="49.13888" lon="1.32585">
        <ele>141.2</ele>
        <time>2015-05-31T07:11:06Z</time>
      </trkpt>
      <trkpt lat="49.13882" lon="1.32571">
        <ele>141.2</ele>
        <time>2015-05-31T07:11:08Z</time>
      </trkpt>
      <trkpt lat="49.13877" lon="1.32557">
        <ele>141.3</ele>
        <time>2015-05-31T07:11:10Z</time>
      </trkpt>
      <trkpt lat="49.13872" lon="1.32544">
        <ele>141.3</ele>
        <time>2015-05-31T07:11:12Z</time>
      </trkpt>
      <trkpt lat="49.13866" lon="1.3253">
        <ele>141.3</ele>
        <time>2015-05-31T07:11:14Z</time>
      </trkpt>
      <trkpt lat="49.13861" lon="1.32517">
        <ele>141.3</ele>
        <time>2015-05-31T07:11:16Z</time>
      </trkpt>
      <trkpt lat="49.13855" lon="1.32504">
        <ele>141.4</ele>
        <time>2015-05-31T07:11:18Z</time>
      </trkpt>
      <trkpt lat="49.1385" lon="1.3249">
        <ele>141.4</ele>
        <time>2015-05-31T07:11:20Z</time>
      </trkpt>
      <trkpt lat="49.13845" lon="1.32476">
        <ele>141.4</ele>
        <time>2015-05-31T07:11:22Z</time>
      </trkpt>
      <trkpt lat="49.1384" lon="1.32463">
        <ele>141.4</ele>
        <time>2015-05-31T07:11:24Z</time>
      </trkpt>
      <trkpt lat="49.13834" lon="1.3245">
        <ele>141.4</ele>
        <time>2015-05-31T07:11:26Z</time>
      </trkpt>
      <trkpt lat="49.13829" lon="1.32437">
        <ele>141.4</ele>
        <time>2015-05-31T07:11:28Z</time>
      </trkpt>
      <trkpt lat="49.13824" lon="1.32424">
        <ele>141.4</ele>
        <time>2015-05-31T07:11:30Z</time>
      </trkpt>
      <trkpt lat="49.13818" lon="1.32412">
        <ele>141.4</ele>
        <time>2015-05-31T07:11:32Z</time>
      </trkpt>
      <trkpt lat="49.13813" lon="1.32399">
        <ele>141.5</ele>
        <time>2015-05-31T07:11:34Z</time>
      </trkpt>
      <trkpt lat="49.13808" lon="1.32388">
        <ele>141.5</ele>
        <time>2015-05-31T07:11:36Z</time>
      </trkpt>
      <trkpt lat="49.13804" lon="1.32376">
        <ele>141.5</ele>
        <time>2015-05-31T07:11:38Z</time>
      </trkpt>
      <trkpt lat="49.138" lon="1.32363">
        <ele>141.5</ele>
        <time>2015-05-31T07:11:40Z</time>
      </trkpt>
      <trkpt lat="49.13795" lon="1.32351">
        <ele>141.5</ele>
        <time>2015-05-31T07:11:42Z</time>
      </trkpt>
      <trkpt lat="49.13788" lon="1.32333">
        <ele>141.5</ele>
        <time>2015-05-31T07:11:45Z</time>
      </trkpt>
      <trkpt lat="49.13781" lon="1.32317">
        <ele>141.5</ele>
        <time>2015-05-31T07:11:48Z</time>
      </trkpt>
      <trkpt lat="49.13774" lon="1.323">
        <ele>141.5</ele>
        <time>2015-05-31T07:11:51Z</time>
      </trkpt>
      <trkpt lat="49.13768" lon="1.32283">
        <ele>141.6</ele>
        <time>2015-05-31T07:11:54Z</time>
      </trkpt>
      <trkpt lat="49.13761" lon="1.32266">
        <ele>141.6</ele>
        <time>2015-05-31T07:11:57Z</time>
      </trkpt>
      <trkpt lat="49.13755" lon="1.3225">
        <ele>141.7</ele>
        <time>2015-05-31T07:12:00Z</time>
      </trkpt>
      <trkpt lat="49.13749" lon="1.32235">
        <ele>141.9</ele>
        <time>2015-05-31T07:12:03Z</time>
      </trkpt>
      <trkpt lat="49.13744" lon="1.32221">
        <ele>142</ele>
        <time>2015-05-31T07:12:06Z</time>
      </trkpt>
      <trkpt lat="49.13739" lon="1.3221">
        <ele>142.1</ele>
        <time>2015-05-31T07:12:09Z</time>
      </trkpt>
      <trkpt lat="49.13733" lon="1.32194">
        <ele>142.2</ele>
        <time>2015-05-31T07:12:13Z</time>
      </trkpt>
      <trkpt lat="49.13727" lon="1.32179">
        <ele>142.3</ele>
        <time>2015-05-31T07:12:17Z</time>
      </trkpt>
      <trkpt lat="49.13721" lon="1.32164">
        <ele>142.4</ele>
        <time>2015-05-31T07:12:21Z</time>
      </trkpt>
      <trkpt lat="49.13716" lon="1.3215">
        <ele>142.5</ele>
        <time>2015-05-31T07:12:25Z</time>
      </trkpt>
      <trkpt lat="49.1371" lon="1.32136">
        <ele>142.6</ele>
        <time>2015-05-31T07:12:29Z</time>
      </trkpt>
      <trkpt lat="49.13705" lon="1.32123">
        <ele>142.6</ele>
        <time>2015-05-31T07:12:33Z</time>
      </trkpt>
      <trkpt lat="49.137" lon="1.3211">
        <ele>142.7</ele>
        <time>2015-05-31T07:12:37Z</time>
      </trkpt>
      <trkpt lat="49.13695" lon="1.32097">
        <ele>142.7</ele>
        <time>2015-05-31T07:12:41Z</time>
      </trkpt>
      <trkpt lat="49.1369" lon="1.32084">
        <ele>142.7</ele>
        <time>2015-05-31T07:12:44Z</time>
      </trkpt>
      <trkpt lat="49.13689" lon="1.32067">
        <ele>142.8</ele>
        <time>2015-05-31T07:12:48Z</time>
      </trkpt>
      <trkpt lat="49.13684" lon="1.32051">
        <ele>142.8</ele>
        <time>2015-05-31T07:12:51Z</time>
      </trkpt>
      <trkpt lat="49.13677" lon="1.32036">
        <ele>143</ele>
        <time>2015-05-31T07:12:54Z</time>
      </trkpt>
      <trkpt lat="49.1367" lon="1.3202">
        <ele>143.1</ele>
        <time>2015-05-31T07:12:57Z</time>
      </trkpt>
      <trkpt lat="49.13664" lon="1.32007">
        <ele>143.2</ele>
        <time>2015-05-31T07:13:00Z</time>
      </trkpt>
      <trkpt lat="49.13658" lon="1.31993">
        <ele>143.2</ele>
        <time>2015-05-31T07:13:03Z</time>
      </trkpt>
      <trkpt lat="49.13653" lon="1.31981">
        <ele>143.3</ele>
        <time>2015-05-31T07:13:06Z</time>
      </trkpt>
      <trkpt lat="49.13653" lon="1.31962">
        <ele>143.4</ele>
        <time>2015-05-31T07:13:10Z</time>
      </trkpt>
      <trkpt lat="49.13659" lon="1.31945">
        <ele>143.5</ele>
        <time>2015-05-31T07:13:13Z</time>
      </trkpt>
      <trkpt lat="49.13665" lon="1.31935">
        <ele>143.5</ele>
        <time>2015-05-31T07:13:15Z</time>
      </trkpt>
      <trkpt lat="49.13673" lon="1.31925">
        <ele>143.6</ele>
        <time>2015-05-31T07:13:17Z</time>
      </trkpt>
      <trkpt lat="49.13681" lon="1.31915">
        <ele>143.6</ele>
        <time>2015-05-31T07:13:19Z</time>
      </trkpt>
      <trkpt lat="49.1369" lon="1.31906">
        <ele>143.6</ele>
        <time>2015-05-31T07:13:21Z</time>
      </trkpt>
      <trkpt lat="49.13698" lon="1.31897">
        <ele>143.6</ele>
        <time>2015-05-31T07:13:23Z</time>
      </trkpt>
      <trkpt lat="49.13707" lon="1.31887">
        <ele>143.7</ele>
        <time>2015-05-31T07:13:25Z</time>
      </trkpt>
      <trkpt lat="49.13715" lon="1.31877">
        <ele>143.7</ele>
        <time>2015-05-31T07:13:27Z</time>
      </trkpt>
      <trkpt lat="49.13724" lon="1.31867">
        <ele>143.6</ele>
        <time>2015-05-31T07:13:29Z</time>
      </trkpt>
      <trkpt lat="49.13733" lon="1.31858">
        <ele>143.5</ele>
        <time>2015-05-31T07:13:31Z</time>
      </trkpt>
      <trkpt lat="49.13742" lon="1.31848">
        <ele>143.4</ele>
        <time>2015-05-31T07:13:33Z</time>
      </trkpt>
      <trkpt lat="49.1375" lon="1.31838">
        <ele>143.4</ele>
        <time>2015-05-31T07:13:35Z</time>
      </trkpt>
      <trkpt lat="49.13759" lon="1.31827">
        <ele>143.4</ele>
        <time>2015-05-31T07:13:37Z</time>
      </trkpt>
      <trkpt lat="49.13768" lon="1.31817">
        <ele>143.3</ele>
        <time>2015-05-31T07:13:39Z</time>
      </trkpt>
      <trkpt lat="49.13777" lon="1.31806">
        <ele>143.3</ele>
        <time>2015-05-31T07:13:41Z</time>
      </trkpt>
      <trkpt lat="49.13787" lon="1.31796">
        <ele>143.3</ele>
        <time>2015-05-31T07:13:43Z</time>
      </trkpt>
      <trkpt lat="49.13797" lon="1.31785">
        <ele>143.3</ele>
        <time>2015-05-31T07:13:45Z</time>
      </trkpt>
      <trkpt lat="49.13806" lon="1.31774">
        <ele>143.3</ele>
        <time>2015-05-31T07:13:47Z</time>
      </trkpt>
      <trkpt lat="49.13816" lon="1.31763">
        <ele>143.3</ele>
        <time>2015-05-31T07:13:49Z</time>
      </trkpt>
      <trkpt lat="49.13826" lon="1.31751">
        <ele>143.3</ele>
        <time>2015-05-31T07:13:51Z</time>
      </trkpt>
      <trkpt lat="49.13836" lon="1.3174">
        <ele>143.3</ele>
        <time>2015-05-31T07:13:53Z</time>
      </trkpt>
      <trkpt lat="49.13846" lon="1.31728">
        <ele>143.2</ele>
        <time>2015-05-31T07:13:55Z</time>
      </trkpt>
      <trkpt lat="49.13855" lon="1.31717">
        <ele>143.2</ele>
        <time>2015-05-31T07:13:57Z</time>
      </trkpt>
      <trkpt lat="49.13864" lon="1.31704">
        <ele>143.2</ele>
        <time>2015-05-31T07:13:59Z</time>
      </trkpt>
      <trkpt lat="49.13873" lon="1.31692">
        <ele>143.2</ele>
        <time>2015-05-31T07:14:01Z</time>
      </trkpt>
      <trkpt lat="49.13882" lon="1.31683">
        <ele>143.2</ele>
        <time>2015-05-31T07:14:03Z</time>
      </trkpt>
      <trkpt lat="49.13893" lon="1.3168">
        <ele>143.2</ele>
        <time>2015-05-31T07:14:05Z</time>
      </trkpt>
      <trkpt lat="49.13904" lon="1.31676">
        <ele>143.2</ele>
        <time>2015-05-31T07:14:07Z</time>
      </trkpt>
      <trkpt lat="49.13913" lon="1.31666">
        <ele>143.2</ele>
        <time>2015-05-31T07:14:09Z</time>
      </trkpt>
      <trkpt lat="49.13918" lon="1.31651">
        <ele>143.2</ele>
        <time>2015-05-31T07:14:11Z</time>
      </trkpt>
      <trkpt lat="49.13921" lon="1.31635">
        <ele>143.2</ele>
        <time>2015-05-31T07:14:13Z</time>
      </trkpt>
      <trkpt lat="49.13927" lon="1.3162">
        <ele>143.2</ele>
        <time>2015-05-31T07:14:15Z</time>
      </trkpt>
      <trkpt lat="49.13935" lon="1.31606">
        <ele>143.2</ele>
        <time>2015-05-31T07:14:17Z</time>
      </trkpt>
      <trkpt lat="49.13945" lon="1.31593">
        <ele>143.2</ele>
        <time>2015-05-31T07:14:19Z</time>
      </trkpt>
      <trkpt lat="49.13954" lon="1.3158">
        <ele>143.2</ele>
        <time>2015-05-31T07:14:21Z</time>
      </trkpt>
      <trkpt lat="49.13964" lon="1.31567">
        <ele>143.2</ele>
        <time>2015-05-31T07:14:23Z</time>
      </trkpt>
      <trkpt lat="49.13973" lon="1.31552">
        <ele>143.2</ele>
        <time>2015-05-31T07:14:25Z</time>
      </trkpt>
      <trkpt lat="49.13982" lon="1.31538">
        <ele>143.2</ele>
        <time>2015-05-31T07:14:27Z</time>
      </trkpt>
      <trkpt lat="49.1399" lon="1.31524">
        <ele>143.2</ele>
        <time>2015-05-31T07:14:29Z</time>
      </trkpt>
      <trkpt lat="49.13999" lon="1.3151">
        <ele>143.2</ele>
        <time>2015-05-31T07:14:31Z</time>
      </trkpt>
      <trkpt lat="49.14007" lon="1.31496">
        <ele>143.2</ele>
        <time>2015-05-31T07:14:33Z</time>
      </trkpt>
      <trkpt lat="49.14015" lon="1.31482">
        <ele>143.2</ele>
        <time>2015-05-31T07:14:35Z</time>
      </trkpt>
      <trkpt lat="49.14024" lon="1.31467">
        <ele>143.2</ele>
        <time>2015-05-31T07:14:37Z</time>
      </trkpt>
      <trkpt lat="49.14032" lon="1.31452">
        <ele>143.2</ele>
        <time>2015-05-31T07:14:39Z</time>
      </trkpt>
      <trkpt lat="49.14041" lon="1.31439">
        <ele>143.2</ele>
        <time>2015-05-31T07:14:41Z</time>
      </trkpt>
      <trkpt lat="49.14051" lon="1.31425">
        <ele>143.2</ele>
        <time>2015-05-31T07:14:43Z</time>
      </trkpt>
      <trkpt lat="49.14061" lon="1.31412">
        <ele>143.2</ele>
        <time>2015-05-31T07:14:45Z</time>
      </trkpt>
      <trkpt lat="49.14071" lon="1.31399">
        <ele>143.2</ele>
        <time>2015-05-31T07:14:47Z</time>
      </trkpt>
      <trkpt lat="49.14081" lon="1.31385">
        <ele>143.2</ele>
        <time>2015-05-31T07:14:49Z</time>
      </trkpt>
      <trkpt lat="49.14091" lon="1.31372">
        <ele>143.2</ele>
        <time>2015-05-31T07:14:51Z</time>
      </trkpt>
      <trkpt lat="49.14101" lon="1.31358">
        <ele>143.2</ele>
        <time>2015-05-31T07:14:53Z</time>
      </trkpt>
      <trkpt lat="49.14111" lon="1.31345">
        <ele>143.2</ele>
        <time>2015-05-31T07:14:55Z</time>
      </trkpt>
      <trkpt lat="49.1412" lon="1.31332">
        <ele>143.2</ele>
        <time>2015-05-31T07:14:57Z</time>
      </trkpt>
      <trkpt lat="49.14131" lon="1.3132">
        <ele>143.2</ele>
        <time>2015-05-31T07:14:59Z</time>
      </trkpt>
      <trkpt lat="49.14143" lon="1.31315">
        <ele>143.2</ele>
        <time>2015-05-31T07:15:01Z</time>
      </trkpt>
      <trkpt lat="49.14155" lon="1.31319">
        <ele>143.2</ele>
        <time>2015-05-31T07:15:03Z</time>
      </trkpt>
      <trkpt lat="49.14165" lon="1.31329">
        <ele>143.2</ele>
        <time>2015-05-31T07:15:05Z</time>
      </trkpt>
      <trkpt lat="49.14175" lon="1.31342">
        <ele>143.2</ele>
        <time>2015-05-31T07:15:07Z</time>
      </trkpt>
      <trkpt lat="49.14185" lon="1.31355">
        <ele>143.2</ele>
        <time>2015-05-31T07:15:09Z</time>
      </trkpt>
      <trkpt lat="49.14197" lon="1.31366">
        <ele>143.1</ele>
        <time>2015-05-31T07:15:11Z</time>
      </trkpt>
      <trkpt lat="49.14209" lon="1.31372">
        <ele>143.1</ele>
        <time>2015-05-31T07:15:13Z</time>
      </trkpt>
      <trkpt lat="49.14222" lon="1.31369">
        <ele>143.1</ele>
        <time>2015-05-31T07:15:15Z</time>
      </trkpt>
      <trkpt lat="49.14233" lon="1.31358">
        <ele>143</ele>
        <time>2015-05-31T07:15:17Z</time>
      </trkpt>
      <trkpt lat="49.14244" lon="1.31343">
        <ele>143</ele>
        <time>2015-05-31T07:15:19Z</time>
      </trkpt>
      <trkpt lat="49.14254" lon="1.31328">
        <ele>143</ele>
        <time>2015-05-31T07:15:21Z</time>
      </trkpt>
      <trkpt lat="49.14265" lon="1.31313">
        <ele>143</ele>
        <time>2015-05-31T07:15:23Z</time>
      </trkpt>
      <trkpt lat="49.14275" lon="1.31296">
        <ele>143</ele>
        <time>2015-05-31T07:15:25Z</time>
      </trkpt>
      <trkpt lat="49.14285" lon="1.31281">
        <ele>142.9</ele>
        <time>2015-05-31T07:15:27Z</time>
      </trkpt>
      <trkpt lat="49.14294" lon="1.31267">
        <ele>142.9</ele>
        <time>2015-05-31T07:15:29Z</time>
      </trkpt>
      <trkpt lat="49.14304" lon="1.31262">
        <ele>142.9</ele>
        <time>2015-05-31T07:15:32Z</time>
      </trkpt>
      <trkpt lat="49.14313" lon="1.31272">
        <ele>142.8</ele>
        <time>2015-05-31T07:15:35Z</time>
      </trkpt>
      <trkpt lat="49.1432" lon="1.31281">
        <ele>142.8</ele>
        <time>2015-05-31T07:15:37Z</time>
      </trkpt>
      <trkpt lat="49.14327" lon="1.31291">
        <ele>142.7</ele>
        <time>2015-05-31T07:15:39Z</time>
      </trkpt>
      <trkpt lat="49.14334" lon="1.31301">
        <ele>142.7</ele>
        <time>2015-05-31T07:15:41Z</time>
      </trkpt>
      <trkpt lat="49.14342" lon="1.3131">
        <ele>142.6</ele>
        <time>2015-05-31T07:15:43Z</time>
      </trkpt>
      <trkpt lat="49.14353" lon="1.3131">
        <ele>142.5</ele>
        <time>2015-05-31T07:15:46Z</time>
      </trkpt>
      <trkpt lat="49.1436" lon="1.313">
        <ele>142.5</ele>
        <time>2015-05-31T07:15:48Z</time>
      </trkpt>
      <trkpt lat="49.14366" lon="1.31287">
        <ele>142.4</ele>
        <time>2015-05-31T07:15:50Z</time>
      </trkpt>
      <trkpt lat="49.14373" lon="1.31274">
        <ele>142.3</ele>
        <time>2015-05-31T07:15:52Z</time>
      </trkpt>
      <trkpt lat="49.14382" lon="1.31262">
        <ele>142.3</ele>
        <time>2015-05-31T07:15:54Z</time>
      </trkpt>
      <trkpt lat="49.1439" lon="1.31251">
        <ele>142.2</ele>
        <time>2015-05-31T07:15:56Z</time>
      </trkpt>
      <trkpt lat="49.14398" lon="1.31239">
        <ele>142.1</ele>
        <time>2015-05-31T07:15:58Z</time>
      </trkpt>
      <trkpt lat="49.14406" lon="1.31226">
        <ele>142</ele>
        <time>2015-05-31T07:16:00Z</time>
      </trkpt>
      <trkpt lat="49.14414" lon="1.31212">
        <ele>141.9</ele>
        <time>2015-05-31T07:16:02Z</time>
      </trkpt>
      <trkpt lat="49.14422" lon="1.31198">
        <ele>141.8</ele>
        <time>2015-05-31T07:16:04Z</time>
      </trkpt>
      <trkpt lat="49.1443" lon="1.31184">
        <ele>141.7</ele>
        <time>2015-05-31T07:16:06Z</time>
      </trkpt>
      <trkpt lat="49.14437" lon="1.31171">
        <ele>141.6</ele>
        <time>2015-05-31T07:16:08Z</time>
      </trkpt>
      <trkpt lat="49.14445" lon="1.31156">
        <ele>141.4</ele>
        <time>2015-05-31T07:16:10Z</time>
      </trkpt>
      <trkpt lat="49.14454" lon="1.31143">
        <ele>141.1</ele>
        <time>2015-05-31T07:16:12Z</time>
      </trkpt>
      <trkpt lat="49.14463" lon="1.3113">
        <ele>140.7</ele>
        <time>2015-05-31T07:16:14Z</time>
      </trkpt>
      <trkpt lat="49.14471" lon="1.31117">
        <ele>140.3</ele>
        <time>2015-05-31T07:16:16Z</time>
      </trkpt>
      <trkpt lat="49.14478" lon="1.31107">
        <ele>139.9</ele>
        <time>2015-05-31T07:16:18Z</time>
      </trkpt>
      <trkpt lat="49.14488" lon="1.31101">
        <ele>139.2</ele>
        <time>2015-05-31T07:16:23Z</time>
      </trkpt>
      <trkpt lat="49.14497" lon="1.31098">
        <ele>138.7</ele>
        <time>2015-05-31T07:16:27Z</time>
      </trkpt>
      <trkpt lat="49.14506" lon="1.31099">
        <ele>138.3</ele>
        <time>2015-05-31T07:16:31Z</time>
      </trkpt>
      <trkpt lat="49.14515" lon="1.31101">
        <ele>138</ele>
        <time>2015-05-31T07:16:34Z</time>
      </trkpt>
      <trkpt lat="49.14524" lon="1.31105">
        <ele>137.8</ele>
        <time>2015-05-31T07:16:38Z</time>
      </trkpt>
      <trkpt lat="49.14534" lon="1.31115">
        <ele>137.6</ele>
        <time>2015-05-31T07:16:42Z</time>
      </trkpt>
      <trkpt lat="49.14542" lon="1.31123">
        <ele>137.5</ele>
        <time>2015-05-31T07:16:45Z</time>
      </trkpt>
      <trkpt lat="49.1455" lon="1.31132">
        <ele>137.5</ele>
        <time>2015-05-31T07:16:47Z</time>
      </trkpt>
      <trkpt lat="49.14557" lon="1.3114">
        <ele>137.4</ele>
        <time>2015-05-31T07:16:49Z</time>
      </trkpt>
      <trkpt lat="49.14566" lon="1.31149">
        <ele>137.4</ele>
        <time>2015-05-31T07:16:51Z</time>
      </trkpt>
      <trkpt lat="49.14578" lon="1.3116">
        <ele>137.4</ele>
        <time>2015-05-31T07:16:54Z</time>
      </trkpt>
      <trkpt lat="49.1459" lon="1.31172">
        <ele>137.3</ele>
        <time>2015-05-31T07:16:57Z</time>
      </trkpt>
      <trkpt lat="49.14599" lon="1.31183">
        <ele>137.3</ele>
        <time>2015-05-31T07:16:59Z</time>
      </trkpt>
      <trkpt lat="49.14607" lon="1.31192">
        <ele>137.3</ele>
        <time>2015-05-31T07:17:01Z</time>
      </trkpt>
      <trkpt lat="49.14617" lon="1.31202">
        <ele>137.3</ele>
        <time>2015-05-31T07:17:03Z</time>
      </trkpt>
      <trkpt lat="49.14626" lon="1.31215">
        <ele>137.3</ele>
        <time>2015-05-31T07:17:06Z</time>
      </trkpt>
      <trkpt lat="49.14636" lon="1.31227">
        <ele>137.3</ele>
        <time>2015-05-31T07:17:08Z</time>
      </trkpt>
      <trkpt lat="49.14645" lon="1.31233">
        <ele>137.3</ele>
        <time>2015-05-31T07:17:10Z</time>
      </trkpt>
      <trkpt lat="49.14653" lon="1.31241">
        <ele>137.3</ele>
        <time>2015-05-31T07:17:12Z</time>
      </trkpt>
      <trkpt lat="49.1466" lon="1.31252">
        <ele>137.4</ele>
        <time>2015-05-31T07:17:14Z</time>
      </trkpt>
      <trkpt lat="49.14669" lon="1.31261">
        <ele>137.5</ele>
        <time>2015-05-31T07:17:16Z</time>
      </trkpt>
      <trkpt lat="49.14676" lon="1.31271">
        <ele>137.6</ele>
        <time>2015-05-31T07:17:18Z</time>
      </trkpt>
      <trkpt lat="49.14688" lon="1.31283">
        <ele>137.7</ele>
        <time>2015-05-31T07:17:21Z</time>
      </trkpt>
      <trkpt lat="49.14699" lon="1.31294">
        <ele>137.9</ele>
        <time>2015-05-31T07:17:24Z</time>
      </trkpt>
      <trkpt lat="49.14707" lon="1.31301">
        <ele>138</ele>
        <time>2015-05-31T07:17:26Z</time>
      </trkpt>
      <trkpt lat="49.14715" lon="1.31309">
        <ele>138.1</ele>
        <time>2015-05-31T07:17:28Z</time>
      </trkpt>
      <trkpt lat="49.14726" lon="1.3132">
        <ele>138.2</ele>
        <time>2015-05-31T07:17:31Z</time>
      </trkpt>
      <trkpt lat="49.14735" lon="1.31331">
        <ele>138.4</ele>
        <time>2015-05-31T07:17:34Z</time>
      </trkpt>
      <trkpt lat="49.14743" lon="1.31339">
        <ele>138.5</ele>
        <time>2015-05-31T07:17:36Z</time>
      </trkpt>
      <trkpt lat="49.14752" lon="1.31344">
        <ele>138.6</ele>
        <time>2015-05-31T07:17:38Z</time>
      </trkpt>
      <trkpt lat="49.1476" lon="1.31352">
        <ele>138.7</ele>
        <time>2015-05-31T07:17:40Z</time>
      </trkpt>
      <trkpt lat="49.14771" lon="1.31361">
        <ele>138.9</ele>
        <time>2015-05-31T07:17:43Z</time>
      </trkpt>
      <trkpt lat="49.14779" lon="1.31369">
        <ele>139</ele>
        <time>2015-05-31T07:17:45Z</time>
      </trkpt>
      <trkpt lat="49.14785" lon="1.31378">
        <ele>139.1</ele>
        <time>2015-05-31T07:17:47Z</time>
      </trkpt>
      <trkpt lat="49.14794" lon="1.31386">
        <ele>139.1</ele>
        <time>2015-05-31T07:17:49Z</time>
      </trkpt>
      <trkpt lat="49.14803" lon="1.31396">
        <ele>139.2</ele>
        <time>2015-05-31T07:17:51Z</time>
      </trkpt>
      <trkpt lat="49.1481" lon="1.31404">
        <ele>139.3</ele>
        <time>2015-05-31T07:17:53Z</time>
      </trkpt>
      <trkpt lat="49.14817" lon="1.31413">
        <ele>139.3</ele>
        <time>2015-05-31T07:17:55Z</time>
      </trkpt>
      <trkpt lat="49.14827" lon="1.31421">
        <ele>139.4</ele>
        <time>2015-05-31T07:17:58Z</time>
      </trkpt>
      <trkpt lat="49.14838" lon="1.31431">
        <ele>139.5</ele>
        <time>2015-05-31T07:18:01Z</time>
      </trkpt>
      <trkpt lat="49.14848" lon="1.31437">
        <ele>139.5</ele>
        <time>2015-05-31T07:18:03Z</time>
      </trkpt>
      <trkpt lat="49.14857" lon="1.31445">
        <ele>139.6</ele>
        <time>2015-05-31T07:18:05Z</time>
      </trkpt>
      <trkpt lat="49.14865" lon="1.31451">
        <ele>139.6</ele>
        <time>2015-05-31T07:18:07Z</time>
      </trkpt>
      <trkpt lat="49.14875" lon="1.31458">
        <ele>139.7</ele>
        <time>2015-05-31T07:18:10Z</time>
      </trkpt>
      <trkpt lat="49.14884" lon="1.31462">
        <ele>139.7</ele>
        <time>2015-05-31T07:18:12Z</time>
      </trkpt>
      <trkpt lat="49.14893" lon="1.31469">
        <ele>139.8</ele>
        <time>2015-05-31T07:18:16Z</time>
      </trkpt>
      <trkpt lat="49.14902" lon="1.31475">
        <ele>139.8</ele>
        <time>2015-05-31T07:18:19Z</time>
      </trkpt>
      <trkpt lat="49.1491" lon="1.31483">
        <ele>139.9</ele>
        <time>2015-05-31T07:18:23Z</time>
      </trkpt>
      <trkpt lat="49.14919" lon="1.31492">
        <ele>139.9</ele>
        <time>2015-05-31T07:18:26Z</time>
      </trkpt>
      <trkpt lat="49.14928" lon="1.31501">
        <ele>139.9</ele>
        <time>2015-05-31T07:18:29Z</time>
      </trkpt>
      <trkpt lat="49.14937" lon="1.31512">
        <ele>139.9</ele>
        <time>2015-05-31T07:18:32Z</time>
      </trkpt>
      <trkpt lat="49.14946" lon="1.31525">
        <ele>139.9</ele>
        <time>2015-05-31T07:18:35Z</time>
      </trkpt>
      <trkpt lat="49.14956" lon="1.31534">
        <ele>139.9</ele>
        <time>2015-05-31T07:18:37Z</time>
      </trkpt>
      <trkpt lat="49.14965" lon="1.31543">
        <ele>139.9</ele>
        <time>2015-05-31T07:18:39Z</time>
      </trkpt>
      <trkpt lat="49.14974" lon="1.31559">
        <ele>139.9</ele>
        <time>2015-05-31T07:18:42Z</time>
      </trkpt>
      <trkpt lat="49.14985" lon="1.31571">
        <ele>139.8</ele>
        <time>2015-05-31T07:18:45Z</time>
      </trkpt>
      <trkpt lat="49.14997" lon="1.31583">
        <ele>139.6</ele>
        <time>2015-05-31T07:18:48Z</time>
      </trkpt>
      <trkpt lat="49.15006" lon="1.31594">
        <ele>139.4</ele>
        <time>2015-05-31T07:18:50Z</time>
      </trkpt>
      <trkpt lat="49.15015" lon="1.31603">
        <ele>139.2</ele>
        <time>2015-05-31T07:18:52Z</time>
      </trkpt>
      <trkpt lat="49.15023" lon="1.31613">
        <ele>139</ele>
        <time>2015-05-31T07:18:54Z</time>
      </trkpt>
      <trkpt lat="49.15033" lon="1.31625">
        <ele>138.7</ele>
        <time>2015-05-31T07:18:56Z</time>
      </trkpt>
      <trkpt lat="49.15044" lon="1.31634">
        <ele>138.4</ele>
        <time>2015-05-31T07:18:58Z</time>
      </trkpt>
      <trkpt lat="49.15055" lon="1.3165">
        <ele>138</ele>
        <time>2015-05-31T07:19:00Z</time>
      </trkpt>
      <trkpt lat="49.15065" lon="1.31665">
        <ele>137.5</ele>
        <time>2015-05-31T07:19:02Z</time>
      </trkpt>
      <trkpt lat="49.15077" lon="1.31678">
        <ele>137.1</ele>
        <time>2015-05-31T07:19:04Z</time>
      </trkpt>
      <trkpt lat="49.15087" lon="1.31692">
        <ele>136.6</ele>
        <time>2015-05-31T07:19:06Z</time>
      </trkpt>
      <trkpt lat="49.15095" lon="1.31704">
        <ele>136.1</ele>
        <time>2015-05-31T07:19:08Z</time>
      </trkpt>
      <trkpt lat="49.15104" lon="1.31721">
        <ele>135.4</ele>
        <time>2015-05-31T07:19:11Z</time>
      </trkpt>
      <trkpt lat="49.15114" lon="1.31733">
        <ele>135</ele>
        <time>2015-05-31T07:19:13Z</time>
      </trkpt>
      <trkpt lat="49.15122" lon="1.31748">
        <ele>134.6</ele>
        <time>2015-05-31T07:19:15Z</time>
      </trkpt>
      <trkpt lat="49.15132" lon="1.31764">
        <ele>134.2</ele>
        <time>2015-05-31T07:19:17Z</time>
      </trkpt>
      <trkpt lat="49.15142" lon="1.3178">
        <ele>133.6</ele>
        <time>2015-05-31T07:19:19Z</time>
      </trkpt>
      <trkpt lat="49.1515" lon="1.31798">
        <ele>133.1</ele>
        <time>2015-05-31T07:19:21Z</time>
      </trkpt>
      <trkpt lat="49.15156" lon="1.31808">
        <ele>132.9</ele>
        <time>2015-05-31T07:19:22Z</time>
      </trkpt>
      <trkpt lat="49.15166" lon="1.31827">
        <ele>132.3</ele>
        <time>2015-05-31T07:19:24Z</time>
      </trkpt>
      <trkpt lat="49.15175" lon="1.3184">
        <ele>131.8</ele>
        <time>2015-05-31T07:19:26Z</time>
      </trkpt>
      <trkpt lat="49.15186" lon="1.31852">
        <ele>131.3</ele>
        <time>2015-05-31T07:19:28Z</time>
      </trkpt>
      <trkpt lat="49.15198" lon="1.31866">
        <ele>130.8</ele>
        <time>2015-05-31T07:19:30Z</time>
      </trkpt>
      <trkpt lat="49.15207" lon="1.31876">
        <ele>130.3</ele>
        <time>2015-05-31T07:19:32Z</time>
      </trkpt>
      <trkpt lat="49.15217" lon="1.31886">
        <ele>129.9</ele>
        <time>2015-05-31T07:19:34Z</time>
      </trkpt>
      <trkpt lat="49.15227" lon="1.31899">
        <ele>129.5</ele>
        <time>2015-05-31T07:19:36Z</time>
      </trkpt>
      <trkpt lat="49.15238" lon="1.31912">
        <ele>129.1</ele>
        <time>2015-05-31T07:19:38Z</time>
      </trkpt>
      <trkpt lat="49.1525" lon="1.31926">
        <ele>128.7</ele>
        <time>2015-05-31T07:19:40Z</time>
      </trkpt>
      <trkpt lat="49.15262" lon="1.31938">
        <ele>128.3</ele>
        <time>2015-05-31T07:19:42Z</time>
      </trkpt>
      <trkpt lat="49.1527" lon="1.31951">
        <ele>127.8</ele>
        <time>2015-05-31T07:19:44Z</time>
      </trkpt>
      <trkpt lat="49.15277" lon="1.31961">
        <ele>127.4</ele>
        <time>2015-05-31T07:19:46Z</time>
      </trkpt>
      <trkpt lat="49.15283" lon="1.31972">
        <ele>127.1</ele>
        <time>2015-05-31T07:19:48Z</time>
      </trkpt>
      <trkpt lat="49.15291" lon="1.31981">
        <ele>126.7</ele>
        <time>2015-05-31T07:19:50Z</time>
      </trkpt>
      <trkpt lat="49.15299" lon="1.31992">
        <ele>126.3</ele>
        <time>2015-05-31T07:19:52Z</time>
      </trkpt>
      <trkpt lat="49.15308" lon="1.32007">
        <ele>126</ele>
        <time>2015-05-31T07:19:54Z</time>
      </trkpt>
      <trkpt lat="49.15317" lon="1.32026">
        <ele>125.6</ele>
        <time>2015-05-31T07:19:56Z</time>
      </trkpt>
      <trkpt lat="49.15325" lon="1.32044">
        <ele>125.3</ele>
        <time>2015-05-31T07:19:58Z</time>
      </trkpt>
      <trkpt lat="49.15334" lon="1.32061">
        <ele>125</ele>
        <time>2015-05-31T07:20:00Z</time>
      </trkpt>
      <trkpt lat="49.15342" lon="1.32078">
        <ele>124.6</ele>
        <time>2015-05-31T07:20:02Z</time>
      </trkpt>
      <trkpt lat="49.15351" lon="1.32095">
        <ele>124.2</ele>
        <time>2015-05-31T07:20:04Z</time>
      </trkpt>
      <trkpt lat="49.1536" lon="1.32112">
        <ele>123.8</ele>
        <time>2015-05-31T07:20:06Z</time>
      </trkpt>
      <trkpt lat="49.15369" lon="1.32129">
        <ele>123.4</ele>
        <time>2015-05-31T07:20:08Z</time>
      </trkpt>
      <trkpt lat="49.15378" lon="1.32145">
        <ele>122.9</ele>
        <time>2015-05-31T07:20:10Z</time>
      </trkpt>
      <trkpt lat="49.15386" lon="1.32161">
        <ele>122.5</ele>
        <time>2015-05-31T07:20:12Z</time>
      </trkpt>
      <trkpt lat="49.15391" lon="1.32175">
        <ele>122</ele>
        <time>2015-05-31T07:20:14Z</time>
      </trkpt>
      <trkpt lat="49.154" lon="1.32184">
        <ele>120.8</ele>
        <time>2015-05-31T07:20:18Z</time>
      </trkpt>
      <trkpt lat="49.15409" lon="1.32175">
        <ele>119.9</ele>
        <time>2015-05-31T07:20:22Z</time>
      </trkpt>
      <trkpt lat="49.15421" lon="1.32168">
        <ele>119.4</ele>
        <time>2015-05-31T07:20:25Z</time>
      </trkpt>
      <trkpt lat="49.1543" lon="1.3216">
        <ele>118.9</ele>
        <time>2015-05-31T07:20:28Z</time>
      </trkpt>
      <trkpt lat="49.15441" lon="1.32157">
        <ele>118.5</ele>
        <time>2015-05-31T07:20:31Z</time>
      </trkpt>
      <trkpt lat="49.15451" lon="1.32158">
        <ele>118.2</ele>
        <time>2015-05-31T07:20:34Z</time>
      </trkpt>
      <trkpt lat="49.15463" lon="1.32161">
        <ele>118</ele>
        <time>2015-05-31T07:20:37Z</time>
      </trkpt>
      <trkpt lat="49.15475" lon="1.32165">
        <ele>117.8</ele>
        <time>2015-05-31T07:20:40Z</time>
      </trkpt>
      <trkpt lat="49.15488" lon="1.32168">
        <ele>117.6</ele>
        <time>2015-05-31T07:20:43Z</time>
      </trkpt>
      <trkpt lat="49.15497" lon="1.3217">
        <ele>117.5</ele>
        <time>2015-05-31T07:20:45Z</time>
      </trkpt>
      <trkpt lat="49.15508" lon="1.32172">
        <ele>117.3</ele>
        <time>2015-05-31T07:20:47Z</time>
      </trkpt>
      <trkpt lat="49.15518" lon="1.32175">
        <ele>117.1</ele>
        <time>2015-05-31T07:20:49Z</time>
      </trkpt>
      <trkpt lat="49.15528" lon="1.32174">
        <ele>116.9</ele>
        <time>2015-05-31T07:20:51Z</time>
      </trkpt>
      <trkpt lat="49.15539" lon="1.32168">
        <ele>116.2</ele>
        <time>2015-05-31T07:20:54Z</time>
      </trkpt>
      <trkpt lat="49.15551" lon="1.32162">
        <ele>115.6</ele>
        <time>2015-05-31T07:20:57Z</time>
      </trkpt>
      <trkpt lat="49.15559" lon="1.32154">
        <ele>114.9</ele>
        <time>2015-05-31T07:20:59Z</time>
      </trkpt>
      <trkpt lat="49.15569" lon="1.32144">
        <ele>114</ele>
        <time>2015-05-31T07:21:02Z</time>
      </trkpt>
      <trkpt lat="49.15575" lon="1.32133">
        <ele>113.4</ele>
        <time>2015-05-31T07:21:04Z</time>
      </trkpt>
      <trkpt lat="49.15585" lon="1.32122">
        <ele>112.7</ele>
        <time>2015-05-31T07:21:06Z</time>
      </trkpt>
      <trkpt lat="49.15594" lon="1.32111">
        <ele>111.9</ele>
        <time>2015-05-31T07:21:08Z</time>
      </trkpt>
      <trkpt lat="49.15605" lon="1.32104">
        <ele>111</ele>
        <time>2015-05-31T07:21:10Z</time>
      </trkpt>
      <trkpt lat="49.15617" lon="1.32093">
        <ele>110.2</ele>
        <time>2015-05-31T07:21:12Z</time>
      </trkpt>
      <trkpt lat="49.1563" lon="1.32079">
        <ele>109.3</ele>
        <time>2015-05-31T07:21:14Z</time>
      </trkpt>
      <trkpt lat="49.15642" lon="1.32066">
        <ele>108.4</ele>
        <time>2015-05-31T07:21:16Z</time>
      </trkpt>
      <trkpt lat="49.15653" lon="1.32052">
        <ele>107.5</ele>
        <time>2015-05-31T07:21:18Z</time>
      </trkpt>
      <trkpt lat="49.15662" lon="1.32035">
        <ele>106.6</ele>
        <time>2015-05-31T07:21:20Z</time>
      </trkpt>
      <trkpt lat="49.15669" lon="1.32013">
        <ele>105.6</ele>
        <time>2015-05-31T07:21:22Z</time>
      </trkpt>
      <trkpt lat="49.15677" lon="1.31992">
        <ele>104.6</ele>
        <time>2015-05-31T07:21:24Z</time>
      </trkpt>
      <trkpt lat="49.15687" lon="1.31974">
        <ele>103.4</ele>
        <time>2015-05-31T07:21:26Z</time>
      </trkpt>
      <trkpt lat="49.15695" lon="1.31963">
        <ele>102.2</ele>
        <time>2015-05-31T07:21:28Z</time>
      </trkpt>
      <trkpt lat="49.15702" lon="1.31955">
        <ele>100.2</ele>
        <time>2015-05-31T07:21:31Z</time>
      </trkpt>
      <trkpt lat="49.15708" lon="1.31942">
        <ele>98.2</ele>
        <time>2015-05-31T07:21:34Z</time>
      </trkpt>
      <trkpt lat="49.1571" lon="1.31927">
        <ele>95.5</ele>
        <time>2015-05-31T07:21:38Z</time>
      </trkpt>
      <trkpt lat="49.15703" lon="1.31917">
        <ele>91.6</ele>
        <time>2015-05-31T07:21:46Z</time>
      </trkpt>
      <trkpt lat="49.15694" lon="1.31905">
        <ele>90.2</ele>
        <time>2015-05-31T07:21:50Z</time>
      </trkpt>
      <trkpt lat="49.15703" lon="1.31919">
        <ele>86.9</ele>
        <time>2015-05-31T07:22:03Z</time>
      </trkpt>
      <trkpt lat="49.15711" lon="1.31932">
        <ele>86.4</ele>
        <time>2015-05-31T07:22:06Z</time>
      </trkpt>
      <trkpt lat="49.15721" lon="1.31945">
        <ele>86.2</ele>
        <time>2015-05-31T07:22:09Z</time>
      </trkpt>
      <trkpt lat="49.15728" lon="1.31955">
        <ele>86.1</ele>
        <time>2015-05-31T07:22:11Z</time>
      </trkpt>
      <trkpt lat="49.15735" lon="1.31966">
        <ele>86</ele>
        <time>2015-05-31T07:22:13Z</time>
      </trkpt>
      <trkpt lat="49.15743" lon="1.31978">
        <ele>85.9</ele>
        <time>2015-05-31T07:22:15Z</time>
      </trkpt>
      <trkpt lat="49.1575" lon="1.31991">
        <ele>85.8</ele>
        <time>2015-05-31T07:22:17Z</time>
      </trkpt>
      <trkpt lat="49.15757" lon="1.32004">
        <ele>85.8</ele>
        <time>2015-05-31T07:22:19Z</time>
      </trkpt>
      <trkpt lat="49.15762" lon="1.32019">
        <ele>85.7</ele>
        <time>2015-05-31T07:22:21Z</time>
      </trkpt>
      <trkpt lat="49.15767" lon="1.32035">
        <ele>85.7</ele>
        <time>2015-05-31T07:22:23Z</time>
      </trkpt>
      <trkpt lat="49.15771" lon="1.32051">
        <ele>85.6</ele>
        <time>2015-05-31T07:22:25Z</time>
      </trkpt>
      <trkpt lat="49.15774" lon="1.32069">
        <ele>85.6</ele>
        <time>2015-05-31T07:22:27Z</time>
      </trkpt>
      <trkpt lat="49.15777" lon="1.32088">
        <ele>85.6</ele>
        <time>2015-05-31T07:22:29Z</time>
      </trkpt>
      <trkpt lat="49.15778" lon="1.32108">
        <ele>85.5</ele>
        <time>2015-05-31T07:22:31Z</time>
      </trkpt>
      <trkpt lat="49.15779" lon="1.32128">
        <ele>85.5</ele>
        <time>2015-05-31T07:22:33Z</time>
      </trkpt>
      <trkpt lat="49.15781" lon="1.32147">
        <ele>85.5</ele>
        <time>2015-05-31T07:22:35Z</time>
      </trkpt>
      <trkpt lat="49.15781" lon="1.32168">
        <ele>85.4</ele>
        <time>2015-05-31T07:22:37Z</time>
      </trkpt>
      <trkpt lat="49.15779" lon="1.32187">
        <ele>85.4</ele>
        <time>2015-05-31T07:22:39Z</time>
      </trkpt>
      <trkpt lat="49.15776" lon="1.32206">
        <ele>85.4</ele>
        <time>2015-05-31T07:22:41Z</time>
      </trkpt>
      <trkpt lat="49.15774" lon="1.32223">
        <ele>85.4</ele>
        <time>2015-05-31T07:22:43Z</time>
      </trkpt>
      <trkpt lat="49.15775" lon="1.32239">
        <ele>85.4</ele>
        <time>2015-05-31T07:22:45Z</time>
      </trkpt>
      <trkpt lat="49.15776" lon="1.32256">
        <ele>85.3</ele>
        <time>2015-05-31T07:22:47Z</time>
      </trkpt>
      <trkpt lat="49.15778" lon="1.32275">
        <ele>85.3</ele>
        <time>2015-05-31T07:22:49Z</time>
      </trkpt>
      <trkpt lat="49.15781" lon="1.32295">
        <ele>85.3</ele>
        <time>2015-05-31T07:22:51Z</time>
      </trkpt>
      <trkpt lat="49.15785" lon="1.32314">
        <ele>85.2</ele>
        <time>2015-05-31T07:22:53Z</time>
      </trkpt>
      <trkpt lat="49.1579" lon="1.32334">
        <ele>85.2</ele>
        <time>2015-05-31T07:22:55Z</time>
      </trkpt>
      <trkpt lat="49.15796" lon="1.32353">
        <ele>85.1</ele>
        <time>2015-05-31T07:22:57Z</time>
      </trkpt>
      <trkpt lat="49.15803" lon="1.32372">
        <ele>84.9</ele>
        <time>2015-05-31T07:22:59Z</time>
      </trkpt>
      <trkpt lat="49.15809" lon="1.32391">
        <ele>84.7</ele>
        <time>2015-05-31T07:23:01Z</time>
      </trkpt>
      <trkpt lat="49.15814" lon="1.32411">
        <ele>84.5</ele>
        <time>2015-05-31T07:23:03Z</time>
      </trkpt>
      <trkpt lat="49.15818" lon="1.32432">
        <ele>84.3</ele>
        <time>2015-05-31T07:23:05Z</time>
      </trkpt>
      <trkpt lat="49.15819" lon="1.32453">
        <ele>84</ele>
        <time>2015-05-31T07:23:07Z</time>
      </trkpt>
      <trkpt lat="49.15818" lon="1.32473">
        <ele>83.7</ele>
        <time>2015-05-31T07:23:09Z</time>
      </trkpt>
      <trkpt lat="49.15817" lon="1.32492">
        <ele>83.5</ele>
        <time>2015-05-31T07:23:11Z</time>
      </trkpt>
      <trkpt lat="49.1582" lon="1.32508">
        <ele>83.2</ele>
        <time>2015-05-31T07:23:13Z</time>
      </trkpt>
      <trkpt lat="49.15826" lon="1.3252">
        <ele>82.9</ele>
        <time>2015-05-31T07:23:15Z</time>
      </trkpt>
      <trkpt lat="49.15834" lon="1.3253">
        <ele>82.4</ele>
        <time>2015-05-31T07:23:18Z</time>
      </trkpt>
      <trkpt lat="49.15844" lon="1.32523">
        <ele>81.8</ele>
        <time>2015-05-31T07:23:21Z</time>
      </trkpt>
      <trkpt lat="49.15851" lon="1.32513">
        <ele>81.4</ele>
        <time>2015-05-31T07:23:23Z</time>
      </trkpt>
      <trkpt lat="49.15856" lon="1.32502">
        <ele>80.9</ele>
        <time>2015-05-31T07:23:25Z</time>
      </trkpt>
      <trkpt lat="49.15865" lon="1.32494">
        <ele>80.4</ele>
        <time>2015-05-31T07:23:27Z</time>
      </trkpt>
      <trkpt lat="49.15874" lon="1.32485">
        <ele>79.8</ele>
        <time>2015-05-31T07:23:29Z</time>
      </trkpt>
      <trkpt lat="49.15883" lon="1.3248">
        <ele>78.9</ele>
        <time>2015-05-31T07:23:31Z</time>
      </trkpt>
      <trkpt lat="49.15895" lon="1.32483">
        <ele>77.3</ele>
        <time>2015-05-31T07:23:34Z</time>
      </trkpt>
      <trkpt lat="49.159" lon="1.32494">
        <ele>76.1</ele>
        <time>2015-05-31T07:23:36Z</time>
      </trkpt>
      <trkpt lat="49.15904" lon="1.32508">
        <ele>75</ele>
        <time>2015-05-31T07:23:38Z</time>
      </trkpt>
      <trkpt lat="49.15912" lon="1.32519">
        <ele>73.7</ele>
        <time>2015-05-31T07:23:40Z</time>
      </trkpt>
      <trkpt lat="49.15921" lon="1.32523">
        <ele>72.3</ele>
        <time>2015-05-31T07:23:42Z</time>
      </trkpt>
      <trkpt lat="49.15931" lon="1.32519">
        <ele>70.9</ele>
        <time>2015-05-31T07:23:44Z</time>
      </trkpt>
      <trkpt lat="49.15941" lon="1.32506">
        <ele>69.4</ele>
        <time>2015-05-31T07:23:46Z</time>
      </trkpt>
      <trkpt lat="49.15951" lon="1.32488">
        <ele>68</ele>
        <time>2015-05-31T07:23:48Z</time>
      </trkpt>
      <trkpt lat="49.15955" lon="1.32467">
        <ele>66.4</ele>
        <time>2015-05-31T07:23:50Z</time>
      </trkpt>
      <trkpt lat="49.15952" lon="1.32447">
        <ele>65</ele>
        <time>2015-05-31T07:23:52Z</time>
      </trkpt>
      <trkpt lat="49.15946" lon="1.32432">
        <ele>63.8</ele>
        <time>2015-05-31T07:23:54Z</time>
      </trkpt>
      <trkpt lat="49.15942" lon="1.32417">
        <ele>61.8</ele>
        <time>2015-05-31T07:23:57Z</time>
      </trkpt>
      <trkpt lat="49.15952" lon="1.32422">
        <ele>58.8</ele>
        <time>2015-05-31T07:24:02Z</time>
      </trkpt>
      <trkpt lat="49.15957" lon="1.32435">
        <ele>57.7</ele>
        <time>2015-05-31T07:24:04Z</time>
      </trkpt>
      <trkpt lat="49.15964" lon="1.3245">
        <ele>56.8</ele>
        <time>2015-05-31T07:24:06Z</time>
      </trkpt>
      <trkpt lat="49.15971" lon="1.32466">
        <ele>55.9</ele>
        <time>2015-05-31T07:24:08Z</time>
      </trkpt>
      <trkpt lat="49.1598" lon="1.32483">
        <ele>55</ele>
        <time>2015-05-31T07:24:10Z</time>
      </trkpt>
      <trkpt lat="49.15989" lon="1.32499">
        <ele>54.1</ele>
        <time>2015-05-31T07:24:12Z</time>
      </trkpt>
      <trkpt lat="49.15998" lon="1.32517">
        <ele>53.2</ele>
        <time>2015-05-31T07:24:14Z</time>
      </trkpt>
      <trkpt lat="49.16007" lon="1.32535">
        <ele>52.4</ele>
        <time>2015-05-31T07:24:16Z</time>
      </trkpt>
      <trkpt lat="49.16013" lon="1.32554">
        <ele>51.5</ele>
        <time>2015-05-31T07:24:18Z</time>
      </trkpt>
      <trkpt lat="49.16018" lon="1.32573">
        <ele>50.7</ele>
        <time>2015-05-31T07:24:20Z</time>
      </trkpt>
      <trkpt lat="49.16022" lon="1.32591">
        <ele>49.9</ele>
        <time>2015-05-31T07:24:22Z</time>
      </trkpt>
      <trkpt lat="49.16026" lon="1.32609">
        <ele>49</ele>
        <time>2015-05-31T07:24:24Z</time>
      </trkpt>
      <trkpt lat="49.16032" lon="1.32627">
        <ele>48.2</ele>
        <time>2015-05-31T07:24:26Z</time>
      </trkpt>
      <trkpt lat="49.16035" lon="1.32643">
        <ele>47.4</ele>
        <time>2015-05-31T07:24:28Z</time>
      </trkpt>
      <trkpt lat="49.16032" lon="1.32659">
        <ele>46.6</ele>
        <time>2015-05-31T07:24:30Z</time>
      </trkpt>
      <trkpt lat="49.16025" lon="1.32674">
        <ele>45.9</ele>
        <time>2015-05-31T07:24:32Z</time>
      </trkpt>
      <trkpt lat="49.1602" lon="1.32692">
        <ele>45.2</ele>
        <time>2015-05-31T07:24:34Z</time>
      </trkpt>
      <trkpt lat="49.16014" lon="1.32711">
        <ele>44.7</ele>
        <time>2015-05-31T07:24:36Z</time>
      </trkpt>
      <trkpt lat="49.16008" lon="1.3273">
        <ele>44.1</ele>
        <time>2015-05-31T07:24:38Z</time>
      </trkpt>
      <trkpt lat="49.16001" lon="1.3275">
        <ele>43.5</ele>
        <time>2015-05-31T07:24:40Z</time>
      </trkpt>
      <trkpt lat="49.15995" lon="1.3277">
        <ele>43</ele>
        <time>2015-05-31T07:24:42Z</time>
      </trkpt>
      <trkpt lat="49.15989" lon="1.3279">
        <ele>42.5</ele>
        <time>2015-05-31T07:24:44Z</time>
      </trkpt>
      <trkpt lat="49.15985" lon="1.32811">
        <ele>42.1</ele>
        <time>2015-05-31T07:24:46Z</time>
      </trkpt>
      <trkpt lat="49.15984" lon="1.32832">
        <ele>41.7</ele>
        <time>2015-05-31T07:24:48Z</time>
      </trkpt>
      <trkpt lat="49.15982" lon="1.32854">
        <ele>41.2</ele>
        <time>2015-05-31T07:24:50Z</time>
      </trkpt>
      <trkpt lat="49.15981" lon="1.32876">
        <ele>40.8</ele>
        <time>2015-05-31T07:24:52Z</time>
      </trkpt>
      <trkpt lat="49.1598" lon="1.32897">
        <ele>40.5</ele>
        <time>2015-05-31T07:24:54Z</time>
      </trkpt>
      <trkpt lat="49.15979" lon="1.32916">
        <ele>40.2</ele>
        <time>2015-05-31T07:24:56Z</time>
      </trkpt>
      <trkpt lat="49.1598" lon="1.32932">
        <ele>39.8</ele>
        <time>2015-05-31T07:24:58Z</time>
      </trkpt>
      <trkpt lat="49.15988" lon="1.32941">
        <ele>39.5</ele>
        <time>2015-05-31T07:25:00Z</time>
      </trkpt>
      <trkpt lat="49.15997" lon="1.32943">
        <ele>39.2</ele>
        <time>2015-05-31T07:25:02Z</time>
      </trkpt>
      <trkpt lat="49.16007" lon="1.32944">
        <ele>39</ele>
        <time>2015-05-31T07:25:04Z</time>
      </trkpt>
      <trkpt lat="49.16016" lon="1.32947">
        <ele>38.7</ele>
        <time>2015-05-31T07:25:06Z</time>
      </trkpt>
      <trkpt lat="49.16026" lon="1.32948">
        <ele>38.5</ele>
        <time>2015-05-31T07:25:09Z</time>
      </trkpt>
      <trkpt lat="49.16034" lon="1.32939">
        <ele>38.1</ele>
        <time>2015-05-31T07:25:14Z</time>
      </trkpt>
      <trkpt lat="49.16039" lon="1.32925">
        <ele>38</ele>
        <time>2015-05-31T07:25:17Z</time>
      </trkpt>
      <trkpt lat="49.16043" lon="1.32909">
        <ele>37.9</ele>
        <time>2015-05-31T07:25:20Z</time>
      </trkpt>
      <trkpt lat="49.1605" lon="1.32895">
        <ele>38</ele>
        <time>2015-05-31T07:25:23Z</time>
      </trkpt>
      <trkpt lat="49.16057" lon="1.3288">
        <ele>38.2</ele>
        <time>2015-05-31T07:25:26Z</time>
      </trkpt>
      <trkpt lat="49.16064" lon="1.32863">
        <ele>38.6</ele>
        <time>2015-05-31T07:25:29Z</time>
      </trkpt>
      <trkpt lat="49.1607" lon="1.32848">
        <ele>39.1</ele>
        <time>2015-05-31T07:25:32Z</time>
      </trkpt>
      <trkpt lat="49.16076" lon="1.32832">
        <ele>39.5</ele>
        <time>2015-05-31T07:25:35Z</time>
      </trkpt>
      <trkpt lat="49.16085" lon="1.32838">
        <ele>40.3</ele>
        <time>2015-05-31T07:25:40Z</time>
      </trkpt>
      <trkpt lat="49.16083" lon="1.32854">
        <ele>41</ele>
        <time>2015-05-31T07:25:44Z</time>
      </trkpt>
      <trkpt lat="49.1608" lon="1.32869">
        <ele>41.6</ele>
        <time>2015-05-31T07:25:47Z</time>
      </trkpt>
      <trkpt lat="49.16079" lon="1.32883">
        <ele>42.1</ele>
        <time>2015-05-31T07:25:50Z</time>
      </trkpt>
      <trkpt lat="49.16078" lon="1.32897">
        <ele>42.6</ele>
        <time>2015-05-31T07:25:53Z</time>
      </trkpt>
      <trkpt lat="49.16076" lon="1.32912">
        <ele>43.2</ele>
        <time>2015-05-31T07:25:56Z</time>
      </trkpt>
      <trkpt lat="49.16075" lon="1.32927">
        <ele>43.8</ele>
        <time>2015-05-31T07:25:59Z</time>
      </trkpt>
      <trkpt lat="49.16074" lon="1.32943">
        <ele>44.5</ele>
        <time>2015-05-31T07:26:02Z</time>
      </trkpt>
      <trkpt lat="49.16072" lon="1.32958">
        <ele>45.1</ele>
        <time>2015-05-31T07:26:05Z</time>
      </trkpt>
      <trkpt lat="49.16078" lon="1.32971">
        <ele>45.9</ele>
        <time>2015-05-31T07:26:09Z</time>
      </trkpt>
      <trkpt lat="49.16084" lon="1.32956">
        <ele>46.8</ele>
        <time>2015-05-31T07:26:13Z</time>
      </trkpt>
      <trkpt lat="49.1609" lon="1.3294">
        <ele>47.7</ele>
        <time>2015-05-31T07:26:17Z</time>
      </trkpt>
      <trkpt lat="49.16097" lon="1.32927">
        <ele>48.7</ele>
        <time>2015-05-31T07:26:21Z</time>
      </trkpt>
      <trkpt lat="49.16105" lon="1.32916">
        <ele>49.7</ele>
        <time>2015-05-31T07:26:25Z</time>
      </trkpt>
      <trkpt lat="49.16112" lon="1.32903">
        <ele>50.5</ele>
        <time>2015-05-31T07:26:29Z</time>
      </trkpt>
      <trkpt lat="49.1612" lon="1.32895">
        <ele>51.4</ele>
        <time>2015-05-31T07:26:33Z</time>
      </trkpt>
      <trkpt lat="49.1613" lon="1.32897">
        <ele>52.4</ele>
        <time>2015-05-31T07:26:37Z</time>
      </trkpt>
      <trkpt lat="49.16139" lon="1.32902">
        <ele>53.5</ele>
        <time>2015-05-31T07:26:41Z</time>
      </trkpt>
      <trkpt lat="49.1615" lon="1.32905">
        <ele>54.4</ele>
        <time>2015-05-31T07:26:45Z</time>
      </trkpt>
      <trkpt lat="49.16161" lon="1.329">
        <ele>55.3</ele>
        <time>2015-05-31T07:26:49Z</time>
      </trkpt>
      <trkpt lat="49.16172" lon="1.32898">
        <ele>56</ele>
        <time>2015-05-31T07:26:52Z</time>
      </trkpt>
      <trkpt lat="49.16183" lon="1.32897">
        <ele>56.5</ele>
        <time>2015-05-31T07:26:55Z</time>
      </trkpt>
      <trkpt lat="49.16193" lon="1.32894">
        <ele>57</ele>
        <time>2015-05-31T07:26:58Z</time>
      </trkpt>
      <trkpt lat="49.16203" lon="1.32893">
        <ele>57.4</ele>
        <time>2015-05-31T07:27:01Z</time>
      </trkpt>
      <trkpt lat="49.16212" lon="1.32897">
        <ele>57.8</ele>
        <time>2015-05-31T07:27:05Z</time>
      </trkpt>
      <trkpt lat="49.16221" lon="1.32891">
        <ele>60</ele>
        <time>2015-05-31T07:33:05Z</time>
      </trkpt>
      <trkpt lat="49.1623" lon="1.32888">
        <ele>60</ele>
        <time>2015-05-31T07:33:09Z</time>
      </trkpt>
      <trkpt lat="49.1624" lon="1.32886">
        <ele>60</ele>
        <time>2015-05-31T07:33:12Z</time>
      </trkpt>
      <trkpt lat="49.16251" lon="1.32882">
        <ele>60</ele>
        <time>2015-05-31T07:33:15Z</time>
      </trkpt>
      <trkpt lat="49.16262" lon="1.3288">
        <ele>60.1</ele>
        <time>2015-05-31T07:33:18Z</time>
      </trkpt>
      <trkpt lat="49.16276" lon="1.32878">
        <ele>60.1</ele>
        <time>2015-05-31T07:33:21Z</time>
      </trkpt>
      <trkpt lat="49.16285" lon="1.32877">
        <ele>60.1</ele>
        <time>2015-05-31T07:33:23Z</time>
      </trkpt>
      <trkpt lat="49.16295" lon="1.32875">
        <ele>60.2</ele>
        <time>2015-05-31T07:33:25Z</time>
      </trkpt>
      <trkpt lat="49.16304" lon="1.32873">
        <ele>60.2</ele>
        <time>2015-05-31T07:33:27Z</time>
      </trkpt>
      <trkpt lat="49.16317" lon="1.32871">
        <ele>60.3</ele>
        <time>2015-05-31T07:33:30Z</time>
      </trkpt>
      <trkpt lat="49.16327" lon="1.32869">
        <ele>60.3</ele>
        <time>2015-05-31T07:33:32Z</time>
      </trkpt>
      <trkpt lat="49.16337" lon="1.32867">
        <ele>60.3</ele>
        <time>2015-05-31T07:33:34Z</time>
      </trkpt>
      <trkpt lat="49.16347" lon="1.32865">
        <ele>60.3</ele>
        <time>2015-05-31T07:33:36Z</time>
      </trkpt>
      <trkpt lat="49.16356" lon="1.32864">
        <ele>60.4</ele>
        <time>2015-05-31T07:33:38Z</time>
      </trkpt>
      <trkpt lat="49.16366" lon="1.32863">
        <ele>60.4</ele>
        <time>2015-05-31T07:33:40Z</time>
      </trkpt>
      <trkpt lat="49.16374" lon="1.32869">
        <ele>60.4</ele>
        <time>2015-05-31T07:33:43Z</time>
      </trkpt>
      <trkpt lat="49.16379" lon="1.32883">
        <ele>60.4</ele>
        <time>2015-05-31T07:33:46Z</time>
      </trkpt>
      <trkpt lat="49.16391" lon="1.32884">
        <ele>60.5</ele>
        <time>2015-05-31T07:33:50Z</time>
      </trkpt>
      <trkpt lat="49.16401" lon="1.32884">
        <ele>60.5</ele>
        <time>2015-05-31T07:33:52Z</time>
      </trkpt>
      <trkpt lat="49.16412" lon="1.32883">
        <ele>60.5</ele>
        <time>2015-05-31T07:33:54Z</time>
      </trkpt>
      <trkpt lat="49.16423" lon="1.32881">
        <ele>60.5</ele>
        <time>2015-05-31T07:33:56Z</time>
      </trkpt>
      <trkpt lat="49.16432" lon="1.32877">
        <ele>60.5</ele>
        <time>2015-05-31T07:33:58Z</time>
      </trkpt>
      <trkpt lat="49.16441" lon="1.32869">
        <ele>60.6</ele>
        <time>2015-05-31T07:34:02Z</time>
      </trkpt>
      <trkpt lat="49.16432" lon="1.32862">
        <ele>61.2</ele>
        <time>2015-05-31T07:34:08Z</time>
      </trkpt>
      <trkpt lat="49.16422" lon="1.32858">
        <ele>62</ele>
        <time>2015-05-31T07:34:13Z</time>
      </trkpt>
      <trkpt lat="49.16413" lon="1.32852">
        <ele>63.1</ele>
        <time>2015-05-31T07:34:19Z</time>
      </trkpt>
      <trkpt lat="49.16404" lon="1.32849">
        <ele>63.8</ele>
        <time>2015-05-31T07:34:23Z</time>
      </trkpt>
      <trkpt lat="49.16394" lon="1.32846">
        <ele>65</ele>
        <time>2015-05-31T07:34:28Z</time>
      </trkpt>
      <trkpt lat="49.16384" lon="1.32841">
        <ele>66.2</ele>
        <time>2015-05-31T07:34:33Z</time>
      </trkpt>
      <trkpt lat="49.16379" lon="1.3283">
        <ele>67.4</ele>
        <time>2015-05-31T07:34:38Z</time>
      </trkpt>
      <trkpt lat="49.16384" lon="1.32815">
        <ele>68.9</ele>
        <time>2015-05-31T07:34:45Z</time>
      </trkpt>
      <trkpt lat="49.16392" lon="1.32804">
        <ele>70.5</ele>
        <time>2015-05-31T07:34:52Z</time>
      </trkpt>
      <trkpt lat="49.164" lon="1.32797">
        <ele>71.9</ele>
        <time>2015-05-31T07:34:58Z</time>
      </trkpt>
      <trkpt lat="49.16409" lon="1.32793">
        <ele>73.6</ele>
        <time>2015-05-31T07:35:05Z</time>
      </trkpt>
      <trkpt lat="49.16417" lon="1.32783">
        <ele>75</ele>
        <time>2015-05-31T07:35:10Z</time>
      </trkpt>
      <trkpt lat="49.16425" lon="1.32774">
        <ele>76.4</ele>
        <time>2015-05-31T07:35:15Z</time>
      </trkpt>
      <trkpt lat="49.16433" lon="1.32763">
        <ele>77.9</ele>
        <time>2015-05-31T07:35:21Z</time>
      </trkpt>
      <trkpt lat="49.1644" lon="1.32752">
        <ele>79.5</ele>
        <time>2015-05-31T07:35:27Z</time>
      </trkpt>
      <trkpt lat="49.16446" lon="1.32741">
        <ele>81.2</ele>
        <time>2015-05-31T07:35:33Z</time>
      </trkpt>
      <trkpt lat="49.16452" lon="1.3273">
        <ele>83</ele>
        <time>2015-05-31T07:35:39Z</time>
      </trkpt>
      <trkpt lat="49.16459" lon="1.32718">
        <ele>85.1</ele>
        <time>2015-05-31T07:35:46Z</time>
      </trkpt>
      <trkpt lat="49.16467" lon="1.32709">
        <ele>86.9</ele>
        <time>2015-05-31T07:35:52Z</time>
      </trkpt>
      <trkpt lat="49.16478" lon="1.32704">
        <ele>88.2</ele>
        <time>2015-05-31T07:35:57Z</time>
      </trkpt>
      <trkpt lat="49.16488" lon="1.327">
        <ele>89.1</ele>
        <time>2015-05-31T07:36:01Z</time>
      </trkpt>
      <trkpt lat="49.16499" lon="1.327">
        <ele>89.8</ele>
        <time>2015-05-31T07:36:05Z</time>
      </trkpt>
      <trkpt lat="49.16511" lon="1.32697">
        <ele>90.4</ele>
        <time>2015-05-31T07:36:08Z</time>
      </trkpt>
      <trkpt lat="49.16521" lon="1.32693">
        <ele>90.8</ele>
        <time>2015-05-31T07:36:11Z</time>
      </trkpt>
      <trkpt lat="49.16531" lon="1.3269">
        <ele>91.3</ele>
        <time>2015-05-31T07:36:15Z</time>
      </trkpt>
      <trkpt lat="49.16539" lon="1.32682">
        <ele>91.9</ele>
        <time>2015-05-31T07:36:22Z</time>
      </trkpt>
      <trkpt lat="49.16542" lon="1.32669">
        <ele>92.2</ele>
        <time>2015-05-31T07:36:27Z</time>
      </trkpt>
      <trkpt lat="49.16551" lon="1.32661">
        <ele>93</ele>
        <time>2015-05-31T07:36:32Z</time>
      </trkpt>
      <trkpt lat="49.1656" lon="1.32659">
        <ele>94.2</ele>
        <time>2015-05-31T07:36:38Z</time>
      </trkpt>
      <trkpt lat="49.16556" lon="1.32646">
        <ele>96.5</ele>
        <time>2015-05-31T07:36:49Z</time>
      </trkpt>
      <trkpt lat="49.16547" lon="1.3264">
        <ele>97.5</ele>
        <time>2015-05-31T07:36:54Z</time>
      </trkpt>
      <trkpt lat="49.16539" lon="1.32631">
        <ele>98.5</ele>
        <time>2015-05-31T07:37:00Z</time>
      </trkpt>
      <trkpt lat="49.16533" lon="1.32619">
        <ele>99.4</ele>
        <time>2015-05-31T07:37:05Z</time>
      </trkpt>
      <trkpt lat="49.16526" lon="1.32609">
        <ele>100.3</ele>
        <time>2015-05-31T07:37:10Z</time>
      </trkpt>
      <trkpt lat="49.16517" lon="1.326">
        <ele>100.8</ele>
        <time>2015-05-31T07:37:14Z</time>
      </trkpt>
      <trkpt lat="49.16507" lon="1.32594">
        <ele>101.1</ele>
        <time>2015-05-31T07:37:17Z</time>
      </trkpt>
      <trkpt lat="49.16503" lon="1.32581">
        <ele>101.2</ele>
        <time>2015-05-31T07:37:22Z</time>
      </trkpt>
      <trkpt lat="49.16495" lon="1.32569">
        <ele>100.7</ele>
        <time>2015-05-31T07:37:26Z</time>
      </trkpt>
      <trkpt lat="49.16485" lon="1.32576">
        <ele>100.2</ele>
        <time>2015-05-31T07:37:29Z</time>
      </trkpt>
      <trkpt lat="49.16474" lon="1.32583">
        <ele>99.8</ele>
        <time>2015-05-31T07:37:32Z</time>
      </trkpt>
      <trkpt lat="49.16473" lon="1.32568">
        <ele>98.5</ele>
        <time>2015-05-31T07:37:39Z</time>
      </trkpt>
      <trkpt lat="49.16481" lon="1.32552">
        <ele>98.1</ele>
        <time>2015-05-31T07:37:42Z</time>
      </trkpt>
      <trkpt lat="49.16486" lon="1.32534">
        <ele>97.7</ele>
        <time>2015-05-31T07:37:45Z</time>
      </trkpt>
      <trkpt lat="49.1649" lon="1.32516">
        <ele>97.5</ele>
        <time>2015-05-31T07:37:48Z</time>
      </trkpt>
      <trkpt lat="49.16495" lon="1.32498">
        <ele>97.2</ele>
        <time>2015-05-31T07:37:51Z</time>
      </trkpt>
      <trkpt lat="49.165" lon="1.32479">
        <ele>97</ele>
        <time>2015-05-31T07:37:54Z</time>
      </trkpt>
      <trkpt lat="49.16506" lon="1.32461">
        <ele>96.8</ele>
        <time>2015-05-31T07:37:57Z</time>
      </trkpt>
      <trkpt lat="49.16511" lon="1.32448">
        <ele>96.7</ele>
        <time>2015-05-31T07:37:59Z</time>
      </trkpt>
      <trkpt lat="49.16516" lon="1.3243">
        <ele>96.5</ele>
        <time>2015-05-31T07:38:02Z</time>
      </trkpt>
      <trkpt lat="49.16522" lon="1.32414">
        <ele>96.4</ele>
        <time>2015-05-31T07:38:05Z</time>
      </trkpt>
      <trkpt lat="49.16527" lon="1.32401">
        <ele>96.3</ele>
        <time>2015-05-31T07:38:07Z</time>
      </trkpt>
      <trkpt lat="49.16532" lon="1.32387">
        <ele>96.2</ele>
        <time>2015-05-31T07:38:10Z</time>
      </trkpt>
      <trkpt lat="49.16535" lon="1.32368">
        <ele>96.1</ele>
        <time>2015-05-31T07:38:13Z</time>
      </trkpt>
      <trkpt lat="49.16537" lon="1.32352">
        <ele>96</ele>
        <time>2015-05-31T07:38:15Z</time>
      </trkpt>
      <trkpt lat="49.16541" lon="1.32337">
        <ele>96</ele>
        <time>2015-05-31T07:38:17Z</time>
      </trkpt>
      <trkpt lat="49.16545" lon="1.32322">
        <ele>95.9</ele>
        <time>2015-05-31T07:38:19Z</time>
      </trkpt>
      <trkpt lat="49.16548" lon="1.32307">
        <ele>95.8</ele>
        <time>2015-05-31T07:38:21Z</time>
      </trkpt>
      <trkpt lat="49.16551" lon="1.32291">
        <ele>95.8</ele>
        <time>2015-05-31T07:38:23Z</time>
      </trkpt>
      <trkpt lat="49.16554" lon="1.32276">
        <ele>95.7</ele>
        <time>2015-05-31T07:38:25Z</time>
      </trkpt>
      <trkpt lat="49.16558" lon="1.32261">
        <ele>95.7</ele>
        <time>2015-05-31T07:38:27Z</time>
      </trkpt>
      <trkpt lat="49.16562" lon="1.32246">
        <ele>95.7</ele>
        <time>2015-05-31T07:38:29Z</time>
      </trkpt>
      <trkpt lat="49.16565" lon="1.32228">
        <ele>95.6</ele>
        <time>2015-05-31T07:38:32Z</time>
      </trkpt>
      <trkpt lat="49.16565" lon="1.32213">
        <ele>95.6</ele>
        <time>2015-05-31T07:38:34Z</time>
      </trkpt>
      <trkpt lat="49.16567" lon="1.32197">
        <ele>95.6</ele>
        <time>2015-05-31T07:38:36Z</time>
      </trkpt>
      <trkpt lat="49.1657" lon="1.3218">
        <ele>95.5</ele>
        <time>2015-05-31T07:38:38Z</time>
      </trkpt>
      <trkpt lat="49.16572" lon="1.32164">
        <ele>95.5</ele>
        <time>2015-05-31T07:38:40Z</time>
      </trkpt>
      <trkpt lat="49.16576" lon="1.32149">
        <ele>95.5</ele>
        <time>2015-05-31T07:38:42Z</time>
      </trkpt>
      <trkpt lat="49.16581" lon="1.32134">
        <ele>95.5</ele>
        <time>2015-05-31T07:38:44Z</time>
      </trkpt>
      <trkpt lat="49.16588" lon="1.32123">
        <ele>95.6</ele>
        <time>2015-05-31T07:38:46Z</time>
      </trkpt>
      <trkpt lat="49.16599" lon="1.32114">
        <ele>95.9</ele>
        <time>2015-05-31T07:38:49Z</time>
      </trkpt>
      <trkpt lat="49.16609" lon="1.32105">
        <ele>96.2</ele>
        <time>2015-05-31T07:38:52Z</time>
      </trkpt>
      <trkpt lat="49.16616" lon="1.32095">
        <ele>96.6</ele>
        <time>2015-05-31T07:38:55Z</time>
      </trkpt>
      <trkpt lat="49.16622" lon="1.32084">
        <ele>97.2</ele>
        <time>2015-05-31T07:38:58Z</time>
      </trkpt>
      <trkpt lat="49.16629" lon="1.32068">
        <ele>98.1</ele>
        <time>2015-05-31T07:39:02Z</time>
      </trkpt>
      <trkpt lat="49.16635" lon="1.32058">
        <ele>98.8</ele>
        <time>2015-05-31T07:39:05Z</time>
      </trkpt>
      <trkpt lat="49.16646" lon="1.32059">
        <ele>99.7</ele>
        <time>2015-05-31T07:39:09Z</time>
      </trkpt>
      <trkpt lat="49.16656" lon="1.3206">
        <ele>100.8</ele>
        <time>2015-05-31T07:39:13Z</time>
      </trkpt>
      <trkpt lat="49.16666" lon="1.32056">
        <ele>102.2</ele>
        <time>2015-05-31T07:39:18Z</time>
      </trkpt>
      <trkpt lat="49.16668" lon="1.32041">
        <ele>103.3</ele>
        <time>2015-05-31T07:39:22Z</time>
      </trkpt>
      <trkpt lat="49.16671" lon="1.32025">
        <ele>104.3</ele>
        <time>2015-05-31T07:39:26Z</time>
      </trkpt>
      <trkpt lat="49.16675" lon="1.32012">
        <ele>104.9</ele>
        <time>2015-05-31T07:39:29Z</time>
      </trkpt>
      <trkpt lat="49.16678" lon="1.31999">
        <ele>105.5</ele>
        <time>2015-05-31T07:39:32Z</time>
      </trkpt>
      <trkpt lat="49.1668" lon="1.31984">
        <ele>106.1</ele>
        <time>2015-05-31T07:39:35Z</time>
      </trkpt>
      <trkpt lat="49.16681" lon="1.31967">
        <ele>106.5</ele>
        <time>2015-05-31T07:39:38Z</time>
      </trkpt>
      <trkpt lat="49.16682" lon="1.31947">
        <ele>106.9</ele>
        <time>2015-05-31T07:39:41Z</time>
      </trkpt>
      <trkpt lat="49.16683" lon="1.31932">
        <ele>107.1</ele>
        <time>2015-05-31T07:39:43Z</time>
      </trkpt>
      <trkpt lat="49.16683" lon="1.31917">
        <ele>107.3</ele>
        <time>2015-05-31T07:39:45Z</time>
      </trkpt>
      <trkpt lat="49.16683" lon="1.319">
        <ele>107.5</ele>
        <time>2015-05-31T07:39:47Z</time>
      </trkpt>
      <trkpt lat="49.16684" lon="1.31882">
        <ele>107.6</ele>
        <time>2015-05-31T07:39:49Z</time>
      </trkpt>
      <trkpt lat="49.16684" lon="1.31864">
        <ele>107.8</ele>
        <time>2015-05-31T07:39:51Z</time>
      </trkpt>
      <trkpt lat="49.16685" lon="1.31847">
        <ele>107.9</ele>
        <time>2015-05-31T07:39:53Z</time>
      </trkpt>
      <trkpt lat="49.16685" lon="1.31829">
        <ele>108</ele>
        <time>2015-05-31T07:39:55Z</time>
      </trkpt>
      <trkpt lat="49.16686" lon="1.31811">
        <ele>108</ele>
        <time>2015-05-31T07:39:57Z</time>
      </trkpt>
      <trkpt lat="49.16687" lon="1.31793">
        <ele>108.1</ele>
        <time>2015-05-31T07:39:59Z</time>
      </trkpt>
      <trkpt lat="49.16687" lon="1.31774">
        <ele>108.2</ele>
        <time>2015-05-31T07:40:01Z</time>
      </trkpt>
      <trkpt lat="49.16688" lon="1.31756">
        <ele>108.2</ele>
        <time>2015-05-31T07:40:03Z</time>
      </trkpt>
      <trkpt lat="49.16688" lon="1.31737">
        <ele>108.3</ele>
        <time>2015-05-31T07:40:05Z</time>
      </trkpt>
      <trkpt lat="49.16688" lon="1.31719">
        <ele>108.3</ele>
        <time>2015-05-31T07:40:07Z</time>
      </trkpt>
      <trkpt lat="49.16689" lon="1.31701">
        <ele>108.3</ele>
        <time>2015-05-31T07:40:09Z</time>
      </trkpt>
      <trkpt lat="49.16689" lon="1.31682">
        <ele>108.3</ele>
        <time>2015-05-31T07:40:11Z</time>
      </trkpt>
      <trkpt lat="49.1669" lon="1.31664">
        <ele>108.2</ele>
        <time>2015-05-31T07:40:13Z</time>
      </trkpt>
      <trkpt lat="49.16691" lon="1.31645">
        <ele>108.2</ele>
        <time>2015-05-31T07:40:15Z</time>
      </trkpt>
      <trkpt lat="49.16691" lon="1.31627">
        <ele>108.2</ele>
        <time>2015-05-31T07:40:17Z</time>
      </trkpt>
      <trkpt lat="49.16692" lon="1.31609">
        <ele>108.1</ele>
        <time>2015-05-31T07:40:19Z</time>
      </trkpt>
      <trkpt lat="49.16692" lon="1.31591">
        <ele>108.1</ele>
        <time>2015-05-31T07:40:21Z</time>
      </trkpt>
      <trkpt lat="49.16692" lon="1.31572">
        <ele>108</ele>
        <time>2015-05-31T07:40:23Z</time>
      </trkpt>
      <trkpt lat="49.16691" lon="1.31554">
        <ele>108</ele>
        <time>2015-05-31T07:40:25Z</time>
      </trkpt>
      <trkpt lat="49.1669" lon="1.31535">
        <ele>108</ele>
        <time>2015-05-31T07:40:27Z</time>
      </trkpt>
      <trkpt lat="49.16688" lon="1.31517">
        <ele>107.9</ele>
        <time>2015-05-31T07:40:29Z</time>
      </trkpt>
      <trkpt lat="49.16686" lon="1.31498">
        <ele>107.9</ele>
        <time>2015-05-31T07:40:31Z</time>
      </trkpt>
      <trkpt lat="49.16685" lon="1.31478">
        <ele>107.8</ele>
        <time>2015-05-31T07:40:33Z</time>
      </trkpt>
      <trkpt lat="49.16684" lon="1.31458">
        <ele>107.7</ele>
        <time>2015-05-31T07:40:35Z</time>
      </trkpt>
      <trkpt lat="49.16684" lon="1.31438">
        <ele>107.6</ele>
        <time>2015-05-31T07:40:37Z</time>
      </trkpt>
      <trkpt lat="49.16684" lon="1.31418">
        <ele>107.5</ele>
        <time>2015-05-31T07:40:39Z</time>
      </trkpt>
      <trkpt lat="49.16683" lon="1.31399">
        <ele>107.4</ele>
        <time>2015-05-31T07:40:41Z</time>
      </trkpt>
      <trkpt lat="49.16682" lon="1.3138">
        <ele>107.3</ele>
        <time>2015-05-31T07:40:43Z</time>
      </trkpt>
      <trkpt lat="49.16682" lon="1.31359">
        <ele>107.2</ele>
        <time>2015-05-31T07:40:45Z</time>
      </trkpt>
      <trkpt lat="49.16682" lon="1.31338">
        <ele>107.1</ele>
        <time>2015-05-31T07:40:47Z</time>
      </trkpt>
      <trkpt lat="49.16683" lon="1.31318">
        <ele>107</ele>
        <time>2015-05-31T07:40:49Z</time>
      </trkpt>
      <trkpt lat="49.16685" lon="1.31299">
        <ele>106.8</ele>
        <time>2015-05-31T07:40:51Z</time>
      </trkpt>
      <trkpt lat="49.16686" lon="1.31282">
        <ele>106.8</ele>
        <time>2015-05-31T07:40:53Z</time>
      </trkpt>
      <trkpt lat="49.16688" lon="1.31267">
        <ele>106.7</ele>
        <time>2015-05-31T07:40:55Z</time>
      </trkpt>
      <trkpt lat="49.16697" lon="1.31258">
        <ele>106.7</ele>
        <time>2015-05-31T07:40:58Z</time>
      </trkpt>
      <trkpt lat="49.16708" lon="1.31261">
        <ele>106.8</ele>
        <time>2015-05-31T07:41:01Z</time>
      </trkpt>
      <trkpt lat="49.16718" lon="1.31266">
        <ele>107.1</ele>
        <time>2015-05-31T07:41:04Z</time>
      </trkpt>
      <trkpt lat="49.16728" lon="1.31271">
        <ele>107.5</ele>
        <time>2015-05-31T07:41:07Z</time>
      </trkpt>
      <trkpt lat="49.16737" lon="1.31279">
        <ele>107.9</ele>
        <time>2015-05-31T07:41:10Z</time>
      </trkpt>
      <trkpt lat="49.16745" lon="1.31289">
        <ele>108.4</ele>
        <time>2015-05-31T07:41:13Z</time>
      </trkpt>
      <trkpt lat="49.16754" lon="1.313">
        <ele>109.2</ele>
        <time>2015-05-31T07:41:17Z</time>
      </trkpt>
      <trkpt lat="49.16764" lon="1.31305">
        <ele>110.1</ele>
        <time>2015-05-31T07:41:21Z</time>
      </trkpt>
      <trkpt lat="49.16773" lon="1.31295">
        <ele>111.1</ele>
        <time>2015-05-31T07:41:25Z</time>
      </trkpt>
      <trkpt lat="49.16778" lon="1.31281">
        <ele>112.3</ele>
        <time>2015-05-31T07:41:29Z</time>
      </trkpt>
      <trkpt lat="49.16782" lon="1.31268">
        <ele>113.3</ele>
        <time>2015-05-31T07:41:33Z</time>
      </trkpt>
      <trkpt lat="49.16787" lon="1.31255">
        <ele>114.6</ele>
        <time>2015-05-31T07:41:37Z</time>
      </trkpt>
      <trkpt lat="49.16795" lon="1.31247">
        <ele>115.8</ele>
        <time>2015-05-31T07:41:41Z</time>
      </trkpt>
      <trkpt lat="49.16805" lon="1.31246">
        <ele>117.2</ele>
        <time>2015-05-31T07:41:45Z</time>
      </trkpt>
      <trkpt lat="49.16816" lon="1.31248">
        <ele>118.8</ele>
        <time>2015-05-31T07:41:50Z</time>
      </trkpt>
      <trkpt lat="49.16825" lon="1.31247">
        <ele>120.1</ele>
        <time>2015-05-31T07:41:54Z</time>
      </trkpt>
      <trkpt lat="49.16835" lon="1.31244">
        <ele>121.3</ele>
        <time>2015-05-31T07:41:58Z</time>
      </trkpt>
      <trkpt lat="49.16845" lon="1.31241">
        <ele>122.6</ele>
        <time>2015-05-31T07:42:02Z</time>
      </trkpt>
      <trkpt lat="49.16854" lon="1.31244">
        <ele>123.8</ele>
        <time>2015-05-31T07:42:06Z</time>
      </trkpt>
      <trkpt lat="49.16865" lon="1.31249">
        <ele>124.9</ele>
        <time>2015-05-31T07:42:10Z</time>
      </trkpt>
      <trkpt lat="49.16873" lon="1.31246">
        <ele>125.6</ele>
        <time>2015-05-31T07:42:13Z</time>
      </trkpt>
      <trkpt lat="49.16883" lon="1.3124">
        <ele>126.5</ele>
        <time>2015-05-31T07:42:17Z</time>
      </trkpt>
      <trkpt lat="49.16891" lon="1.31233">
        <ele>127.2</ele>
        <time>2015-05-31T07:42:21Z</time>
      </trkpt>
      <trkpt lat="49.16902" lon="1.31228">
        <ele>127.9</ele>
        <time>2015-05-31T07:42:25Z</time>
      </trkpt>
      <trkpt lat="49.16912" lon="1.31222">
        <ele>128.4</ele>
        <time>2015-05-31T07:42:28Z</time>
      </trkpt>
      <trkpt lat="49.16921" lon="1.31217">
        <ele>128.8</ele>
        <time>2015-05-31T07:42:31Z</time>
      </trkpt>
      <trkpt lat="49.16931" lon="1.31207">
        <ele>129.2</ele>
        <time>2015-05-31T07:42:35Z</time>
      </trkpt>
      <trkpt lat="49.16941" lon="1.31199">
        <ele>129.4</ele>
        <time>2015-05-31T07:42:37Z</time>
      </trkpt>
      <trkpt lat="49.1695" lon="1.3119">
        <ele>129.6</ele>
        <time>2015-05-31T07:42:40Z</time>
      </trkpt>
      <trkpt lat="49.16948" lon="1.31175">
        <ele>129.8</ele>
        <time>2015-05-31T07:42:43Z</time>
      </trkpt>
      <trkpt lat="49.16944" lon="1.3116">
        <ele>130</ele>
        <time>2015-05-31T07:42:46Z</time>
      </trkpt>
      <trkpt lat="49.1694" lon="1.31141">
        <ele>130.2</ele>
        <time>2015-05-31T07:42:49Z</time>
      </trkpt>
      <trkpt lat="49.16938" lon="1.31125">
        <ele>130.3</ele>
        <time>2015-05-31T07:42:51Z</time>
      </trkpt>
      <trkpt lat="49.16932" lon="1.31108">
        <ele>130.4</ele>
        <time>2015-05-31T07:42:54Z</time>
      </trkpt>
      <trkpt lat="49.16928" lon="1.31093">
        <ele>130.5</ele>
        <time>2015-05-31T07:42:57Z</time>
      </trkpt>
      <trkpt lat="49.16926" lon="1.31074">
        <ele>130.6</ele>
        <time>2015-05-31T07:42:59Z</time>
      </trkpt>
      <trkpt lat="49.16924" lon="1.31055">
        <ele>130.6</ele>
        <time>2015-05-31T07:43:01Z</time>
      </trkpt>
      <trkpt lat="49.1692" lon="1.3104">
        <ele>130.6</ele>
        <time>2015-05-31T07:43:03Z</time>
      </trkpt>
      <trkpt lat="49.16916" lon="1.31027">
        <ele>130.6</ele>
        <time>2015-05-31T07:43:04Z</time>
      </trkpt>
      <trkpt lat="49.16913" lon="1.3101">
        <ele>130.6</ele>
        <time>2015-05-31T07:43:06Z</time>
      </trkpt>
      <trkpt lat="49.1691" lon="1.30992">
        <ele>130.6</ele>
        <time>2015-05-31T07:43:08Z</time>
      </trkpt>
      <trkpt lat="49.16906" lon="1.30979">
        <ele>130.6</ele>
        <time>2015-05-31T07:43:10Z</time>
      </trkpt>
      <trkpt lat="49.16905" lon="1.3096">
        <ele>130.7</ele>
        <time>2015-05-31T07:43:13Z</time>
      </trkpt>
      <trkpt lat="49.16905" lon="1.30945">
        <ele>130.7</ele>
        <time>2015-05-31T07:43:15Z</time>
      </trkpt>
      <trkpt lat="49.16903" lon="1.30929">
        <ele>130.7</ele>
        <time>2015-05-31T07:43:18Z</time>
      </trkpt>
      <trkpt lat="49.16901" lon="1.30909">
        <ele>130.7</ele>
        <time>2015-05-31T07:43:21Z</time>
      </trkpt>
      <trkpt lat="49.16902" lon="1.30891">
        <ele>130.6</ele>
        <time>2015-05-31T07:43:23Z</time>
      </trkpt>
      <trkpt lat="49.16901" lon="1.30873">
        <ele>130.6</ele>
        <time>2015-05-31T07:43:25Z</time>
      </trkpt>
      <trkpt lat="49.16899" lon="1.30855">
        <ele>130.5</ele>
        <time>2015-05-31T07:43:27Z</time>
      </trkpt>
      <trkpt lat="49.16899" lon="1.30841">
        <ele>130.5</ele>
        <time>2015-05-31T07:43:29Z</time>
      </trkpt>
      <trkpt lat="49.169" lon="1.30825">
        <ele>130.4</ele>
        <time>2015-05-31T07:43:31Z</time>
      </trkpt>
      <trkpt lat="49.16899" lon="1.30805">
        <ele>130.4</ele>
        <time>2015-05-31T07:43:34Z</time>
      </trkpt>
      <trkpt lat="49.16898" lon="1.30788">
        <ele>130.3</ele>
        <time>2015-05-31T07:43:36Z</time>
      </trkpt>
      <trkpt lat="49.16897" lon="1.30773">
        <ele>130.3</ele>
        <time>2015-05-31T07:43:38Z</time>
      </trkpt>
      <trkpt lat="49.16896" lon="1.30756">
        <ele>130.3</ele>
        <time>2015-05-31T07:43:40Z</time>
      </trkpt>
      <trkpt lat="49.16895" lon="1.3074">
        <ele>130.3</ele>
        <time>2015-05-31T07:43:42Z</time>
      </trkpt>
      <trkpt lat="49.16892" lon="1.30725">
        <ele>130.3</ele>
        <time>2015-05-31T07:43:44Z</time>
      </trkpt>
      <trkpt lat="49.16891" lon="1.30707">
        <ele>130.2</ele>
        <time>2015-05-31T07:43:46Z</time>
      </trkpt>
      <trkpt lat="49.1689" lon="1.30691">
        <ele>130.2</ele>
        <time>2015-05-31T07:43:48Z</time>
      </trkpt>
      <trkpt lat="49.1689" lon="1.30674">
        <ele>130.2</ele>
        <time>2015-05-31T07:43:50Z</time>
      </trkpt>
      <trkpt lat="49.16888" lon="1.30658">
        <ele>130.2</ele>
        <time>2015-05-31T07:43:52Z</time>
      </trkpt>
      <trkpt lat="49.16887" lon="1.30637">
        <ele>130.3</ele>
        <time>2015-05-31T07:43:54Z</time>
      </trkpt>
      <trkpt lat="49.16884" lon="1.30617">
        <ele>130.3</ele>
        <time>2015-05-31T07:43:56Z</time>
      </trkpt>
      <trkpt lat="49.1688" lon="1.30599">
        <ele>130.4</ele>
        <time>2015-05-31T07:43:58Z</time>
      </trkpt>
      <trkpt lat="49.16877" lon="1.30582">
        <ele>130.4</ele>
        <time>2015-05-31T07:44:00Z</time>
      </trkpt>
      <trkpt lat="49.16874" lon="1.30562">
        <ele>130.5</ele>
        <time>2015-05-31T07:44:02Z</time>
      </trkpt>
      <trkpt lat="49.16871" lon="1.30544">
        <ele>130.5</ele>
        <time>2015-05-31T07:44:04Z</time>
      </trkpt>
      <trkpt lat="49.16868" lon="1.30526">
        <ele>130.6</ele>
        <time>2015-05-31T07:44:06Z</time>
      </trkpt>
      <trkpt lat="49.16865" lon="1.30508">
        <ele>130.6</ele>
        <time>2015-05-31T07:44:08Z</time>
      </trkpt>
      <trkpt lat="49.16862" lon="1.30491">
        <ele>130.6</ele>
        <time>2015-05-31T07:44:10Z</time>
      </trkpt>
      <trkpt lat="49.1686" lon="1.30477">
        <ele>130.7</ele>
        <time>2015-05-31T07:44:12Z</time>
      </trkpt>
      <trkpt lat="49.16856" lon="1.30463">
        <ele>130.7</ele>
        <time>2015-05-31T07:44:14Z</time>
      </trkpt>
      <trkpt lat="49.16852" lon="1.30444">
        <ele>130.8</ele>
        <time>2015-05-31T07:44:17Z</time>
      </trkpt>
      <trkpt lat="49.1685" lon="1.30428">
        <ele>130.8</ele>
        <time>2015-05-31T07:44:19Z</time>
      </trkpt>
      <trkpt lat="49.16847" lon="1.30413">
        <ele>130.9</ele>
        <time>2015-05-31T07:44:21Z</time>
      </trkpt>
      <trkpt lat="49.16845" lon="1.30398">
        <ele>131.1</ele>
        <time>2015-05-31T07:44:23Z</time>
      </trkpt>
      <trkpt lat="49.16843" lon="1.30383">
        <ele>131.3</ele>
        <time>2015-05-31T07:44:25Z</time>
      </trkpt>
      <trkpt lat="49.16841" lon="1.30368">
        <ele>131.5</ele>
        <time>2015-05-31T07:44:27Z</time>
      </trkpt>
      <trkpt lat="49.16839" lon="1.30353">
        <ele>131.6</ele>
        <time>2015-05-31T07:44:29Z</time>
      </trkpt>
      <trkpt lat="49.16832" lon="1.30343">
        <ele>131.7</ele>
        <time>2015-05-31T07:44:31Z</time>
      </trkpt>
      <trkpt lat="49.1683" lon="1.30329">
        <ele>131.9</ele>
        <time>2015-05-31T07:44:33Z</time>
      </trkpt>
      <trkpt lat="49.16827" lon="1.30314">
        <ele>132</ele>
        <time>2015-05-31T07:44:35Z</time>
      </trkpt>
      <trkpt lat="49.16824" lon="1.303">
        <ele>132.1</ele>
        <time>2015-05-31T07:44:37Z</time>
      </trkpt>
      <trkpt lat="49.16821" lon="1.30284">
        <ele>132.3</ele>
        <time>2015-05-31T07:44:39Z</time>
      </trkpt>
      <trkpt lat="49.16818" lon="1.30267">
        <ele>132.5</ele>
        <time>2015-05-31T07:44:41Z</time>
      </trkpt>
      <trkpt lat="49.16815" lon="1.30251">
        <ele>132.6</ele>
        <time>2015-05-31T07:44:43Z</time>
      </trkpt>
      <trkpt lat="49.16811" lon="1.30236">
        <ele>132.8</ele>
        <time>2015-05-31T07:44:45Z</time>
      </trkpt>
      <trkpt lat="49.16808" lon="1.30221">
        <ele>132.9</ele>
        <time>2015-05-31T07:44:47Z</time>
      </trkpt>
      <trkpt lat="49.16811" lon="1.30201">
        <ele>133.2</ele>
        <time>2015-05-31T07:44:50Z</time>
      </trkpt>
      <trkpt lat="49.16816" lon="1.30189">
        <ele>133.3</ele>
        <time>2015-05-31T07:44:52Z</time>
      </trkpt>
      <trkpt lat="49.16823" lon="1.30177">
        <ele>133.4</ele>
        <time>2015-05-31T07:44:54Z</time>
      </trkpt>
      <trkpt lat="49.16831" lon="1.30168">
        <ele>133.5</ele>
        <time>2015-05-31T07:44:56Z</time>
      </trkpt>
      <trkpt lat="49.16841" lon="1.3016">
        <ele>133.7</ele>
        <time>2015-05-31T07:44:58Z</time>
      </trkpt>
      <trkpt lat="49.16851" lon="1.30152">
        <ele>133.8</ele>
        <time>2015-05-31T07:45:00Z</time>
      </trkpt>
      <trkpt lat="49.16861" lon="1.30144">
        <ele>133.9</ele>
        <time>2015-05-31T07:45:02Z</time>
      </trkpt>
      <trkpt lat="49.16872" lon="1.30136">
        <ele>134.1</ele>
        <time>2015-05-31T07:45:04Z</time>
      </trkpt>
      <trkpt lat="49.16882" lon="1.30127">
        <ele>134.2</ele>
        <time>2015-05-31T07:45:06Z</time>
      </trkpt>
      <trkpt lat="49.16893" lon="1.30119">
        <ele>134.3</ele>
        <time>2015-05-31T07:45:08Z</time>
      </trkpt>
      <trkpt lat="49.16903" lon="1.30111">
        <ele>134.5</ele>
        <time>2015-05-31T07:45:10Z</time>
      </trkpt>
      <trkpt lat="49.16914" lon="1.30103">
        <ele>134.6</ele>
        <time>2015-05-31T07:45:12Z</time>
      </trkpt>
      <trkpt lat="49.16926" lon="1.30095">
        <ele>134.7</ele>
        <time>2015-05-31T07:45:14Z</time>
      </trkpt>
      <trkpt lat="49.16937" lon="1.30086">
        <ele>134.8</ele>
        <time>2015-05-31T07:45:16Z</time>
      </trkpt>
      <trkpt lat="49.16948" lon="1.30077">
        <ele>134.9</ele>
        <time>2015-05-31T07:45:18Z</time>
      </trkpt>
      <trkpt lat="49.16959" lon="1.30069">
        <ele>135</ele>
        <time>2015-05-31T07:45:20Z</time>
      </trkpt>
      <trkpt lat="49.1697" lon="1.3006">
        <ele>135.1</ele>
        <time>2015-05-31T07:45:22Z</time>
      </trkpt>
      <trkpt lat="49.16982" lon="1.30051">
        <ele>135.2</ele>
        <time>2015-05-31T07:45:24Z</time>
      </trkpt>
      <trkpt lat="49.16993" lon="1.30042">
        <ele>135.3</ele>
        <time>2015-05-31T07:45:26Z</time>
      </trkpt>
      <trkpt lat="49.17005" lon="1.30033">
        <ele>135.4</ele>
        <time>2015-05-31T07:45:28Z</time>
      </trkpt>
      <trkpt lat="49.17017" lon="1.30025">
        <ele>135.5</ele>
        <time>2015-05-31T07:45:30Z</time>
      </trkpt>
      <trkpt lat="49.17029" lon="1.30016">
        <ele>135.5</ele>
        <time>2015-05-31T07:45:32Z</time>
      </trkpt>
      <trkpt lat="49.17041" lon="1.30008">
        <ele>135.7</ele>
        <time>2015-05-31T07:45:34Z</time>
      </trkpt>
      <trkpt lat="49.17053" lon="1.29999">
        <ele>135.8</ele>
        <time>2015-05-31T07:45:36Z</time>
      </trkpt>
      <trkpt lat="49.17066" lon="1.2999">
        <ele>136</ele>
        <time>2015-05-31T07:45:38Z</time>
      </trkpt>
      <trkpt lat="49.17078" lon="1.29981">
        <ele>136.1</ele>
        <time>2015-05-31T07:45:40Z</time>
      </trkpt>
      <trkpt lat="49.1709" lon="1.29972">
        <ele>136.2</ele>
        <time>2015-05-31T07:45:42Z</time>
      </trkpt>
      <trkpt lat="49.17103" lon="1.29963">
        <ele>136.4</ele>
        <time>2015-05-31T07:45:44Z</time>
      </trkpt>
      <trkpt lat="49.17115" lon="1.29954">
        <ele>136.5</ele>
        <time>2015-05-31T07:45:46Z</time>
      </trkpt>
      <trkpt lat="49.17128" lon="1.29944">
        <ele>136.6</ele>
        <time>2015-05-31T07:45:48Z</time>
      </trkpt>
      <trkpt lat="49.1714" lon="1.29935">
        <ele>136.8</ele>
        <time>2015-05-31T07:45:50Z</time>
      </trkpt>
      <trkpt lat="49.17153" lon="1.29926">
        <ele>137</ele>
        <time>2015-05-31T07:45:52Z</time>
      </trkpt>
      <trkpt lat="49.17166" lon="1.29916">
        <ele>137.1</ele>
        <time>2015-05-31T07:45:54Z</time>
      </trkpt>
      <trkpt lat="49.17179" lon="1.29905">
        <ele>137.2</ele>
        <time>2015-05-31T07:45:56Z</time>
      </trkpt>
      <trkpt lat="49.17193" lon="1.29895">
        <ele>137.3</ele>
        <time>2015-05-31T07:45:58Z</time>
      </trkpt>
      <trkpt lat="49.17205" lon="1.29885">
        <ele>137.4</ele>
        <time>2015-05-31T07:46:00Z</time>
      </trkpt>
      <trkpt lat="49.17218" lon="1.29876">
        <ele>137.5</ele>
        <time>2015-05-31T07:46:02Z</time>
      </trkpt>
      <trkpt lat="49.17231" lon="1.29867">
        <ele>137.5</ele>
        <time>2015-05-31T07:46:04Z</time>
      </trkpt>
      <trkpt lat="49.1724" lon="1.29857">
        <ele>137.4</ele>
        <time>2015-05-31T07:46:06Z</time>
      </trkpt>
      <trkpt lat="49.1724" lon="1.29839">
        <ele>137.2</ele>
        <time>2015-05-31T07:46:09Z</time>
      </trkpt>
      <trkpt lat="49.17229" lon="1.29826">
        <ele>137.1</ele>
        <time>2015-05-31T07:46:12Z</time>
      </trkpt>
      <trkpt lat="49.1722" lon="1.29817">
        <ele>137</ele>
        <time>2015-05-31T07:46:14Z</time>
      </trkpt>
      <trkpt lat="49.17211" lon="1.29806">
        <ele>136.9</ele>
        <time>2015-05-31T07:46:16Z</time>
      </trkpt>
      <trkpt lat="49.17202" lon="1.29795">
        <ele>136.8</ele>
        <time>2015-05-31T07:46:18Z</time>
      </trkpt>
      <trkpt lat="49.17194" lon="1.29781">
        <ele>136.7</ele>
        <time>2015-05-31T07:46:20Z</time>
      </trkpt>
      <trkpt lat="49.17185" lon="1.29768">
        <ele>136.7</ele>
        <time>2015-05-31T07:46:22Z</time>
      </trkpt>
      <trkpt lat="49.17177" lon="1.29754">
        <ele>136.6</ele>
        <time>2015-05-31T07:46:24Z</time>
      </trkpt>
      <trkpt lat="49.17171" lon="1.2974">
        <ele>136.7</ele>
        <time>2015-05-31T07:46:26Z</time>
      </trkpt>
      <trkpt lat="49.17171" lon="1.29724">
        <ele>136.8</ele>
        <time>2015-05-31T07:46:28Z</time>
      </trkpt>
      <trkpt lat="49.17172" lon="1.29709">
        <ele>136.8</ele>
        <time>2015-05-31T07:46:30Z</time>
      </trkpt>
      <trkpt lat="49.17175" lon="1.29692">
        <ele>136.9</ele>
        <time>2015-05-31T07:46:32Z</time>
      </trkpt>
      <trkpt lat="49.17177" lon="1.29676">
        <ele>137</ele>
        <time>2015-05-31T07:46:34Z</time>
      </trkpt>
      <trkpt lat="49.1718" lon="1.29659">
        <ele>137</ele>
        <time>2015-05-31T07:46:36Z</time>
      </trkpt>
      <trkpt lat="49.17182" lon="1.29641">
        <ele>137.1</ele>
        <time>2015-05-31T07:46:38Z</time>
      </trkpt>
      <trkpt lat="49.17185" lon="1.29624">
        <ele>137.1</ele>
        <time>2015-05-31T07:46:40Z</time>
      </trkpt>
      <trkpt lat="49.17188" lon="1.29606">
        <ele>137.2</ele>
        <time>2015-05-31T07:46:42Z</time>
      </trkpt>
      <trkpt lat="49.17191" lon="1.29588">
        <ele>137.2</ele>
        <time>2015-05-31T07:46:44Z</time>
      </trkpt>
      <trkpt lat="49.17194" lon="1.29569">
        <ele>137.3</ele>
        <time>2015-05-31T07:46:46Z</time>
      </trkpt>
      <trkpt lat="49.17198" lon="1.2955">
        <ele>137.3</ele>
        <time>2015-05-31T07:46:48Z</time>
      </trkpt>
      <trkpt lat="49.17201" lon="1.2953">
        <ele>137.3</ele>
        <time>2015-05-31T07:46:50Z</time>
      </trkpt>
      <trkpt lat="49.17204" lon="1.2951">
        <ele>137.3</ele>
        <time>2015-05-31T07:46:52Z</time>
      </trkpt>
      <trkpt lat="49.17208" lon="1.2949">
        <ele>137.3</ele>
        <time>2015-05-31T07:46:54Z</time>
      </trkpt>
      <trkpt lat="49.17211" lon="1.29471">
        <ele>137.3</ele>
        <time>2015-05-31T07:46:56Z</time>
      </trkpt>
      <trkpt lat="49.17214" lon="1.29451">
        <ele>137.2</ele>
        <time>2015-05-31T07:46:58Z</time>
      </trkpt>
      <trkpt lat="49.17217" lon="1.29433">
        <ele>137.2</ele>
        <time>2015-05-31T07:47:00Z</time>
      </trkpt>
      <trkpt lat="49.1722" lon="1.29413">
        <ele>137.2</ele>
        <time>2015-05-31T07:47:02Z</time>
      </trkpt>
      <trkpt lat="49.17223" lon="1.29393">
        <ele>137.1</ele>
        <time>2015-05-31T07:47:04Z</time>
      </trkpt>
      <trkpt lat="49.17226" lon="1.29373">
        <ele>137</ele>
        <time>2015-05-31T07:47:06Z</time>
      </trkpt>
      <trkpt lat="49.17229" lon="1.29353">
        <ele>136.8</ele>
        <time>2015-05-31T07:47:08Z</time>
      </trkpt>
      <trkpt lat="49.17233" lon="1.29334">
        <ele>136.6</ele>
        <time>2015-05-31T07:47:10Z</time>
      </trkpt>
      <trkpt lat="49.17236" lon="1.29314">
        <ele>136.3</ele>
        <time>2015-05-31T07:47:12Z</time>
      </trkpt>
      <trkpt lat="49.1724" lon="1.29294">
        <ele>136</ele>
        <time>2015-05-31T07:47:14Z</time>
      </trkpt>
      <trkpt lat="49.17243" lon="1.29276">
        <ele>135.6</ele>
        <time>2015-05-31T07:47:16Z</time>
      </trkpt>
      <trkpt lat="49.17246" lon="1.2926">
        <ele>135</ele>
        <time>2015-05-31T07:47:19Z</time>
      </trkpt>
      <trkpt lat="49.17259" lon="1.29257">
        <ele>134.3</ele>
        <time>2015-05-31T07:47:22Z</time>
      </trkpt>
      <trkpt lat="49.17272" lon="1.29257">
        <ele>133.8</ele>
        <time>2015-05-31T07:47:24Z</time>
      </trkpt>
      <trkpt lat="49.17287" lon="1.29256">
        <ele>133.2</ele>
        <time>2015-05-31T07:47:26Z</time>
      </trkpt>
      <trkpt lat="49.17303" lon="1.29257">
        <ele>132.5</ele>
        <time>2015-05-31T07:47:28Z</time>
      </trkpt>
      <trkpt lat="49.1732" lon="1.29258">
        <ele>131.9</ele>
        <time>2015-05-31T07:47:30Z</time>
      </trkpt>
      <trkpt lat="49.17337" lon="1.2926">
        <ele>131.2</ele>
        <time>2015-05-31T07:47:32Z</time>
      </trkpt>
      <trkpt lat="49.17354" lon="1.29262">
        <ele>130.5</ele>
        <time>2015-05-31T07:47:34Z</time>
      </trkpt>
      <trkpt lat="49.17371" lon="1.29264">
        <ele>129.9</ele>
        <time>2015-05-31T07:47:36Z</time>
      </trkpt>
      <trkpt lat="49.17388" lon="1.29266">
        <ele>129.2</ele>
        <time>2015-05-31T07:47:38Z</time>
      </trkpt>
      <trkpt lat="49.17405" lon="1.29273">
        <ele>128.6</ele>
        <time>2015-05-31T07:47:40Z</time>
      </trkpt>
      <trkpt lat="49.17421" lon="1.29283">
        <ele>127.9</ele>
        <time>2015-05-31T07:47:42Z</time>
      </trkpt>
      <trkpt lat="49.17435" lon="1.29295">
        <ele>127.3</ele>
        <time>2015-05-31T07:47:44Z</time>
      </trkpt>
      <trkpt lat="49.17449" lon="1.29305">
        <ele>126.7</ele>
        <time>2015-05-31T07:47:46Z</time>
      </trkpt>
      <trkpt lat="49.17463" lon="1.29316">
        <ele>126.1</ele>
        <time>2015-05-31T07:47:48Z</time>
      </trkpt>
      <trkpt lat="49.17478" lon="1.29327">
        <ele>125.5</ele>
        <time>2015-05-31T07:47:50Z</time>
      </trkpt>
      <trkpt lat="49.17494" lon="1.29335">
        <ele>125</ele>
        <time>2015-05-31T07:47:52Z</time>
      </trkpt>
      <trkpt lat="49.17512" lon="1.2934">
        <ele>124.4</ele>
        <time>2015-05-31T07:47:54Z</time>
      </trkpt>
      <trkpt lat="49.17523" lon="1.29343">
        <ele>124.1</ele>
        <time>2015-05-31T07:47:55Z</time>
      </trkpt>
      <trkpt lat="49.17536" lon="1.29346">
        <ele>123.4</ele>
        <time>2015-05-31T07:47:57Z</time>
      </trkpt>
      <trkpt lat="49.17546" lon="1.29342">
        <ele>122.7</ele>
        <time>2015-05-31T07:47:59Z</time>
      </trkpt>
      <trkpt lat="49.17552" lon="1.2933">
        <ele>122</ele>
        <time>2015-05-31T07:48:01Z</time>
      </trkpt>
      <trkpt lat="49.17557" lon="1.29312">
        <ele>121.3</ele>
        <time>2015-05-31T07:48:03Z</time>
      </trkpt>
      <trkpt lat="49.17562" lon="1.29291">
        <ele>120.5</ele>
        <time>2015-05-31T07:48:05Z</time>
      </trkpt>
      <trkpt lat="49.17567" lon="1.29268">
        <ele>119.7</ele>
        <time>2015-05-31T07:48:07Z</time>
      </trkpt>
      <trkpt lat="49.17571" lon="1.29244">
        <ele>118.9</ele>
        <time>2015-05-31T07:48:09Z</time>
      </trkpt>
      <trkpt lat="49.17575" lon="1.29221">
        <ele>118</ele>
        <time>2015-05-31T07:48:11Z</time>
      </trkpt>
      <trkpt lat="49.17576" lon="1.292">
        <ele>117</ele>
        <time>2015-05-31T07:48:13Z</time>
      </trkpt>
      <trkpt lat="49.17575" lon="1.29178">
        <ele>115.9</ele>
        <time>2015-05-31T07:48:15Z</time>
      </trkpt>
      <trkpt lat="49.17568" lon="1.29159">
        <ele>114.9</ele>
        <time>2015-05-31T07:48:17Z</time>
      </trkpt>
      <trkpt lat="49.1756" lon="1.29138">
        <ele>113.9</ele>
        <time>2015-05-31T07:48:19Z</time>
      </trkpt>
      <trkpt lat="49.17558" lon="1.29116">
        <ele>112.9</ele>
        <time>2015-05-31T07:48:21Z</time>
      </trkpt>
      <trkpt lat="49.1756" lon="1.29096">
        <ele>112.1</ele>
        <time>2015-05-31T07:48:23Z</time>
      </trkpt>
      <trkpt lat="49.1756" lon="1.29079">
        <ele>111.4</ele>
        <time>2015-05-31T07:48:25Z</time>
      </trkpt>
      <trkpt lat="49.17559" lon="1.2906">
        <ele>110.8</ele>
        <time>2015-05-31T07:48:28Z</time>
      </trkpt>
      <trkpt lat="49.17555" lon="1.29045">
        <ele>110.6</ele>
        <time>2015-05-31T07:48:32Z</time>
      </trkpt>
      <trkpt lat="49.1755" lon="1.2903">
        <ele>110.8</ele>
        <time>2015-05-31T07:48:36Z</time>
      </trkpt>
      <trkpt lat="49.17546" lon="1.29017">
        <ele>111.4</ele>
        <time>2015-05-31T07:48:41Z</time>
      </trkpt>
      <trkpt lat="49.17542" lon="1.29001">
        <ele>112.3</ele>
        <time>2015-05-31T07:48:46Z</time>
      </trkpt>
      <trkpt lat="49.17537" lon="1.28986">
        <ele>113.1</ele>
        <time>2015-05-31T07:48:50Z</time>
      </trkpt>
      <trkpt lat="49.17533" lon="1.2897">
        <ele>113.9</ele>
        <time>2015-05-31T07:48:54Z</time>
      </trkpt>
      <trkpt lat="49.17529" lon="1.28955">
        <ele>114.7</ele>
        <time>2015-05-31T07:48:58Z</time>
      </trkpt>
      <trkpt lat="49.17524" lon="1.2894">
        <ele>115.5</ele>
        <time>2015-05-31T07:49:02Z</time>
      </trkpt>
      <trkpt lat="49.1752" lon="1.28924">
        <ele>116.4</ele>
        <time>2015-05-31T07:49:06Z</time>
      </trkpt>
      <trkpt lat="49.17516" lon="1.28911">
        <ele>116.9</ele>
        <time>2015-05-31T07:49:09Z</time>
      </trkpt>
      <trkpt lat="49.17513" lon="1.28897">
        <ele>117.4</ele>
        <time>2015-05-31T07:49:12Z</time>
      </trkpt>
      <trkpt lat="49.17509" lon="1.28883">
        <ele>117.9</ele>
        <time>2015-05-31T07:49:15Z</time>
      </trkpt>
      <trkpt lat="49.17506" lon="1.2887">
        <ele>118.5</ele>
        <time>2015-05-31T07:49:18Z</time>
      </trkpt>
      <trkpt lat="49.17502" lon="1.28856">
        <ele>119</ele>
        <time>2015-05-31T07:49:21Z</time>
      </trkpt>
      <trkpt lat="49.17499" lon="1.28841">
        <ele>119.4</ele>
        <time>2015-05-31T07:49:24Z</time>
      </trkpt>
      <trkpt lat="49.17496" lon="1.28827">
        <ele>119.9</ele>
        <time>2015-05-31T07:49:27Z</time>
      </trkpt>
      <trkpt lat="49.17492" lon="1.28814">
        <ele>120.3</ele>
        <time>2015-05-31T07:49:30Z</time>
      </trkpt>
      <trkpt lat="49.17489" lon="1.288">
        <ele>120.8</ele>
        <time>2015-05-31T07:49:33Z</time>
      </trkpt>
      <trkpt lat="49.17485" lon="1.28786">
        <ele>121.3</ele>
        <time>2015-05-31T07:49:36Z</time>
      </trkpt>
      <trkpt lat="49.17481" lon="1.2877">
        <ele>121.8</ele>
        <time>2015-05-31T07:49:39Z</time>
      </trkpt>
      <trkpt lat="49.17477" lon="1.28755">
        <ele>122.3</ele>
        <time>2015-05-31T07:49:42Z</time>
      </trkpt>
      <trkpt lat="49.17473" lon="1.2874">
        <ele>122.8</ele>
        <time>2015-05-31T07:49:45Z</time>
      </trkpt>
      <trkpt lat="49.17469" lon="1.28724">
        <ele>123.2</ele>
        <time>2015-05-31T07:49:48Z</time>
      </trkpt>
      <trkpt lat="49.17464" lon="1.28708">
        <ele>123.6</ele>
        <time>2015-05-31T07:49:51Z</time>
      </trkpt>
      <trkpt lat="49.17459" lon="1.28692">
        <ele>124</ele>
        <time>2015-05-31T07:49:54Z</time>
      </trkpt>
      <trkpt lat="49.17454" lon="1.28677">
        <ele>124.4</ele>
        <time>2015-05-31T07:49:57Z</time>
      </trkpt>
      <trkpt lat="49.17449" lon="1.2866">
        <ele>124.8</ele>
        <time>2015-05-31T07:50:00Z</time>
      </trkpt>
      <trkpt lat="49.17445" lon="1.28642">
        <ele>125.1</ele>
        <time>2015-05-31T07:50:03Z</time>
      </trkpt>
      <trkpt lat="49.1744" lon="1.28625">
        <ele>125.3</ele>
        <time>2015-05-31T07:50:06Z</time>
      </trkpt>
      <trkpt lat="49.17435" lon="1.28609">
        <ele>125.6</ele>
        <time>2015-05-31T07:50:09Z</time>
      </trkpt>
      <trkpt lat="49.17429" lon="1.28592">
        <ele>125.8</ele>
        <time>2015-05-31T07:50:12Z</time>
      </trkpt>
      <trkpt lat="49.17421" lon="1.28577">
        <ele>126.2</ele>
        <time>2015-05-31T07:50:15Z</time>
      </trkpt>
      <trkpt lat="49.17412" lon="1.28564">
        <ele>126.5</ele>
        <time>2015-05-31T07:50:18Z</time>
      </trkpt>
      <trkpt lat="49.17403" lon="1.28554">
        <ele>126.8</ele>
        <time>2015-05-31T07:50:21Z</time>
      </trkpt>
      <trkpt lat="49.17393" lon="1.28542">
        <ele>127.2</ele>
        <time>2015-05-31T07:50:24Z</time>
      </trkpt>
      <trkpt lat="49.17385" lon="1.2853">
        <ele>127.5</ele>
        <time>2015-05-31T07:50:27Z</time>
      </trkpt>
      <trkpt lat="49.17376" lon="1.28518">
        <ele>127.9</ele>
        <time>2015-05-31T07:50:30Z</time>
      </trkpt>
      <trkpt lat="49.17369" lon="1.28505">
        <ele>128.4</ele>
        <time>2015-05-31T07:50:33Z</time>
      </trkpt>
      <trkpt lat="49.17363" lon="1.28492">
        <ele>128.8</ele>
        <time>2015-05-31T07:50:36Z</time>
      </trkpt>
      <trkpt lat="49.17357" lon="1.28478">
        <ele>129.3</ele>
        <time>2015-05-31T07:50:39Z</time>
      </trkpt>
      <trkpt lat="49.17348" lon="1.28468">
        <ele>129.7</ele>
        <time>2015-05-31T07:50:42Z</time>
      </trkpt>
      <trkpt lat="49.17338" lon="1.2847">
        <ele>130.2</ele>
        <time>2015-05-31T07:50:45Z</time>
      </trkpt>
      <trkpt lat="49.17329" lon="1.2848">
        <ele>130.7</ele>
        <time>2015-05-31T07:50:48Z</time>
      </trkpt>
      <trkpt lat="49.17321" lon="1.28491">
        <ele>131.3</ele>
        <time>2015-05-31T07:50:51Z</time>
      </trkpt>
      <trkpt lat="49.17313" lon="1.28501">
        <ele>132</ele>
        <time>2015-05-31T07:50:54Z</time>
      </trkpt>
      <trkpt lat="49.17306" lon="1.28511">
        <ele>132.6</ele>
        <time>2015-05-31T07:50:57Z</time>
      </trkpt>
      <trkpt lat="49.17298" lon="1.2852">
        <ele>133.3</ele>
        <time>2015-05-31T07:51:00Z</time>
      </trkpt>
      <trkpt lat="49.1729" lon="1.2853">
        <ele>133.8</ele>
        <time>2015-05-31T07:51:03Z</time>
      </trkpt>
      <trkpt lat="49.17281" lon="1.2854">
        <ele>134.5</ele>
        <time>2015-05-31T07:51:06Z</time>
      </trkpt>
      <trkpt lat="49.17272" lon="1.2855">
        <ele>135.1</ele>
        <time>2015-05-31T07:51:09Z</time>
      </trkpt>
      <trkpt lat="49.17263" lon="1.28559">
        <ele>135.6</ele>
        <time>2015-05-31T07:51:12Z</time>
      </trkpt>
      <trkpt lat="49.17253" lon="1.28566">
        <ele>136.1</ele>
        <time>2015-05-31T07:51:15Z</time>
      </trkpt>
      <trkpt lat="49.17242" lon="1.28561">
        <ele>136.5</ele>
        <time>2015-05-31T07:51:18Z</time>
      </trkpt>
      <trkpt lat="49.17234" lon="1.28547">
        <ele>136.9</ele>
        <time>2015-05-31T07:51:21Z</time>
      </trkpt>
      <trkpt lat="49.17226" lon="1.28531">
        <ele>137.4</ele>
        <time>2015-05-31T07:51:24Z</time>
      </trkpt>
      <trkpt lat="49.17219" lon="1.28516">
        <ele>137.9</ele>
        <time>2015-05-31T07:51:27Z</time>
      </trkpt>
      <trkpt lat="49.17212" lon="1.28503">
        <ele>138.3</ele>
        <time>2015-05-31T07:51:30Z</time>
      </trkpt>
      <trkpt lat="49.17205" lon="1.28491">
        <ele>138.7</ele>
        <time>2015-05-31T07:51:33Z</time>
      </trkpt>
      <trkpt lat="49.17199" lon="1.28478">
        <ele>139.1</ele>
        <time>2015-05-31T07:51:37Z</time>
      </trkpt>
      <trkpt lat="49.17194" lon="1.28466">
        <ele>139.4</ele>
        <time>2015-05-31T07:51:40Z</time>
      </trkpt>
      <trkpt lat="49.17185" lon="1.28452">
        <ele>139.7</ele>
        <time>2015-05-31T07:51:43Z</time>
      </trkpt>
      <trkpt lat="49.17177" lon="1.28437">
        <ele>140</ele>
        <time>2015-05-31T07:51:46Z</time>
      </trkpt>
      <trkpt lat="49.17168" lon="1.28421">
        <ele>140.2</ele>
        <time>2015-05-31T07:51:49Z</time>
      </trkpt>
      <trkpt lat="49.17162" lon="1.28411">
        <ele>140.3</ele>
        <time>2015-05-31T07:51:51Z</time>
      </trkpt>
      <trkpt lat="49.17156" lon="1.28399">
        <ele>140.4</ele>
        <time>2015-05-31T07:51:53Z</time>
      </trkpt>
      <trkpt lat="49.1715" lon="1.28388">
        <ele>140.5</ele>
        <time>2015-05-31T07:51:55Z</time>
      </trkpt>
      <trkpt lat="49.17143" lon="1.28376">
        <ele>140.7</ele>
        <time>2015-05-31T07:51:57Z</time>
      </trkpt>
      <trkpt lat="49.17136" lon="1.28364">
        <ele>140.9</ele>
        <time>2015-05-31T07:51:59Z</time>
      </trkpt>
      <trkpt lat="49.1713" lon="1.28353">
        <ele>141.1</ele>
        <time>2015-05-31T07:52:01Z</time>
      </trkpt>
      <trkpt lat="49.17123" lon="1.28341">
        <ele>141.2</ele>
        <time>2015-05-31T07:52:03Z</time>
      </trkpt>
      <trkpt lat="49.17116" lon="1.28329">
        <ele>141.4</ele>
        <time>2015-05-31T07:52:05Z</time>
      </trkpt>
      <trkpt lat="49.17109" lon="1.28317">
        <ele>141.5</ele>
        <time>2015-05-31T07:52:07Z</time>
      </trkpt>
      <trkpt lat="49.17101" lon="1.28306">
        <ele>141.7</ele>
        <time>2015-05-31T07:52:09Z</time>
      </trkpt>
      <trkpt lat="49.17093" lon="1.28294">
        <ele>142</ele>
        <time>2015-05-31T07:52:11Z</time>
      </trkpt>
      <trkpt lat="49.17085" lon="1.28281">
        <ele>142.2</ele>
        <time>2015-05-31T07:52:13Z</time>
      </trkpt>
      <trkpt lat="49.17077" lon="1.28269">
        <ele>142.4</ele>
        <time>2015-05-31T07:52:15Z</time>
      </trkpt>
      <trkpt lat="49.17069" lon="1.28256">
        <ele>142.6</ele>
        <time>2015-05-31T07:52:17Z</time>
      </trkpt>
      <trkpt lat="49.17062" lon="1.28243">
        <ele>142.8</ele>
        <time>2015-05-31T07:52:19Z</time>
      </trkpt>
      <trkpt lat="49.17054" lon="1.28231">
        <ele>142.9</ele>
        <time>2015-05-31T07:52:21Z</time>
      </trkpt>
      <trkpt lat="49.17046" lon="1.28218">
        <ele>143</ele>
        <time>2015-05-31T07:52:23Z</time>
      </trkpt>
      <trkpt lat="49.17038" lon="1.28206">
        <ele>143.1</ele>
        <time>2015-05-31T07:52:25Z</time>
      </trkpt>
      <trkpt lat="49.17031" lon="1.28193">
        <ele>143.2</ele>
        <time>2015-05-31T07:52:27Z</time>
      </trkpt>
      <trkpt lat="49.17023" lon="1.2818">
        <ele>143.3</ele>
        <time>2015-05-31T07:52:29Z</time>
      </trkpt>
      <trkpt lat="49.17016" lon="1.28167">
        <ele>143.4</ele>
        <time>2015-05-31T07:52:31Z</time>
      </trkpt>
      <trkpt lat="49.17008" lon="1.28154">
        <ele>143.5</ele>
        <time>2015-05-31T07:52:33Z</time>
      </trkpt>
      <trkpt lat="49.17" lon="1.28141">
        <ele>143.5</ele>
        <time>2015-05-31T07:52:35Z</time>
      </trkpt>
      <trkpt lat="49.16993" lon="1.28128">
        <ele>143.6</ele>
        <time>2015-05-31T07:52:37Z</time>
      </trkpt>
      <trkpt lat="49.16985" lon="1.28115">
        <ele>143.6</ele>
        <time>2015-05-31T07:52:39Z</time>
      </trkpt>
      <trkpt lat="49.16978" lon="1.28101">
        <ele>143.6</ele>
        <time>2015-05-31T07:52:41Z</time>
      </trkpt>
      <trkpt lat="49.16972" lon="1.28088">
        <ele>143.6</ele>
        <time>2015-05-31T07:52:43Z</time>
      </trkpt>
      <trkpt lat="49.16967" lon="1.28075">
        <ele>143.5</ele>
        <time>2015-05-31T07:52:45Z</time>
      </trkpt>
      <trkpt lat="49.16962" lon="1.2806">
        <ele>143.5</ele>
        <time>2015-05-31T07:52:47Z</time>
      </trkpt>
      <trkpt lat="49.16959" lon="1.28043">
        <ele>143.4</ele>
        <time>2015-05-31T07:52:49Z</time>
      </trkpt>
      <trkpt lat="49.16956" lon="1.28026">
        <ele>143.3</ele>
        <time>2015-05-31T07:52:51Z</time>
      </trkpt>
      <trkpt lat="49.16954" lon="1.28008">
        <ele>143.2</ele>
        <time>2015-05-31T07:52:53Z</time>
      </trkpt>
      <trkpt lat="49.16952" lon="1.2799">
        <ele>143.1</ele>
        <time>2015-05-31T07:52:55Z</time>
      </trkpt>
      <trkpt lat="49.16952" lon="1.27972">
        <ele>143</ele>
        <time>2015-05-31T07:52:57Z</time>
      </trkpt>
      <trkpt lat="49.16953" lon="1.27952">
        <ele>142.8</ele>
        <time>2015-05-31T07:52:59Z</time>
      </trkpt>
      <trkpt lat="49.16954" lon="1.27933">
        <ele>142.7</ele>
        <time>2015-05-31T07:53:01Z</time>
      </trkpt>
      <trkpt lat="49.16956" lon="1.27913">
        <ele>142.5</ele>
        <time>2015-05-31T07:53:03Z</time>
      </trkpt>
      <trkpt lat="49.16961" lon="1.27893">
        <ele>142.3</ele>
        <time>2015-05-31T07:53:05Z</time>
      </trkpt>
      <trkpt lat="49.16966" lon="1.27877">
        <ele>142.1</ele>
        <time>2015-05-31T07:53:07Z</time>
      </trkpt>
      <trkpt lat="49.16974" lon="1.27861">
        <ele>141.8</ele>
        <time>2015-05-31T07:53:09Z</time>
      </trkpt>
      <trkpt lat="49.16981" lon="1.27844">
        <ele>141.5</ele>
        <time>2015-05-31T07:53:11Z</time>
      </trkpt>
      <trkpt lat="49.16988" lon="1.27826">
        <ele>141.1</ele>
        <time>2015-05-31T07:53:13Z</time>
      </trkpt>
      <trkpt lat="49.16994" lon="1.2781">
        <ele>140.6</ele>
        <time>2015-05-31T07:53:15Z</time>
      </trkpt>
      <trkpt lat="49.16999" lon="1.27794">
        <ele>140.1</ele>
        <time>2015-05-31T07:53:17Z</time>
      </trkpt>
      <trkpt lat="49.17001" lon="1.27779">
        <ele>139.7</ele>
        <time>2015-05-31T07:53:19Z</time>
      </trkpt>
      <trkpt lat="49.17002" lon="1.27762">
        <ele>138.9</ele>
        <time>2015-05-31T07:53:22Z</time>
      </trkpt>
      <trkpt lat="49.17002" lon="1.27746">
        <ele>138.2</ele>
        <time>2015-05-31T07:53:25Z</time>
      </trkpt>
      <trkpt lat="49.17" lon="1.2773">
        <ele>137.8</ele>
        <time>2015-05-31T07:53:27Z</time>
      </trkpt>
      <trkpt lat="49.17" lon="1.27713">
        <ele>137.3</ele>
        <time>2015-05-31T07:53:29Z</time>
      </trkpt>
      <trkpt lat="49.16998" lon="1.27693">
        <ele>136.8</ele>
        <time>2015-05-31T07:53:31Z</time>
      </trkpt>
      <trkpt lat="49.17" lon="1.27671">
        <ele>136.4</ele>
        <time>2015-05-31T07:53:33Z</time>
      </trkpt>
      <trkpt lat="49.17002" lon="1.2765">
        <ele>135.8</ele>
        <time>2015-05-31T07:53:35Z</time>
      </trkpt>
      <trkpt lat="49.17004" lon="1.27636">
        <ele>135.1</ele>
        <time>2015-05-31T07:53:37Z</time>
      </trkpt>
      <trkpt lat="49.17008" lon="1.27621">
        <ele>134.1</ele>
        <time>2015-05-31T07:53:40Z</time>
      </trkpt>
      <trkpt lat="49.1701" lon="1.27606">
        <ele>132.8</ele>
        <time>2015-05-31T07:53:44Z</time>
      </trkpt>
      <trkpt lat="49.1701" lon="1.27592">
        <ele>131.6</ele>
        <time>2015-05-31T07:53:48Z</time>
      </trkpt>
      <trkpt lat="49.17011" lon="1.27577">
        <ele>130.3</ele>
        <time>2015-05-31T07:53:53Z</time>
      </trkpt>
      <trkpt lat="49.17008" lon="1.27561">
        <ele>129.1</ele>
        <time>2015-05-31T07:53:59Z</time>
      </trkpt>
      <trkpt lat="49.17004" lon="1.27547">
        <ele>128.5</ele>
        <time>2015-05-31T07:54:02Z</time>
      </trkpt>
      <trkpt lat="49.17" lon="1.27527">
        <ele>128</ele>
        <time>2015-05-31T07:54:05Z</time>
      </trkpt>
      <trkpt lat="49.16996" lon="1.27511">
        <ele>127.7</ele>
        <time>2015-05-31T07:54:07Z</time>
      </trkpt>
      <trkpt lat="49.16995" lon="1.27496">
        <ele>127.3</ele>
        <time>2015-05-31T07:54:09Z</time>
      </trkpt>
      <trkpt lat="49.17001" lon="1.27477">
        <ele>126.6</ele>
        <time>2015-05-31T07:54:12Z</time>
      </trkpt>
      <trkpt lat="49.1701" lon="1.27465">
        <ele>126.2</ele>
        <time>2015-05-31T07:54:14Z</time>
      </trkpt>
      <trkpt lat="49.1702" lon="1.27454">
        <ele>125.8</ele>
        <time>2015-05-31T07:54:16Z</time>
      </trkpt>
      <trkpt lat="49.17032" lon="1.27441">
        <ele>125.4</ele>
        <time>2015-05-31T07:54:18Z</time>
      </trkpt>
      <trkpt lat="49.17044" lon="1.27427">
        <ele>124.9</ele>
        <time>2015-05-31T07:54:20Z</time>
      </trkpt>
      <trkpt lat="49.17056" lon="1.27413">
        <ele>124.4</ele>
        <time>2015-05-31T07:54:22Z</time>
      </trkpt>
      <trkpt lat="49.17069" lon="1.27399">
        <ele>123.9</ele>
        <time>2015-05-31T07:54:24Z</time>
      </trkpt>
      <trkpt lat="49.17081" lon="1.27385">
        <ele>123.4</ele>
        <time>2015-05-31T07:54:26Z</time>
      </trkpt>
      <trkpt lat="49.17094" lon="1.2737">
        <ele>122.8</ele>
        <time>2015-05-31T07:54:28Z</time>
      </trkpt>
      <trkpt lat="49.17107" lon="1.27356">
        <ele>122.3</ele>
        <time>2015-05-31T07:54:30Z</time>
      </trkpt>
      <trkpt lat="49.1712" lon="1.27342">
        <ele>121.8</ele>
        <time>2015-05-31T07:54:32Z</time>
      </trkpt>
      <trkpt lat="49.17134" lon="1.2733">
        <ele>121.2</ele>
        <time>2015-05-31T07:54:34Z</time>
      </trkpt>
      <trkpt lat="49.17149" lon="1.27321">
        <ele>120.5</ele>
        <time>2015-05-31T07:54:36Z</time>
      </trkpt>
      <trkpt lat="49.17164" lon="1.27313">
        <ele>119.7</ele>
        <time>2015-05-31T07:54:38Z</time>
      </trkpt>
      <trkpt lat="49.17181" lon="1.27306">
        <ele>119</ele>
        <time>2015-05-31T07:54:40Z</time>
      </trkpt>
      <trkpt lat="49.17198" lon="1.27299">
        <ele>118.4</ele>
        <time>2015-05-31T07:54:42Z</time>
      </trkpt>
      <trkpt lat="49.17215" lon="1.27291">
        <ele>117.7</ele>
        <time>2015-05-31T07:54:44Z</time>
      </trkpt>
      <trkpt lat="49.17232" lon="1.27284">
        <ele>116.9</ele>
        <time>2015-05-31T07:54:46Z</time>
      </trkpt>
      <trkpt lat="49.17248" lon="1.27276">
        <ele>116.2</ele>
        <time>2015-05-31T07:54:48Z</time>
      </trkpt>
      <trkpt lat="49.17265" lon="1.27267">
        <ele>115.6</ele>
        <time>2015-05-31T07:54:50Z</time>
      </trkpt>
      <trkpt lat="49.17281" lon="1.27259">
        <ele>115</ele>
        <time>2015-05-31T07:54:52Z</time>
      </trkpt>
      <trkpt lat="49.17295" lon="1.27248">
        <ele>114.5</ele>
        <time>2015-05-31T07:54:54Z</time>
      </trkpt>
      <trkpt lat="49.17308" lon="1.27234">
        <ele>114.1</ele>
        <time>2015-05-31T07:54:56Z</time>
      </trkpt>
      <trkpt lat="49.17318" lon="1.2722">
        <ele>113.7</ele>
        <time>2015-05-31T07:54:58Z</time>
      </trkpt>
      <trkpt lat="49.17327" lon="1.27205">
        <ele>113.4</ele>
        <time>2015-05-31T07:55:00Z</time>
      </trkpt>
      <trkpt lat="49.17335" lon="1.2719">
        <ele>113.1</ele>
        <time>2015-05-31T07:55:02Z</time>
      </trkpt>
      <trkpt lat="49.17342" lon="1.27175">
        <ele>112.9</ele>
        <time>2015-05-31T07:55:04Z</time>
      </trkpt>
      <trkpt lat="49.17349" lon="1.2716">
        <ele>112.7</ele>
        <time>2015-05-31T07:55:06Z</time>
      </trkpt>
      <trkpt lat="49.17356" lon="1.27144">
        <ele>112.6</ele>
        <time>2015-05-31T07:55:08Z</time>
      </trkpt>
      <trkpt lat="49.17362" lon="1.27129">
        <ele>112.5</ele>
        <time>2015-05-31T07:55:10Z</time>
      </trkpt>
      <trkpt lat="49.17368" lon="1.27114">
        <ele>112.5</ele>
        <time>2015-05-31T07:55:12Z</time>
      </trkpt>
      <trkpt lat="49.17374" lon="1.271">
        <ele>112.5</ele>
        <time>2015-05-31T07:55:14Z</time>
      </trkpt>
      <trkpt lat="49.1738" lon="1.27086">
        <ele>112.5</ele>
        <time>2015-05-31T07:55:16Z</time>
      </trkpt>
      <trkpt lat="49.17386" lon="1.27072">
        <ele>112.5</ele>
        <time>2015-05-31T07:55:18Z</time>
      </trkpt>
      <trkpt lat="49.17393" lon="1.27057">
        <ele>112.6</ele>
        <time>2015-05-31T07:55:20Z</time>
      </trkpt>
      <trkpt lat="49.17398" lon="1.27043">
        <ele>112.7</ele>
        <time>2015-05-31T07:55:22Z</time>
      </trkpt>
      <trkpt lat="49.17404" lon="1.27028">
        <ele>112.8</ele>
        <time>2015-05-31T07:55:24Z</time>
      </trkpt>
      <trkpt lat="49.17409" lon="1.27014">
        <ele>113</ele>
        <time>2015-05-31T07:55:26Z</time>
      </trkpt>
      <trkpt lat="49.17413" lon="1.27001">
        <ele>113.1</ele>
        <time>2015-05-31T07:55:28Z</time>
      </trkpt>
      <trkpt lat="49.17423" lon="1.2699">
        <ele>113.4</ele>
        <time>2015-05-31T07:55:31Z</time>
      </trkpt>
      <trkpt lat="49.17431" lon="1.26979">
        <ele>113.7</ele>
        <time>2015-05-31T07:55:34Z</time>
      </trkpt>
      <trkpt lat="49.17438" lon="1.26969">
        <ele>114.1</ele>
        <time>2015-05-31T07:55:37Z</time>
      </trkpt>
      <trkpt lat="49.17445" lon="1.2696">
        <ele>114.6</ele>
        <time>2015-05-31T07:55:40Z</time>
      </trkpt>
      <trkpt lat="49.17454" lon="1.2695">
        <ele>115.3</ele>
        <time>2015-05-31T07:55:44Z</time>
      </trkpt>
      <trkpt lat="49.17461" lon="1.2694">
        <ele>116.2</ele>
        <time>2015-05-31T07:55:48Z</time>
      </trkpt>
      <trkpt lat="49.17469" lon="1.26929">
        <ele>117.1</ele>
        <time>2015-05-31T07:55:52Z</time>
      </trkpt>
      <trkpt lat="49.17477" lon="1.2692">
        <ele>118.2</ele>
        <time>2015-05-31T07:55:56Z</time>
      </trkpt>
      <trkpt lat="49.17485" lon="1.26909">
        <ele>119.2</ele>
        <time>2015-05-31T07:56:00Z</time>
      </trkpt>
      <trkpt lat="49.17493" lon="1.269">
        <ele>120.3</ele>
        <time>2015-05-31T07:56:04Z</time>
      </trkpt>
      <trkpt lat="49.17502" lon="1.26891">
        <ele>121.3</ele>
        <time>2015-05-31T07:56:08Z</time>
      </trkpt>
      <trkpt lat="49.1751" lon="1.26882">
        <ele>122.1</ele>
        <time>2015-05-31T07:56:12Z</time>
      </trkpt>
      <trkpt lat="49.17519" lon="1.26873">
        <ele>123.1</ele>
        <time>2015-05-31T07:56:16Z</time>
      </trkpt>
      <trkpt lat="49.17528" lon="1.26864">
        <ele>124</ele>
        <time>2015-05-31T07:56:20Z</time>
      </trkpt>
      <trkpt lat="49.17538" lon="1.26857">
        <ele>124.9</ele>
        <time>2015-05-31T07:56:24Z</time>
      </trkpt>
      <trkpt lat="49.17547" lon="1.26849">
        <ele>125.8</ele>
        <time>2015-05-31T07:56:28Z</time>
      </trkpt>
      <trkpt lat="49.17557" lon="1.2684">
        <ele>126.7</ele>
        <time>2015-05-31T07:56:32Z</time>
      </trkpt>
      <trkpt lat="49.17566" lon="1.26832">
        <ele>127.5</ele>
        <time>2015-05-31T07:56:36Z</time>
      </trkpt>
      <trkpt lat="49.17574" lon="1.26824">
        <ele>128.2</ele>
        <time>2015-05-31T07:56:40Z</time>
      </trkpt>
      <trkpt lat="49.17582" lon="1.26815">
        <ele>128.8</ele>
        <time>2015-05-31T07:56:44Z</time>
      </trkpt>
      <trkpt lat="49.17592" lon="1.26809">
        <ele>129.4</ele>
        <time>2015-05-31T07:56:48Z</time>
      </trkpt>
      <trkpt lat="49.17602" lon="1.26805">
        <ele>130</ele>
        <time>2015-05-31T07:56:52Z</time>
      </trkpt>
      <trkpt lat="49.17612" lon="1.268">
        <ele>130.8</ele>
        <time>2015-05-31T07:56:56Z</time>
      </trkpt>
      <trkpt lat="49.17623" lon="1.26798">
        <ele>131.5</ele>
        <time>2015-05-31T07:57:00Z</time>
      </trkpt>
      <trkpt lat="49.17633" lon="1.268">
        <ele>132.2</ele>
        <time>2015-05-31T07:57:04Z</time>
      </trkpt>
      <trkpt lat="49.17644" lon="1.26805">
        <ele>132.9</ele>
        <time>2015-05-31T07:57:08Z</time>
      </trkpt>
      <trkpt lat="49.17654" lon="1.26807">
        <ele>133.6</ele>
        <time>2015-05-31T07:57:12Z</time>
      </trkpt>
      <trkpt lat="49.17663" lon="1.26804">
        <ele>134.5</ele>
        <time>2015-05-31T07:57:17Z</time>
      </trkpt>
      <trkpt lat="49.17673" lon="1.26802">
        <ele>135.4</ele>
        <time>2015-05-31T07:57:22Z</time>
      </trkpt>
      <trkpt lat="49.17682" lon="1.268">
        <ele>136.3</ele>
        <time>2015-05-31T07:57:27Z</time>
      </trkpt>
      <trkpt lat="49.17693" lon="1.26797">
        <ele>137.5</ele>
        <time>2015-05-31T07:57:33Z</time>
      </trkpt>
      <trkpt lat="49.17703" lon="1.26793">
        <ele>138.4</ele>
        <time>2015-05-31T07:57:38Z</time>
      </trkpt>
      <trkpt lat="49.17706" lon="1.26777">
        <ele>139.5</ele>
        <time>2015-05-31T07:57:43Z</time>
      </trkpt>
      <trkpt lat="49.17706" lon="1.26763">
        <ele>140.1</ele>
        <time>2015-05-31T07:57:46Z</time>
      </trkpt>
      <trkpt lat="49.17706" lon="1.26747">
        <ele>140.7</ele>
        <time>2015-05-31T07:57:49Z</time>
      </trkpt>
      <trkpt lat="49.17705" lon="1.26732">
        <ele>141.4</ele>
        <time>2015-05-31T07:57:52Z</time>
      </trkpt>
      <trkpt lat="49.17705" lon="1.26716">
        <ele>142</ele>
        <time>2015-05-31T07:57:55Z</time>
      </trkpt>
      <trkpt lat="49.17704" lon="1.267">
        <ele>142.6</ele>
        <time>2015-05-31T07:57:58Z</time>
      </trkpt>
      <trkpt lat="49.17703" lon="1.26683">
        <ele>143.2</ele>
        <time>2015-05-31T07:58:01Z</time>
      </trkpt>
      <trkpt lat="49.17699" lon="1.26667">
        <ele>143.8</ele>
        <time>2015-05-31T07:58:04Z</time>
      </trkpt>
      <trkpt lat="49.17695" lon="1.2665">
        <ele>144.2</ele>
        <time>2015-05-31T07:58:07Z</time>
      </trkpt>
      <trkpt lat="49.17692" lon="1.26634">
        <ele>144.7</ele>
        <time>2015-05-31T07:58:10Z</time>
      </trkpt>
      <trkpt lat="49.17688" lon="1.26617">
        <ele>145.2</ele>
        <time>2015-05-31T07:58:13Z</time>
      </trkpt>
      <trkpt lat="49.17685" lon="1.26599">
        <ele>145.7</ele>
        <time>2015-05-31T07:58:16Z</time>
      </trkpt>
      <trkpt lat="49.17682" lon="1.26579">
        <ele>146</ele>
        <time>2015-05-31T07:58:19Z</time>
      </trkpt>
      <trkpt lat="49.1768" lon="1.26564">
        <ele>146.1</ele>
        <time>2015-05-31T07:58:21Z</time>
      </trkpt>
      <trkpt lat="49.17677" lon="1.26549">
        <ele>146.2</ele>
        <time>2015-05-31T07:58:24Z</time>
      </trkpt>
      <trkpt lat="49.17664" lon="1.26549">
        <ele>146</ele>
        <time>2015-05-31T07:58:28Z</time>
      </trkpt>
      <trkpt lat="49.17653" lon="1.26554">
        <ele>145.9</ele>
        <time>2015-05-31T07:58:30Z</time>
      </trkpt>
      <trkpt lat="49.17641" lon="1.26558">
        <ele>145.7</ele>
        <time>2015-05-31T07:58:32Z</time>
      </trkpt>
      <trkpt lat="49.17627" lon="1.26563">
        <ele>145.3</ele>
        <time>2015-05-31T07:58:34Z</time>
      </trkpt>
      <trkpt lat="49.17612" lon="1.26569">
        <ele>144.9</ele>
        <time>2015-05-31T07:58:36Z</time>
      </trkpt>
      <trkpt lat="49.17596" lon="1.26577">
        <ele>144.4</ele>
        <time>2015-05-31T07:58:38Z</time>
      </trkpt>
      <trkpt lat="49.17579" lon="1.26585">
        <ele>143.6</ele>
        <time>2015-05-31T07:58:40Z</time>
      </trkpt>
      <trkpt lat="49.17564" lon="1.26594">
        <ele>142.9</ele>
        <time>2015-05-31T07:58:42Z</time>
      </trkpt>
      <trkpt lat="49.17549" lon="1.26603">
        <ele>142.1</ele>
        <time>2015-05-31T07:58:44Z</time>
      </trkpt>
      <trkpt lat="49.17533" lon="1.26611">
        <ele>141.3</ele>
        <time>2015-05-31T07:58:46Z</time>
      </trkpt>
      <trkpt lat="49.17518" lon="1.26616">
        <ele>140.5</ele>
        <time>2015-05-31T07:58:48Z</time>
      </trkpt>
      <trkpt lat="49.17504" lon="1.26619">
        <ele>139.7</ele>
        <time>2015-05-31T07:58:50Z</time>
      </trkpt>
      <trkpt lat="49.17489" lon="1.26621">
        <ele>138.9</ele>
        <time>2015-05-31T07:58:52Z</time>
      </trkpt>
      <trkpt lat="49.17473" lon="1.26622">
        <ele>138</ele>
        <time>2015-05-31T07:58:54Z</time>
      </trkpt>
      <trkpt lat="49.17457" lon="1.26623">
        <ele>137</ele>
        <time>2015-05-31T07:58:56Z</time>
      </trkpt>
      <trkpt lat="49.17442" lon="1.26623">
        <ele>135.9</ele>
        <time>2015-05-31T07:58:58Z</time>
      </trkpt>
      <trkpt lat="49.1743" lon="1.26619">
        <ele>134.8</ele>
        <time>2015-05-31T07:59:00Z</time>
      </trkpt>
      <trkpt lat="49.17419" lon="1.26614">
        <ele>132.9</ele>
        <time>2015-05-31T07:59:03Z</time>
      </trkpt>
      <trkpt lat="49.17415" lon="1.26628">
        <ele>131</ele>
        <time>2015-05-31T07:59:06Z</time>
      </trkpt>
      <trkpt lat="49.17416" lon="1.26642">
        <ele>129.9</ele>
        <time>2015-05-31T07:59:08Z</time>
      </trkpt>
      <trkpt lat="49.17418" lon="1.26659">
        <ele>128.9</ele>
        <time>2015-05-31T07:59:10Z</time>
      </trkpt>
      <trkpt lat="49.17418" lon="1.26677">
        <ele>128</ele>
        <time>2015-05-31T07:59:12Z</time>
      </trkpt>
      <trkpt lat="49.17419" lon="1.26696">
        <ele>127.2</ele>
        <time>2015-05-31T07:59:14Z</time>
      </trkpt>
      <trkpt lat="49.1742" lon="1.26716">
        <ele>126.5</ele>
        <time>2015-05-31T07:59:16Z</time>
      </trkpt>
      <trkpt lat="49.1742" lon="1.26735">
        <ele>125.8</ele>
        <time>2015-05-31T07:59:18Z</time>
      </trkpt>
      <trkpt lat="49.1742" lon="1.26754">
        <ele>125.2</ele>
        <time>2015-05-31T07:59:20Z</time>
      </trkpt>
      <trkpt lat="49.17416" lon="1.2677">
        <ele>124.6</ele>
        <time>2015-05-31T07:59:22Z</time>
      </trkpt>
      <trkpt lat="49.17408" lon="1.26778">
        <ele>124</ele>
        <time>2015-05-31T07:59:24Z</time>
      </trkpt>
      <trkpt lat="49.17398" lon="1.26782">
        <ele>123.6</ele>
        <time>2015-05-31T07:59:26Z</time>
      </trkpt>
      <trkpt lat="49.17388" lon="1.26789">
        <ele>122.9</ele>
        <time>2015-05-31T07:59:29Z</time>
      </trkpt>
      <trkpt lat="49.17379" lon="1.26796">
        <ele>122.3</ele>
        <time>2015-05-31T07:59:32Z</time>
      </trkpt>
      <trkpt lat="49.1737" lon="1.26801">
        <ele>122</ele>
        <time>2015-05-31T07:59:35Z</time>
      </trkpt>
      <trkpt lat="49.1736" lon="1.26804">
        <ele>121.7</ele>
        <time>2015-05-31T07:59:39Z</time>
      </trkpt>
      <trkpt lat="49.1735" lon="1.26807">
        <ele>121.9</ele>
        <time>2015-05-31T07:59:43Z</time>
      </trkpt>
      <trkpt lat="49.17339" lon="1.26811">
        <ele>122.5</ele>
        <time>2015-05-31T07:59:48Z</time>
      </trkpt>
      <trkpt lat="49.17328" lon="1.26814">
        <ele>123.3</ele>
        <time>2015-05-31T07:59:52Z</time>
      </trkpt>
      <trkpt lat="49.17319" lon="1.26809">
        <ele>124</ele>
        <time>2015-05-31T07:59:56Z</time>
      </trkpt>
      <trkpt lat="49.17314" lon="1.26793">
        <ele>124.8</ele>
        <time>2015-05-31T08:00:00Z</time>
      </trkpt>
      <trkpt lat="49.17311" lon="1.26779">
        <ele>125.3</ele>
        <time>2015-05-31T08:00:03Z</time>
      </trkpt>
      <trkpt lat="49.17308" lon="1.26764">
        <ele>125.8</ele>
        <time>2015-05-31T08:00:06Z</time>
      </trkpt>
      <trkpt lat="49.17305" lon="1.2675">
        <ele>126.2</ele>
        <time>2015-05-31T08:00:09Z</time>
      </trkpt>
      <trkpt lat="49.17302" lon="1.26734">
        <ele>126.7</ele>
        <time>2015-05-31T08:00:12Z</time>
      </trkpt>
      <trkpt lat="49.17298" lon="1.26719">
        <ele>127.1</ele>
        <time>2015-05-31T08:00:15Z</time>
      </trkpt>
      <trkpt lat="49.17296" lon="1.26704">
        <ele>127.5</ele>
        <time>2015-05-31T08:00:18Z</time>
      </trkpt>
      <trkpt lat="49.17293" lon="1.26688">
        <ele>127.9</ele>
        <time>2015-05-31T08:00:21Z</time>
      </trkpt>
      <trkpt lat="49.17291" lon="1.26673">
        <ele>128.2</ele>
        <time>2015-05-31T08:00:24Z</time>
      </trkpt>
      <trkpt lat="49.17288" lon="1.26658">
        <ele>128.6</ele>
        <time>2015-05-31T08:00:27Z</time>
      </trkpt>
      <trkpt lat="49.17286" lon="1.26641">
        <ele>129.1</ele>
        <time>2015-05-31T08:00:30Z</time>
      </trkpt>
      <trkpt lat="49.17284" lon="1.26625">
        <ele>129.7</ele>
        <time>2015-05-31T08:00:33Z</time>
      </trkpt>
      <trkpt lat="49.17282" lon="1.26609">
        <ele>130.1</ele>
        <time>2015-05-31T08:00:36Z</time>
      </trkpt>
      <trkpt lat="49.1728" lon="1.26593">
        <ele>130.5</ele>
        <time>2015-05-31T08:00:39Z</time>
      </trkpt>
      <trkpt lat="49.17278" lon="1.26576">
        <ele>130.8</ele>
        <time>2015-05-31T08:00:42Z</time>
      </trkpt>
      <trkpt lat="49.17276" lon="1.26559">
        <ele>131.1</ele>
        <time>2015-05-31T08:00:45Z</time>
      </trkpt>
      <trkpt lat="49.17274" lon="1.26542">
        <ele>131.6</ele>
        <time>2015-05-31T08:00:48Z</time>
      </trkpt>
      <trkpt lat="49.17272" lon="1.26526">
        <ele>132</ele>
        <time>2015-05-31T08:00:51Z</time>
      </trkpt>
      <trkpt lat="49.1727" lon="1.2651">
        <ele>132.4</ele>
        <time>2015-05-31T08:00:54Z</time>
      </trkpt>
      <trkpt lat="49.17268" lon="1.26492">
        <ele>132.8</ele>
        <time>2015-05-31T08:00:57Z</time>
      </trkpt>
      <trkpt lat="49.17265" lon="1.26475">
        <ele>133.2</ele>
        <time>2015-05-31T08:01:00Z</time>
      </trkpt>
      <trkpt lat="49.17263" lon="1.26458">
        <ele>133.4</ele>
        <time>2015-05-31T08:01:03Z</time>
      </trkpt>
      <trkpt lat="49.17261" lon="1.26441">
        <ele>133.8</ele>
        <time>2015-05-31T08:01:06Z</time>
      </trkpt>
      <trkpt lat="49.17259" lon="1.26424">
        <ele>134</ele>
        <time>2015-05-31T08:01:09Z</time>
      </trkpt>
      <trkpt lat="49.17257" lon="1.26408">
        <ele>134.3</ele>
        <time>2015-05-31T08:01:12Z</time>
      </trkpt>
      <trkpt lat="49.17254" lon="1.26391">
        <ele>134.5</ele>
        <time>2015-05-31T08:01:15Z</time>
      </trkpt>
      <trkpt lat="49.17252" lon="1.26373">
        <ele>134.7</ele>
        <time>2015-05-31T08:01:18Z</time>
      </trkpt>
      <trkpt lat="49.17249" lon="1.26355">
        <ele>135.1</ele>
        <time>2015-05-31T08:01:21Z</time>
      </trkpt>
      <trkpt lat="49.17247" lon="1.26337">
        <ele>135.4</ele>
        <time>2015-05-31T08:01:24Z</time>
      </trkpt>
      <trkpt lat="49.17244" lon="1.26321">
        <ele>135.7</ele>
        <time>2015-05-31T08:01:27Z</time>
      </trkpt>
      <trkpt lat="49.17242" lon="1.26304">
        <ele>135.9</ele>
        <time>2015-05-31T08:01:30Z</time>
      </trkpt>
      <trkpt lat="49.1724" lon="1.26287">
        <ele>136</ele>
        <time>2015-05-31T08:01:33Z</time>
      </trkpt>
      <trkpt lat="49.17237" lon="1.26269">
        <ele>136.3</ele>
        <time>2015-05-31T08:01:36Z</time>
      </trkpt>
      <trkpt lat="49.17235" lon="1.26252">
        <ele>136.6</ele>
        <time>2015-05-31T08:01:39Z</time>
      </trkpt>
      <trkpt lat="49.17232" lon="1.26233">
        <ele>136.8</ele>
        <time>2015-05-31T08:01:42Z</time>
      </trkpt>
      <trkpt lat="49.1723" lon="1.26216">
        <ele>137.1</ele>
        <time>2015-05-31T08:01:45Z</time>
      </trkpt>
      <trkpt lat="49.17227" lon="1.26197">
        <ele>137.4</ele>
        <time>2015-05-31T08:01:48Z</time>
      </trkpt>
      <trkpt lat="49.17225" lon="1.26179">
        <ele>137.6</ele>
        <time>2015-05-31T08:01:51Z</time>
      </trkpt>
      <trkpt lat="49.17222" lon="1.2616">
        <ele>137.8</ele>
        <time>2015-05-31T08:01:54Z</time>
      </trkpt>
      <trkpt lat="49.17219" lon="1.26141">
        <ele>137.9</ele>
        <time>2015-05-31T08:01:57Z</time>
      </trkpt>
      <trkpt lat="49.17216" lon="1.26123">
        <ele>138.1</ele>
        <time>2015-05-31T08:02:00Z</time>
      </trkpt>
      <trkpt lat="49.17213" lon="1.26106">
        <ele>138.2</ele>
        <time>2015-05-31T08:02:03Z</time>
      </trkpt>
      <trkpt lat="49.17202" lon="1.26103">
        <ele>138.4</ele>
        <time>2015-05-31T08:02:06Z</time>
      </trkpt>
      <trkpt lat="49.1719" lon="1.26102">
        <ele>138.5</ele>
        <time>2015-05-31T08:02:09Z</time>
      </trkpt>
      <trkpt lat="49.17177" lon="1.261">
        <ele>138.6</ele>
        <time>2015-05-31T08:02:12Z</time>
      </trkpt>
      <trkpt lat="49.17167" lon="1.26099">
        <ele>138.6</ele>
        <time>2015-05-31T08:02:14Z</time>
      </trkpt>
      <trkpt lat="49.17158" lon="1.26097">
        <ele>138.7</ele>
        <time>2015-05-31T08:02:16Z</time>
      </trkpt>
      <trkpt lat="49.17149" lon="1.26095">
        <ele>138.7</ele>
        <time>2015-05-31T08:02:18Z</time>
      </trkpt>
      <trkpt lat="49.17139" lon="1.26093">
        <ele>138.8</ele>
        <time>2015-05-31T08:02:20Z</time>
      </trkpt>
      <trkpt lat="49.1713" lon="1.26091">
        <ele>138.8</ele>
        <time>2015-05-31T08:02:22Z</time>
      </trkpt>
      <trkpt lat="49.1712" lon="1.26089">
        <ele>138.7</ele>
        <time>2015-05-31T08:02:24Z</time>
      </trkpt>
      <trkpt lat="49.17111" lon="1.26087">
        <ele>138.7</ele>
        <time>2015-05-31T08:02:26Z</time>
      </trkpt>
      <trkpt lat="49.17101" lon="1.26085">
        <ele>138.7</ele>
        <time>2015-05-31T08:02:28Z</time>
      </trkpt>
      <trkpt lat="49.17091" lon="1.26083">
        <ele>138.7</ele>
        <time>2015-05-31T08:02:30Z</time>
      </trkpt>
      <trkpt lat="49.17082" lon="1.2608">
        <ele>138.7</ele>
        <time>2015-05-31T08:02:32Z</time>
      </trkpt>
      <trkpt lat="49.17072" lon="1.26078">
        <ele>138.7</ele>
        <time>2015-05-31T08:02:34Z</time>
      </trkpt>
      <trkpt lat="49.17062" lon="1.26076">
        <ele>138.6</ele>
        <time>2015-05-31T08:02:36Z</time>
      </trkpt>
      <trkpt lat="49.17052" lon="1.26074">
        <ele>138.6</ele>
        <time>2015-05-31T08:02:38Z</time>
      </trkpt>
      <trkpt lat="49.17042" lon="1.26071">
        <ele>138.6</ele>
        <time>2015-05-31T08:02:40Z</time>
      </trkpt>
      <trkpt lat="49.17033" lon="1.26069">
        <ele>138.6</ele>
        <time>2015-05-31T08:02:42Z</time>
      </trkpt>
      <trkpt lat="49.17024" lon="1.26067">
        <ele>138.5</ele>
        <time>2015-05-31T08:02:44Z</time>
      </trkpt>
      <trkpt lat="49.17015" lon="1.26064">
        <ele>138.5</ele>
        <time>2015-05-31T08:02:46Z</time>
      </trkpt>
      <trkpt lat="49.17005" lon="1.26061">
        <ele>138.5</ele>
        <time>2015-05-31T08:02:48Z</time>
      </trkpt>
      <trkpt lat="49.16995" lon="1.26059">
        <ele>138.5</ele>
        <time>2015-05-31T08:02:50Z</time>
      </trkpt>
      <trkpt lat="49.16985" lon="1.26056">
        <ele>138.5</ele>
        <time>2015-05-31T08:02:52Z</time>
      </trkpt>
      <trkpt lat="49.16975" lon="1.26054">
        <ele>138.5</ele>
        <time>2015-05-31T08:02:54Z</time>
      </trkpt>
      <trkpt lat="49.16965" lon="1.26051">
        <ele>138.4</ele>
        <time>2015-05-31T08:02:56Z</time>
      </trkpt>
      <trkpt lat="49.16955" lon="1.26047">
        <ele>138.3</ele>
        <time>2015-05-31T08:02:58Z</time>
      </trkpt>
      <trkpt lat="49.16945" lon="1.26045">
        <ele>138.1</ele>
        <time>2015-05-31T08:03:00Z</time>
      </trkpt>
      <trkpt lat="49.16936" lon="1.2604">
        <ele>138</ele>
        <time>2015-05-31T08:03:02Z</time>
      </trkpt>
      <trkpt lat="49.16933" lon="1.26024">
        <ele>137.8</ele>
        <time>2015-05-31T08:03:05Z</time>
      </trkpt>
      <trkpt lat="49.16935" lon="1.26005">
        <ele>137.7</ele>
        <time>2015-05-31T08:03:08Z</time>
      </trkpt>
      <trkpt lat="49.16938" lon="1.25985">
        <ele>137.5</ele>
        <time>2015-05-31T08:03:11Z</time>
      </trkpt>
      <trkpt lat="49.16941" lon="1.25971">
        <ele>137.5</ele>
        <time>2015-05-31T08:03:13Z</time>
      </trkpt>
      <trkpt lat="49.16943" lon="1.25957">
        <ele>137.4</ele>
        <time>2015-05-31T08:03:15Z</time>
      </trkpt>
      <trkpt lat="49.16945" lon="1.25944">
        <ele>137.4</ele>
        <time>2015-05-31T08:03:17Z</time>
      </trkpt>
      <trkpt lat="49.16948" lon="1.2593">
        <ele>137.3</ele>
        <time>2015-05-31T08:03:19Z</time>
      </trkpt>
      <trkpt lat="49.1695" lon="1.2591">
        <ele>137.2</ele>
        <time>2015-05-31T08:03:22Z</time>
      </trkpt>
      <trkpt lat="49.16952" lon="1.25896">
        <ele>137.2</ele>
        <time>2015-05-31T08:03:24Z</time>
      </trkpt>
      <trkpt lat="49.16955" lon="1.25882">
        <ele>137.2</ele>
        <time>2015-05-31T08:03:26Z</time>
      </trkpt>
      <trkpt lat="49.16957" lon="1.25868">
        <ele>137.2</ele>
        <time>2015-05-31T08:03:28Z</time>
      </trkpt>
      <trkpt lat="49.16959" lon="1.25854">
        <ele>137.1</ele>
        <time>2015-05-31T08:03:30Z</time>
      </trkpt>
      <trkpt lat="49.16962" lon="1.2584">
        <ele>137.1</ele>
        <time>2015-05-31T08:03:32Z</time>
      </trkpt>
      <trkpt lat="49.16964" lon="1.25825">
        <ele>137.1</ele>
        <time>2015-05-31T08:03:34Z</time>
      </trkpt>
      <trkpt lat="49.16966" lon="1.25811">
        <ele>137.1</ele>
        <time>2015-05-31T08:03:36Z</time>
      </trkpt>
      <trkpt lat="49.16968" lon="1.25797">
        <ele>137.1</ele>
        <time>2015-05-31T08:03:38Z</time>
      </trkpt>
      <trkpt lat="49.16971" lon="1.25783">
        <ele>137.1</ele>
        <time>2015-05-31T08:03:40Z</time>
      </trkpt>
      <trkpt lat="49.16973" lon="1.25768">
        <ele>137.1</ele>
        <time>2015-05-31T08:03:42Z</time>
      </trkpt>
      <trkpt lat="49.16975" lon="1.25753">
        <ele>137.1</ele>
        <time>2015-05-31T08:03:44Z</time>
      </trkpt>
      <trkpt lat="49.16978" lon="1.25739">
        <ele>137.2</ele>
        <time>2015-05-31T08:03:46Z</time>
      </trkpt>
      <trkpt lat="49.16981" lon="1.2572">
        <ele>137.2</ele>
        <time>2015-05-31T08:03:49Z</time>
      </trkpt>
      <trkpt lat="49.16984" lon="1.257">
        <ele>137.3</ele>
        <time>2015-05-31T08:03:52Z</time>
      </trkpt>
      <trkpt lat="49.16987" lon="1.25681">
        <ele>137.4</ele>
        <time>2015-05-31T08:03:55Z</time>
      </trkpt>
      <trkpt lat="49.16989" lon="1.25667">
        <ele>137.6</ele>
        <time>2015-05-31T08:03:57Z</time>
      </trkpt>
      <trkpt lat="49.16991" lon="1.25653">
        <ele>137.7</ele>
        <time>2015-05-31T08:03:59Z</time>
      </trkpt>
      <trkpt lat="49.16994" lon="1.25639">
        <ele>137.9</ele>
        <time>2015-05-31T08:04:01Z</time>
      </trkpt>
      <trkpt lat="49.16996" lon="1.25626">
        <ele>138.1</ele>
        <time>2015-05-31T08:04:03Z</time>
      </trkpt>
      <trkpt lat="49.16998" lon="1.25613">
        <ele>138.2</ele>
        <time>2015-05-31T08:04:05Z</time>
      </trkpt>
      <trkpt lat="49.17001" lon="1.25599">
        <ele>138.3</ele>
        <time>2015-05-31T08:04:07Z</time>
      </trkpt>
      <trkpt lat="49.17003" lon="1.25585">
        <ele>138.5</ele>
        <time>2015-05-31T08:04:09Z</time>
      </trkpt>
      <trkpt lat="49.17005" lon="1.25572">
        <ele>138.6</ele>
        <time>2015-05-31T08:04:11Z</time>
      </trkpt>
      <trkpt lat="49.17007" lon="1.25558">
        <ele>138.8</ele>
        <time>2015-05-31T08:04:13Z</time>
      </trkpt>
      <trkpt lat="49.1701" lon="1.25544">
        <ele>138.9</ele>
        <time>2015-05-31T08:04:15Z</time>
      </trkpt>
      <trkpt lat="49.17012" lon="1.25531">
        <ele>139.1</ele>
        <time>2015-05-31T08:04:17Z</time>
      </trkpt>
      <trkpt lat="49.17014" lon="1.25517">
        <ele>139.2</ele>
        <time>2015-05-31T08:04:19Z</time>
      </trkpt>
      <trkpt lat="49.17018" lon="1.25497">
        <ele>139.3</ele>
        <time>2015-05-31T08:04:22Z</time>
      </trkpt>
      <trkpt lat="49.17021" lon="1.25483">
        <ele>139.4</ele>
        <time>2015-05-31T08:04:24Z</time>
      </trkpt>
      <trkpt lat="49.17023" lon="1.25469">
        <ele>139.6</ele>
        <time>2015-05-31T08:04:26Z</time>
      </trkpt>
      <trkpt lat="49.17027" lon="1.25453">
        <ele>139.7</ele>
        <time>2015-05-31T08:04:29Z</time>
      </trkpt>
      <trkpt lat="49.17022" lon="1.25438">
        <ele>140</ele>
        <time>2015-05-31T08:04:33Z</time>
      </trkpt>
      <trkpt lat="49.1701" lon="1.25429">
        <ele>140.2</ele>
        <time>2015-05-31T08:04:36Z</time>
      </trkpt>
      <trkpt lat="49.17001" lon="1.25422">
        <ele>140.2</ele>
        <time>2015-05-31T08:04:38Z</time>
      </trkpt>
      <trkpt lat="49.16992" lon="1.25416">
        <ele>140.3</ele>
        <time>2015-05-31T08:04:40Z</time>
      </trkpt>
      <trkpt lat="49.16982" lon="1.25408">
        <ele>140.4</ele>
        <time>2015-05-31T08:04:42Z</time>
      </trkpt>
      <trkpt lat="49.16972" lon="1.25401">
        <ele>140.5</ele>
        <time>2015-05-31T08:04:44Z</time>
      </trkpt>
      <trkpt lat="49.16962" lon="1.25393">
        <ele>140.5</ele>
        <time>2015-05-31T08:04:46Z</time>
      </trkpt>
      <trkpt lat="49.16951" lon="1.25384">
        <ele>140.5</ele>
        <time>2015-05-31T08:04:48Z</time>
      </trkpt>
      <trkpt lat="49.16941" lon="1.25374">
        <ele>140.4</ele>
        <time>2015-05-31T08:04:50Z</time>
      </trkpt>
      <trkpt lat="49.16929" lon="1.25365">
        <ele>140.2</ele>
        <time>2015-05-31T08:04:52Z</time>
      </trkpt>
      <trkpt lat="49.16918" lon="1.25355">
        <ele>140</ele>
        <time>2015-05-31T08:04:54Z</time>
      </trkpt>
      <trkpt lat="49.16907" lon="1.25344">
        <ele>139.8</ele>
        <time>2015-05-31T08:04:56Z</time>
      </trkpt>
      <trkpt lat="49.16895" lon="1.25333">
        <ele>139.4</ele>
        <time>2015-05-31T08:04:58Z</time>
      </trkpt>
      <trkpt lat="49.16884" lon="1.25323">
        <ele>139.1</ele>
        <time>2015-05-31T08:05:00Z</time>
      </trkpt>
      <trkpt lat="49.16871" lon="1.25312">
        <ele>138.7</ele>
        <time>2015-05-31T08:05:02Z</time>
      </trkpt>
      <trkpt lat="49.1686" lon="1.25302">
        <ele>138.3</ele>
        <time>2015-05-31T08:05:04Z</time>
      </trkpt>
      <trkpt lat="49.16847" lon="1.25292">
        <ele>137.9</ele>
        <time>2015-05-31T08:05:06Z</time>
      </trkpt>
      <trkpt lat="49.16834" lon="1.25284">
        <ele>137.6</ele>
        <time>2015-05-31T08:05:08Z</time>
      </trkpt>
      <trkpt lat="49.16825" lon="1.25273">
        <ele>137.3</ele>
        <time>2015-05-31T08:05:10Z</time>
      </trkpt>
      <trkpt lat="49.16817" lon="1.25261">
        <ele>137</ele>
        <time>2015-05-31T08:05:12Z</time>
      </trkpt>
      <trkpt lat="49.16811" lon="1.25246">
        <ele>136.7</ele>
        <time>2015-05-31T08:05:15Z</time>
      </trkpt>
      <trkpt lat="49.16817" lon="1.25233">
        <ele>136.4</ele>
        <time>2015-05-31T08:05:18Z</time>
      </trkpt>
      <trkpt lat="49.1683" lon="1.25225">
        <ele>136.2</ele>
        <time>2015-05-31T08:05:21Z</time>
      </trkpt>
      <trkpt lat="49.16839" lon="1.2522">
        <ele>136.1</ele>
        <time>2015-05-31T08:05:23Z</time>
      </trkpt>
      <trkpt lat="49.16849" lon="1.25216">
        <ele>136.1</ele>
        <time>2015-05-31T08:05:25Z</time>
      </trkpt>
      <trkpt lat="49.16858" lon="1.25208">
        <ele>136.1</ele>
        <time>2015-05-31T08:05:27Z</time>
      </trkpt>
      <trkpt lat="49.16866" lon="1.25199">
        <ele>136.1</ele>
        <time>2015-05-31T08:05:29Z</time>
      </trkpt>
      <trkpt lat="49.16874" lon="1.2519">
        <ele>136.2</ele>
        <time>2015-05-31T08:05:31Z</time>
      </trkpt>
      <trkpt lat="49.16881" lon="1.25182">
        <ele>136.2</ele>
        <time>2015-05-31T08:05:33Z</time>
      </trkpt>
      <trkpt lat="49.1689" lon="1.25169">
        <ele>136.5</ele>
        <time>2015-05-31T08:05:36Z</time>
      </trkpt>
      <trkpt lat="49.16892" lon="1.25151">
        <ele>136.8</ele>
        <time>2015-05-31T08:05:39Z</time>
      </trkpt>
      <trkpt lat="49.1689" lon="1.25131">
        <ele>137.2</ele>
        <time>2015-05-31T08:05:42Z</time>
      </trkpt>
      <trkpt lat="49.16888" lon="1.25111">
        <ele>137.4</ele>
        <time>2015-05-31T08:05:45Z</time>
      </trkpt>
      <trkpt lat="49.16886" lon="1.25097">
        <ele>137.6</ele>
        <time>2015-05-31T08:05:47Z</time>
      </trkpt>
      <trkpt lat="49.16885" lon="1.25083">
        <ele>137.9</ele>
        <time>2015-05-31T08:05:49Z</time>
      </trkpt>
      <trkpt lat="49.16883" lon="1.25069">
        <ele>138</ele>
        <time>2015-05-31T08:05:51Z</time>
      </trkpt>
      <trkpt lat="49.16882" lon="1.25055">
        <ele>138.2</ele>
        <time>2015-05-31T08:05:53Z</time>
      </trkpt>
      <trkpt lat="49.16881" lon="1.2504">
        <ele>138.3</ele>
        <time>2015-05-31T08:05:55Z</time>
      </trkpt>
      <trkpt lat="49.1688" lon="1.25026">
        <ele>138.5</ele>
        <time>2015-05-31T08:05:57Z</time>
      </trkpt>
      <trkpt lat="49.1688" lon="1.25006">
        <ele>138.7</ele>
        <time>2015-05-31T08:06:00Z</time>
      </trkpt>
      <trkpt lat="49.1688" lon="1.24986">
        <ele>139</ele>
        <time>2015-05-31T08:06:03Z</time>
      </trkpt>
      <trkpt lat="49.16881" lon="1.24972">
        <ele>139.2</ele>
        <time>2015-05-31T08:06:05Z</time>
      </trkpt>
      <trkpt lat="49.16881" lon="1.24958">
        <ele>139.4</ele>
        <time>2015-05-31T08:06:07Z</time>
      </trkpt>
      <trkpt lat="49.1688" lon="1.24944">
        <ele>139.5</ele>
        <time>2015-05-31T08:06:09Z</time>
      </trkpt>
      <trkpt lat="49.16879" lon="1.24929">
        <ele>139.7</ele>
        <time>2015-05-31T08:06:11Z</time>
      </trkpt>
      <trkpt lat="49.16878" lon="1.24915">
        <ele>139.9</ele>
        <time>2015-05-31T08:06:13Z</time>
      </trkpt>
      <trkpt lat="49.16877" lon="1.24895">
        <ele>140.2</ele>
        <time>2015-05-31T08:06:16Z</time>
      </trkpt>
      <trkpt lat="49.16875" lon="1.24877">
        <ele>140.6</ele>
        <time>2015-05-31T08:06:19Z</time>
      </trkpt>
      <trkpt lat="49.16873" lon="1.24858">
        <ele>141</ele>
        <time>2015-05-31T08:06:22Z</time>
      </trkpt>
      <trkpt lat="49.16872" lon="1.24839">
        <ele>141.3</ele>
        <time>2015-05-31T08:06:25Z</time>
      </trkpt>
      <trkpt lat="49.1687" lon="1.24819">
        <ele>141.5</ele>
        <time>2015-05-31T08:06:28Z</time>
      </trkpt>
      <trkpt lat="49.16868" lon="1.24799">
        <ele>141.7</ele>
        <time>2015-05-31T08:06:31Z</time>
      </trkpt>
      <trkpt lat="49.16866" lon="1.2478">
        <ele>141.9</ele>
        <time>2015-05-31T08:06:34Z</time>
      </trkpt>
      <trkpt lat="49.16864" lon="1.24761">
        <ele>142</ele>
        <time>2015-05-31T08:06:37Z</time>
      </trkpt>
      <trkpt lat="49.16858" lon="1.24748">
        <ele>142.3</ele>
        <time>2015-05-31T08:06:40Z</time>
      </trkpt>
      <trkpt lat="49.16846" lon="1.24746">
        <ele>142.5</ele>
        <time>2015-05-31T08:06:43Z</time>
      </trkpt>
      <trkpt lat="49.16836" lon="1.24748">
        <ele>142.6</ele>
        <time>2015-05-31T08:06:45Z</time>
      </trkpt>
      <trkpt lat="49.16825" lon="1.2475">
        <ele>142.7</ele>
        <time>2015-05-31T08:06:47Z</time>
      </trkpt>
      <trkpt lat="49.16816" lon="1.24753">
        <ele>142.7</ele>
        <time>2015-05-31T08:06:49Z</time>
      </trkpt>
      <trkpt lat="49.16807" lon="1.24754">
        <ele>142.7</ele>
        <time>2015-05-31T08:06:51Z</time>
      </trkpt>
      <trkpt lat="49.16795" lon="1.2475">
        <ele>142.7</ele>
        <time>2015-05-31T08:06:54Z</time>
      </trkpt>
      <trkpt lat="49.1679" lon="1.24732">
        <ele>142.7</ele>
        <time>2015-05-31T08:06:57Z</time>
      </trkpt>
      <trkpt lat="49.16786" lon="1.24713">
        <ele>142.7</ele>
        <time>2015-05-31T08:07:00Z</time>
      </trkpt>
      <trkpt lat="49.16784" lon="1.247">
        <ele>142.7</ele>
        <time>2015-05-31T08:07:02Z</time>
      </trkpt>
      <trkpt lat="49.16779" lon="1.2468">
        <ele>142.6</ele>
        <time>2015-05-31T08:07:05Z</time>
      </trkpt>
      <trkpt lat="49.16776" lon="1.24666">
        <ele>142.6</ele>
        <time>2015-05-31T08:07:07Z</time>
      </trkpt>
      <trkpt lat="49.16774" lon="1.24653">
        <ele>142.6</ele>
        <time>2015-05-31T08:07:09Z</time>
      </trkpt>
      <trkpt lat="49.16771" lon="1.24639">
        <ele>142.6</ele>
        <time>2015-05-31T08:07:11Z</time>
      </trkpt>
      <trkpt lat="49.16768" lon="1.24626">
        <ele>142.7</ele>
        <time>2015-05-31T08:07:13Z</time>
      </trkpt>
      <trkpt lat="49.16765" lon="1.24613">
        <ele>142.7</ele>
        <time>2015-05-31T08:07:15Z</time>
      </trkpt>
      <trkpt lat="49.16762" lon="1.24598">
        <ele>142.8</ele>
        <time>2015-05-31T08:07:17Z</time>
      </trkpt>
      <trkpt lat="49.16758" lon="1.24584">
        <ele>142.8</ele>
        <time>2015-05-31T08:07:19Z</time>
      </trkpt>
      <trkpt lat="49.16754" lon="1.2457">
        <ele>142.8</ele>
        <time>2015-05-31T08:07:21Z</time>
      </trkpt>
      <trkpt lat="49.16751" lon="1.24555">
        <ele>142.9</ele>
        <time>2015-05-31T08:07:23Z</time>
      </trkpt>
      <trkpt lat="49.16749" lon="1.24541">
        <ele>142.9</ele>
        <time>2015-05-31T08:07:25Z</time>
      </trkpt>
      <trkpt lat="49.16746" lon="1.24527">
        <ele>142.9</ele>
        <time>2015-05-31T08:07:27Z</time>
      </trkpt>
      <trkpt lat="49.16743" lon="1.24513">
        <ele>142.9</ele>
        <time>2015-05-31T08:07:29Z</time>
      </trkpt>
      <trkpt lat="49.1674" lon="1.245">
        <ele>143</ele>
        <time>2015-05-31T08:07:31Z</time>
      </trkpt>
      <trkpt lat="49.16737" lon="1.2448">
        <ele>143.1</ele>
        <time>2015-05-31T08:07:34Z</time>
      </trkpt>
      <trkpt lat="49.16734" lon="1.24467">
        <ele>143.2</ele>
        <time>2015-05-31T08:07:36Z</time>
      </trkpt>
      <trkpt lat="49.16731" lon="1.24453">
        <ele>143.3</ele>
        <time>2015-05-31T08:07:38Z</time>
      </trkpt>
      <trkpt lat="49.16728" lon="1.2444">
        <ele>143.4</ele>
        <time>2015-05-31T08:07:40Z</time>
      </trkpt>
      <trkpt lat="49.16725" lon="1.24426">
        <ele>143.4</ele>
        <time>2015-05-31T08:07:42Z</time>
      </trkpt>
      <trkpt lat="49.16723" lon="1.24412">
        <ele>143.5</ele>
        <time>2015-05-31T08:07:44Z</time>
      </trkpt>
      <trkpt lat="49.1672" lon="1.24399">
        <ele>143.5</ele>
        <time>2015-05-31T08:07:46Z</time>
      </trkpt>
      <trkpt lat="49.16718" lon="1.24386">
        <ele>143.6</ele>
        <time>2015-05-31T08:07:48Z</time>
      </trkpt>
      <trkpt lat="49.16713" lon="1.24366">
        <ele>143.7</ele>
        <time>2015-05-31T08:07:51Z</time>
      </trkpt>
      <trkpt lat="49.1671" lon="1.24353">
        <ele>143.7</ele>
        <time>2015-05-31T08:07:53Z</time>
      </trkpt>
      <trkpt lat="49.16707" lon="1.24339">
        <ele>143.8</ele>
        <time>2015-05-31T08:07:55Z</time>
      </trkpt>
      <trkpt lat="49.16704" lon="1.24326">
        <ele>143.9</ele>
        <time>2015-05-31T08:07:57Z</time>
      </trkpt>
      <trkpt lat="49.16701" lon="1.24312">
        <ele>144</ele>
        <time>2015-05-31T08:07:59Z</time>
      </trkpt>
      <trkpt lat="49.16698" lon="1.24299">
        <ele>144.1</ele>
        <time>2015-05-31T08:08:01Z</time>
      </trkpt>
      <trkpt lat="49.16695" lon="1.24285">
        <ele>144.2</ele>
        <time>2015-05-31T08:08:03Z</time>
      </trkpt>
      <trkpt lat="49.16692" lon="1.24271">
        <ele>144.2</ele>
        <time>2015-05-31T08:08:05Z</time>
      </trkpt>
      <trkpt lat="49.16689" lon="1.24257">
        <ele>144.3</ele>
        <time>2015-05-31T08:08:07Z</time>
      </trkpt>
      <trkpt lat="49.16686" lon="1.24244">
        <ele>144.4</ele>
        <time>2015-05-31T08:08:09Z</time>
      </trkpt>
      <trkpt lat="49.16682" lon="1.24224">
        <ele>144.6</ele>
        <time>2015-05-31T08:08:12Z</time>
      </trkpt>
      <trkpt lat="49.16678" lon="1.24205">
        <ele>144.8</ele>
        <time>2015-05-31T08:08:15Z</time>
      </trkpt>
      <trkpt lat="49.16675" lon="1.24191">
        <ele>144.9</ele>
        <time>2015-05-31T08:08:17Z</time>
      </trkpt>
      <trkpt lat="49.16672" lon="1.24177">
        <ele>145</ele>
        <time>2015-05-31T08:08:19Z</time>
      </trkpt>
      <trkpt lat="49.16669" lon="1.24163">
        <ele>145.2</ele>
        <time>2015-05-31T08:08:21Z</time>
      </trkpt>
      <trkpt lat="49.16665" lon="1.2415">
        <ele>145.3</ele>
        <time>2015-05-31T08:08:23Z</time>
      </trkpt>
      <trkpt lat="49.16662" lon="1.24137">
        <ele>145.5</ele>
        <time>2015-05-31T08:08:25Z</time>
      </trkpt>
      <trkpt lat="49.16658" lon="1.24123">
        <ele>145.6</ele>
        <time>2015-05-31T08:08:27Z</time>
      </trkpt>
      <trkpt lat="49.16653" lon="1.24104">
        <ele>145.7</ele>
        <time>2015-05-31T08:08:30Z</time>
      </trkpt>
      <trkpt lat="49.16649" lon="1.24085">
        <ele>145.9</ele>
        <time>2015-05-31T08:08:33Z</time>
      </trkpt>
      <trkpt lat="49.16645" lon="1.24072">
        <ele>146</ele>
        <time>2015-05-31T08:08:35Z</time>
      </trkpt>
      <trkpt lat="49.16642" lon="1.24059">
        <ele>146.2</ele>
        <time>2015-05-31T08:08:37Z</time>
      </trkpt>
      <trkpt lat="49.16637" lon="1.24039">
        <ele>146.4</ele>
        <time>2015-05-31T08:08:40Z</time>
      </trkpt>
      <trkpt lat="49.16633" lon="1.2402">
        <ele>146.5</ele>
        <time>2015-05-31T08:08:43Z</time>
      </trkpt>
      <trkpt lat="49.16628" lon="1.24002">
        <ele>146.7</ele>
        <time>2015-05-31T08:08:46Z</time>
      </trkpt>
      <trkpt lat="49.16623" lon="1.23984">
        <ele>146.8</ele>
        <time>2015-05-31T08:08:49Z</time>
      </trkpt>
      <trkpt lat="49.16619" lon="1.23966">
        <ele>146.8</ele>
        <time>2015-05-31T08:08:52Z</time>
      </trkpt>
      <trkpt lat="49.16614" lon="1.23946">
        <ele>146.9</ele>
        <time>2015-05-31T08:08:55Z</time>
      </trkpt>
      <trkpt lat="49.16609" lon="1.23928">
        <ele>147</ele>
        <time>2015-05-31T08:08:58Z</time>
      </trkpt>
      <trkpt lat="49.16605" lon="1.2391">
        <ele>147.1</ele>
        <time>2015-05-31T08:09:01Z</time>
      </trkpt>
      <trkpt lat="49.166" lon="1.23892">
        <ele>147.2</ele>
        <time>2015-05-31T08:09:04Z</time>
      </trkpt>
      <trkpt lat="49.16596" lon="1.23874">
        <ele>147.3</ele>
        <time>2015-05-31T08:09:07Z</time>
      </trkpt>
      <trkpt lat="49.16592" lon="1.23857">
        <ele>147.6</ele>
        <time>2015-05-31T08:09:10Z</time>
      </trkpt>
      <trkpt lat="49.16588" lon="1.2384">
        <ele>147.8</ele>
        <time>2015-05-31T08:09:13Z</time>
      </trkpt>
      <trkpt lat="49.16585" lon="1.23824">
        <ele>148.1</ele>
        <time>2015-05-31T08:09:16Z</time>
      </trkpt>
      <trkpt lat="49.16581" lon="1.23807">
        <ele>148.5</ele>
        <time>2015-05-31T08:09:19Z</time>
      </trkpt>
      <trkpt lat="49.16577" lon="1.23789">
        <ele>148.8</ele>
        <time>2015-05-31T08:09:22Z</time>
      </trkpt>
      <trkpt lat="49.16573" lon="1.23773">
        <ele>149.1</ele>
        <time>2015-05-31T08:09:25Z</time>
      </trkpt>
      <trkpt lat="49.16569" lon="1.23756">
        <ele>149.3</ele>
        <time>2015-05-31T08:09:28Z</time>
      </trkpt>
      <trkpt lat="49.16565" lon="1.23738">
        <ele>149.5</ele>
        <time>2015-05-31T08:09:31Z</time>
      </trkpt>
      <trkpt lat="49.16561" lon="1.23721">
        <ele>149.7</ele>
        <time>2015-05-31T08:09:34Z</time>
      </trkpt>
      <trkpt lat="49.16557" lon="1.23703">
        <ele>149.9</ele>
        <time>2015-05-31T08:09:37Z</time>
      </trkpt>
      <trkpt lat="49.16553" lon="1.23685">
        <ele>150.2</ele>
        <time>2015-05-31T08:09:40Z</time>
      </trkpt>
      <trkpt lat="49.16548" lon="1.23667">
        <ele>150.5</ele>
        <time>2015-05-31T08:09:43Z</time>
      </trkpt>
      <trkpt lat="49.16544" lon="1.23651">
        <ele>150.8</ele>
        <time>2015-05-31T08:09:46Z</time>
      </trkpt>
      <trkpt lat="49.1654" lon="1.23639">
        <ele>151.1</ele>
        <time>2015-05-31T08:09:49Z</time>
      </trkpt>
      <trkpt lat="49.16536" lon="1.23624">
        <ele>151.4</ele>
        <time>2015-05-31T08:09:52Z</time>
      </trkpt>
      <trkpt lat="49.16536" lon="1.23606">
        <ele>151.6</ele>
        <time>2015-05-31T08:09:55Z</time>
      </trkpt>
      <trkpt lat="49.16536" lon="1.23587">
        <ele>151.7</ele>
        <time>2015-05-31T08:09:58Z</time>
      </trkpt>
      <trkpt lat="49.16536" lon="1.23569">
        <ele>151.9</ele>
        <time>2015-05-31T08:10:01Z</time>
      </trkpt>
      <trkpt lat="49.16536" lon="1.23551">
        <ele>152</ele>
        <time>2015-05-31T08:10:04Z</time>
      </trkpt>
      <trkpt lat="49.16536" lon="1.23533">
        <ele>152.1</ele>
        <time>2015-05-31T08:10:07Z</time>
      </trkpt>
      <trkpt lat="49.16536" lon="1.23514">
        <ele>152.1</ele>
        <time>2015-05-31T08:10:10Z</time>
      </trkpt>
      <trkpt lat="49.16536" lon="1.23496">
        <ele>152.3</ele>
        <time>2015-05-31T08:10:13Z</time>
      </trkpt>
      <trkpt lat="49.16536" lon="1.23479">
        <ele>152.5</ele>
        <time>2015-05-31T08:10:16Z</time>
      </trkpt>
      <trkpt lat="49.16536" lon="1.23461">
        <ele>152.8</ele>
        <time>2015-05-31T08:10:19Z</time>
      </trkpt>
      <trkpt lat="49.16536" lon="1.23443">
        <ele>153.2</ele>
        <time>2015-05-31T08:10:22Z</time>
      </trkpt>
      <trkpt lat="49.16536" lon="1.23426">
        <ele>153.6</ele>
        <time>2015-05-31T08:10:25Z</time>
      </trkpt>
      <trkpt lat="49.16536" lon="1.23408">
        <ele>154</ele>
        <time>2015-05-31T08:10:28Z</time>
      </trkpt>
      <trkpt lat="49.16536" lon="1.2339">
        <ele>154.4</ele>
        <time>2015-05-31T08:10:31Z</time>
      </trkpt>
      <trkpt lat="49.16536" lon="1.23371">
        <ele>154.9</ele>
        <time>2015-05-31T08:10:34Z</time>
      </trkpt>
      <trkpt lat="49.16536" lon="1.23353">
        <ele>155.3</ele>
        <time>2015-05-31T08:10:37Z</time>
      </trkpt>
      <trkpt lat="49.16537" lon="1.23335">
        <ele>155.8</ele>
        <time>2015-05-31T08:10:40Z</time>
      </trkpt>
      <trkpt lat="49.16537" lon="1.23316">
        <ele>156.2</ele>
        <time>2015-05-31T08:10:43Z</time>
      </trkpt>
      <trkpt lat="49.16536" lon="1.23297">
        <ele>156.6</ele>
        <time>2015-05-31T08:10:46Z</time>
      </trkpt>
      <trkpt lat="49.16536" lon="1.23277">
        <ele>157</ele>
        <time>2015-05-31T08:10:49Z</time>
      </trkpt>
      <trkpt lat="49.16536" lon="1.23258">
        <ele>157.3</ele>
        <time>2015-05-31T08:10:52Z</time>
      </trkpt>
      <trkpt lat="49.16536" lon="1.23238">
        <ele>157.6</ele>
        <time>2015-05-31T08:10:55Z</time>
      </trkpt>
      <trkpt lat="49.16537" lon="1.23218">
        <ele>157.9</ele>
        <time>2015-05-31T08:10:58Z</time>
      </trkpt>
      <trkpt lat="49.16536" lon="1.23198">
        <ele>158.2</ele>
        <time>2015-05-31T08:11:01Z</time>
      </trkpt>
      <trkpt lat="49.16536" lon="1.23179">
        <ele>158.4</ele>
        <time>2015-05-31T08:11:04Z</time>
      </trkpt>
      <trkpt lat="49.16535" lon="1.23159">
        <ele>158.7</ele>
        <time>2015-05-31T08:11:07Z</time>
      </trkpt>
      <trkpt lat="49.16535" lon="1.23139">
        <ele>158.9</ele>
        <time>2015-05-31T08:11:10Z</time>
      </trkpt>
      <trkpt lat="49.16534" lon="1.2312">
        <ele>159.1</ele>
        <time>2015-05-31T08:11:13Z</time>
      </trkpt>
      <trkpt lat="49.16534" lon="1.23101">
        <ele>159.3</ele>
        <time>2015-05-31T08:11:16Z</time>
      </trkpt>
      <trkpt lat="49.16534" lon="1.23082">
        <ele>159.5</ele>
        <time>2015-05-31T08:11:19Z</time>
      </trkpt>
      <trkpt lat="49.16534" lon="1.23063">
        <ele>159.6</ele>
        <time>2015-05-31T08:11:22Z</time>
      </trkpt>
      <trkpt lat="49.16534" lon="1.23044">
        <ele>159.8</ele>
        <time>2015-05-31T08:11:25Z</time>
      </trkpt>
      <trkpt lat="49.16534" lon="1.23027">
        <ele>159.9</ele>
        <time>2015-05-31T08:11:28Z</time>
      </trkpt>
      <trkpt lat="49.16534" lon="1.23008">
        <ele>160</ele>
        <time>2015-05-31T08:11:31Z</time>
      </trkpt>
      <trkpt lat="49.16534" lon="1.22988">
        <ele>160.2</ele>
        <time>2015-05-31T08:11:34Z</time>
      </trkpt>
      <trkpt lat="49.16534" lon="1.22968">
        <ele>160.3</ele>
        <time>2015-05-31T08:11:37Z</time>
      </trkpt>
      <trkpt lat="49.16534" lon="1.22948">
        <ele>160.5</ele>
        <time>2015-05-31T08:11:40Z</time>
      </trkpt>
      <trkpt lat="49.16533" lon="1.22929">
        <ele>160.6</ele>
        <time>2015-05-31T08:11:43Z</time>
      </trkpt>
      <trkpt lat="49.16534" lon="1.2291">
        <ele>160.8</ele>
        <time>2015-05-31T08:11:46Z</time>
      </trkpt>
      <trkpt lat="49.16534" lon="1.22892">
        <ele>160.9</ele>
        <time>2015-05-31T08:11:49Z</time>
      </trkpt>
      <trkpt lat="49.16534" lon="1.22872">
        <ele>161</ele>
        <time>2015-05-31T08:11:52Z</time>
      </trkpt>
      <trkpt lat="49.16534" lon="1.22852">
        <ele>161.1</ele>
        <time>2015-05-31T08:11:55Z</time>
      </trkpt>
      <trkpt lat="49.16534" lon="1.22838">
        <ele>161.1</ele>
        <time>2015-05-31T08:11:57Z</time>
      </trkpt>
      <trkpt lat="49.16534" lon="1.22824">
        <ele>161.1</ele>
        <time>2015-05-31T08:11:59Z</time>
      </trkpt>
      <trkpt lat="49.16534" lon="1.2281">
        <ele>161.1</ele>
        <time>2015-05-31T08:12:01Z</time>
      </trkpt>
      <trkpt lat="49.16534" lon="1.22796">
        <ele>161</ele>
        <time>2015-05-31T08:12:03Z</time>
      </trkpt>
      <trkpt lat="49.16534" lon="1.22782">
        <ele>161</ele>
        <time>2015-05-31T08:12:05Z</time>
      </trkpt>
      <trkpt lat="49.16534" lon="1.22767">
        <ele>161</ele>
        <time>2015-05-31T08:12:07Z</time>
      </trkpt>
      <trkpt lat="49.16534" lon="1.22747">
        <ele>160.9</ele>
        <time>2015-05-31T08:12:10Z</time>
      </trkpt>
      <trkpt lat="49.16534" lon="1.2273">
        <ele>160.9</ele>
        <time>2015-05-31T08:12:13Z</time>
      </trkpt>
      <trkpt lat="49.16542" lon="1.22721">
        <ele>160.9</ele>
        <time>2015-05-31T08:12:16Z</time>
      </trkpt>
      <trkpt lat="49.16554" lon="1.22715">
        <ele>160.8</ele>
        <time>2015-05-31T08:12:19Z</time>
      </trkpt>
      <trkpt lat="49.16563" lon="1.22711">
        <ele>160.7</ele>
        <time>2015-05-31T08:12:21Z</time>
      </trkpt>
      <trkpt lat="49.16575" lon="1.22704">
        <ele>160.5</ele>
        <time>2015-05-31T08:12:24Z</time>
      </trkpt>
      <trkpt lat="49.16587" lon="1.22698">
        <ele>160.3</ele>
        <time>2015-05-31T08:12:27Z</time>
      </trkpt>
      <trkpt lat="49.16596" lon="1.22693">
        <ele>160.1</ele>
        <time>2015-05-31T08:12:29Z</time>
      </trkpt>
      <trkpt lat="49.16605" lon="1.22689">
        <ele>159.9</ele>
        <time>2015-05-31T08:12:31Z</time>
      </trkpt>
      <trkpt lat="49.16614" lon="1.22684">
        <ele>159.8</ele>
        <time>2015-05-31T08:12:33Z</time>
      </trkpt>
      <trkpt lat="49.16626" lon="1.22678">
        <ele>159.6</ele>
        <time>2015-05-31T08:12:36Z</time>
      </trkpt>
      <trkpt lat="49.16635" lon="1.22673">
        <ele>159.5</ele>
        <time>2015-05-31T08:12:38Z</time>
      </trkpt>
      <trkpt lat="49.16643" lon="1.22669">
        <ele>159.3</ele>
        <time>2015-05-31T08:12:40Z</time>
      </trkpt>
      <trkpt lat="49.16652" lon="1.22664">
        <ele>159.2</ele>
        <time>2015-05-31T08:12:42Z</time>
      </trkpt>
      <trkpt lat="49.16661" lon="1.2266">
        <ele>159.1</ele>
        <time>2015-05-31T08:12:44Z</time>
      </trkpt>
      <trkpt lat="49.16673" lon="1.22654">
        <ele>158.8</ele>
        <time>2015-05-31T08:12:47Z</time>
      </trkpt>
      <trkpt lat="49.16686" lon="1.22648">
        <ele>158.5</ele>
        <time>2015-05-31T08:12:50Z</time>
      </trkpt>
      <trkpt lat="49.16698" lon="1.22642">
        <ele>158.3</ele>
        <time>2015-05-31T08:12:53Z</time>
      </trkpt>
      <trkpt lat="49.16707" lon="1.22637">
        <ele>158.1</ele>
        <time>2015-05-31T08:12:55Z</time>
      </trkpt>
      <trkpt lat="49.16716" lon="1.22633">
        <ele>157.9</ele>
        <time>2015-05-31T08:12:57Z</time>
      </trkpt>
      <trkpt lat="49.16725" lon="1.22629">
        <ele>157.8</ele>
        <time>2015-05-31T08:12:59Z</time>
      </trkpt>
      <trkpt lat="49.16734" lon="1.22624">
        <ele>157.6</ele>
        <time>2015-05-31T08:13:01Z</time>
      </trkpt>
      <trkpt lat="49.16743" lon="1.2262">
        <ele>157.4</ele>
        <time>2015-05-31T08:13:03Z</time>
      </trkpt>
      <trkpt lat="49.16752" lon="1.22615">
        <ele>157.3</ele>
        <time>2015-05-31T08:13:05Z</time>
      </trkpt>
      <trkpt lat="49.16761" lon="1.22611">
        <ele>157.2</ele>
        <time>2015-05-31T08:13:07Z</time>
      </trkpt>
      <trkpt lat="49.1677" lon="1.22607">
        <ele>157</ele>
        <time>2015-05-31T08:13:09Z</time>
      </trkpt>
      <trkpt lat="49.16779" lon="1.22602">
        <ele>156.9</ele>
        <time>2015-05-31T08:13:11Z</time>
      </trkpt>
      <trkpt lat="49.16787" lon="1.22599">
        <ele>156.8</ele>
        <time>2015-05-31T08:13:13Z</time>
      </trkpt>
      <trkpt lat="49.16796" lon="1.22595">
        <ele>156.6</ele>
        <time>2015-05-31T08:13:15Z</time>
      </trkpt>
      <trkpt lat="49.16805" lon="1.2259">
        <ele>156.4</ele>
        <time>2015-05-31T08:13:17Z</time>
      </trkpt>
      <trkpt lat="49.16816" lon="1.22583">
        <ele>156.3</ele>
        <time>2015-05-31T08:13:20Z</time>
      </trkpt>
      <trkpt lat="49.16828" lon="1.22577">
        <ele>156.1</ele>
        <time>2015-05-31T08:13:23Z</time>
      </trkpt>
      <trkpt lat="49.16839" lon="1.22571">
        <ele>155.9</ele>
        <time>2015-05-31T08:13:26Z</time>
      </trkpt>
      <trkpt lat="49.16849" lon="1.22567">
        <ele>155.8</ele>
        <time>2015-05-31T08:13:29Z</time>
      </trkpt>
      <trkpt lat="49.1686" lon="1.22561">
        <ele>155.7</ele>
        <time>2015-05-31T08:13:32Z</time>
      </trkpt>
      <trkpt lat="49.16872" lon="1.22555">
        <ele>155.6</ele>
        <time>2015-05-31T08:13:35Z</time>
      </trkpt>
      <trkpt lat="49.16883" lon="1.22549">
        <ele>155.5</ele>
        <time>2015-05-31T08:13:38Z</time>
      </trkpt>
      <trkpt lat="49.16894" lon="1.22545">
        <ele>155.5</ele>
        <time>2015-05-31T08:13:41Z</time>
      </trkpt>
      <trkpt lat="49.16903" lon="1.22541">
        <ele>155.4</ele>
        <time>2015-05-31T08:13:44Z</time>
      </trkpt>
      <trkpt lat="49.16912" lon="1.22536">
        <ele>155.3</ele>
        <time>2015-05-31T08:13:47Z</time>
      </trkpt>
      <trkpt lat="49.16922" lon="1.22531">
        <ele>155.3</ele>
        <time>2015-05-31T08:13:50Z</time>
      </trkpt>
      <trkpt lat="49.16931" lon="1.22526">
        <ele>155.2</ele>
        <time>2015-05-31T08:13:53Z</time>
      </trkpt>
      <trkpt lat="49.16941" lon="1.22521">
        <ele>155.2</ele>
        <time>2015-05-31T08:13:56Z</time>
      </trkpt>
      <trkpt lat="49.16952" lon="1.22516">
        <ele>155.1</ele>
        <time>2015-05-31T08:13:59Z</time>
      </trkpt>
      <trkpt lat="49.16963" lon="1.22509">
        <ele>155.1</ele>
        <time>2015-05-31T08:14:02Z</time>
      </trkpt>
      <trkpt lat="49.16975" lon="1.22501">
        <ele>155.1</ele>
        <time>2015-05-31T08:14:05Z</time>
      </trkpt>
      <trkpt lat="49.16988" lon="1.22494">
        <ele>155.1</ele>
        <time>2015-05-31T08:14:08Z</time>
      </trkpt>
      <trkpt lat="49.16999" lon="1.22487">
        <ele>155.1</ele>
        <time>2015-05-31T08:14:11Z</time>
      </trkpt>
      <trkpt lat="49.1701" lon="1.22481">
        <ele>155.1</ele>
        <time>2015-05-31T08:14:14Z</time>
      </trkpt>
      <trkpt lat="49.17019" lon="1.22474">
        <ele>155</ele>
        <time>2015-05-31T08:14:17Z</time>
      </trkpt>
      <trkpt lat="49.17027" lon="1.2246">
        <ele>155</ele>
        <time>2015-05-31T08:14:20Z</time>
      </trkpt>
      <trkpt lat="49.17031" lon="1.22448">
        <ele>155</ele>
        <time>2015-05-31T08:14:22Z</time>
      </trkpt>
      <trkpt lat="49.17036" lon="1.22434">
        <ele>155</ele>
        <time>2015-05-31T08:14:24Z</time>
      </trkpt>
      <trkpt lat="49.1704" lon="1.22419">
        <ele>154.9</ele>
        <time>2015-05-31T08:14:26Z</time>
      </trkpt>
      <trkpt lat="49.17046" lon="1.22405">
        <ele>154.9</ele>
        <time>2015-05-31T08:14:28Z</time>
      </trkpt>
      <trkpt lat="49.17051" lon="1.2239">
        <ele>154.8</ele>
        <time>2015-05-31T08:14:30Z</time>
      </trkpt>
      <trkpt lat="49.17056" lon="1.22374">
        <ele>154.7</ele>
        <time>2015-05-31T08:14:32Z</time>
      </trkpt>
      <trkpt lat="49.17061" lon="1.22358">
        <ele>154.7</ele>
        <time>2015-05-31T08:14:34Z</time>
      </trkpt>
      <trkpt lat="49.17067" lon="1.22342">
        <ele>154.6</ele>
        <time>2015-05-31T08:14:36Z</time>
      </trkpt>
      <trkpt lat="49.17073" lon="1.22326">
        <ele>154.6</ele>
        <time>2015-05-31T08:14:38Z</time>
      </trkpt>
      <trkpt lat="49.17078" lon="1.22311">
        <ele>154.5</ele>
        <time>2015-05-31T08:14:40Z</time>
      </trkpt>
      <trkpt lat="49.17083" lon="1.22295">
        <ele>154.4</ele>
        <time>2015-05-31T08:14:42Z</time>
      </trkpt>
      <trkpt lat="49.17089" lon="1.22279">
        <ele>154.2</ele>
        <time>2015-05-31T08:14:44Z</time>
      </trkpt>
      <trkpt lat="49.17095" lon="1.22263">
        <ele>154.1</ele>
        <time>2015-05-31T08:14:46Z</time>
      </trkpt>
      <trkpt lat="49.17101" lon="1.22248">
        <ele>154</ele>
        <time>2015-05-31T08:14:48Z</time>
      </trkpt>
      <trkpt lat="49.17106" lon="1.22232">
        <ele>153.9</ele>
        <time>2015-05-31T08:14:50Z</time>
      </trkpt>
      <trkpt lat="49.17111" lon="1.22216">
        <ele>153.9</ele>
        <time>2015-05-31T08:14:52Z</time>
      </trkpt>
      <trkpt lat="49.17112" lon="1.222">
        <ele>153.8</ele>
        <time>2015-05-31T08:14:54Z</time>
      </trkpt>
      <trkpt lat="49.17107" lon="1.22186">
        <ele>153.7</ele>
        <time>2015-05-31T08:14:56Z</time>
      </trkpt>
      <trkpt lat="49.17098" lon="1.22177">
        <ele>153.7</ele>
        <time>2015-05-31T08:14:58Z</time>
      </trkpt>
      <trkpt lat="49.17087" lon="1.22171">
        <ele>153.6</ele>
        <time>2015-05-31T08:15:00Z</time>
      </trkpt>
      <trkpt lat="49.17075" lon="1.22166">
        <ele>153.6</ele>
        <time>2015-05-31T08:15:02Z</time>
      </trkpt>
      <trkpt lat="49.17064" lon="1.22158">
        <ele>153.5</ele>
        <time>2015-05-31T08:15:04Z</time>
      </trkpt>
      <trkpt lat="49.17054" lon="1.22148">
        <ele>153.5</ele>
        <time>2015-05-31T08:15:06Z</time>
      </trkpt>
      <trkpt lat="49.17046" lon="1.22136">
        <ele>153.4</ele>
        <time>2015-05-31T08:15:08Z</time>
      </trkpt>
      <trkpt lat="49.17038" lon="1.22123">
        <ele>153.3</ele>
        <time>2015-05-31T08:15:10Z</time>
      </trkpt>
      <trkpt lat="49.17031" lon="1.22109">
        <ele>153.1</ele>
        <time>2015-05-31T08:15:12Z</time>
      </trkpt>
      <trkpt lat="49.17023" lon="1.22097">
        <ele>152.9</ele>
        <time>2015-05-31T08:15:14Z</time>
      </trkpt>
      <trkpt lat="49.17017" lon="1.22082">
        <ele>152.8</ele>
        <time>2015-05-31T08:15:16Z</time>
      </trkpt>
      <trkpt lat="49.1701" lon="1.22068">
        <ele>152.6</ele>
        <time>2015-05-31T08:15:18Z</time>
      </trkpt>
      <trkpt lat="49.17002" lon="1.22057">
        <ele>152.5</ele>
        <time>2015-05-31T08:15:20Z</time>
      </trkpt>
      <trkpt lat="49.16992" lon="1.22047">
        <ele>152.2</ele>
        <time>2015-05-31T08:15:23Z</time>
      </trkpt>
      <trkpt lat="49.16983" lon="1.22039">
        <ele>151.9</ele>
        <time>2015-05-31T08:15:26Z</time>
      </trkpt>
      <trkpt lat="49.16975" lon="1.22024">
        <ele>151.7</ele>
        <time>2015-05-31T08:15:29Z</time>
      </trkpt>
      <trkpt lat="49.16971" lon="1.2201">
        <ele>151.5</ele>
        <time>2015-05-31T08:15:31Z</time>
      </trkpt>
      <trkpt lat="49.16967" lon="1.21994">
        <ele>151.4</ele>
        <time>2015-05-31T08:15:33Z</time>
      </trkpt>
      <trkpt lat="49.16965" lon="1.21978">
        <ele>151.3</ele>
        <time>2015-05-31T08:15:35Z</time>
      </trkpt>
      <trkpt lat="49.16962" lon="1.2196">
        <ele>151.1</ele>
        <time>2015-05-31T08:15:37Z</time>
      </trkpt>
      <trkpt lat="49.16961" lon="1.21941">
        <ele>150.9</ele>
        <time>2015-05-31T08:15:39Z</time>
      </trkpt>
      <trkpt lat="49.16961" lon="1.21925">
        <ele>150.6</ele>
        <time>2015-05-31T08:15:41Z</time>
      </trkpt>
      <trkpt lat="49.16961" lon="1.21903">
        <ele>149.9</ele>
        <time>2015-05-31T08:15:44Z</time>
      </trkpt>
      <trkpt lat="49.16959" lon="1.21886">
        <ele>149.5</ele>
        <time>2015-05-31T08:15:46Z</time>
      </trkpt>
      <trkpt lat="49.16957" lon="1.21866">
        <ele>149</ele>
        <time>2015-05-31T08:15:48Z</time>
      </trkpt>
      <trkpt lat="49.16956" lon="1.21847">
        <ele>148.5</ele>
        <time>2015-05-31T08:15:50Z</time>
      </trkpt>
      <trkpt lat="49.16954" lon="1.21828">
        <ele>148.1</ele>
        <time>2015-05-31T08:15:52Z</time>
      </trkpt>
      <trkpt lat="49.16953" lon="1.21811">
        <ele>147.6</ele>
        <time>2015-05-31T08:15:54Z</time>
      </trkpt>
      <trkpt lat="49.16954" lon="1.21792">
        <ele>147.2</ele>
        <time>2015-05-31T08:15:56Z</time>
      </trkpt>
      <trkpt lat="49.16957" lon="1.21772">
        <ele>146.8</ele>
        <time>2015-05-31T08:15:58Z</time>
      </trkpt>
      <trkpt lat="49.16961" lon="1.21756">
        <ele>146.4</ele>
        <time>2015-05-31T08:16:00Z</time>
      </trkpt>
      <trkpt lat="49.16963" lon="1.21741">
        <ele>146</ele>
        <time>2015-05-31T08:16:02Z</time>
      </trkpt>
      <trkpt lat="49.16967" lon="1.21725">
        <ele>145.7</ele>
        <time>2015-05-31T08:16:04Z</time>
      </trkpt>
      <trkpt lat="49.16968" lon="1.21706">
        <ele>145.3</ele>
        <time>2015-05-31T08:16:06Z</time>
      </trkpt>
      <trkpt lat="49.16972" lon="1.21691">
        <ele>145.1</ele>
        <time>2015-05-31T08:16:08Z</time>
      </trkpt>
      <trkpt lat="49.16976" lon="1.21673">
        <ele>144.7</ele>
        <time>2015-05-31T08:16:10Z</time>
      </trkpt>
      <trkpt lat="49.1698" lon="1.21655">
        <ele>144.4</ele>
        <time>2015-05-31T08:16:12Z</time>
      </trkpt>
      <trkpt lat="49.16983" lon="1.21639">
        <ele>144</ele>
        <time>2015-05-31T08:16:14Z</time>
      </trkpt>
      <trkpt lat="49.16987" lon="1.21619">
        <ele>143.6</ele>
        <time>2015-05-31T08:16:17Z</time>
      </trkpt>
      <trkpt lat="49.16987" lon="1.21597">
        <ele>143.3</ele>
        <time>2015-05-31T08:16:19Z</time>
      </trkpt>
      <trkpt lat="49.16989" lon="1.2157">
        <ele>143</ele>
        <time>2015-05-31T08:16:21Z</time>
      </trkpt>
      <trkpt lat="49.16985" lon="1.21549">
        <ele>142.7</ele>
        <time>2015-05-31T08:16:23Z</time>
      </trkpt>
      <trkpt lat="49.16984" lon="1.21535">
        <ele>142.6</ele>
        <time>2015-05-31T08:16:24Z</time>
      </trkpt>
      <trkpt lat="49.16984" lon="1.21515">
        <ele>142.3</ele>
        <time>2015-05-31T08:16:26Z</time>
      </trkpt>
      <trkpt lat="49.16984" lon="1.21493">
        <ele>142.1</ele>
        <time>2015-05-31T08:16:28Z</time>
      </trkpt>
      <trkpt lat="49.16985" lon="1.21468">
        <ele>141.7</ele>
        <time>2015-05-31T08:16:30Z</time>
      </trkpt>
      <trkpt lat="49.16983" lon="1.21449">
        <ele>141.4</ele>
        <time>2015-05-31T08:16:32Z</time>
      </trkpt>
      <trkpt lat="49.16985" lon="1.21429">
        <ele>141</ele>
        <time>2015-05-31T08:16:34Z</time>
      </trkpt>
      <trkpt lat="49.16985" lon="1.2141">
        <ele>140.5</ele>
        <time>2015-05-31T08:16:36Z</time>
      </trkpt>
      <trkpt lat="49.16989" lon="1.21391">
        <ele>140.3</ele>
        <time>2015-05-31T08:16:37Z</time>
      </trkpt>
      <trkpt lat="49.16993" lon="1.21369">
        <ele>139.9</ele>
        <time>2015-05-31T08:16:39Z</time>
      </trkpt>
      <trkpt lat="49.16997" lon="1.2135">
        <ele>139.5</ele>
        <time>2015-05-31T08:16:41Z</time>
      </trkpt>
      <trkpt lat="49.17" lon="1.21331">
        <ele>139.1</ele>
        <time>2015-05-31T08:16:43Z</time>
      </trkpt>
      <trkpt lat="49.17003" lon="1.21315">
        <ele>138.7</ele>
        <time>2015-05-31T08:16:45Z</time>
      </trkpt>
      <trkpt lat="49.17007" lon="1.213">
        <ele>138.4</ele>
        <time>2015-05-31T08:16:46Z</time>
      </trkpt>
      <trkpt lat="49.17011" lon="1.21279">
        <ele>137.8</ele>
        <time>2015-05-31T08:16:48Z</time>
      </trkpt>
      <trkpt lat="49.17017" lon="1.21257">
        <ele>137.1</ele>
        <time>2015-05-31T08:16:50Z</time>
      </trkpt>
      <trkpt lat="49.17023" lon="1.21233">
        <ele>136.6</ele>
        <time>2015-05-31T08:16:52Z</time>
      </trkpt>
      <trkpt lat="49.17026" lon="1.21208">
        <ele>136.1</ele>
        <time>2015-05-31T08:16:54Z</time>
      </trkpt>
      <trkpt lat="49.17029" lon="1.21183">
        <ele>135.6</ele>
        <time>2015-05-31T08:16:56Z</time>
      </trkpt>
      <trkpt lat="49.17033" lon="1.21159">
        <ele>135.1</ele>
        <time>2015-05-31T08:16:58Z</time>
      </trkpt>
      <trkpt lat="49.17037" lon="1.21135">
        <ele>134.6</ele>
        <time>2015-05-31T08:17:00Z</time>
      </trkpt>
      <trkpt lat="49.17039" lon="1.2111">
        <ele>134.2</ele>
        <time>2015-05-31T08:17:02Z</time>
      </trkpt>
      <trkpt lat="49.17041" lon="1.21086">
        <ele>133.9</ele>
        <time>2015-05-31T08:17:04Z</time>
      </trkpt>
      <trkpt lat="49.17042" lon="1.2106">
        <ele>133.4</ele>
        <time>2015-05-31T08:17:06Z</time>
      </trkpt>
      <trkpt lat="49.17041" lon="1.21036">
        <ele>133.1</ele>
        <time>2015-05-31T08:17:08Z</time>
      </trkpt>
      <trkpt lat="49.17039" lon="1.21012">
        <ele>132.7</ele>
        <time>2015-05-31T08:17:10Z</time>
      </trkpt>
      <trkpt lat="49.17039" lon="1.20992">
        <ele>132.2</ele>
        <time>2015-05-31T08:17:12Z</time>
      </trkpt>
      <trkpt lat="49.17039" lon="1.20971">
        <ele>131.9</ele>
        <time>2015-05-31T08:17:14Z</time>
      </trkpt>
      <trkpt lat="49.17038" lon="1.20952">
        <ele>131.4</ele>
        <time>2015-05-31T08:17:16Z</time>
      </trkpt>
      <trkpt lat="49.17042" lon="1.20922">
        <ele>130.8</ele>
        <time>2015-05-31T08:17:18Z</time>
      </trkpt>
      <trkpt lat="49.17044" lon="1.20896">
        <ele>130.2</ele>
        <time>2015-05-31T08:17:20Z</time>
      </trkpt>
      <trkpt lat="49.17046" lon="1.2087">
        <ele>129.5</ele>
        <time>2015-05-31T08:17:22Z</time>
      </trkpt>
      <trkpt lat="49.17048" lon="1.20844">
        <ele>128.8</ele>
        <time>2015-05-31T08:17:24Z</time>
      </trkpt>
      <trkpt lat="49.17049" lon="1.20818">
        <ele>128.1</ele>
        <time>2015-05-31T08:17:26Z</time>
      </trkpt>
      <trkpt lat="49.17051" lon="1.20792">
        <ele>127.4</ele>
        <time>2015-05-31T08:17:28Z</time>
      </trkpt>
      <trkpt lat="49.17051" lon="1.20767">
        <ele>126.7</ele>
        <time>2015-05-31T08:17:30Z</time>
      </trkpt>
      <trkpt lat="49.17052" lon="1.20743">
        <ele>125.8</ele>
        <time>2015-05-31T08:17:32Z</time>
      </trkpt>
      <trkpt lat="49.17054" lon="1.20719">
        <ele>125</ele>
        <time>2015-05-31T08:17:34Z</time>
      </trkpt>
      <trkpt lat="49.17057" lon="1.20694">
        <ele>124.1</ele>
        <time>2015-05-31T08:17:36Z</time>
      </trkpt>
      <trkpt lat="49.17062" lon="1.20672">
        <ele>123.2</ele>
        <time>2015-05-31T08:17:38Z</time>
      </trkpt>
      <trkpt lat="49.17067" lon="1.20649">
        <ele>122.3</ele>
        <time>2015-05-31T08:17:40Z</time>
      </trkpt>
      <trkpt lat="49.17071" lon="1.20624">
        <ele>121.2</ele>
        <time>2015-05-31T08:17:42Z</time>
      </trkpt>
      <trkpt lat="49.17077" lon="1.20603">
        <ele>120.1</ele>
        <time>2015-05-31T08:17:44Z</time>
      </trkpt>
      <trkpt lat="49.17086" lon="1.20581">
        <ele>119.2</ele>
        <time>2015-05-31T08:17:46Z</time>
      </trkpt>
      <trkpt lat="49.17095" lon="1.20561">
        <ele>118.3</ele>
        <time>2015-05-31T08:17:48Z</time>
      </trkpt>
      <trkpt lat="49.17103" lon="1.20543">
        <ele>117.4</ele>
        <time>2015-05-31T08:17:50Z</time>
      </trkpt>
      <trkpt lat="49.17109" lon="1.20522">
        <ele>116.4</ele>
        <time>2015-05-31T08:17:52Z</time>
      </trkpt>
      <trkpt lat="49.17112" lon="1.20499">
        <ele>115.4</ele>
        <time>2015-05-31T08:17:54Z</time>
      </trkpt>
      <trkpt lat="49.17113" lon="1.20478">
        <ele>114.6</ele>
        <time>2015-05-31T08:17:56Z</time>
      </trkpt>
      <trkpt lat="49.17115" lon="1.20458">
        <ele>113.9</ele>
        <time>2015-05-31T08:17:58Z</time>
      </trkpt>
      <trkpt lat="49.17118" lon="1.20438">
        <ele>113.2</ele>
        <time>2015-05-31T08:18:00Z</time>
      </trkpt>
      <trkpt lat="49.17122" lon="1.20417">
        <ele>112.5</ele>
        <time>2015-05-31T08:18:02Z</time>
      </trkpt>
      <trkpt lat="49.17127" lon="1.20399">
        <ele>112</ele>
        <time>2015-05-31T08:18:04Z</time>
      </trkpt>
      <trkpt lat="49.17132" lon="1.20378">
        <ele>111.4</ele>
        <time>2015-05-31T08:18:06Z</time>
      </trkpt>
      <trkpt lat="49.17139" lon="1.2036">
        <ele>110.6</ele>
        <time>2015-05-31T08:18:08Z</time>
      </trkpt>
      <trkpt lat="49.17148" lon="1.20347">
        <ele>110</ele>
        <time>2015-05-31T08:18:10Z</time>
      </trkpt>
      <trkpt lat="49.17158" lon="1.20336">
        <ele>109.4</ele>
        <time>2015-05-31T08:18:12Z</time>
      </trkpt>
      <trkpt lat="49.17173" lon="1.2033">
        <ele>108.5</ele>
        <time>2015-05-31T08:18:14Z</time>
      </trkpt>
      <trkpt lat="49.17186" lon="1.20324">
        <ele>107.8</ele>
        <time>2015-05-31T08:18:16Z</time>
      </trkpt>
      <trkpt lat="49.17201" lon="1.2032">
        <ele>107.2</ele>
        <time>2015-05-31T08:18:18Z</time>
      </trkpt>
      <trkpt lat="49.17216" lon="1.20315">
        <ele>106.6</ele>
        <time>2015-05-31T08:18:20Z</time>
      </trkpt>
      <trkpt lat="49.17231" lon="1.20309">
        <ele>106</ele>
        <time>2015-05-31T08:18:22Z</time>
      </trkpt>
      <trkpt lat="49.17246" lon="1.203">
        <ele>105.6</ele>
        <time>2015-05-31T08:18:24Z</time>
      </trkpt>
      <trkpt lat="49.17259" lon="1.20289">
        <ele>105</ele>
        <time>2015-05-31T08:18:26Z</time>
      </trkpt>
      <trkpt lat="49.17272" lon="1.20276">
        <ele>102.4</ele>
        <time>2015-05-31T08:18:28Z</time>
      </trkpt>
      <trkpt lat="49.17285" lon="1.20263">
        <ele>100</ele>
        <time>2015-05-31T08:18:30Z</time>
      </trkpt>
      <trkpt lat="49.17298" lon="1.20251">
        <ele>97.8</ele>
        <time>2015-05-31T08:18:32Z</time>
      </trkpt>
      <trkpt lat="49.17312" lon="1.2024">
        <ele>95.5</ele>
        <time>2015-05-31T08:18:34Z</time>
      </trkpt>
      <trkpt lat="49.17325" lon="1.2023">
        <ele>93.4</ele>
        <time>2015-05-31T08:18:36Z</time>
      </trkpt>
      <trkpt lat="49.17339" lon="1.20219">
        <ele>91.6</ele>
        <time>2015-05-31T08:18:38Z</time>
      </trkpt>
      <trkpt lat="49.17351" lon="1.20205">
        <ele>90</ele>
        <time>2015-05-31T08:18:40Z</time>
      </trkpt>
      <trkpt lat="49.17363" lon="1.2019">
        <ele>88.5</ele>
        <time>2015-05-31T08:18:42Z</time>
      </trkpt>
      <trkpt lat="49.17375" lon="1.20175">
        <ele>87</ele>
        <time>2015-05-31T08:18:44Z</time>
      </trkpt>
      <trkpt lat="49.17387" lon="1.2016">
        <ele>85.6</ele>
        <time>2015-05-31T08:18:46Z</time>
      </trkpt>
      <trkpt lat="49.17398" lon="1.20146">
        <ele>84.3</ele>
        <time>2015-05-31T08:18:48Z</time>
      </trkpt>
      <trkpt lat="49.1741" lon="1.20132">
        <ele>83</ele>
        <time>2015-05-31T08:18:50Z</time>
      </trkpt>
      <trkpt lat="49.17421" lon="1.20118">
        <ele>81.9</ele>
        <time>2015-05-31T08:18:52Z</time>
      </trkpt>
      <trkpt lat="49.17432" lon="1.20108">
        <ele>80.9</ele>
        <time>2015-05-31T08:18:54Z</time>
      </trkpt>
      <trkpt lat="49.1744" lon="1.20101">
        <ele>79.9</ele>
        <time>2015-05-31T08:18:56Z</time>
      </trkpt>
      <trkpt lat="49.17449" lon="1.20105">
        <ele>78.7</ele>
        <time>2015-05-31T08:18:59Z</time>
      </trkpt>
      <trkpt lat="49.17452" lon="1.20119">
        <ele>76.6</ele>
        <time>2015-05-31T08:19:06Z</time>
      </trkpt>
      <trkpt lat="49.17459" lon="1.20129">
        <ele>75.8</ele>
        <time>2015-05-31T08:19:11Z</time>
      </trkpt>
      <trkpt lat="49.17465" lon="1.20139">
        <ele>75.5</ele>
        <time>2015-05-31T08:19:15Z</time>
      </trkpt>
      <trkpt lat="49.17473" lon="1.20147">
        <ele>75.6</ele>
        <time>2015-05-31T08:19:19Z</time>
      </trkpt>
      <trkpt lat="49.17482" lon="1.20152">
        <ele>75.9</ele>
        <time>2015-05-31T08:19:23Z</time>
      </trkpt>
      <trkpt lat="49.17491" lon="1.20162">
        <ele>76.4</ele>
        <time>2015-05-31T08:19:28Z</time>
      </trkpt>
      <trkpt lat="49.17499" lon="1.20169">
        <ele>76.8</ele>
        <time>2015-05-31T08:19:31Z</time>
      </trkpt>
      <trkpt lat="49.17509" lon="1.20178">
        <ele>77.2</ele>
        <time>2015-05-31T08:19:35Z</time>
      </trkpt>
      <trkpt lat="49.1752" lon="1.20183">
        <ele>77.9</ele>
        <time>2015-05-31T08:19:40Z</time>
      </trkpt>
      <trkpt lat="49.1753" lon="1.20186">
        <ele>78.2</ele>
        <time>2015-05-31T08:19:42Z</time>
      </trkpt>
      <trkpt lat="49.17539" lon="1.20188">
        <ele>78.8</ele>
        <time>2015-05-31T08:19:45Z</time>
      </trkpt>
      <trkpt lat="49.17548" lon="1.20194">
        <ele>79.9</ele>
        <time>2015-05-31T08:19:51Z</time>
      </trkpt>
      <trkpt lat="49.17556" lon="1.20202">
        <ele>81.1</ele>
        <time>2015-05-31T08:19:56Z</time>
      </trkpt>
      <trkpt lat="49.17564" lon="1.20212">
        <ele>82.2</ele>
        <time>2015-05-31T08:20:01Z</time>
      </trkpt>
      <trkpt lat="49.17573" lon="1.20218">
        <ele>83.2</ele>
        <time>2015-05-31T08:20:06Z</time>
      </trkpt>
      <trkpt lat="49.17582" lon="1.20222">
        <ele>84.2</ele>
        <time>2015-05-31T08:20:10Z</time>
      </trkpt>
      <trkpt lat="49.17591" lon="1.20228">
        <ele>85.2</ele>
        <time>2015-05-31T08:20:15Z</time>
      </trkpt>
      <trkpt lat="49.176" lon="1.20232">
        <ele>86.1</ele>
        <time>2015-05-31T08:20:19Z</time>
      </trkpt>
      <trkpt lat="49.17609" lon="1.20238">
        <ele>87</ele>
        <time>2015-05-31T08:20:23Z</time>
      </trkpt>
      <trkpt lat="49.17617" lon="1.20245">
        <ele>87.9</ele>
        <time>2015-05-31T08:20:27Z</time>
      </trkpt>
      <trkpt lat="49.17625" lon="1.20254">
        <ele>88.8</ele>
        <time>2015-05-31T08:20:31Z</time>
      </trkpt>
      <trkpt lat="49.17633" lon="1.20261">
        <ele>89.6</ele>
        <time>2015-05-31T08:20:35Z</time>
      </trkpt>
      <trkpt lat="49.17642" lon="1.20272">
        <ele>90.5</ele>
        <time>2015-05-31T08:20:39Z</time>
      </trkpt>
      <trkpt lat="49.17649" lon="1.20286">
        <ele>91.4</ele>
        <time>2015-05-31T08:20:44Z</time>
      </trkpt>
      <trkpt lat="49.17655" lon="1.20299">
        <ele>92</ele>
        <time>2015-05-31T08:20:48Z</time>
      </trkpt>
      <trkpt lat="49.17659" lon="1.20314">
        <ele>92.9</ele>
        <time>2015-05-31T08:20:53Z</time>
      </trkpt>
      <trkpt lat="49.17666" lon="1.20327">
        <ele>93.9</ele>
        <time>2015-05-31T08:20:58Z</time>
      </trkpt>
      <trkpt lat="49.17674" lon="1.20342">
        <ele>94.9</ele>
        <time>2015-05-31T08:21:03Z</time>
      </trkpt>
      <trkpt lat="49.1768" lon="1.20354">
        <ele>95.6</ele>
        <time>2015-05-31T08:21:07Z</time>
      </trkpt>
      <trkpt lat="49.17688" lon="1.20365">
        <ele>96.4</ele>
        <time>2015-05-31T08:21:11Z</time>
      </trkpt>
      <trkpt lat="49.17693" lon="1.20377">
        <ele>97.1</ele>
        <time>2015-05-31T08:21:15Z</time>
      </trkpt>
      <trkpt lat="49.17699" lon="1.20392">
        <ele>97.9</ele>
        <time>2015-05-31T08:21:19Z</time>
      </trkpt>
      <trkpt lat="49.17705" lon="1.20407">
        <ele>98.7</ele>
        <time>2015-05-31T08:21:23Z</time>
      </trkpt>
      <trkpt lat="49.17709" lon="1.20419">
        <ele>99.4</ele>
        <time>2015-05-31T08:21:27Z</time>
      </trkpt>
      <trkpt lat="49.17714" lon="1.20435">
        <ele>100.4</ele>
        <time>2015-05-31T08:21:32Z</time>
      </trkpt>
      <trkpt lat="49.17717" lon="1.20449">
        <ele>101.2</ele>
        <time>2015-05-31T08:21:36Z</time>
      </trkpt>
      <trkpt lat="49.1772" lon="1.20464">
        <ele>102.1</ele>
        <time>2015-05-31T08:21:41Z</time>
      </trkpt>
      <trkpt lat="49.17726" lon="1.20477">
        <ele>103.1</ele>
        <time>2015-05-31T08:21:46Z</time>
      </trkpt>
      <trkpt lat="49.17735" lon="1.20489">
        <ele>103.9</ele>
        <time>2015-05-31T08:21:50Z</time>
      </trkpt>
      <trkpt lat="49.17744" lon="1.20498">
        <ele>104.5</ele>
        <time>2015-05-31T08:21:53Z</time>
      </trkpt>
      <trkpt lat="49.17753" lon="1.20505">
        <ele>105</ele>
        <time>2015-05-31T08:21:56Z</time>
      </trkpt>
      <trkpt lat="49.17762" lon="1.20507">
        <ele>105.7</ele>
        <time>2015-05-31T08:21:59Z</time>
      </trkpt>
      <trkpt lat="49.17772" lon="1.20504">
        <ele>106.6</ele>
        <time>2015-05-31T08:22:03Z</time>
      </trkpt>
      <trkpt lat="49.17781" lon="1.205">
        <ele>108.2</ele>
        <time>2015-05-31T08:22:09Z</time>
      </trkpt>
      <trkpt lat="49.17789" lon="1.20492">
        <ele>109.7</ele>
        <time>2015-05-31T08:22:15Z</time>
      </trkpt>
      <trkpt lat="49.17797" lon="1.20485">
        <ele>111.8</ele>
        <time>2015-05-31T08:22:22Z</time>
      </trkpt>
      <trkpt lat="49.17806" lon="1.20479">
        <ele>113.4</ele>
        <time>2015-05-31T08:22:28Z</time>
      </trkpt>
      <trkpt lat="49.17814" lon="1.20471">
        <ele>114.8</ele>
        <time>2015-05-31T08:22:34Z</time>
      </trkpt>
      <trkpt lat="49.17822" lon="1.20463">
        <ele>116.2</ele>
        <time>2015-05-31T08:22:40Z</time>
      </trkpt>
      <trkpt lat="49.17829" lon="1.20453">
        <ele>117.8</ele>
        <time>2015-05-31T08:22:46Z</time>
      </trkpt>
      <trkpt lat="49.17834" lon="1.20441">
        <ele>119.3</ele>
        <time>2015-05-31T08:22:52Z</time>
      </trkpt>
      <trkpt lat="49.17839" lon="1.20429">
        <ele>120.5</ele>
        <time>2015-05-31T08:22:57Z</time>
      </trkpt>
      <trkpt lat="49.17843" lon="1.20415">
        <ele>121.6</ele>
        <time>2015-05-31T08:23:02Z</time>
      </trkpt>
      <trkpt lat="49.17848" lon="1.20402">
        <ele>122.4</ele>
        <time>2015-05-31T08:23:06Z</time>
      </trkpt>
      <trkpt lat="49.17852" lon="1.20389">
        <ele>123.4</ele>
        <time>2015-05-31T08:23:11Z</time>
      </trkpt>
      <trkpt lat="49.17858" lon="1.20376">
        <ele>124.4</ele>
        <time>2015-05-31T08:23:16Z</time>
      </trkpt>
      <trkpt lat="49.17868" lon="1.20376">
        <ele>125.4</ele>
        <time>2015-05-31T08:23:21Z</time>
      </trkpt>
      <trkpt lat="49.17876" lon="1.20387">
        <ele>126.7</ele>
        <time>2015-05-31T08:23:27Z</time>
      </trkpt>
      <trkpt lat="49.17882" lon="1.204">
        <ele>127.3</ele>
        <time>2015-05-31T08:23:31Z</time>
      </trkpt>
      <trkpt lat="49.17889" lon="1.20413">
        <ele>127.7</ele>
        <time>2015-05-31T08:23:34Z</time>
      </trkpt>
      <trkpt lat="49.17896" lon="1.20428">
        <ele>128.1</ele>
        <time>2015-05-31T08:23:37Z</time>
      </trkpt>
      <trkpt lat="49.179" lon="1.20445">
        <ele>128.3</ele>
        <time>2015-05-31T08:23:40Z</time>
      </trkpt>
      <trkpt lat="49.17903" lon="1.20463">
        <ele>128.6</ele>
        <time>2015-05-31T08:23:43Z</time>
      </trkpt>
      <trkpt lat="49.17906" lon="1.20479">
        <ele>128.8</ele>
        <time>2015-05-31T08:23:46Z</time>
      </trkpt>
      <trkpt lat="49.17911" lon="1.20496">
        <ele>128.9</ele>
        <time>2015-05-31T08:23:49Z</time>
      </trkpt>
      <trkpt lat="49.17914" lon="1.20515">
        <ele>129.1</ele>
        <time>2015-05-31T08:23:52Z</time>
      </trkpt>
      <trkpt lat="49.17918" lon="1.2053">
        <ele>129.2</ele>
        <time>2015-05-31T08:23:54Z</time>
      </trkpt>
      <trkpt lat="49.1792" lon="1.20545">
        <ele>129.4</ele>
        <time>2015-05-31T08:23:56Z</time>
      </trkpt>
      <trkpt lat="49.17923" lon="1.20565">
        <ele>129.5</ele>
        <time>2015-05-31T08:23:59Z</time>
      </trkpt>
      <trkpt lat="49.17923" lon="1.20584">
        <ele>129.6</ele>
        <time>2015-05-31T08:24:02Z</time>
      </trkpt>
      <trkpt lat="49.17926" lon="1.20599">
        <ele>129.7</ele>
        <time>2015-05-31T08:24:04Z</time>
      </trkpt>
      <trkpt lat="49.1793" lon="1.20612">
        <ele>129.8</ele>
        <time>2015-05-31T08:24:06Z</time>
      </trkpt>
      <trkpt lat="49.17934" lon="1.20631">
        <ele>129.8</ele>
        <time>2015-05-31T08:24:09Z</time>
      </trkpt>
      <trkpt lat="49.17937" lon="1.20643">
        <ele>129.9</ele>
        <time>2015-05-31T08:24:11Z</time>
      </trkpt>
      <trkpt lat="49.17937" lon="1.20661">
        <ele>129.9</ele>
        <time>2015-05-31T08:24:14Z</time>
      </trkpt>
      <trkpt lat="49.17944" lon="1.20671">
        <ele>130</ele>
        <time>2015-05-31T08:24:18Z</time>
      </trkpt>
      <trkpt lat="49.17954" lon="1.20664">
        <ele>130.1</ele>
        <time>2015-05-31T08:24:22Z</time>
      </trkpt>
      <trkpt lat="49.17966" lon="1.20656">
        <ele>130.1</ele>
        <time>2015-05-31T08:24:25Z</time>
      </trkpt>
      <trkpt lat="49.17976" lon="1.2065">
        <ele>130.1</ele>
        <time>2015-05-31T08:24:27Z</time>
      </trkpt>
      <trkpt lat="49.17984" lon="1.20641">
        <ele>130.1</ele>
        <time>2015-05-31T08:24:29Z</time>
      </trkpt>
      <trkpt lat="49.17992" lon="1.20633">
        <ele>130.1</ele>
        <time>2015-05-31T08:24:31Z</time>
      </trkpt>
      <trkpt lat="49.17998" lon="1.20623">
        <ele>130.1</ele>
        <time>2015-05-31T08:24:33Z</time>
      </trkpt>
      <trkpt lat="49.18007" lon="1.20615">
        <ele>130.2</ele>
        <time>2015-05-31T08:24:35Z</time>
      </trkpt>
      <trkpt lat="49.18018" lon="1.20609">
        <ele>130.3</ele>
        <time>2015-05-31T08:24:37Z</time>
      </trkpt>
      <trkpt lat="49.1803" lon="1.20601">
        <ele>130.3</ele>
        <time>2015-05-31T08:24:40Z</time>
      </trkpt>
      <trkpt lat="49.1804" lon="1.20595">
        <ele>130.4</ele>
        <time>2015-05-31T08:24:42Z</time>
      </trkpt>
      <trkpt lat="49.1805" lon="1.20588">
        <ele>130.4</ele>
        <time>2015-05-31T08:24:44Z</time>
      </trkpt>
      <trkpt lat="49.18059" lon="1.20578">
        <ele>130.4</ele>
        <time>2015-05-31T08:24:46Z</time>
      </trkpt>
      <trkpt lat="49.18067" lon="1.20565">
        <ele>130.3</ele>
        <time>2015-05-31T08:24:48Z</time>
      </trkpt>
      <trkpt lat="49.18074" lon="1.20554">
        <ele>130.2</ele>
        <time>2015-05-31T08:24:50Z</time>
      </trkpt>
      <trkpt lat="49.18081" lon="1.20543">
        <ele>130</ele>
        <time>2015-05-31T08:24:52Z</time>
      </trkpt>
      <trkpt lat="49.18088" lon="1.20529">
        <ele>129.8</ele>
        <time>2015-05-31T08:24:54Z</time>
      </trkpt>
      <trkpt lat="49.18097" lon="1.20515">
        <ele>129.6</ele>
        <time>2015-05-31T08:24:56Z</time>
      </trkpt>
      <trkpt lat="49.18105" lon="1.20505">
        <ele>129.1</ele>
        <time>2015-05-31T08:24:58Z</time>
      </trkpt>
      <trkpt lat="49.18118" lon="1.20495">
        <ele>128.7</ele>
        <time>2015-05-31T08:25:00Z</time>
      </trkpt>
      <trkpt lat="49.18131" lon="1.20484">
        <ele>128.3</ele>
        <time>2015-05-31T08:25:02Z</time>
      </trkpt>
      <trkpt lat="49.18142" lon="1.20475">
        <ele>127.7</ele>
        <time>2015-05-31T08:25:04Z</time>
      </trkpt>
      <trkpt lat="49.18154" lon="1.20465">
        <ele>127.1</ele>
        <time>2015-05-31T08:25:06Z</time>
      </trkpt>
      <trkpt lat="49.18163" lon="1.20454">
        <ele>126.1</ele>
        <time>2015-05-31T08:25:08Z</time>
      </trkpt>
      <trkpt lat="49.18172" lon="1.20445">
        <ele>125.2</ele>
        <time>2015-05-31T08:25:10Z</time>
      </trkpt>
      <trkpt lat="49.1818" lon="1.20433">
        <ele>124.3</ele>
        <time>2015-05-31T08:25:12Z</time>
      </trkpt>
      <trkpt lat="49.18188" lon="1.20423">
        <ele>123.2</ele>
        <time>2015-05-31T08:25:14Z</time>
      </trkpt>
      <trkpt lat="49.18195" lon="1.2041">
        <ele>122.1</ele>
        <time>2015-05-31T08:25:16Z</time>
      </trkpt>
      <trkpt lat="49.18204" lon="1.20399">
        <ele>120.9</ele>
        <time>2015-05-31T08:25:18Z</time>
      </trkpt>
      <trkpt lat="49.18213" lon="1.20393">
        <ele>119.6</ele>
        <time>2015-05-31T08:25:20Z</time>
      </trkpt>
      <trkpt lat="49.18223" lon="1.20391">
        <ele>118.2</ele>
        <time>2015-05-31T08:25:22Z</time>
      </trkpt>
      <trkpt lat="49.18237" lon="1.20392">
        <ele>116.8</ele>
        <time>2015-05-31T08:25:24Z</time>
      </trkpt>
      <trkpt lat="49.18251" lon="1.20394">
        <ele>115.3</ele>
        <time>2015-05-31T08:25:26Z</time>
      </trkpt>
      <trkpt lat="49.18265" lon="1.20396">
        <ele>113.8</ele>
        <time>2015-05-31T08:25:28Z</time>
      </trkpt>
      <trkpt lat="49.18276" lon="1.20396">
        <ele>112.4</ele>
        <time>2015-05-31T08:25:30Z</time>
      </trkpt>
      <trkpt lat="49.18287" lon="1.20395">
        <ele>111.1</ele>
        <time>2015-05-31T08:25:32Z</time>
      </trkpt>
      <trkpt lat="49.183" lon="1.20388">
        <ele>109.7</ele>
        <time>2015-05-31T08:25:34Z</time>
      </trkpt>
      <trkpt lat="49.18312" lon="1.20382">
        <ele>108.2</ele>
        <time>2015-05-31T08:25:36Z</time>
      </trkpt>
      <trkpt lat="49.18325" lon="1.20377">
        <ele>106.8</ele>
        <time>2015-05-31T08:25:38Z</time>
      </trkpt>
      <trkpt lat="49.1834" lon="1.2037">
        <ele>105.4</ele>
        <time>2015-05-31T08:25:40Z</time>
      </trkpt>
      <trkpt lat="49.18354" lon="1.2036">
        <ele>104.1</ele>
        <time>2015-05-31T08:25:42Z</time>
      </trkpt>
      <trkpt lat="49.18365" lon="1.20354">
        <ele>102.6</ele>
        <time>2015-05-31T08:25:44Z</time>
      </trkpt>
      <trkpt lat="49.18378" lon="1.20349">
        <ele>101.3</ele>
        <time>2015-05-31T08:25:46Z</time>
      </trkpt>
      <trkpt lat="49.18393" lon="1.20342">
        <ele>99.9</ele>
        <time>2015-05-31T08:25:48Z</time>
      </trkpt>
      <trkpt lat="49.18403" lon="1.20339">
        <ele>99.3</ele>
        <time>2015-05-31T08:25:49Z</time>
      </trkpt>
      <trkpt lat="49.18418" lon="1.20335">
        <ele>98.1</ele>
        <time>2015-05-31T08:25:51Z</time>
      </trkpt>
      <trkpt lat="49.18434" lon="1.2033">
        <ele>96.8</ele>
        <time>2015-05-31T08:25:53Z</time>
      </trkpt>
      <trkpt lat="49.18449" lon="1.20325">
        <ele>95.7</ele>
        <time>2015-05-31T08:25:55Z</time>
      </trkpt>
      <trkpt lat="49.18466" lon="1.20314">
        <ele>94.4</ele>
        <time>2015-05-31T08:25:57Z</time>
      </trkpt>
      <trkpt lat="49.18474" lon="1.20309">
        <ele>93.8</ele>
        <time>2015-05-31T08:25:58Z</time>
      </trkpt>
      <trkpt lat="49.1849" lon="1.20298">
        <ele>92.7</ele>
        <time>2015-05-31T08:26:00Z</time>
      </trkpt>
      <trkpt lat="49.18506" lon="1.20287">
        <ele>91.7</ele>
        <time>2015-05-31T08:26:02Z</time>
      </trkpt>
      <trkpt lat="49.18519" lon="1.20276">
        <ele>90.7</ele>
        <time>2015-05-31T08:26:04Z</time>
      </trkpt>
      <trkpt lat="49.18531" lon="1.20267">
        <ele>89.7</ele>
        <time>2015-05-31T08:26:06Z</time>
      </trkpt>
      <trkpt lat="49.18542" lon="1.20258">
        <ele>88.9</ele>
        <time>2015-05-31T08:26:08Z</time>
      </trkpt>
      <trkpt lat="49.18557" lon="1.20252">
        <ele>88</ele>
        <time>2015-05-31T08:26:10Z</time>
      </trkpt>
      <trkpt lat="49.1857" lon="1.20242">
        <ele>87.2</ele>
        <time>2015-05-31T08:26:12Z</time>
      </trkpt>
      <trkpt lat="49.18581" lon="1.20234">
        <ele>86.5</ele>
        <time>2015-05-31T08:26:14Z</time>
      </trkpt>
      <trkpt lat="49.18595" lon="1.20226">
        <ele>85.8</ele>
        <time>2015-05-31T08:26:16Z</time>
      </trkpt>
      <trkpt lat="49.18607" lon="1.20218">
        <ele>85.3</ele>
        <time>2015-05-31T08:26:18Z</time>
      </trkpt>
      <trkpt lat="49.18618" lon="1.20214">
        <ele>84.8</ele>
        <time>2015-05-31T08:26:20Z</time>
      </trkpt>
      <trkpt lat="49.18627" lon="1.20215">
        <ele>84.5</ele>
        <time>2015-05-31T08:26:22Z</time>
      </trkpt>
      <trkpt lat="49.18636" lon="1.20218">
        <ele>84.2</ele>
        <time>2015-05-31T08:26:24Z</time>
      </trkpt>
      <trkpt lat="49.18646" lon="1.20224">
        <ele>83.8</ele>
        <time>2015-05-31T08:26:27Z</time>
      </trkpt>
      <trkpt lat="49.18656" lon="1.20228">
        <ele>83.6</ele>
        <time>2015-05-31T08:26:30Z</time>
      </trkpt>
      <trkpt lat="49.18666" lon="1.20232">
        <ele>83.6</ele>
        <time>2015-05-31T08:26:33Z</time>
      </trkpt>
      <trkpt lat="49.18677" lon="1.20233">
        <ele>83.7</ele>
        <time>2015-05-31T08:26:36Z</time>
      </trkpt>
      <trkpt lat="49.18687" lon="1.20235">
        <ele>83.8</ele>
        <time>2015-05-31T08:26:38Z</time>
      </trkpt>
      <trkpt lat="49.18698" lon="1.20238">
        <ele>84.1</ele>
        <time>2015-05-31T08:26:41Z</time>
      </trkpt>
      <trkpt lat="49.1871" lon="1.20239">
        <ele>84.5</ele>
        <time>2015-05-31T08:26:44Z</time>
      </trkpt>
      <trkpt lat="49.18721" lon="1.2024">
        <ele>85</ele>
        <time>2015-05-31T08:26:47Z</time>
      </trkpt>
      <trkpt lat="49.18732" lon="1.20244">
        <ele>85.5</ele>
        <time>2015-05-31T08:26:50Z</time>
      </trkpt>
      <trkpt lat="49.18742" lon="1.2025">
        <ele>86.3</ele>
        <time>2015-05-31T08:26:54Z</time>
      </trkpt>
      <trkpt lat="49.18752" lon="1.20256">
        <ele>86.9</ele>
        <time>2015-05-31T08:26:57Z</time>
      </trkpt>
      <trkpt lat="49.18759" lon="1.20267">
        <ele>88</ele>
        <time>2015-05-31T08:27:02Z</time>
      </trkpt>
      <trkpt lat="49.18767" lon="1.20274">
        <ele>89.1</ele>
        <time>2015-05-31T08:27:07Z</time>
      </trkpt>
      <trkpt lat="49.18771" lon="1.20289">
        <ele>91</ele>
        <time>2015-05-31T08:27:14Z</time>
      </trkpt>
      <trkpt lat="49.18777" lon="1.20299">
        <ele>92.5</ele>
        <time>2015-05-31T08:27:20Z</time>
      </trkpt>
      <trkpt lat="49.18782" lon="1.2031">
        <ele>93.9</ele>
        <time>2015-05-31T08:27:25Z</time>
      </trkpt>
      <trkpt lat="49.18789" lon="1.20321">
        <ele>95.3</ele>
        <time>2015-05-31T08:27:30Z</time>
      </trkpt>
      <trkpt lat="49.18795" lon="1.20335">
        <ele>96.9</ele>
        <time>2015-05-31T08:27:36Z</time>
      </trkpt>
      <trkpt lat="49.18799" lon="1.20347">
        <ele>98.1</ele>
        <time>2015-05-31T08:27:41Z</time>
      </trkpt>
      <trkpt lat="49.18804" lon="1.20361">
        <ele>99.5</ele>
        <time>2015-05-31T08:27:47Z</time>
      </trkpt>
      <trkpt lat="49.18808" lon="1.20374">
        <ele>101.1</ele>
        <time>2015-05-31T08:27:53Z</time>
      </trkpt>
      <trkpt lat="49.18815" lon="1.20384">
        <ele>102.4</ele>
        <time>2015-05-31T08:27:59Z</time>
      </trkpt>
      <trkpt lat="49.18823" lon="1.20395">
        <ele>103.8</ele>
        <time>2015-05-31T08:28:05Z</time>
      </trkpt>
      <trkpt lat="49.18831" lon="1.20404">
        <ele>105.5</ele>
        <time>2015-05-31T08:28:12Z</time>
      </trkpt>
      <trkpt lat="49.18841" lon="1.20405">
        <ele>106.6</ele>
        <time>2015-05-31T08:28:17Z</time>
      </trkpt>
      <trkpt lat="49.18852" lon="1.20407">
        <ele>108.3</ele>
        <time>2015-05-31T08:28:23Z</time>
      </trkpt>
      <trkpt lat="49.18862" lon="1.20405">
        <ele>109.7</ele>
        <time>2015-05-31T08:28:29Z</time>
      </trkpt>
      <trkpt lat="49.1887" lon="1.20398">
        <ele>111.5</ele>
        <time>2015-05-31T08:28:36Z</time>
      </trkpt>
      <trkpt lat="49.18876" lon="1.20387">
        <ele>113.3</ele>
        <time>2015-05-31T08:28:43Z</time>
      </trkpt>
      <trkpt lat="49.18881" lon="1.20374">
        <ele>115.4</ele>
        <time>2015-05-31T08:28:51Z</time>
      </trkpt>
      <trkpt lat="49.18886" lon="1.20362">
        <ele>117.6</ele>
        <time>2015-05-31T08:28:59Z</time>
      </trkpt>
      <trkpt lat="49.18894" lon="1.20351">
        <ele>119.2</ele>
        <time>2015-05-31T08:29:05Z</time>
      </trkpt>
      <trkpt lat="49.189" lon="1.20341">
        <ele>120.5</ele>
        <time>2015-05-31T08:29:10Z</time>
      </trkpt>
      <trkpt lat="49.18906" lon="1.2033">
        <ele>121.8</ele>
        <time>2015-05-31T08:29:15Z</time>
      </trkpt>
      <trkpt lat="49.18912" lon="1.20319">
        <ele>123.3</ele>
        <time>2015-05-31T08:29:21Z</time>
      </trkpt>
      <trkpt lat="49.18918" lon="1.20308">
        <ele>124.1</ele>
        <time>2015-05-31T08:29:25Z</time>
      </trkpt>
      <trkpt lat="49.18926" lon="1.20299">
        <ele>125</ele>
        <time>2015-05-31T08:29:29Z</time>
      </trkpt>
      <trkpt lat="49.18935" lon="1.20302">
        <ele>126.6</ele>
        <time>2015-05-31T08:29:38Z</time>
      </trkpt>
      <trkpt lat="49.18939" lon="1.20317">
        <ele>128.5</ele>
        <time>2015-05-31T08:30:03Z</time>
      </trkpt>
      <trkpt lat="49.18944" lon="1.20332">
        <ele>128.7</ele>
        <time>2015-05-31T08:30:08Z</time>
      </trkpt>
      <trkpt lat="49.18948" lon="1.20345">
        <ele>128.9</ele>
        <time>2015-05-31T08:30:12Z</time>
      </trkpt>
      <trkpt lat="49.18952" lon="1.20358">
        <ele>129.2</ele>
        <time>2015-05-31T08:30:16Z</time>
      </trkpt>
      <trkpt lat="49.18957" lon="1.20374">
        <ele>129.6</ele>
        <time>2015-05-31T08:30:20Z</time>
      </trkpt>
      <trkpt lat="49.18964" lon="1.20389">
        <ele>130.2</ele>
        <time>2015-05-31T08:30:24Z</time>
      </trkpt>
      <trkpt lat="49.18971" lon="1.20403">
        <ele>130.8</ele>
        <time>2015-05-31T08:30:28Z</time>
      </trkpt>
      <trkpt lat="49.18976" lon="1.20418">
        <ele>131.2</ele>
        <time>2015-05-31T08:30:31Z</time>
      </trkpt>
      <trkpt lat="49.18979" lon="1.20433">
        <ele>131.6</ele>
        <time>2015-05-31T08:30:34Z</time>
      </trkpt>
      <trkpt lat="49.18983" lon="1.20448">
        <ele>132.1</ele>
        <time>2015-05-31T08:30:37Z</time>
      </trkpt>
      <trkpt lat="49.18988" lon="1.20462">
        <ele>132.5</ele>
        <time>2015-05-31T08:30:40Z</time>
      </trkpt>
      <trkpt lat="49.18994" lon="1.20472">
        <ele>133</ele>
        <time>2015-05-31T08:30:43Z</time>
      </trkpt>
      <trkpt lat="49.19" lon="1.20485">
        <ele>133.4</ele>
        <time>2015-05-31T08:30:46Z</time>
      </trkpt>
      <trkpt lat="49.19006" lon="1.20497">
        <ele>134</ele>
        <time>2015-05-31T08:30:49Z</time>
      </trkpt>
      <trkpt lat="49.1901" lon="1.20512">
        <ele>134.5</ele>
        <time>2015-05-31T08:30:52Z</time>
      </trkpt>
      <trkpt lat="49.19014" lon="1.20527">
        <ele>134.9</ele>
        <time>2015-05-31T08:30:55Z</time>
      </trkpt>
      <trkpt lat="49.19017" lon="1.20544">
        <ele>135.3</ele>
        <time>2015-05-31T08:30:58Z</time>
      </trkpt>
      <trkpt lat="49.1902" lon="1.2056">
        <ele>135.7</ele>
        <time>2015-05-31T08:31:01Z</time>
      </trkpt>
      <trkpt lat="49.19025" lon="1.20578">
        <ele>136.1</ele>
        <time>2015-05-31T08:31:04Z</time>
      </trkpt>
      <trkpt lat="49.1903" lon="1.20595">
        <ele>136.5</ele>
        <time>2015-05-31T08:31:07Z</time>
      </trkpt>
      <trkpt lat="49.19034" lon="1.20611">
        <ele>136.8</ele>
        <time>2015-05-31T08:31:10Z</time>
      </trkpt>
      <trkpt lat="49.19039" lon="1.20623">
        <ele>137.1</ele>
        <time>2015-05-31T08:31:12Z</time>
      </trkpt>
      <trkpt lat="49.19047" lon="1.20636">
        <ele>137.5</ele>
        <time>2015-05-31T08:31:15Z</time>
      </trkpt>
      <trkpt lat="49.19054" lon="1.2065">
        <ele>137.8</ele>
        <time>2015-05-31T08:31:18Z</time>
      </trkpt>
      <trkpt lat="49.19064" lon="1.20659">
        <ele>138.1</ele>
        <time>2015-05-31T08:31:21Z</time>
      </trkpt>
      <trkpt lat="49.19074" lon="1.20669">
        <ele>138.3</ele>
        <time>2015-05-31T08:31:24Z</time>
      </trkpt>
      <trkpt lat="49.19083" lon="1.20677">
        <ele>138.5</ele>
        <time>2015-05-31T08:31:27Z</time>
      </trkpt>
      <trkpt lat="49.19095" lon="1.20682">
        <ele>138.7</ele>
        <time>2015-05-31T08:31:30Z</time>
      </trkpt>
      <trkpt lat="49.19105" lon="1.20686">
        <ele>138.8</ele>
        <time>2015-05-31T08:31:32Z</time>
      </trkpt>
      <trkpt lat="49.19115" lon="1.20691">
        <ele>138.9</ele>
        <time>2015-05-31T08:31:35Z</time>
      </trkpt>
      <trkpt lat="49.19128" lon="1.20695">
        <ele>139</ele>
        <time>2015-05-31T08:31:38Z</time>
      </trkpt>
      <trkpt lat="49.19138" lon="1.20699">
        <ele>139.1</ele>
        <time>2015-05-31T08:31:40Z</time>
      </trkpt>
      <trkpt lat="49.19152" lon="1.20705">
        <ele>139</ele>
        <time>2015-05-31T08:31:43Z</time>
      </trkpt>
      <trkpt lat="49.19164" lon="1.2071">
        <ele>138.8</ele>
        <time>2015-05-31T08:31:45Z</time>
      </trkpt>
      <trkpt lat="49.19176" lon="1.20713">
        <ele>138.7</ele>
        <time>2015-05-31T08:31:48Z</time>
      </trkpt>
      <trkpt lat="49.19186" lon="1.20718">
        <ele>138.6</ele>
        <time>2015-05-31T08:31:50Z</time>
      </trkpt>
      <trkpt lat="49.19195" lon="1.20725">
        <ele>138.5</ele>
        <time>2015-05-31T08:31:52Z</time>
      </trkpt>
      <trkpt lat="49.19206" lon="1.2073">
        <ele>138.5</ele>
        <time>2015-05-31T08:31:54Z</time>
      </trkpt>
      <trkpt lat="49.19216" lon="1.20739">
        <ele>138.4</ele>
        <time>2015-05-31T08:31:57Z</time>
      </trkpt>
      <trkpt lat="49.19225" lon="1.20746">
        <ele>138.3</ele>
        <time>2015-05-31T08:31:59Z</time>
      </trkpt>
      <trkpt lat="49.19238" lon="1.20754">
        <ele>138.1</ele>
        <time>2015-05-31T08:32:02Z</time>
      </trkpt>
      <trkpt lat="49.19248" lon="1.20766">
        <ele>138</ele>
        <time>2015-05-31T08:32:05Z</time>
      </trkpt>
      <trkpt lat="49.19257" lon="1.20773">
        <ele>137.9</ele>
        <time>2015-05-31T08:32:07Z</time>
      </trkpt>
      <trkpt lat="49.19268" lon="1.20782">
        <ele>137.8</ele>
        <time>2015-05-31T08:32:09Z</time>
      </trkpt>
      <trkpt lat="49.19278" lon="1.20788">
        <ele>137.7</ele>
        <time>2015-05-31T08:32:11Z</time>
      </trkpt>
      <trkpt lat="49.19286" lon="1.20792">
        <ele>137.6</ele>
        <time>2015-05-31T08:32:13Z</time>
      </trkpt>
      <trkpt lat="49.19298" lon="1.208">
        <ele>137.5</ele>
        <time>2015-05-31T08:32:15Z</time>
      </trkpt>
      <trkpt lat="49.1931" lon="1.20808">
        <ele>137.5</ele>
        <time>2015-05-31T08:32:17Z</time>
      </trkpt>
      <trkpt lat="49.19325" lon="1.20815">
        <ele>137.4</ele>
        <time>2015-05-31T08:32:19Z</time>
      </trkpt>
      <trkpt lat="49.19335" lon="1.20825">
        <ele>137.4</ele>
        <time>2015-05-31T08:32:21Z</time>
      </trkpt>
      <trkpt lat="49.19345" lon="1.20836">
        <ele>137.3</ele>
        <time>2015-05-31T08:32:24Z</time>
      </trkpt>
      <trkpt lat="49.19353" lon="1.20842">
        <ele>137.2</ele>
        <time>2015-05-31T08:32:26Z</time>
      </trkpt>
      <trkpt lat="49.19361" lon="1.20849">
        <ele>137.1</ele>
        <time>2015-05-31T08:32:28Z</time>
      </trkpt>
      <trkpt lat="49.1937" lon="1.20857">
        <ele>137</ele>
        <time>2015-05-31T08:32:30Z</time>
      </trkpt>
      <trkpt lat="49.19378" lon="1.20864">
        <ele>136.9</ele>
        <time>2015-05-31T08:32:32Z</time>
      </trkpt>
      <trkpt lat="49.19387" lon="1.20871">
        <ele>136.8</ele>
        <time>2015-05-31T08:32:34Z</time>
      </trkpt>
      <trkpt lat="49.19395" lon="1.20877">
        <ele>136.8</ele>
        <time>2015-05-31T08:32:36Z</time>
      </trkpt>
      <trkpt lat="49.19405" lon="1.20882">
        <ele>136.7</ele>
        <time>2015-05-31T08:32:38Z</time>
      </trkpt>
      <trkpt lat="49.19414" lon="1.20882">
        <ele>136.7</ele>
        <time>2015-05-31T08:32:40Z</time>
      </trkpt>
      <trkpt lat="49.19423" lon="1.20881">
        <ele>136.6</ele>
        <time>2015-05-31T08:32:42Z</time>
      </trkpt>
      <trkpt lat="49.19436" lon="1.20881">
        <ele>136.5</ele>
        <time>2015-05-31T08:32:45Z</time>
      </trkpt>
      <trkpt lat="49.19446" lon="1.20883">
        <ele>136.4</ele>
        <time>2015-05-31T08:32:47Z</time>
      </trkpt>
      <trkpt lat="49.19459" lon="1.20882">
        <ele>136.4</ele>
        <time>2015-05-31T08:32:49Z</time>
      </trkpt>
      <trkpt lat="49.19471" lon="1.20882">
        <ele>136.4</ele>
        <time>2015-05-31T08:32:51Z</time>
      </trkpt>
      <trkpt lat="49.19485" lon="1.20881">
        <ele>136.4</ele>
        <time>2015-05-31T08:32:53Z</time>
      </trkpt>
      <trkpt lat="49.19498" lon="1.20881">
        <ele>136.4</ele>
        <time>2015-05-31T08:32:55Z</time>
      </trkpt>
      <trkpt lat="49.19508" lon="1.20885">
        <ele>136.4</ele>
        <time>2015-05-31T08:32:57Z</time>
      </trkpt>
      <trkpt lat="49.19519" lon="1.20888">
        <ele>136.4</ele>
        <time>2015-05-31T08:32:59Z</time>
      </trkpt>
      <trkpt lat="49.1953" lon="1.2089">
        <ele>136.5</ele>
        <time>2015-05-31T08:33:01Z</time>
      </trkpt>
      <trkpt lat="49.19542" lon="1.20893">
        <ele>136.5</ele>
        <time>2015-05-31T08:33:03Z</time>
      </trkpt>
      <trkpt lat="49.19556" lon="1.20896">
        <ele>136.6</ele>
        <time>2015-05-31T08:33:05Z</time>
      </trkpt>
      <trkpt lat="49.19572" lon="1.20896">
        <ele>136.7</ele>
        <time>2015-05-31T08:33:07Z</time>
      </trkpt>
      <trkpt lat="49.19586" lon="1.20894">
        <ele>136.8</ele>
        <time>2015-05-31T08:33:09Z</time>
      </trkpt>
      <trkpt lat="49.19597" lon="1.20891">
        <ele>136.9</ele>
        <time>2015-05-31T08:33:11Z</time>
      </trkpt>
      <trkpt lat="49.19607" lon="1.20887">
        <ele>137</ele>
        <time>2015-05-31T08:33:15Z</time>
      </trkpt>
      <trkpt lat="49.19615" lon="1.20892">
        <ele>137.4</ele>
        <time>2015-05-31T08:33:53Z</time>
      </trkpt>
      <trkpt lat="49.19625" lon="1.20887">
        <ele>137.4</ele>
        <time>2015-05-31T08:33:58Z</time>
      </trkpt>
      <trkpt lat="49.19638" lon="1.20886">
        <ele>137.4</ele>
        <time>2015-05-31T08:34:01Z</time>
      </trkpt>
      <trkpt lat="49.19647" lon="1.20887">
        <ele>137.6</ele>
        <time>2015-05-31T08:34:03Z</time>
      </trkpt>
      <trkpt lat="49.19657" lon="1.20887">
        <ele>137.7</ele>
        <time>2015-05-31T08:34:05Z</time>
      </trkpt>
      <trkpt lat="49.19667" lon="1.20888">
        <ele>137.8</ele>
        <time>2015-05-31T08:34:07Z</time>
      </trkpt>
      <trkpt lat="49.19677" lon="1.2089">
        <ele>137.9</ele>
        <time>2015-05-31T08:34:09Z</time>
      </trkpt>
      <trkpt lat="49.19688" lon="1.20891">
        <ele>137.9</ele>
        <time>2015-05-31T08:34:11Z</time>
      </trkpt>
      <trkpt lat="49.19698" lon="1.20892">
        <ele>138</ele>
        <time>2015-05-31T08:34:13Z</time>
      </trkpt>
      <trkpt lat="49.19708" lon="1.20894">
        <ele>138</ele>
        <time>2015-05-31T08:34:15Z</time>
      </trkpt>
      <trkpt lat="49.19718" lon="1.20896">
        <ele>138</ele>
        <time>2015-05-31T08:34:17Z</time>
      </trkpt>
      <trkpt lat="49.19728" lon="1.209">
        <ele>138.1</ele>
        <time>2015-05-31T08:34:19Z</time>
      </trkpt>
      <trkpt lat="49.19738" lon="1.20906">
        <ele>138.1</ele>
        <time>2015-05-31T08:34:21Z</time>
      </trkpt>
      <trkpt lat="49.19747" lon="1.20911">
        <ele>138.2</ele>
        <time>2015-05-31T08:34:23Z</time>
      </trkpt>
      <trkpt lat="49.19756" lon="1.20917">
        <ele>138.3</ele>
        <time>2015-05-31T08:34:25Z</time>
      </trkpt>
      <trkpt lat="49.19767" lon="1.20924">
        <ele>138.5</ele>
        <time>2015-05-31T08:34:28Z</time>
      </trkpt>
      <trkpt lat="49.19777" lon="1.20931">
        <ele>138.6</ele>
        <time>2015-05-31T08:34:31Z</time>
      </trkpt>
      <trkpt lat="49.19786" lon="1.20938">
        <ele>138.7</ele>
        <time>2015-05-31T08:34:34Z</time>
      </trkpt>
      <trkpt lat="49.19791" lon="1.20949">
        <ele>138.7</ele>
        <time>2015-05-31T08:34:38Z</time>
      </trkpt>
      <trkpt lat="49.198" lon="1.20961">
        <ele>138.8</ele>
        <time>2015-05-31T08:34:41Z</time>
      </trkpt>
      <trkpt lat="49.1981" lon="1.2097">
        <ele>138.8</ele>
        <time>2015-05-31T08:34:44Z</time>
      </trkpt>
      <trkpt lat="49.19821" lon="1.20984">
        <ele>138.8</ele>
        <time>2015-05-31T08:34:47Z</time>
      </trkpt>
      <trkpt lat="49.19828" lon="1.20995">
        <ele>138.9</ele>
        <time>2015-05-31T08:34:49Z</time>
      </trkpt>
      <trkpt lat="49.19836" lon="1.21006">
        <ele>139</ele>
        <time>2015-05-31T08:34:51Z</time>
      </trkpt>
      <trkpt lat="49.19843" lon="1.21017">
        <ele>139.2</ele>
        <time>2015-05-31T08:34:53Z</time>
      </trkpt>
      <trkpt lat="49.19851" lon="1.21028">
        <ele>139.3</ele>
        <time>2015-05-31T08:34:55Z</time>
      </trkpt>
      <trkpt lat="49.19859" lon="1.21039">
        <ele>139.4</ele>
        <time>2015-05-31T08:34:57Z</time>
      </trkpt>
      <trkpt lat="49.19867" lon="1.2105">
        <ele>139.5</ele>
        <time>2015-05-31T08:34:59Z</time>
      </trkpt>
      <trkpt lat="49.19875" lon="1.21061">
        <ele>139.3</ele>
        <time>2015-05-31T08:35:01Z</time>
      </trkpt>
      <trkpt lat="49.19884" lon="1.21073">
        <ele>139.5</ele>
        <time>2015-05-31T08:35:03Z</time>
      </trkpt>
      <trkpt lat="49.19892" lon="1.21084">
        <ele>139.7</ele>
        <time>2015-05-31T08:35:05Z</time>
      </trkpt>
      <trkpt lat="49.199" lon="1.21096">
        <ele>139.9</ele>
        <time>2015-05-31T08:35:07Z</time>
      </trkpt>
      <trkpt lat="49.19908" lon="1.21107">
        <ele>140.2</ele>
        <time>2015-05-31T08:35:09Z</time>
      </trkpt>
      <trkpt lat="49.19917" lon="1.21119">
        <ele>140.4</ele>
        <time>2015-05-31T08:35:11Z</time>
      </trkpt>
      <trkpt lat="49.19924" lon="1.21131">
        <ele>140.6</ele>
        <time>2015-05-31T08:35:13Z</time>
      </trkpt>
      <trkpt lat="49.19932" lon="1.21142">
        <ele>140.9</ele>
        <time>2015-05-31T08:35:15Z</time>
      </trkpt>
      <trkpt lat="49.1994" lon="1.21154">
        <ele>141.2</ele>
        <time>2015-05-31T08:35:17Z</time>
      </trkpt>
      <trkpt lat="49.19948" lon="1.21166">
        <ele>141.5</ele>
        <time>2015-05-31T08:35:19Z</time>
      </trkpt>
      <trkpt lat="49.19956" lon="1.21178">
        <ele>141.8</ele>
        <time>2015-05-31T08:35:21Z</time>
      </trkpt>
      <trkpt lat="49.19964" lon="1.2119">
        <ele>142.1</ele>
        <time>2015-05-31T08:35:23Z</time>
      </trkpt>
      <trkpt lat="49.19972" lon="1.21201">
        <ele>142.4</ele>
        <time>2015-05-31T08:35:25Z</time>
      </trkpt>
      <trkpt lat="49.19979" lon="1.21213">
        <ele>142.7</ele>
        <time>2015-05-31T08:35:27Z</time>
      </trkpt>
      <trkpt lat="49.19987" lon="1.21224">
        <ele>143</ele>
        <time>2015-05-31T08:35:29Z</time>
      </trkpt>
      <trkpt lat="49.19995" lon="1.21234">
        <ele>143.4</ele>
        <time>2015-05-31T08:35:31Z</time>
      </trkpt>
      <trkpt lat="49.20003" lon="1.21244">
        <ele>143.7</ele>
        <time>2015-05-31T08:35:33Z</time>
      </trkpt>
      <trkpt lat="49.20012" lon="1.21255">
        <ele>144.1</ele>
        <time>2015-05-31T08:35:35Z</time>
      </trkpt>
      <trkpt lat="49.2002" lon="1.21265">
        <ele>144.5</ele>
        <time>2015-05-31T08:35:37Z</time>
      </trkpt>
      <trkpt lat="49.20029" lon="1.21275">
        <ele>144.8</ele>
        <time>2015-05-31T08:35:39Z</time>
      </trkpt>
      <trkpt lat="49.20039" lon="1.21285">
        <ele>145.2</ele>
        <time>2015-05-31T08:35:41Z</time>
      </trkpt>
      <trkpt lat="49.20048" lon="1.21294">
        <ele>145.4</ele>
        <time>2015-05-31T08:35:43Z</time>
      </trkpt>
      <trkpt lat="49.20058" lon="1.21304">
        <ele>145.7</ele>
        <time>2015-05-31T08:35:45Z</time>
      </trkpt>
      <trkpt lat="49.20068" lon="1.21314">
        <ele>146</ele>
        <time>2015-05-31T08:35:47Z</time>
      </trkpt>
      <trkpt lat="49.20079" lon="1.21323">
        <ele>146.2</ele>
        <time>2015-05-31T08:35:49Z</time>
      </trkpt>
      <trkpt lat="49.2009" lon="1.21333">
        <ele>146.5</ele>
        <time>2015-05-31T08:35:51Z</time>
      </trkpt>
      <trkpt lat="49.20101" lon="1.21342">
        <ele>146.8</ele>
        <time>2015-05-31T08:35:53Z</time>
      </trkpt>
      <trkpt lat="49.20112" lon="1.21351">
        <ele>147</ele>
        <time>2015-05-31T08:35:55Z</time>
      </trkpt>
      <trkpt lat="49.20123" lon="1.21361">
        <ele>147.3</ele>
        <time>2015-05-31T08:35:57Z</time>
      </trkpt>
      <trkpt lat="49.20134" lon="1.2137">
        <ele>147.5</ele>
        <time>2015-05-31T08:35:59Z</time>
      </trkpt>
      <trkpt lat="49.20145" lon="1.2138">
        <ele>147.7</ele>
        <time>2015-05-31T08:36:01Z</time>
      </trkpt>
      <trkpt lat="49.20157" lon="1.2139">
        <ele>147.8</ele>
        <time>2015-05-31T08:36:03Z</time>
      </trkpt>
      <trkpt lat="49.20168" lon="1.214">
        <ele>148</ele>
        <time>2015-05-31T08:36:05Z</time>
      </trkpt>
      <trkpt lat="49.2018" lon="1.2141">
        <ele>148.1</ele>
        <time>2015-05-31T08:36:07Z</time>
      </trkpt>
      <trkpt lat="49.20191" lon="1.2142">
        <ele>148.2</ele>
        <time>2015-05-31T08:36:09Z</time>
      </trkpt>
      <trkpt lat="49.20203" lon="1.21431">
        <ele>148.3</ele>
        <time>2015-05-31T08:36:11Z</time>
      </trkpt>
      <trkpt lat="49.20215" lon="1.21442">
        <ele>148.4</ele>
        <time>2015-05-31T08:36:13Z</time>
      </trkpt>
      <trkpt lat="49.20227" lon="1.21453">
        <ele>148.5</ele>
        <time>2015-05-31T08:36:15Z</time>
      </trkpt>
      <trkpt lat="49.20238" lon="1.21465">
        <ele>148.5</ele>
        <time>2015-05-31T08:36:17Z</time>
      </trkpt>
      <trkpt lat="49.20249" lon="1.21477">
        <ele>148.6</ele>
        <time>2015-05-31T08:36:19Z</time>
      </trkpt>
      <trkpt lat="49.20259" lon="1.21489">
        <ele>148.6</ele>
        <time>2015-05-31T08:36:21Z</time>
      </trkpt>
      <trkpt lat="49.2027" lon="1.21502">
        <ele>148.7</ele>
        <time>2015-05-31T08:36:23Z</time>
      </trkpt>
      <trkpt lat="49.2028" lon="1.21514">
        <ele>148.7</ele>
        <time>2015-05-31T08:36:25Z</time>
      </trkpt>
      <trkpt lat="49.20291" lon="1.21526">
        <ele>148.8</ele>
        <time>2015-05-31T08:36:27Z</time>
      </trkpt>
      <trkpt lat="49.20302" lon="1.21538">
        <ele>148.8</ele>
        <time>2015-05-31T08:36:29Z</time>
      </trkpt>
      <trkpt lat="49.20313" lon="1.21551">
        <ele>148.8</ele>
        <time>2015-05-31T08:36:31Z</time>
      </trkpt>
      <trkpt lat="49.20324" lon="1.21563">
        <ele>148.8</ele>
        <time>2015-05-31T08:36:33Z</time>
      </trkpt>
      <trkpt lat="49.20335" lon="1.21575">
        <ele>148.9</ele>
        <time>2015-05-31T08:36:35Z</time>
      </trkpt>
      <trkpt lat="49.20347" lon="1.21587">
        <ele>148.9</ele>
        <time>2015-05-31T08:36:37Z</time>
      </trkpt>
      <trkpt lat="49.20359" lon="1.216">
        <ele>148.9</ele>
        <time>2015-05-31T08:36:39Z</time>
      </trkpt>
      <trkpt lat="49.2037" lon="1.21612">
        <ele>148.9</ele>
        <time>2015-05-31T08:36:41Z</time>
      </trkpt>
      <trkpt lat="49.20382" lon="1.21625">
        <ele>148.9</ele>
        <time>2015-05-31T08:36:43Z</time>
      </trkpt>
      <trkpt lat="49.20394" lon="1.21637">
        <ele>148.9</ele>
        <time>2015-05-31T08:36:45Z</time>
      </trkpt>
      <trkpt lat="49.20405" lon="1.2165">
        <ele>148.9</ele>
        <time>2015-05-31T08:36:47Z</time>
      </trkpt>
      <trkpt lat="49.20417" lon="1.21663">
        <ele>149</ele>
        <time>2015-05-31T08:36:49Z</time>
      </trkpt>
      <trkpt lat="49.20429" lon="1.21676">
        <ele>149</ele>
        <time>2015-05-31T08:36:51Z</time>
      </trkpt>
      <trkpt lat="49.20441" lon="1.21689">
        <ele>149</ele>
        <time>2015-05-31T08:36:53Z</time>
      </trkpt>
      <trkpt lat="49.20453" lon="1.21703">
        <ele>149</ele>
        <time>2015-05-31T08:36:55Z</time>
      </trkpt>
      <trkpt lat="49.20466" lon="1.21716">
        <ele>149</ele>
        <time>2015-05-31T08:36:57Z</time>
      </trkpt>
      <trkpt lat="49.20478" lon="1.2173">
        <ele>149</ele>
        <time>2015-05-31T08:36:59Z</time>
      </trkpt>
      <trkpt lat="49.20491" lon="1.21743">
        <ele>149</ele>
        <time>2015-05-31T08:37:01Z</time>
      </trkpt>
      <trkpt lat="49.20503" lon="1.21756">
        <ele>149</ele>
        <time>2015-05-31T08:37:03Z</time>
      </trkpt>
      <trkpt lat="49.20516" lon="1.21768">
        <ele>149</ele>
        <time>2015-05-31T08:37:05Z</time>
      </trkpt>
      <trkpt lat="49.20529" lon="1.21781">
        <ele>149</ele>
        <time>2015-05-31T08:37:07Z</time>
      </trkpt>
      <trkpt lat="49.20542" lon="1.21793">
        <ele>149</ele>
        <time>2015-05-31T08:37:09Z</time>
      </trkpt>
      <trkpt lat="49.20555" lon="1.21805">
        <ele>149</ele>
        <time>2015-05-31T08:37:11Z</time>
      </trkpt>
      <trkpt lat="49.20568" lon="1.21817">
        <ele>149</ele>
        <time>2015-05-31T08:37:13Z</time>
      </trkpt>
      <trkpt lat="49.20581" lon="1.21828">
        <ele>149</ele>
        <time>2015-05-31T08:37:15Z</time>
      </trkpt>
      <trkpt lat="49.20593" lon="1.21835">
        <ele>148.9</ele>
        <time>2015-05-31T08:37:17Z</time>
      </trkpt>
      <trkpt lat="49.20603" lon="1.21838">
        <ele>148.8</ele>
        <time>2015-05-31T08:37:19Z</time>
      </trkpt>
      <trkpt lat="49.20612" lon="1.21829">
        <ele>148.7</ele>
        <time>2015-05-31T08:37:22Z</time>
      </trkpt>
      <trkpt lat="49.20613" lon="1.2181">
        <ele>148.7</ele>
        <time>2015-05-31T08:37:25Z</time>
      </trkpt>
      <trkpt lat="49.20611" lon="1.21794">
        <ele>148.6</ele>
        <time>2015-05-31T08:37:27Z</time>
      </trkpt>
      <trkpt lat="49.2061" lon="1.21778">
        <ele>148.6</ele>
        <time>2015-05-31T08:37:29Z</time>
      </trkpt>
      <trkpt lat="49.20608" lon="1.2176">
        <ele>148.5</ele>
        <time>2015-05-31T08:37:31Z</time>
      </trkpt>
      <trkpt lat="49.20604" lon="1.21741">
        <ele>148.5</ele>
        <time>2015-05-31T08:37:33Z</time>
      </trkpt>
      <trkpt lat="49.20601" lon="1.21722">
        <ele>148.5</ele>
        <time>2015-05-31T08:37:35Z</time>
      </trkpt>
      <trkpt lat="49.20598" lon="1.21703">
        <ele>148.4</ele>
        <time>2015-05-31T08:37:37Z</time>
      </trkpt>
      <trkpt lat="49.20594" lon="1.21683">
        <ele>148.4</ele>
        <time>2015-05-31T08:37:39Z</time>
      </trkpt>
      <trkpt lat="49.20589" lon="1.21664">
        <ele>148.4</ele>
        <time>2015-05-31T08:37:41Z</time>
      </trkpt>
      <trkpt lat="49.20584" lon="1.21644">
        <ele>148.4</ele>
        <time>2015-05-31T08:37:43Z</time>
      </trkpt>
      <trkpt lat="49.2058" lon="1.21624">
        <ele>148.3</ele>
        <time>2015-05-31T08:37:45Z</time>
      </trkpt>
      <trkpt lat="49.20575" lon="1.21604">
        <ele>148.3</ele>
        <time>2015-05-31T08:37:47Z</time>
      </trkpt>
      <trkpt lat="49.2057" lon="1.21584">
        <ele>148.2</ele>
        <time>2015-05-31T08:37:49Z</time>
      </trkpt>
      <trkpt lat="49.20565" lon="1.21564">
        <ele>148.1</ele>
        <time>2015-05-31T08:37:51Z</time>
      </trkpt>
      <trkpt lat="49.2056" lon="1.21545">
        <ele>148</ele>
        <time>2015-05-31T08:37:53Z</time>
      </trkpt>
      <trkpt lat="49.20561" lon="1.21529">
        <ele>147.8</ele>
        <time>2015-05-31T08:37:55Z</time>
      </trkpt>
      <trkpt lat="49.20567" lon="1.21516">
        <ele>147.6</ele>
        <time>2015-05-31T08:37:57Z</time>
      </trkpt>
      <trkpt lat="49.20574" lon="1.215">
        <ele>147.3</ele>
        <time>2015-05-31T08:37:59Z</time>
      </trkpt>
      <trkpt lat="49.2058" lon="1.21482">
        <ele>147.1</ele>
        <time>2015-05-31T08:38:01Z</time>
      </trkpt>
      <trkpt lat="49.20587" lon="1.21463">
        <ele>146.9</ele>
        <time>2015-05-31T08:38:03Z</time>
      </trkpt>
      <trkpt lat="49.20595" lon="1.21444">
        <ele>146.6</ele>
        <time>2015-05-31T08:38:05Z</time>
      </trkpt>
      <trkpt lat="49.20604" lon="1.21427">
        <ele>146.4</ele>
        <time>2015-05-31T08:38:07Z</time>
      </trkpt>
      <trkpt lat="49.20613" lon="1.21409">
        <ele>146.1</ele>
        <time>2015-05-31T08:38:09Z</time>
      </trkpt>
      <trkpt lat="49.20623" lon="1.21393">
        <ele>145.8</ele>
        <time>2015-05-31T08:38:11Z</time>
      </trkpt>
      <trkpt lat="49.20633" lon="1.21377">
        <ele>145.5</ele>
        <time>2015-05-31T08:38:13Z</time>
      </trkpt>
      <trkpt lat="49.20643" lon="1.21361">
        <ele>145.3</ele>
        <time>2015-05-31T08:38:15Z</time>
      </trkpt>
      <trkpt lat="49.20653" lon="1.21345">
        <ele>145</ele>
        <time>2015-05-31T08:38:17Z</time>
      </trkpt>
      <trkpt lat="49.20664" lon="1.21329">
        <ele>144.7</ele>
        <time>2015-05-31T08:38:19Z</time>
      </trkpt>
      <trkpt lat="49.20674" lon="1.21313">
        <ele>144.3</ele>
        <time>2015-05-31T08:38:21Z</time>
      </trkpt>
      <trkpt lat="49.20685" lon="1.21297">
        <ele>144</ele>
        <time>2015-05-31T08:38:23Z</time>
      </trkpt>
      <trkpt lat="49.20696" lon="1.21281">
        <ele>143.6</ele>
        <time>2015-05-31T08:38:25Z</time>
      </trkpt>
      <trkpt lat="49.20706" lon="1.21265">
        <ele>143.4</ele>
        <time>2015-05-31T08:38:27Z</time>
      </trkpt>
      <trkpt lat="49.20717" lon="1.21249">
        <ele>143.1</ele>
        <time>2015-05-31T08:38:29Z</time>
      </trkpt>
      <trkpt lat="49.20727" lon="1.21232">
        <ele>142.9</ele>
        <time>2015-05-31T08:38:31Z</time>
      </trkpt>
      <trkpt lat="49.20736" lon="1.21215">
        <ele>142.6</ele>
        <time>2015-05-31T08:38:33Z</time>
      </trkpt>
      <trkpt lat="49.20744" lon="1.21199">
        <ele>142.3</ele>
        <time>2015-05-31T08:38:35Z</time>
      </trkpt>
      <trkpt lat="49.20752" lon="1.21181">
        <ele>142</ele>
        <time>2015-05-31T08:38:37Z</time>
      </trkpt>
      <trkpt lat="49.20758" lon="1.2116">
        <ele>141.7</ele>
        <time>2015-05-31T08:38:39Z</time>
      </trkpt>
      <trkpt lat="49.20762" lon="1.21136">
        <ele>141.5</ele>
        <time>2015-05-31T08:38:41Z</time>
      </trkpt>
      <trkpt lat="49.20765" lon="1.21113">
        <ele>141.1</ele>
        <time>2015-05-31T08:38:43Z</time>
      </trkpt>
      <trkpt lat="49.20768" lon="1.21088">
        <ele>140.6</ele>
        <time>2015-05-31T08:38:45Z</time>
      </trkpt>
      <trkpt lat="49.20772" lon="1.21065">
        <ele>140.2</ele>
        <time>2015-05-31T08:38:47Z</time>
      </trkpt>
      <trkpt lat="49.20777" lon="1.21043">
        <ele>139.9</ele>
        <time>2015-05-31T08:38:49Z</time>
      </trkpt>
      <trkpt lat="49.20782" lon="1.21022">
        <ele>139.7</ele>
        <time>2015-05-31T08:38:51Z</time>
      </trkpt>
      <trkpt lat="49.20787" lon="1.21001">
        <ele>139.4</ele>
        <time>2015-05-31T08:38:53Z</time>
      </trkpt>
      <trkpt lat="49.20793" lon="1.2098">
        <ele>139.2</ele>
        <time>2015-05-31T08:38:55Z</time>
      </trkpt>
      <trkpt lat="49.20798" lon="1.2096">
        <ele>139</ele>
        <time>2015-05-31T08:38:57Z</time>
      </trkpt>
      <trkpt lat="49.20803" lon="1.20939">
        <ele>138.8</ele>
        <time>2015-05-31T08:38:59Z</time>
      </trkpt>
      <trkpt lat="49.20807" lon="1.20919">
        <ele>138.6</ele>
        <time>2015-05-31T08:39:01Z</time>
      </trkpt>
      <trkpt lat="49.20812" lon="1.20899">
        <ele>138.4</ele>
        <time>2015-05-31T08:39:03Z</time>
      </trkpt>
      <trkpt lat="49.20817" lon="1.2088">
        <ele>138.2</ele>
        <time>2015-05-31T08:39:05Z</time>
      </trkpt>
      <trkpt lat="49.20821" lon="1.20861">
        <ele>138</ele>
        <time>2015-05-31T08:39:07Z</time>
      </trkpt>
      <trkpt lat="49.20826" lon="1.20842">
        <ele>137.8</ele>
        <time>2015-05-31T08:39:09Z</time>
      </trkpt>
      <trkpt lat="49.20831" lon="1.20822">
        <ele>137.6</ele>
        <time>2015-05-31T08:39:11Z</time>
      </trkpt>
      <trkpt lat="49.20835" lon="1.20803">
        <ele>137.5</ele>
        <time>2015-05-31T08:39:13Z</time>
      </trkpt>
      <trkpt lat="49.2084" lon="1.20783">
        <ele>137.3</ele>
        <time>2015-05-31T08:39:15Z</time>
      </trkpt>
      <trkpt lat="49.20845" lon="1.20763">
        <ele>137.2</ele>
        <time>2015-05-31T08:39:17Z</time>
      </trkpt>
      <trkpt lat="49.2085" lon="1.20744">
        <ele>136.9</ele>
        <time>2015-05-31T08:39:19Z</time>
      </trkpt>
      <trkpt lat="49.20854" lon="1.20724">
        <ele>136.7</ele>
        <time>2015-05-31T08:39:21Z</time>
      </trkpt>
      <trkpt lat="49.20856" lon="1.20702">
        <ele>136.5</ele>
        <time>2015-05-31T08:39:23Z</time>
      </trkpt>
      <trkpt lat="49.20857" lon="1.2068">
        <ele>136.3</ele>
        <time>2015-05-31T08:39:25Z</time>
      </trkpt>
      <trkpt lat="49.20858" lon="1.20658">
        <ele>136.2</ele>
        <time>2015-05-31T08:39:27Z</time>
      </trkpt>
      <trkpt lat="49.20859" lon="1.20643">
        <ele>136</ele>
        <time>2015-05-31T08:39:29Z</time>
      </trkpt>
      <trkpt lat="49.20869" lon="1.20636">
        <ele>135.3</ele>
        <time>2015-05-31T08:39:33Z</time>
      </trkpt>
      <trkpt lat="49.20881" lon="1.20632">
        <ele>134.9</ele>
        <time>2015-05-31T08:39:36Z</time>
      </trkpt>
      <trkpt lat="49.2089" lon="1.20628">
        <ele>134.6</ele>
        <time>2015-05-31T08:39:38Z</time>
      </trkpt>
      <trkpt lat="49.209" lon="1.20625">
        <ele>134.3</ele>
        <time>2015-05-31T08:39:40Z</time>
      </trkpt>
      <trkpt lat="49.2091" lon="1.20619">
        <ele>133.9</ele>
        <time>2015-05-31T08:39:42Z</time>
      </trkpt>
      <trkpt lat="49.2092" lon="1.20612">
        <ele>133.5</ele>
        <time>2015-05-31T08:39:44Z</time>
      </trkpt>
      <trkpt lat="49.20928" lon="1.20608">
        <ele>133.1</ele>
        <time>2015-05-31T08:39:46Z</time>
      </trkpt>
      <trkpt lat="49.20936" lon="1.20597">
        <ele>132.2</ele>
        <time>2015-05-31T08:39:50Z</time>
      </trkpt>
      <trkpt lat="49.20943" lon="1.20584">
        <ele>131.2</ele>
        <time>2015-05-31T08:39:55Z</time>
      </trkpt>
      <trkpt lat="49.2095" lon="1.20573">
        <ele>130.1</ele>
        <time>2015-05-31T08:40:01Z</time>
      </trkpt>
      <trkpt lat="49.20958" lon="1.20565">
        <ele>129</ele>
        <time>2015-05-31T08:40:07Z</time>
      </trkpt>
      <trkpt lat="49.20969" lon="1.20554">
        <ele>128.2</ele>
        <time>2015-05-31T08:40:12Z</time>
      </trkpt>
      <trkpt lat="49.20979" lon="1.20544">
        <ele>127.6</ele>
        <time>2015-05-31T08:40:15Z</time>
      </trkpt>
      <trkpt lat="49.2099" lon="1.20529">
        <ele>126.8</ele>
        <time>2015-05-31T08:40:18Z</time>
      </trkpt>
      <trkpt lat="49.20998" lon="1.20523">
        <ele>126.1</ele>
        <time>2015-05-31T08:40:20Z</time>
      </trkpt>
      <trkpt lat="49.21009" lon="1.20512">
        <ele>124.9</ele>
        <time>2015-05-31T08:40:23Z</time>
      </trkpt>
      <trkpt lat="49.21017" lon="1.20502">
        <ele>123.8</ele>
        <time>2015-05-31T08:40:25Z</time>
      </trkpt>
      <trkpt lat="49.21025" lon="1.20489">
        <ele>122.2</ele>
        <time>2015-05-31T08:40:28Z</time>
      </trkpt>
      <trkpt lat="49.21035" lon="1.2048">
        <ele>120.6</ele>
        <time>2015-05-31T08:40:31Z</time>
      </trkpt>
      <trkpt lat="49.21043" lon="1.20475">
        <ele>120</ele>
        <time>2015-05-31T08:40:32Z</time>
      </trkpt>
      <trkpt lat="49.21056" lon="1.20463">
        <ele>118.7</ele>
        <time>2015-05-31T08:40:34Z</time>
      </trkpt>
      <trkpt lat="49.2107" lon="1.20449">
        <ele>117.4</ele>
        <time>2015-05-31T08:40:36Z</time>
      </trkpt>
      <trkpt lat="49.21077" lon="1.20439">
        <ele>116.8</ele>
        <time>2015-05-31T08:40:37Z</time>
      </trkpt>
      <trkpt lat="49.21085" lon="1.2043">
        <ele>116.2</ele>
        <time>2015-05-31T08:40:38Z</time>
      </trkpt>
      <trkpt lat="49.21092" lon="1.20421">
        <ele>115.6</ele>
        <time>2015-05-31T08:40:39Z</time>
      </trkpt>
      <trkpt lat="49.21105" lon="1.20404">
        <ele>114.4</ele>
        <time>2015-05-31T08:40:41Z</time>
      </trkpt>
      <trkpt lat="49.21118" lon="1.20389">
        <ele>113.3</ele>
        <time>2015-05-31T08:40:43Z</time>
      </trkpt>
      <trkpt lat="49.2113" lon="1.20374">
        <ele>112.3</ele>
        <time>2015-05-31T08:40:45Z</time>
      </trkpt>
      <trkpt lat="49.21141" lon="1.2036">
        <ele>111.4</ele>
        <time>2015-05-31T08:40:47Z</time>
      </trkpt>
      <trkpt lat="49.2115" lon="1.20354">
        <ele>110.2</ele>
        <time>2015-05-31T08:40:50Z</time>
      </trkpt>
      <trkpt lat="49.21153" lon="1.20372">
        <ele>108.9</ele>
        <time>2015-05-31T08:40:54Z</time>
      </trkpt>
      <trkpt lat="49.21155" lon="1.20391">
        <ele>108.1</ele>
        <time>2015-05-31T08:40:57Z</time>
      </trkpt>
      <trkpt lat="49.21157" lon="1.20411">
        <ele>107.5</ele>
        <time>2015-05-31T08:41:00Z</time>
      </trkpt>
      <trkpt lat="49.21159" lon="1.20431">
        <ele>106.8</ele>
        <time>2015-05-31T08:41:03Z</time>
      </trkpt>
      <trkpt lat="49.21161" lon="1.20448">
        <ele>106.2</ele>
        <time>2015-05-31T08:41:06Z</time>
      </trkpt>
      <trkpt lat="49.21164" lon="1.20465">
        <ele>105.9</ele>
        <time>2015-05-31T08:41:09Z</time>
      </trkpt>
      <trkpt lat="49.21166" lon="1.20483">
        <ele>105.7</ele>
        <time>2015-05-31T08:41:12Z</time>
      </trkpt>
      <trkpt lat="49.21169" lon="1.205">
        <ele>105.5</ele>
        <time>2015-05-31T08:41:15Z</time>
      </trkpt>
      <trkpt lat="49.21171" lon="1.20518">
        <ele>105.5</ele>
        <time>2015-05-31T08:41:18Z</time>
      </trkpt>
      <trkpt lat="49.21173" lon="1.20536">
        <ele>105.5</ele>
        <time>2015-05-31T08:41:21Z</time>
      </trkpt>
      <trkpt lat="49.21176" lon="1.20554">
        <ele>105.5</ele>
        <time>2015-05-31T08:41:24Z</time>
      </trkpt>
      <trkpt lat="49.21178" lon="1.20572">
        <ele>105.5</ele>
        <time>2015-05-31T08:41:27Z</time>
      </trkpt>
      <trkpt lat="49.21179" lon="1.2059">
        <ele>105.5</ele>
        <time>2015-05-31T08:41:30Z</time>
      </trkpt>
      <trkpt lat="49.2118" lon="1.20606">
        <ele>105.6</ele>
        <time>2015-05-31T08:41:33Z</time>
      </trkpt>
      <trkpt lat="49.2118" lon="1.20621">
        <ele>105.5</ele>
        <time>2015-05-31T08:41:36Z</time>
      </trkpt>
      <trkpt lat="49.21181" lon="1.20635">
        <ele>105.5</ele>
        <time>2015-05-31T08:41:39Z</time>
      </trkpt>
      <trkpt lat="49.21182" lon="1.2065">
        <ele>105.5</ele>
        <time>2015-05-31T08:41:42Z</time>
      </trkpt>
      <trkpt lat="49.21182" lon="1.20666">
        <ele>105.5</ele>
        <time>2015-05-31T08:41:45Z</time>
      </trkpt>
      <trkpt lat="49.21183" lon="1.20681">
        <ele>105.5</ele>
        <time>2015-05-31T08:41:48Z</time>
      </trkpt>
      <trkpt lat="49.21185" lon="1.20696">
        <ele>105.4</ele>
        <time>2015-05-31T08:41:51Z</time>
      </trkpt>
      <trkpt lat="49.21186" lon="1.2071">
        <ele>105.4</ele>
        <time>2015-05-31T08:41:54Z</time>
      </trkpt>
      <trkpt lat="49.21187" lon="1.20723">
        <ele>105.3</ele>
        <time>2015-05-31T08:41:57Z</time>
      </trkpt>
      <trkpt lat="49.2119" lon="1.20738">
        <ele>105.3</ele>
        <time>2015-05-31T08:42:00Z</time>
      </trkpt>
      <trkpt lat="49.21193" lon="1.20753">
        <ele>105.2</ele>
        <time>2015-05-31T08:42:03Z</time>
      </trkpt>
      <trkpt lat="49.21197" lon="1.20765">
        <ele>105.1</ele>
        <time>2015-05-31T08:42:06Z</time>
      </trkpt>
      <trkpt lat="49.21201" lon="1.20781">
        <ele>105.1</ele>
        <time>2015-05-31T08:42:10Z</time>
      </trkpt>
      <trkpt lat="49.21205" lon="1.20794">
        <ele>105</ele>
        <time>2015-05-31T08:42:13Z</time>
      </trkpt>
      <trkpt lat="49.21211" lon="1.20809">
        <ele>105.1</ele>
        <time>2015-05-31T08:42:17Z</time>
      </trkpt>
      <trkpt lat="49.21217" lon="1.20823">
        <ele>105.1</ele>
        <time>2015-05-31T08:42:21Z</time>
      </trkpt>
      <trkpt lat="49.21224" lon="1.20837">
        <ele>105</ele>
        <time>2015-05-31T08:42:25Z</time>
      </trkpt>
      <trkpt lat="49.2123" lon="1.20851">
        <ele>105.9</ele>
        <time>2015-05-31T08:42:29Z</time>
      </trkpt>
      <trkpt lat="49.21236" lon="1.20864">
        <ele>107.1</ele>
        <time>2015-05-31T08:42:32Z</time>
      </trkpt>
      <trkpt lat="49.21241" lon="1.20877">
        <ele>108.1</ele>
        <time>2015-05-31T08:42:35Z</time>
      </trkpt>
      <trkpt lat="49.21245" lon="1.20892">
        <ele>109.5</ele>
        <time>2015-05-31T08:42:39Z</time>
      </trkpt>
      <trkpt lat="49.21252" lon="1.20906">
        <ele>110.7</ele>
        <time>2015-05-31T08:42:43Z</time>
      </trkpt>
      <trkpt lat="49.21255" lon="1.20919">
        <ele>111.5</ele>
        <time>2015-05-31T08:42:46Z</time>
      </trkpt>
      <trkpt lat="49.21259" lon="1.20933">
        <ele>112.2</ele>
        <time>2015-05-31T08:42:49Z</time>
      </trkpt>
      <trkpt lat="49.21263" lon="1.20949">
        <ele>112.8</ele>
        <time>2015-05-31T08:42:52Z</time>
      </trkpt>
      <trkpt lat="49.21266" lon="1.20964">
        <ele>113.5</ele>
        <time>2015-05-31T08:42:55Z</time>
      </trkpt>
      <trkpt lat="49.21269" lon="1.20979">
        <ele>114.1</ele>
        <time>2015-05-31T08:42:58Z</time>
      </trkpt>
      <trkpt lat="49.21271" lon="1.20992">
        <ele>114.7</ele>
        <time>2015-05-31T08:43:01Z</time>
      </trkpt>
      <trkpt lat="49.21273" lon="1.21008">
        <ele>115.5</ele>
        <time>2015-05-31T08:43:05Z</time>
      </trkpt>
      <trkpt lat="49.21275" lon="1.21027">
        <ele>116.2</ele>
        <time>2015-05-31T08:43:09Z</time>
      </trkpt>
      <trkpt lat="49.21276" lon="1.21044">
        <ele>116.8</ele>
        <time>2015-05-31T08:43:13Z</time>
      </trkpt>
      <trkpt lat="49.21277" lon="1.21062">
        <ele>117.4</ele>
        <time>2015-05-31T08:43:17Z</time>
      </trkpt>
      <trkpt lat="49.21279" lon="1.2108">
        <ele>117.9</ele>
        <time>2015-05-31T08:43:21Z</time>
      </trkpt>
      <trkpt lat="49.21279" lon="1.21097">
        <ele>118.5</ele>
        <time>2015-05-31T08:43:25Z</time>
      </trkpt>
      <trkpt lat="49.2128" lon="1.21115">
        <ele>119</ele>
        <time>2015-05-31T08:43:29Z</time>
      </trkpt>
      <trkpt lat="49.21281" lon="1.21133">
        <ele>119.5</ele>
        <time>2015-05-31T08:43:33Z</time>
      </trkpt>
      <trkpt lat="49.21281" lon="1.21148">
        <ele>120</ele>
        <time>2015-05-31T08:43:37Z</time>
      </trkpt>
      <trkpt lat="49.21282" lon="1.21165">
        <ele>120.5</ele>
        <time>2015-05-31T08:43:41Z</time>
      </trkpt>
      <trkpt lat="49.21282" lon="1.21179">
        <ele>120.8</ele>
        <time>2015-05-31T08:43:44Z</time>
      </trkpt>
      <trkpt lat="49.21282" lon="1.21197">
        <ele>121.3</ele>
        <time>2015-05-31T08:43:48Z</time>
      </trkpt>
      <trkpt lat="49.21283" lon="1.21215">
        <ele>121.6</ele>
        <time>2015-05-31T08:43:52Z</time>
      </trkpt>
      <trkpt lat="49.21285" lon="1.21233">
        <ele>122.1</ele>
        <time>2015-05-31T08:43:56Z</time>
      </trkpt>
      <trkpt lat="49.21292" lon="1.21243">
        <ele>122.7</ele>
        <time>2015-05-31T08:44:00Z</time>
      </trkpt>
      <trkpt lat="49.21303" lon="1.21243">
        <ele>123.7</ele>
        <time>2015-05-31T08:44:05Z</time>
      </trkpt>
      <trkpt lat="49.2131" lon="1.21236">
        <ele>124.7</ele>
        <time>2015-05-31T08:44:10Z</time>
      </trkpt>
      <trkpt lat="49.2131" lon="1.21219">
        <ele>125.6</ele>
        <time>2015-05-31T08:44:14Z</time>
      </trkpt>
      <trkpt lat="49.21309" lon="1.21203">
        <ele>126.1</ele>
        <time>2015-05-31T08:44:17Z</time>
      </trkpt>
      <trkpt lat="49.21309" lon="1.21185">
        <ele>126.5</ele>
        <time>2015-05-31T08:44:20Z</time>
      </trkpt>
      <trkpt lat="49.21308" lon="1.21166">
        <ele>126.9</ele>
        <time>2015-05-31T08:44:23Z</time>
      </trkpt>
      <trkpt lat="49.21308" lon="1.21145">
        <ele>127.1</ele>
        <time>2015-05-31T08:44:26Z</time>
      </trkpt>
      <trkpt lat="49.21308" lon="1.21131">
        <ele>127.2</ele>
        <time>2015-05-31T08:44:28Z</time>
      </trkpt>
      <trkpt lat="49.21311" lon="1.21113">
        <ele>127.3</ele>
        <time>2015-05-31T08:44:31Z</time>
      </trkpt>
      <trkpt lat="49.21318" lon="1.21098">
        <ele>127.3</ele>
        <time>2015-05-31T08:44:34Z</time>
      </trkpt>
      <trkpt lat="49.21325" lon="1.21088">
        <ele>127.5</ele>
        <time>2015-05-31T08:44:37Z</time>
      </trkpt>
      <trkpt lat="49.21333" lon="1.21077">
        <ele>127.9</ele>
        <time>2015-05-31T08:44:41Z</time>
      </trkpt>
      <trkpt lat="49.21341" lon="1.21066">
        <ele>128.6</ele>
        <time>2015-05-31T08:44:45Z</time>
      </trkpt>
      <trkpt lat="49.2135" lon="1.21054">
        <ele>129.3</ele>
        <time>2015-05-31T08:44:49Z</time>
      </trkpt>
      <trkpt lat="49.21357" lon="1.21045">
        <ele>129.7</ele>
        <time>2015-05-31T08:44:52Z</time>
      </trkpt>
      <trkpt lat="49.21364" lon="1.21034">
        <ele>130.1</ele>
        <time>2015-05-31T08:44:55Z</time>
      </trkpt>
      <trkpt lat="49.21371" lon="1.21024">
        <ele>130.5</ele>
        <time>2015-05-31T08:44:58Z</time>
      </trkpt>
      <trkpt lat="49.21378" lon="1.21012">
        <ele>131</ele>
        <time>2015-05-31T08:45:01Z</time>
      </trkpt>
      <trkpt lat="49.21385" lon="1.21">
        <ele>131.6</ele>
        <time>2015-05-31T08:45:04Z</time>
      </trkpt>
      <trkpt lat="49.21392" lon="1.20988">
        <ele>132.1</ele>
        <time>2015-05-31T08:45:07Z</time>
      </trkpt>
      <trkpt lat="49.21399" lon="1.20975">
        <ele>132.7</ele>
        <time>2015-05-31T08:45:10Z</time>
      </trkpt>
      <trkpt lat="49.21406" lon="1.20963">
        <ele>133.2</ele>
        <time>2015-05-31T08:45:13Z</time>
      </trkpt>
      <trkpt lat="49.21414" lon="1.20949">
        <ele>133.6</ele>
        <time>2015-05-31T08:45:16Z</time>
      </trkpt>
      <trkpt lat="49.21422" lon="1.20935">
        <ele>134.1</ele>
        <time>2015-05-31T08:45:19Z</time>
      </trkpt>
      <trkpt lat="49.21431" lon="1.2092">
        <ele>134.6</ele>
        <time>2015-05-31T08:45:22Z</time>
      </trkpt>
      <trkpt lat="49.2144" lon="1.20907">
        <ele>134.9</ele>
        <time>2015-05-31T08:45:25Z</time>
      </trkpt>
      <trkpt lat="49.2145" lon="1.20896">
        <ele>135.2</ele>
        <time>2015-05-31T08:45:28Z</time>
      </trkpt>
      <trkpt lat="49.21462" lon="1.20887">
        <ele>135.4</ele>
        <time>2015-05-31T08:45:31Z</time>
      </trkpt>
      <trkpt lat="49.2147" lon="1.20881">
        <ele>135.5</ele>
        <time>2015-05-31T08:45:33Z</time>
      </trkpt>
      <trkpt lat="49.21479" lon="1.20876">
        <ele>135.6</ele>
        <time>2015-05-31T08:45:35Z</time>
      </trkpt>
      <trkpt lat="49.21489" lon="1.20873">
        <ele>135.7</ele>
        <time>2015-05-31T08:45:37Z</time>
      </trkpt>
      <trkpt lat="49.21499" lon="1.20871">
        <ele>135.8</ele>
        <time>2015-05-31T08:45:39Z</time>
      </trkpt>
      <trkpt lat="49.2151" lon="1.20871">
        <ele>135.7</ele>
        <time>2015-05-31T08:45:41Z</time>
      </trkpt>
      <trkpt lat="49.21521" lon="1.20873">
        <ele>135.7</ele>
        <time>2015-05-31T08:45:43Z</time>
      </trkpt>
      <trkpt lat="49.21532" lon="1.20875">
        <ele>135.7</ele>
        <time>2015-05-31T08:45:45Z</time>
      </trkpt>
      <trkpt lat="49.21543" lon="1.20877">
        <ele>135.6</ele>
        <time>2015-05-31T08:45:47Z</time>
      </trkpt>
      <trkpt lat="49.21554" lon="1.20879">
        <ele>135.6</ele>
        <time>2015-05-31T08:45:49Z</time>
      </trkpt>
      <trkpt lat="49.21565" lon="1.20878">
        <ele>135.5</ele>
        <time>2015-05-31T08:45:51Z</time>
      </trkpt>
      <trkpt lat="49.21577" lon="1.20879">
        <ele>135.5</ele>
        <time>2015-05-31T08:45:53Z</time>
      </trkpt>
      <trkpt lat="49.2159" lon="1.20881">
        <ele>135.5</ele>
        <time>2015-05-31T08:45:55Z</time>
      </trkpt>
      <trkpt lat="49.21602" lon="1.20884">
        <ele>135.5</ele>
        <time>2015-05-31T08:45:57Z</time>
      </trkpt>
      <trkpt lat="49.21614" lon="1.20887">
        <ele>135.4</ele>
        <time>2015-05-31T08:45:59Z</time>
      </trkpt>
      <trkpt lat="49.21627" lon="1.20889">
        <ele>135.3</ele>
        <time>2015-05-31T08:46:01Z</time>
      </trkpt>
      <trkpt lat="49.21639" lon="1.20889">
        <ele>135.2</ele>
        <time>2015-05-31T08:46:03Z</time>
      </trkpt>
      <trkpt lat="49.21652" lon="1.20889">
        <ele>135</ele>
        <time>2015-05-31T08:46:05Z</time>
      </trkpt>
      <trkpt lat="49.21665" lon="1.20887">
        <ele>134.9</ele>
        <time>2015-05-31T08:46:07Z</time>
      </trkpt>
      <trkpt lat="49.21678" lon="1.20886">
        <ele>134.7</ele>
        <time>2015-05-31T08:46:09Z</time>
      </trkpt>
      <trkpt lat="49.21691" lon="1.20886">
        <ele>134.5</ele>
        <time>2015-05-31T08:46:11Z</time>
      </trkpt>
      <trkpt lat="49.21704" lon="1.20884">
        <ele>134.3</ele>
        <time>2015-05-31T08:46:13Z</time>
      </trkpt>
      <trkpt lat="49.21718" lon="1.20883">
        <ele>133.9</ele>
        <time>2015-05-31T08:46:15Z</time>
      </trkpt>
      <trkpt lat="49.2173" lon="1.20882">
        <ele>133.6</ele>
        <time>2015-05-31T08:46:17Z</time>
      </trkpt>
      <trkpt lat="49.21743" lon="1.20881">
        <ele>133.3</ele>
        <time>2015-05-31T08:46:19Z</time>
      </trkpt>
      <trkpt lat="49.21755" lon="1.2088">
        <ele>132.9</ele>
        <time>2015-05-31T08:46:21Z</time>
      </trkpt>
      <trkpt lat="49.21768" lon="1.20879">
        <ele>132.5</ele>
        <time>2015-05-31T08:46:23Z</time>
      </trkpt>
      <trkpt lat="49.21781" lon="1.20879">
        <ele>132.1</ele>
        <time>2015-05-31T08:46:25Z</time>
      </trkpt>
      <trkpt lat="49.21794" lon="1.20881">
        <ele>131.8</ele>
        <time>2015-05-31T08:46:27Z</time>
      </trkpt>
      <trkpt lat="49.21807" lon="1.20884">
        <ele>131.4</ele>
        <time>2015-05-31T08:46:29Z</time>
      </trkpt>
      <trkpt lat="49.21821" lon="1.20885">
        <ele>131.1</ele>
        <time>2015-05-31T08:46:31Z</time>
      </trkpt>
      <trkpt lat="49.21833" lon="1.20886">
        <ele>130.8</ele>
        <time>2015-05-31T08:46:33Z</time>
      </trkpt>
      <trkpt lat="49.21845" lon="1.20886">
        <ele>130.4</ele>
        <time>2015-05-31T08:46:35Z</time>
      </trkpt>
      <trkpt lat="49.21856" lon="1.20886">
        <ele>130</ele>
        <time>2015-05-31T08:46:37Z</time>
      </trkpt>
      <trkpt lat="49.21865" lon="1.20887">
        <ele>129.6</ele>
        <time>2015-05-31T08:46:39Z</time>
      </trkpt>
      <trkpt lat="49.21867" lon="1.20903">
        <ele>128.7</ele>
        <time>2015-05-31T08:46:44Z</time>
      </trkpt>
      <trkpt lat="49.21864" lon="1.20918">
        <ele>128.1</ele>
        <time>2015-05-31T08:46:48Z</time>
      </trkpt>
      <trkpt lat="49.21861" lon="1.20934">
        <ele>127.8</ele>
        <time>2015-05-31T08:46:51Z</time>
      </trkpt>
      <trkpt lat="49.21859" lon="1.20953">
        <ele>127.5</ele>
        <time>2015-05-31T08:46:54Z</time>
      </trkpt>
      <trkpt lat="49.21858" lon="1.20973">
        <ele>127.4</ele>
        <time>2015-05-31T08:46:57Z</time>
      </trkpt>
      <trkpt lat="49.21857" lon="1.20987">
        <ele>127.3</ele>
        <time>2015-05-31T08:46:59Z</time>
      </trkpt>
      <trkpt lat="49.21857" lon="1.21002">
        <ele>127.3</ele>
        <time>2015-05-31T08:47:01Z</time>
      </trkpt>
      <trkpt lat="49.21858" lon="1.21017">
        <ele>127.4</ele>
        <time>2015-05-31T08:47:03Z</time>
      </trkpt>
      <trkpt lat="49.2186" lon="1.21032">
        <ele>127.4</ele>
        <time>2015-05-31T08:47:05Z</time>
      </trkpt>
      <trkpt lat="49.21862" lon="1.21047">
        <ele>127.5</ele>
        <time>2015-05-31T08:47:07Z</time>
      </trkpt>
      <trkpt lat="49.21866" lon="1.21063">
        <ele>127.7</ele>
        <time>2015-05-31T08:47:09Z</time>
      </trkpt>
      <trkpt lat="49.2187" lon="1.21078">
        <ele>127.8</ele>
        <time>2015-05-31T08:47:11Z</time>
      </trkpt>
      <trkpt lat="49.21875" lon="1.21094">
        <ele>128</ele>
        <time>2015-05-31T08:47:13Z</time>
      </trkpt>
      <trkpt lat="49.21879" lon="1.21109">
        <ele>128.1</ele>
        <time>2015-05-31T08:47:15Z</time>
      </trkpt>
      <trkpt lat="49.21884" lon="1.21124">
        <ele>128.2</ele>
        <time>2015-05-31T08:47:17Z</time>
      </trkpt>
      <trkpt lat="49.2189" lon="1.21137">
        <ele>128.3</ele>
        <time>2015-05-31T08:47:19Z</time>
      </trkpt>
      <trkpt lat="49.21902" lon="1.2114">
        <ele>128.4</ele>
        <time>2015-05-31T08:47:22Z</time>
      </trkpt>
      <trkpt lat="49.21912" lon="1.21132">
        <ele>128.5</ele>
        <time>2015-05-31T08:47:25Z</time>
      </trkpt>
      <trkpt lat="49.21923" lon="1.21128">
        <ele>128.8</ele>
        <time>2015-05-31T08:47:28Z</time>
      </trkpt>
      <trkpt lat="49.21932" lon="1.21127">
        <ele>129.2</ele>
        <time>2015-05-31T08:47:31Z</time>
      </trkpt>
      <trkpt lat="49.21943" lon="1.21128">
        <ele>129.7</ele>
        <time>2015-05-31T08:47:35Z</time>
      </trkpt>
      <trkpt lat="49.21953" lon="1.21136">
        <ele>130.3</ele>
        <time>2015-05-31T08:47:38Z</time>
      </trkpt>
      <trkpt lat="49.21961" lon="1.21144">
        <ele>130.8</ele>
        <time>2015-05-31T08:47:41Z</time>
      </trkpt>
      <trkpt lat="49.21968" lon="1.21157">
        <ele>131.5</ele>
        <time>2015-05-31T08:47:44Z</time>
      </trkpt>
      <trkpt lat="49.21975" lon="1.21171">
        <ele>132.3</ele>
        <time>2015-05-31T08:47:47Z</time>
      </trkpt>
      <trkpt lat="49.21979" lon="1.21186">
        <ele>133.1</ele>
        <time>2015-05-31T08:47:50Z</time>
      </trkpt>
      <trkpt lat="49.21982" lon="1.21201">
        <ele>133.9</ele>
        <time>2015-05-31T08:47:53Z</time>
      </trkpt>
      <trkpt lat="49.21983" lon="1.21217">
        <ele>134.6</ele>
        <time>2015-05-31T08:47:56Z</time>
      </trkpt>
      <trkpt lat="49.21983" lon="1.21233">
        <ele>135.4</ele>
        <time>2015-05-31T08:47:59Z</time>
      </trkpt>
      <trkpt lat="49.21983" lon="1.2125">
        <ele>136.1</ele>
        <time>2015-05-31T08:48:02Z</time>
      </trkpt>
      <trkpt lat="49.21981" lon="1.21265">
        <ele>136.8</ele>
        <time>2015-05-31T08:48:05Z</time>
      </trkpt>
      <trkpt lat="49.2198" lon="1.2128">
        <ele>137.5</ele>
        <time>2015-05-31T08:48:08Z</time>
      </trkpt>
      <trkpt lat="49.21979" lon="1.21295">
        <ele>138</ele>
        <time>2015-05-31T08:48:11Z</time>
      </trkpt>
      <trkpt lat="49.21977" lon="1.21311">
        <ele>138.5</ele>
        <time>2015-05-31T08:48:14Z</time>
      </trkpt>
      <trkpt lat="49.21974" lon="1.21327">
        <ele>138.8</ele>
        <time>2015-05-31T08:48:17Z</time>
      </trkpt>
      <trkpt lat="49.21971" lon="1.21346">
        <ele>139.2</ele>
        <time>2015-05-31T08:48:20Z</time>
      </trkpt>
      <trkpt lat="49.21969" lon="1.21365">
        <ele>139.6</ele>
        <time>2015-05-31T08:48:23Z</time>
      </trkpt>
      <trkpt lat="49.21966" lon="1.21384">
        <ele>140</ele>
        <time>2015-05-31T08:48:26Z</time>
      </trkpt>
      <trkpt lat="49.21964" lon="1.21398">
        <ele>140.2</ele>
        <time>2015-05-31T08:48:28Z</time>
      </trkpt>
      <trkpt lat="49.21961" lon="1.21411">
        <ele>140.4</ele>
        <time>2015-05-31T08:48:30Z</time>
      </trkpt>
      <trkpt lat="49.21959" lon="1.21426">
        <ele>140.5</ele>
        <time>2015-05-31T08:48:32Z</time>
      </trkpt>
      <trkpt lat="49.21957" lon="1.21441">
        <ele>140.7</ele>
        <time>2015-05-31T08:48:34Z</time>
      </trkpt>
      <trkpt lat="49.21955" lon="1.21456">
        <ele>140.7</ele>
        <time>2015-05-31T08:48:36Z</time>
      </trkpt>
      <trkpt lat="49.21952" lon="1.21472">
        <ele>140.8</ele>
        <time>2015-05-31T08:48:38Z</time>
      </trkpt>
      <trkpt lat="49.21951" lon="1.21485">
        <ele>140.6</ele>
        <time>2015-05-31T08:48:40Z</time>
      </trkpt>
      <trkpt lat="49.21952" lon="1.21499">
        <ele>140.4</ele>
        <time>2015-05-31T08:48:44Z</time>
      </trkpt>
      <trkpt lat="49.21961" lon="1.21504">
        <ele>138.8</ele>
        <time>2015-05-31T08:49:07Z</time>
      </trkpt>
      <trkpt lat="49.21969" lon="1.21498">
        <ele>138.7</ele>
        <time>2015-05-31T08:49:10Z</time>
      </trkpt>
      <trkpt lat="49.2198" lon="1.21489">
        <ele>138.6</ele>
        <time>2015-05-31T08:49:13Z</time>
      </trkpt>
      <trkpt lat="49.21992" lon="1.2148">
        <ele>138.5</ele>
        <time>2015-05-31T08:49:16Z</time>
      </trkpt>
      <trkpt lat="49.22001" lon="1.21473">
        <ele>138.4</ele>
        <time>2015-05-31T08:49:18Z</time>
      </trkpt>
      <trkpt lat="49.2201" lon="1.2147">
        <ele>138.4</ele>
        <time>2015-05-31T08:49:20Z</time>
      </trkpt>
      <trkpt lat="49.2202" lon="1.21474">
        <ele>138.3</ele>
        <time>2015-05-31T08:49:23Z</time>
      </trkpt>
      <trkpt lat="49.22031" lon="1.21468">
        <ele>138.1</ele>
        <time>2015-05-31T08:49:26Z</time>
      </trkpt>
      <trkpt lat="49.22039" lon="1.21462">
        <ele>138</ele>
        <time>2015-05-31T08:49:28Z</time>
      </trkpt>
      <trkpt lat="49.22052" lon="1.21453">
        <ele>137.8</ele>
        <time>2015-05-31T08:49:31Z</time>
      </trkpt>
      <trkpt lat="49.2206" lon="1.21447">
        <ele>137.7</ele>
        <time>2015-05-31T08:49:33Z</time>
      </trkpt>
      <trkpt lat="49.22069" lon="1.21441">
        <ele>137.5</ele>
        <time>2015-05-31T08:49:35Z</time>
      </trkpt>
      <trkpt lat="49.22077" lon="1.21435">
        <ele>137.4</ele>
        <time>2015-05-31T08:49:37Z</time>
      </trkpt>
      <trkpt lat="49.22086" lon="1.21429">
        <ele>137.3</ele>
        <time>2015-05-31T08:49:39Z</time>
      </trkpt>
      <trkpt lat="49.22094" lon="1.21422">
        <ele>137.1</ele>
        <time>2015-05-31T08:49:41Z</time>
      </trkpt>
      <trkpt lat="49.22103" lon="1.21417">
        <ele>137.1</ele>
        <time>2015-05-31T08:49:43Z</time>
      </trkpt>
      <trkpt lat="49.22115" lon="1.21409">
        <ele>136.8</ele>
        <time>2015-05-31T08:49:46Z</time>
      </trkpt>
      <trkpt lat="49.22123" lon="1.21404">
        <ele>136.7</ele>
        <time>2015-05-31T08:49:48Z</time>
      </trkpt>
      <trkpt lat="49.22135" lon="1.21397">
        <ele>136.5</ele>
        <time>2015-05-31T08:49:51Z</time>
      </trkpt>
      <trkpt lat="49.22145" lon="1.21391">
        <ele>136.4</ele>
        <time>2015-05-31T08:49:55Z</time>
      </trkpt>
      <trkpt lat="49.22157" lon="1.21383">
        <ele>136.2</ele>
        <time>2015-05-31T08:49:59Z</time>
      </trkpt>
      <trkpt lat="49.22168" lon="1.21378">
        <ele>136.2</ele>
        <time>2015-05-31T08:50:02Z</time>
      </trkpt>
      <trkpt lat="49.2218" lon="1.21372">
        <ele>136.1</ele>
        <time>2015-05-31T08:50:05Z</time>
      </trkpt>
      <trkpt lat="49.22191" lon="1.21367">
        <ele>135.9</ele>
        <time>2015-05-31T08:50:08Z</time>
      </trkpt>
      <trkpt lat="49.22204" lon="1.21363">
        <ele>135.8</ele>
        <time>2015-05-31T08:50:12Z</time>
      </trkpt>
      <trkpt lat="49.22215" lon="1.21357">
        <ele>135.8</ele>
        <time>2015-05-31T08:50:15Z</time>
      </trkpt>
      <trkpt lat="49.22227" lon="1.21351">
        <ele>135.7</ele>
        <time>2015-05-31T08:50:18Z</time>
      </trkpt>
      <trkpt lat="49.22239" lon="1.21348">
        <ele>135.3</ele>
        <time>2015-05-31T08:50:21Z</time>
      </trkpt>
      <trkpt lat="49.22248" lon="1.21351">
        <ele>134.9</ele>
        <time>2015-05-31T08:50:25Z</time>
      </trkpt>
      <trkpt lat="49.22255" lon="1.21365">
        <ele>134.3</ele>
        <time>2015-05-31T08:50:33Z</time>
      </trkpt>
      <trkpt lat="49.22259" lon="1.21382">
        <ele>134.1</ele>
        <time>2015-05-31T08:50:36Z</time>
      </trkpt>
      <trkpt lat="49.22264" lon="1.21398">
        <ele>133.9</ele>
        <time>2015-05-31T08:50:39Z</time>
      </trkpt>
      <trkpt lat="49.22267" lon="1.21418">
        <ele>133.8</ele>
        <time>2015-05-31T08:50:42Z</time>
      </trkpt>
      <trkpt lat="49.2227" lon="1.21433">
        <ele>133.8</ele>
        <time>2015-05-31T08:50:45Z</time>
      </trkpt>
      <trkpt lat="49.22273" lon="1.2145">
        <ele>133.9</ele>
        <time>2015-05-31T08:50:48Z</time>
      </trkpt>
      <trkpt lat="49.22275" lon="1.21468">
        <ele>133.9</ele>
        <time>2015-05-31T08:50:51Z</time>
      </trkpt>
      <trkpt lat="49.22279" lon="1.21482">
        <ele>134</ele>
        <time>2015-05-31T08:50:53Z</time>
      </trkpt>
      <trkpt lat="49.2228" lon="1.21501">
        <ele>134</ele>
        <time>2015-05-31T08:50:55Z</time>
      </trkpt>
      <trkpt lat="49.22284" lon="1.2152">
        <ele>134.1</ele>
        <time>2015-05-31T08:50:57Z</time>
      </trkpt>
      <trkpt lat="49.22283" lon="1.21538">
        <ele>134.2</ele>
        <time>2015-05-31T08:50:59Z</time>
      </trkpt>
      <trkpt lat="49.22285" lon="1.21556">
        <ele>134.3</ele>
        <time>2015-05-31T08:51:01Z</time>
      </trkpt>
      <trkpt lat="49.22287" lon="1.21573">
        <ele>134.3</ele>
        <time>2015-05-31T08:51:03Z</time>
      </trkpt>
      <trkpt lat="49.22293" lon="1.21589">
        <ele>134.4</ele>
        <time>2015-05-31T08:51:05Z</time>
      </trkpt>
      <trkpt lat="49.22296" lon="1.21607">
        <ele>134.5</ele>
        <time>2015-05-31T08:51:07Z</time>
      </trkpt>
      <trkpt lat="49.223" lon="1.21623">
        <ele>134.5</ele>
        <time>2015-05-31T08:51:09Z</time>
      </trkpt>
      <trkpt lat="49.22305" lon="1.21642">
        <ele>134.5</ele>
        <time>2015-05-31T08:51:11Z</time>
      </trkpt>
      <trkpt lat="49.22308" lon="1.21659">
        <ele>134.6</ele>
        <time>2015-05-31T08:51:13Z</time>
      </trkpt>
      <trkpt lat="49.2231" lon="1.21679">
        <ele>134.6</ele>
        <time>2015-05-31T08:51:15Z</time>
      </trkpt>
      <trkpt lat="49.22313" lon="1.217">
        <ele>134.5</ele>
        <time>2015-05-31T08:51:17Z</time>
      </trkpt>
      <trkpt lat="49.22314" lon="1.21715">
        <ele>134.5</ele>
        <time>2015-05-31T08:51:18Z</time>
      </trkpt>
      <trkpt lat="49.22315" lon="1.2173">
        <ele>134.4</ele>
        <time>2015-05-31T08:51:19Z</time>
      </trkpt>
      <trkpt lat="49.22318" lon="1.21754">
        <ele>134</ele>
        <time>2015-05-31T08:51:21Z</time>
      </trkpt>
      <trkpt lat="49.22322" lon="1.21774">
        <ele>133.7</ele>
        <time>2015-05-31T08:51:23Z</time>
      </trkpt>
      <trkpt lat="49.22325" lon="1.21799">
        <ele>133.1</ele>
        <time>2015-05-31T08:51:25Z</time>
      </trkpt>
      <trkpt lat="49.22327" lon="1.21816">
        <ele>132.4</ele>
        <time>2015-05-31T08:51:27Z</time>
      </trkpt>
      <trkpt lat="49.22337" lon="1.21824">
        <ele>131.4</ele>
        <time>2015-05-31T08:51:30Z</time>
      </trkpt>
      <trkpt lat="49.22347" lon="1.21823">
        <ele>130.3</ele>
        <time>2015-05-31T08:51:34Z</time>
      </trkpt>
      <trkpt lat="49.22358" lon="1.21815">
        <ele>129.6</ele>
        <time>2015-05-31T08:51:37Z</time>
      </trkpt>
      <trkpt lat="49.22369" lon="1.2181">
        <ele>129</ele>
        <time>2015-05-31T08:51:40Z</time>
      </trkpt>
      <trkpt lat="49.22374" lon="1.21822">
        <ele>126.9</ele>
        <time>2015-05-31T08:51:49Z</time>
      </trkpt>
      <trkpt lat="49.22368" lon="1.21834">
        <ele>126.2</ele>
        <time>2015-05-31T08:51:52Z</time>
      </trkpt>
      <trkpt lat="49.22361" lon="1.21845">
        <ele>125.6</ele>
        <time>2015-05-31T08:51:54Z</time>
      </trkpt>
      <trkpt lat="49.22356" lon="1.21861">
        <ele>124.9</ele>
        <time>2015-05-31T08:51:56Z</time>
      </trkpt>
      <trkpt lat="49.22351" lon="1.21874">
        <ele>123</ele>
        <time>2015-05-31T08:51:58Z</time>
      </trkpt>
      <trkpt lat="49.22351" lon="1.21892">
        <ele>122.9</ele>
        <time>2015-05-31T08:52:01Z</time>
      </trkpt>
      <trkpt lat="49.22353" lon="1.21908">
        <ele>122</ele>
        <time>2015-05-31T08:52:03Z</time>
      </trkpt>
      <trkpt lat="49.22354" lon="1.21924">
        <ele>120.7</ele>
        <time>2015-05-31T08:52:05Z</time>
      </trkpt>
      <trkpt lat="49.22351" lon="1.21944">
        <ele>119.5</ele>
        <time>2015-05-31T08:52:07Z</time>
      </trkpt>
      <trkpt lat="49.22348" lon="1.2196">
        <ele>118.1</ele>
        <time>2015-05-31T08:52:09Z</time>
      </trkpt>
      <trkpt lat="49.22348" lon="1.21978">
        <ele>115.9</ele>
        <time>2015-05-31T08:52:12Z</time>
      </trkpt>
      <trkpt lat="49.22347" lon="1.21998">
        <ele>114.5</ele>
        <time>2015-05-31T08:52:14Z</time>
      </trkpt>
      <trkpt lat="49.22345" lon="1.22016">
        <ele>112.9</ele>
        <time>2015-05-31T08:52:16Z</time>
      </trkpt>
      <trkpt lat="49.22345" lon="1.22033">
        <ele>111.4</ele>
        <time>2015-05-31T08:52:18Z</time>
      </trkpt>
      <trkpt lat="49.22345" lon="1.2205">
        <ele>109.8</ele>
        <time>2015-05-31T08:52:20Z</time>
      </trkpt>
      <trkpt lat="49.22347" lon="1.22064">
        <ele>108.1</ele>
        <time>2015-05-31T08:52:22Z</time>
      </trkpt>
      <trkpt lat="49.22347" lon="1.2208">
        <ele>106.4</ele>
        <time>2015-05-31T08:52:24Z</time>
      </trkpt>
      <trkpt lat="49.22347" lon="1.22094">
        <ele>104.8</ele>
        <time>2015-05-31T08:52:26Z</time>
      </trkpt>
      <trkpt lat="49.22346" lon="1.22111">
        <ele>102.4</ele>
        <time>2015-05-31T08:52:29Z</time>
      </trkpt>
      <trkpt lat="49.22347" lon="1.22127">
        <ele>99.2</ele>
        <time>2015-05-31T08:52:33Z</time>
      </trkpt>
      <trkpt lat="49.22348" lon="1.22143">
        <ele>96.5</ele>
        <time>2015-05-31T08:52:37Z</time>
      </trkpt>
      <trkpt lat="49.22349" lon="1.22158">
        <ele>94.3</ele>
        <time>2015-05-31T08:52:40Z</time>
      </trkpt>
      <trkpt lat="49.22358" lon="1.22165">
        <ele>91.1</ele>
        <time>2015-05-31T08:52:45Z</time>
      </trkpt>
      <trkpt lat="49.22366" lon="1.22152">
        <ele>89.2</ele>
        <time>2015-05-31T08:52:48Z</time>
      </trkpt>
      <trkpt lat="49.22371" lon="1.22139">
        <ele>87.9</ele>
        <time>2015-05-31T08:52:50Z</time>
      </trkpt>
      <trkpt lat="49.22377" lon="1.22123">
        <ele>86.6</ele>
        <time>2015-05-31T08:52:52Z</time>
      </trkpt>
      <trkpt lat="49.22381" lon="1.22108">
        <ele>85.4</ele>
        <time>2015-05-31T08:52:54Z</time>
      </trkpt>
      <trkpt lat="49.22385" lon="1.22092">
        <ele>83.4</ele>
        <time>2015-05-31T08:52:57Z</time>
      </trkpt>
      <trkpt lat="49.22389" lon="1.22074">
        <ele>81.6</ele>
        <time>2015-05-31T08:53:00Z</time>
      </trkpt>
      <trkpt lat="49.22394" lon="1.22056">
        <ele>80.5</ele>
        <time>2015-05-31T08:53:02Z</time>
      </trkpt>
      <trkpt lat="49.224" lon="1.22042">
        <ele>79.4</ele>
        <time>2015-05-31T08:53:04Z</time>
      </trkpt>
      <trkpt lat="49.22406" lon="1.2203">
        <ele>78.3</ele>
        <time>2015-05-31T08:53:06Z</time>
      </trkpt>
      <trkpt lat="49.22416" lon="1.22035">
        <ele>74</ele>
        <time>2015-05-31T08:53:12Z</time>
      </trkpt>
      <trkpt lat="49.2242" lon="1.22055">
        <ele>72.9</ele>
        <time>2015-05-31T08:53:15Z</time>
      </trkpt>
      <trkpt lat="49.22424" lon="1.22071">
        <ele>70.4</ele>
        <time>2015-05-31T08:53:18Z</time>
      </trkpt>
      <trkpt lat="49.22429" lon="1.22085">
        <ele>68.6</ele>
        <time>2015-05-31T08:53:20Z</time>
      </trkpt>
      <trkpt lat="49.2243" lon="1.22102">
        <ele>66.8</ele>
        <time>2015-05-31T08:53:22Z</time>
      </trkpt>
      <trkpt lat="49.22431" lon="1.22123">
        <ele>65.1</ele>
        <time>2015-05-31T08:53:24Z</time>
      </trkpt>
      <trkpt lat="49.22433" lon="1.2214">
        <ele>63.3</ele>
        <time>2015-05-31T08:53:26Z</time>
      </trkpt>
      <trkpt lat="49.22434" lon="1.22158">
        <ele>61.5</ele>
        <time>2015-05-31T08:53:28Z</time>
      </trkpt>
      <trkpt lat="49.22435" lon="1.22176">
        <ele>58</ele>
        <time>2015-05-31T08:53:30Z</time>
      </trkpt>
      <trkpt lat="49.22434" lon="1.222">
        <ele>56.7</ele>
        <time>2015-05-31T08:53:33Z</time>
      </trkpt>
      <trkpt lat="49.22436" lon="1.22214">
        <ele>54.2</ele>
        <time>2015-05-31T08:53:36Z</time>
      </trkpt>
      <trkpt lat="49.22437" lon="1.22231">
        <ele>51</ele>
        <time>2015-05-31T08:53:39Z</time>
      </trkpt>
      <trkpt lat="49.22436" lon="1.22256">
        <ele>49.7</ele>
        <time>2015-05-31T08:53:42Z</time>
      </trkpt>
      <trkpt lat="49.22439" lon="1.22271">
        <ele>47.8</ele>
        <time>2015-05-31T08:53:44Z</time>
      </trkpt>
      <trkpt lat="49.22442" lon="1.22291">
        <ele>45.4</ele>
        <time>2015-05-31T08:53:47Z</time>
      </trkpt>
      <trkpt lat="49.2245" lon="1.22306">
        <ele>42.9</ele>
        <time>2015-05-31T08:53:50Z</time>
      </trkpt>
      <trkpt lat="49.22462" lon="1.22312">
        <ele>41.3</ele>
        <time>2015-05-31T08:53:52Z</time>
      </trkpt>
      <trkpt lat="49.22474" lon="1.22315">
        <ele>39.8</ele>
        <time>2015-05-31T08:53:54Z</time>
      </trkpt>
      <trkpt lat="49.22485" lon="1.22317">
        <ele>38.1</ele>
        <time>2015-05-31T08:53:56Z</time>
      </trkpt>
      <trkpt lat="49.22496" lon="1.22319">
        <ele>36.5</ele>
        <time>2015-05-31T08:53:58Z</time>
      </trkpt>
      <trkpt lat="49.225" lon="1.22336">
        <ele>32.4</ele>
        <time>2015-05-31T08:54:04Z</time>
      </trkpt>
      <trkpt lat="49.22493" lon="1.22345">
        <ele>30.6</ele>
        <time>2015-05-31T08:54:07Z</time>
      </trkpt>
      <trkpt lat="49.22482" lon="1.22352">
        <ele>29.1</ele>
        <time>2015-05-31T08:54:10Z</time>
      </trkpt>
      <trkpt lat="49.22471" lon="1.2236">
        <ele>27.8</ele>
        <time>2015-05-31T08:54:13Z</time>
      </trkpt>
      <trkpt lat="49.22463" lon="1.22364">
        <ele>27</ele>
        <time>2015-05-31T08:54:15Z</time>
      </trkpt>
      <trkpt lat="49.2245" lon="1.22371">
        <ele>25.9</ele>
        <time>2015-05-31T08:54:18Z</time>
      </trkpt>
      <trkpt lat="49.22438" lon="1.22377">
        <ele>25</ele>
        <time>2015-05-31T08:54:21Z</time>
      </trkpt>
      <trkpt lat="49.22428" lon="1.22382">
        <ele>24.5</ele>
        <time>2015-05-31T08:54:23Z</time>
      </trkpt>
      <trkpt lat="49.22419" lon="1.22387">
        <ele>24.1</ele>
        <time>2015-05-31T08:54:25Z</time>
      </trkpt>
      <trkpt lat="49.2241" lon="1.22392">
        <ele>23.7</ele>
        <time>2015-05-31T08:54:27Z</time>
      </trkpt>
      <trkpt lat="49.224" lon="1.22396">
        <ele>23.4</ele>
        <time>2015-05-31T08:54:29Z</time>
      </trkpt>
      <trkpt lat="49.22391" lon="1.224">
        <ele>23.1</ele>
        <time>2015-05-31T08:54:31Z</time>
      </trkpt>
      <trkpt lat="49.22382" lon="1.22404">
        <ele>22.8</ele>
        <time>2015-05-31T08:54:33Z</time>
      </trkpt>
      <trkpt lat="49.22369" lon="1.2241">
        <ele>22.5</ele>
        <time>2015-05-31T08:54:36Z</time>
      </trkpt>
      <trkpt lat="49.22356" lon="1.22413">
        <ele>22.2</ele>
        <time>2015-05-31T08:54:39Z</time>
      </trkpt>
      <trkpt lat="49.22343" lon="1.22417">
        <ele>22</ele>
        <time>2015-05-31T08:54:42Z</time>
      </trkpt>
      <trkpt lat="49.22334" lon="1.2242">
        <ele>21.9</ele>
        <time>2015-05-31T08:54:44Z</time>
      </trkpt>
      <trkpt lat="49.22325" lon="1.22422">
        <ele>21.9</ele>
        <time>2015-05-31T08:54:46Z</time>
      </trkpt>
      <trkpt lat="49.22316" lon="1.22424">
        <ele>21.8</ele>
        <time>2015-05-31T08:54:48Z</time>
      </trkpt>
      <trkpt lat="49.22307" lon="1.22425">
        <ele>21.7</ele>
        <time>2015-05-31T08:54:50Z</time>
      </trkpt>
      <trkpt lat="49.22293" lon="1.22424">
        <ele>21.7</ele>
        <time>2015-05-31T08:54:53Z</time>
      </trkpt>
      <trkpt lat="49.22281" lon="1.2242">
        <ele>21.8</ele>
        <time>2015-05-31T08:54:56Z</time>
      </trkpt>
      <trkpt lat="49.2227" lon="1.22417">
        <ele>21.9</ele>
        <time>2015-05-31T08:54:59Z</time>
      </trkpt>
      <trkpt lat="49.22259" lon="1.22415">
        <ele>22.3</ele>
        <time>2015-05-31T08:55:03Z</time>
      </trkpt>
      <trkpt lat="49.22249" lon="1.22419">
        <ele>23</ele>
        <time>2015-05-31T08:55:07Z</time>
      </trkpt>
      <trkpt lat="49.22239" lon="1.22427">
        <ele>24.1</ele>
        <time>2015-05-31T08:55:12Z</time>
      </trkpt>
      <trkpt lat="49.22231" lon="1.22434">
        <ele>25.1</ele>
        <time>2015-05-31T08:55:17Z</time>
      </trkpt>
      <trkpt lat="49.22222" lon="1.22441">
        <ele>26</ele>
        <time>2015-05-31T08:55:21Z</time>
      </trkpt>
      <trkpt lat="49.22213" lon="1.22446">
        <ele>27.1</ele>
        <time>2015-05-31T08:55:25Z</time>
      </trkpt>
      <trkpt lat="49.22204" lon="1.22451">
        <ele>28.1</ele>
        <time>2015-05-31T08:55:29Z</time>
      </trkpt>
      <trkpt lat="49.22194" lon="1.22455">
        <ele>29</ele>
        <time>2015-05-31T08:55:33Z</time>
      </trkpt>
      <trkpt lat="49.22185" lon="1.22459">
        <ele>29.9</ele>
        <time>2015-05-31T08:55:37Z</time>
      </trkpt>
      <trkpt lat="49.22176" lon="1.22465">
        <ele>30.8</ele>
        <time>2015-05-31T08:55:41Z</time>
      </trkpt>
      <trkpt lat="49.22167" lon="1.22471">
        <ele>31.7</ele>
        <time>2015-05-31T08:55:45Z</time>
      </trkpt>
      <trkpt lat="49.22158" lon="1.22476">
        <ele>32.4</ele>
        <time>2015-05-31T08:55:49Z</time>
      </trkpt>
      <trkpt lat="49.22146" lon="1.22481">
        <ele>33.1</ele>
        <time>2015-05-31T08:55:53Z</time>
      </trkpt>
      <trkpt lat="49.22137" lon="1.22484">
        <ele>33.5</ele>
        <time>2015-05-31T08:55:56Z</time>
      </trkpt>
      <trkpt lat="49.22128" lon="1.22488">
        <ele>34.1</ele>
        <time>2015-05-31T08:55:59Z</time>
      </trkpt>
      <trkpt lat="49.22117" lon="1.22493">
        <ele>34.5</ele>
        <time>2015-05-31T08:56:02Z</time>
      </trkpt>
      <trkpt lat="49.22108" lon="1.22499">
        <ele>34.7</ele>
        <time>2015-05-31T08:56:04Z</time>
      </trkpt>
      <trkpt lat="49.22099" lon="1.22504">
        <ele>34.8</ele>
        <time>2015-05-31T08:56:06Z</time>
      </trkpt>
      <trkpt lat="49.22089" lon="1.22509">
        <ele>34.6</ele>
        <time>2015-05-31T08:56:08Z</time>
      </trkpt>
      <trkpt lat="49.22077" lon="1.22515">
        <ele>34.4</ele>
        <time>2015-05-31T08:56:10Z</time>
      </trkpt>
      <trkpt lat="49.22064" lon="1.22519">
        <ele>34</ele>
        <time>2015-05-31T08:56:12Z</time>
      </trkpt>
      <trkpt lat="49.22049" lon="1.22523">
        <ele>33.6</ele>
        <time>2015-05-31T08:56:14Z</time>
      </trkpt>
      <trkpt lat="49.22038" lon="1.22526">
        <ele>32.7</ele>
        <time>2015-05-31T08:56:16Z</time>
      </trkpt>
      <trkpt lat="49.22033" lon="1.22539">
        <ele>30.9</ele>
        <time>2015-05-31T08:56:20Z</time>
      </trkpt>
      <trkpt lat="49.22044" lon="1.22547">
        <ele>29.2</ele>
        <time>2015-05-31T08:56:24Z</time>
      </trkpt>
      <trkpt lat="49.22054" lon="1.22549">
        <ele>28.3</ele>
        <time>2015-05-31T08:56:26Z</time>
      </trkpt>
      <trkpt lat="49.22068" lon="1.2255">
        <ele>27.1</ele>
        <time>2015-05-31T08:56:29Z</time>
      </trkpt>
      <trkpt lat="49.2208" lon="1.22547">
        <ele>26.3</ele>
        <time>2015-05-31T08:56:31Z</time>
      </trkpt>
      <trkpt lat="49.22091" lon="1.22544">
        <ele>25.6</ele>
        <time>2015-05-31T08:56:33Z</time>
      </trkpt>
      <trkpt lat="49.22101" lon="1.22539">
        <ele>25</ele>
        <time>2015-05-31T08:56:35Z</time>
      </trkpt>
      <trkpt lat="49.22113" lon="1.22543">
        <ele>24</ele>
        <time>2015-05-31T08:56:38Z</time>
      </trkpt>
      <trkpt lat="49.22118" lon="1.22556">
        <ele>23.2</ele>
        <time>2015-05-31T08:56:40Z</time>
      </trkpt>
      <trkpt lat="49.22124" lon="1.2257">
        <ele>22.5</ele>
        <time>2015-05-31T08:56:42Z</time>
      </trkpt>
      <trkpt lat="49.22128" lon="1.22586">
        <ele>21.6</ele>
        <time>2015-05-31T08:56:44Z</time>
      </trkpt>
      <trkpt lat="49.22133" lon="1.22602">
        <ele>20.8</ele>
        <time>2015-05-31T08:56:46Z</time>
      </trkpt>
      <trkpt lat="49.22136" lon="1.22618">
        <ele>19</ele>
        <time>2015-05-31T08:56:48Z</time>
      </trkpt>
      <trkpt lat="49.2214" lon="1.22641">
        <ele>19</ele>
        <time>2015-05-31T08:56:51Z</time>
      </trkpt>
      <trkpt lat="49.22138" lon="1.22657">
        <ele>18.2</ele>
        <time>2015-05-31T08:56:54Z</time>
      </trkpt>
      <trkpt lat="49.22128" lon="1.22661">
        <ele>17.5</ele>
        <time>2015-05-31T08:56:57Z</time>
      </trkpt>
      <trkpt lat="49.22118" lon="1.22662">
        <ele>17.1</ele>
        <time>2015-05-31T08:56:59Z</time>
      </trkpt>
      <trkpt lat="49.22107" lon="1.22666">
        <ele>16.8</ele>
        <time>2015-05-31T08:57:01Z</time>
      </trkpt>
      <trkpt lat="49.22097" lon="1.22668">
        <ele>16.5</ele>
        <time>2015-05-31T08:57:03Z</time>
      </trkpt>
      <trkpt lat="49.22087" lon="1.2267">
        <ele>16.2</ele>
        <time>2015-05-31T08:57:05Z</time>
      </trkpt>
      <trkpt lat="49.22077" lon="1.22674">
        <ele>16</ele>
        <time>2015-05-31T08:57:07Z</time>
      </trkpt>
      <trkpt lat="49.22067" lon="1.22676">
        <ele>15.8</ele>
        <time>2015-05-31T08:57:09Z</time>
      </trkpt>
      <trkpt lat="49.22057" lon="1.22678">
        <ele>15.6</ele>
        <time>2015-05-31T08:57:11Z</time>
      </trkpt>
      <trkpt lat="49.22047" lon="1.22678">
        <ele>15.5</ele>
        <time>2015-05-31T08:57:13Z</time>
      </trkpt>
      <trkpt lat="49.22037" lon="1.22677">
        <ele>15.4</ele>
        <time>2015-05-31T08:57:15Z</time>
      </trkpt>
      <trkpt lat="49.22026" lon="1.2268">
        <ele>15.3</ele>
        <time>2015-05-31T08:57:17Z</time>
      </trkpt>
      <trkpt lat="49.22015" lon="1.22683">
        <ele>15.2</ele>
        <time>2015-05-31T08:57:19Z</time>
      </trkpt>
      <trkpt lat="49.22004" lon="1.22687">
        <ele>15.1</ele>
        <time>2015-05-31T08:57:21Z</time>
      </trkpt>
      <trkpt lat="49.21994" lon="1.2269">
        <ele>15.1</ele>
        <time>2015-05-31T08:57:23Z</time>
      </trkpt>
      <trkpt lat="49.21985" lon="1.22692">
        <ele>15.2</ele>
        <time>2015-05-31T08:57:25Z</time>
      </trkpt>
      <trkpt lat="49.21974" lon="1.22696">
        <ele>15.2</ele>
        <time>2015-05-31T08:57:27Z</time>
      </trkpt>
      <trkpt lat="49.21963" lon="1.227">
        <ele>15.3</ele>
        <time>2015-05-31T08:57:29Z</time>
      </trkpt>
      <trkpt lat="49.21953" lon="1.22706">
        <ele>15.3</ele>
        <time>2015-05-31T08:57:31Z</time>
      </trkpt>
      <trkpt lat="49.21943" lon="1.22711">
        <ele>15.3</ele>
        <time>2015-05-31T08:57:33Z</time>
      </trkpt>
      <trkpt lat="49.21933" lon="1.22716">
        <ele>15.3</ele>
        <time>2015-05-31T08:57:35Z</time>
      </trkpt>
      <trkpt lat="49.21923" lon="1.22722">
        <ele>15.3</ele>
        <time>2015-05-31T08:57:37Z</time>
      </trkpt>
      <trkpt lat="49.21913" lon="1.2273">
        <ele>15.3</ele>
        <time>2015-05-31T08:57:39Z</time>
      </trkpt>
      <trkpt lat="49.21903" lon="1.22737">
        <ele>15.3</ele>
        <time>2015-05-31T08:57:41Z</time>
      </trkpt>
      <trkpt lat="49.21893" lon="1.22744">
        <ele>15.3</ele>
        <time>2015-05-31T08:57:43Z</time>
      </trkpt>
      <trkpt lat="49.21883" lon="1.22751">
        <ele>15.3</ele>
        <time>2015-05-31T08:57:45Z</time>
      </trkpt>
      <trkpt lat="49.21874" lon="1.22756">
        <ele>15.2</ele>
        <time>2015-05-31T08:57:47Z</time>
      </trkpt>
      <trkpt lat="49.21864" lon="1.22764">
        <ele>15.2</ele>
        <time>2015-05-31T08:57:49Z</time>
      </trkpt>
      <trkpt lat="49.21854" lon="1.22771">
        <ele>15.2</ele>
        <time>2015-05-31T08:57:51Z</time>
      </trkpt>
      <trkpt lat="49.21844" lon="1.2278">
        <ele>15.2</ele>
        <time>2015-05-31T08:57:53Z</time>
      </trkpt>
      <trkpt lat="49.21834" lon="1.22787">
        <ele>15.1</ele>
        <time>2015-05-31T08:57:55Z</time>
      </trkpt>
      <trkpt lat="49.21824" lon="1.22794">
        <ele>15</ele>
        <time>2015-05-31T08:57:57Z</time>
      </trkpt>
      <trkpt lat="49.21813" lon="1.22802">
        <ele>15</ele>
        <time>2015-05-31T08:57:59Z</time>
      </trkpt>
      <trkpt lat="49.21803" lon="1.22809">
        <ele>14.8</ele>
        <time>2015-05-31T08:58:01Z</time>
      </trkpt>
      <trkpt lat="49.21793" lon="1.22816">
        <ele>14.6</ele>
        <time>2015-05-31T08:58:03Z</time>
      </trkpt>
      <trkpt lat="49.21784" lon="1.22822">
        <ele>14.4</ele>
        <time>2015-05-31T08:58:05Z</time>
      </trkpt>
      <trkpt lat="49.21774" lon="1.22831">
        <ele>14.3</ele>
        <time>2015-05-31T08:58:07Z</time>
      </trkpt>
      <trkpt lat="49.21765" lon="1.22838">
        <ele>14.1</ele>
        <time>2015-05-31T08:58:09Z</time>
      </trkpt>
      <trkpt lat="49.21755" lon="1.22845">
        <ele>14</ele>
        <time>2015-05-31T08:58:11Z</time>
      </trkpt>
      <trkpt lat="49.21745" lon="1.22853">
        <ele>13.9</ele>
        <time>2015-05-31T08:58:13Z</time>
      </trkpt>
      <trkpt lat="49.21734" lon="1.22861">
        <ele>13.8</ele>
        <time>2015-05-31T08:58:15Z</time>
      </trkpt>
      <trkpt lat="49.21724" lon="1.22868">
        <ele>13.8</ele>
        <time>2015-05-31T08:58:17Z</time>
      </trkpt>
      <trkpt lat="49.21713" lon="1.22876">
        <ele>13.8</ele>
        <time>2015-05-31T08:58:19Z</time>
      </trkpt>
      <trkpt lat="49.21703" lon="1.22884">
        <ele>13.8</ele>
        <time>2015-05-31T08:58:21Z</time>
      </trkpt>
      <trkpt lat="49.21692" lon="1.22893">
        <ele>13.7</ele>
        <time>2015-05-31T08:58:23Z</time>
      </trkpt>
      <trkpt lat="49.21681" lon="1.22901">
        <ele>13.7</ele>
        <time>2015-05-31T08:58:25Z</time>
      </trkpt>
      <trkpt lat="49.2167" lon="1.2291">
        <ele>13.7</ele>
        <time>2015-05-31T08:58:27Z</time>
      </trkpt>
      <trkpt lat="49.2166" lon="1.22919">
        <ele>13.7</ele>
        <time>2015-05-31T08:58:29Z</time>
      </trkpt>
      <trkpt lat="49.2165" lon="1.22928">
        <ele>13.7</ele>
        <time>2015-05-31T08:58:31Z</time>
      </trkpt>
      <trkpt lat="49.21639" lon="1.22935">
        <ele>13.7</ele>
        <time>2015-05-31T08:58:33Z</time>
      </trkpt>
      <trkpt lat="49.21629" lon="1.22943">
        <ele>13.6</ele>
        <time>2015-05-31T08:58:35Z</time>
      </trkpt>
      <trkpt lat="49.21619" lon="1.22951">
        <ele>13.6</ele>
        <time>2015-05-31T08:58:37Z</time>
      </trkpt>
      <trkpt lat="49.21609" lon="1.22959">
        <ele>13.6</ele>
        <time>2015-05-31T08:58:39Z</time>
      </trkpt>
      <trkpt lat="49.21599" lon="1.22968">
        <ele>13.6</ele>
        <time>2015-05-31T08:58:41Z</time>
      </trkpt>
      <trkpt lat="49.21589" lon="1.22976">
        <ele>13.5</ele>
        <time>2015-05-31T08:58:43Z</time>
      </trkpt>
      <trkpt lat="49.21579" lon="1.22984">
        <ele>13.5</ele>
        <time>2015-05-31T08:58:45Z</time>
      </trkpt>
      <trkpt lat="49.21569" lon="1.22993">
        <ele>13.4</ele>
        <time>2015-05-31T08:58:47Z</time>
      </trkpt>
      <trkpt lat="49.21559" lon="1.23002">
        <ele>13.4</ele>
        <time>2015-05-31T08:58:49Z</time>
      </trkpt>
      <trkpt lat="49.21548" lon="1.23011">
        <ele>13.3</ele>
        <time>2015-05-31T08:58:51Z</time>
      </trkpt>
      <trkpt lat="49.21538" lon="1.2302">
        <ele>13.2</ele>
        <time>2015-05-31T08:58:53Z</time>
      </trkpt>
      <trkpt lat="49.21528" lon="1.23029">
        <ele>13.2</ele>
        <time>2015-05-31T08:58:55Z</time>
      </trkpt>
      <trkpt lat="49.21519" lon="1.23039">
        <ele>13.2</ele>
        <time>2015-05-31T08:58:57Z</time>
      </trkpt>
      <trkpt lat="49.2151" lon="1.23048">
        <ele>13.2</ele>
        <time>2015-05-31T08:58:59Z</time>
      </trkpt>
      <trkpt lat="49.215" lon="1.23058">
        <ele>13.3</ele>
        <time>2015-05-31T08:59:01Z</time>
      </trkpt>
      <trkpt lat="49.2149" lon="1.23068">
        <ele>13.3</ele>
        <time>2015-05-31T08:59:03Z</time>
      </trkpt>
      <trkpt lat="49.2148" lon="1.23078">
        <ele>13.4</ele>
        <time>2015-05-31T08:59:05Z</time>
      </trkpt>
      <trkpt lat="49.21472" lon="1.23087">
        <ele>13.5</ele>
        <time>2015-05-31T08:59:07Z</time>
      </trkpt>
      <trkpt lat="49.21463" lon="1.23098">
        <ele>13.5</ele>
        <time>2015-05-31T08:59:09Z</time>
      </trkpt>
      <trkpt lat="49.21452" lon="1.23108">
        <ele>13.5</ele>
        <time>2015-05-31T08:59:11Z</time>
      </trkpt>
      <trkpt lat="49.21443" lon="1.23119">
        <ele>13.6</ele>
        <time>2015-05-31T08:59:13Z</time>
      </trkpt>
      <trkpt lat="49.21434" lon="1.23128">
        <ele>13.6</ele>
        <time>2015-05-31T08:59:15Z</time>
      </trkpt>
      <trkpt lat="49.21424" lon="1.23136">
        <ele>13.6</ele>
        <time>2015-05-31T08:59:17Z</time>
      </trkpt>
      <trkpt lat="49.21414" lon="1.23147">
        <ele>13.6</ele>
        <time>2015-05-31T08:59:19Z</time>
      </trkpt>
      <trkpt lat="49.21405" lon="1.23157">
        <ele>13.5</ele>
        <time>2015-05-31T08:59:21Z</time>
      </trkpt>
      <trkpt lat="49.21395" lon="1.23168">
        <ele>13.5</ele>
        <time>2015-05-31T08:59:23Z</time>
      </trkpt>
      <trkpt lat="49.21385" lon="1.2318">
        <ele>13.5</ele>
        <time>2015-05-31T08:59:25Z</time>
      </trkpt>
      <trkpt lat="49.21374" lon="1.23191">
        <ele>13.5</ele>
        <time>2015-05-31T08:59:27Z</time>
      </trkpt>
      <trkpt lat="49.21365" lon="1.23199">
        <ele>13.5</ele>
        <time>2015-05-31T08:59:29Z</time>
      </trkpt>
      <trkpt lat="49.21356" lon="1.2321">
        <ele>13.4</ele>
        <time>2015-05-31T08:59:31Z</time>
      </trkpt>
      <trkpt lat="49.21345" lon="1.2322">
        <ele>13.4</ele>
        <time>2015-05-31T08:59:33Z</time>
      </trkpt>
      <trkpt lat="49.21335" lon="1.2323">
        <ele>13.4</ele>
        <time>2015-05-31T08:59:35Z</time>
      </trkpt>
      <trkpt lat="49.21326" lon="1.2324">
        <ele>13.3</ele>
        <time>2015-05-31T08:59:37Z</time>
      </trkpt>
      <trkpt lat="49.21316" lon="1.23251">
        <ele>13.3</ele>
        <time>2015-05-31T08:59:39Z</time>
      </trkpt>
      <trkpt lat="49.21306" lon="1.23262">
        <ele>13.2</ele>
        <time>2015-05-31T08:59:41Z</time>
      </trkpt>
      <trkpt lat="49.21297" lon="1.23273">
        <ele>13.2</ele>
        <time>2015-05-31T08:59:43Z</time>
      </trkpt>
      <trkpt lat="49.21286" lon="1.23283">
        <ele>13.1</ele>
        <time>2015-05-31T08:59:45Z</time>
      </trkpt>
      <trkpt lat="49.21276" lon="1.23294">
        <ele>13.1</ele>
        <time>2015-05-31T08:59:47Z</time>
      </trkpt>
      <trkpt lat="49.21267" lon="1.23305">
        <ele>13.1</ele>
        <time>2015-05-31T08:59:49Z</time>
      </trkpt>
      <trkpt lat="49.21257" lon="1.23318">
        <ele>13.1</ele>
        <time>2015-05-31T08:59:51Z</time>
      </trkpt>
      <trkpt lat="49.21247" lon="1.2333">
        <ele>13.1</ele>
        <time>2015-05-31T08:59:53Z</time>
      </trkpt>
      <trkpt lat="49.21238" lon="1.23342">
        <ele>13.1</ele>
        <time>2015-05-31T08:59:55Z</time>
      </trkpt>
      <trkpt lat="49.21229" lon="1.23354">
        <ele>13.1</ele>
        <time>2015-05-31T08:59:57Z</time>
      </trkpt>
      <trkpt lat="49.21219" lon="1.23367">
        <ele>13</ele>
        <time>2015-05-31T08:59:59Z</time>
      </trkpt>
      <trkpt lat="49.2121" lon="1.23378">
        <ele>13</ele>
        <time>2015-05-31T09:00:01Z</time>
      </trkpt>
      <trkpt lat="49.21202" lon="1.2339">
        <ele>12.9</ele>
        <time>2015-05-31T09:00:03Z</time>
      </trkpt>
      <trkpt lat="49.21195" lon="1.23403">
        <ele>13.2</ele>
        <time>2015-05-31T09:00:05Z</time>
      </trkpt>
      <trkpt lat="49.21188" lon="1.23413">
        <ele>13.2</ele>
        <time>2015-05-31T09:00:07Z</time>
      </trkpt>
      <trkpt lat="49.21182" lon="1.23425">
        <ele>13.3</ele>
        <time>2015-05-31T09:00:09Z</time>
      </trkpt>
      <trkpt lat="49.21174" lon="1.23439">
        <ele>13.3</ele>
        <time>2015-05-31T09:00:11Z</time>
      </trkpt>
      <trkpt lat="49.21165" lon="1.23451">
        <ele>13.3</ele>
        <time>2015-05-31T09:00:13Z</time>
      </trkpt>
      <trkpt lat="49.21156" lon="1.23463">
        <ele>13.3</ele>
        <time>2015-05-31T09:00:15Z</time>
      </trkpt>
      <trkpt lat="49.21146" lon="1.23478">
        <ele>13.3</ele>
        <time>2015-05-31T09:00:18Z</time>
      </trkpt>
      <trkpt lat="49.21138" lon="1.23489">
        <ele>13.3</ele>
        <time>2015-05-31T09:00:20Z</time>
      </trkpt>
      <trkpt lat="49.2113" lon="1.23499">
        <ele>13.3</ele>
        <time>2015-05-31T09:00:22Z</time>
      </trkpt>
      <trkpt lat="49.21124" lon="1.23509">
        <ele>13.3</ele>
        <time>2015-05-31T09:00:24Z</time>
      </trkpt>
      <trkpt lat="49.21116" lon="1.23525">
        <ele>13.3</ele>
        <time>2015-05-31T09:00:26Z</time>
      </trkpt>
      <trkpt lat="49.21108" lon="1.2354">
        <ele>13.3</ele>
        <time>2015-05-31T09:00:28Z</time>
      </trkpt>
      <trkpt lat="49.211" lon="1.23553">
        <ele>13.3</ele>
        <time>2015-05-31T09:00:30Z</time>
      </trkpt>
      <trkpt lat="49.21091" lon="1.23566">
        <ele>13.3</ele>
        <time>2015-05-31T09:00:32Z</time>
      </trkpt>
      <trkpt lat="49.21082" lon="1.2358">
        <ele>13.3</ele>
        <time>2015-05-31T09:00:34Z</time>
      </trkpt>
      <trkpt lat="49.21074" lon="1.23592">
        <ele>13.3</ele>
        <time>2015-05-31T09:00:36Z</time>
      </trkpt>
      <trkpt lat="49.21065" lon="1.23606">
        <ele>13.3</ele>
        <time>2015-05-31T09:00:38Z</time>
      </trkpt>
      <trkpt lat="49.21056" lon="1.23619">
        <ele>13.3</ele>
        <time>2015-05-31T09:00:40Z</time>
      </trkpt>
      <trkpt lat="49.21048" lon="1.23633">
        <ele>13.3</ele>
        <time>2015-05-31T09:00:42Z</time>
      </trkpt>
      <trkpt lat="49.21039" lon="1.23645">
        <ele>13.2</ele>
        <time>2015-05-31T09:00:44Z</time>
      </trkpt>
      <trkpt lat="49.21032" lon="1.23658">
        <ele>13.2</ele>
        <time>2015-05-31T09:00:46Z</time>
      </trkpt>
      <trkpt lat="49.21023" lon="1.2367">
        <ele>13.2</ele>
        <time>2015-05-31T09:00:48Z</time>
      </trkpt>
      <trkpt lat="49.21015" lon="1.23683">
        <ele>13.2</ele>
        <time>2015-05-31T09:00:50Z</time>
      </trkpt>
      <trkpt lat="49.21008" lon="1.23693">
        <ele>13.2</ele>
        <time>2015-05-31T09:00:52Z</time>
      </trkpt>
      <trkpt lat="49.21" lon="1.23705">
        <ele>13.2</ele>
        <time>2015-05-31T09:00:54Z</time>
      </trkpt>
      <trkpt lat="49.20993" lon="1.23717">
        <ele>13.2</ele>
        <time>2015-05-31T09:00:56Z</time>
      </trkpt>
      <trkpt lat="49.20985" lon="1.23728">
        <ele>13.1</ele>
        <time>2015-05-31T09:00:58Z</time>
      </trkpt>
      <trkpt lat="49.20977" lon="1.23741">
        <ele>13.1</ele>
        <time>2015-05-31T09:01:00Z</time>
      </trkpt>
      <trkpt lat="49.20969" lon="1.23756">
        <ele>13.1</ele>
        <time>2015-05-31T09:01:02Z</time>
      </trkpt>
      <trkpt lat="49.2096" lon="1.2377">
        <ele>13</ele>
        <time>2015-05-31T09:01:04Z</time>
      </trkpt>
      <trkpt lat="49.20952" lon="1.23783">
        <ele>13</ele>
        <time>2015-05-31T09:01:06Z</time>
      </trkpt>
      <trkpt lat="49.20945" lon="1.23795">
        <ele>13</ele>
        <time>2015-05-31T09:01:08Z</time>
      </trkpt>
      <trkpt lat="49.20937" lon="1.23807">
        <ele>12.9</ele>
        <time>2015-05-31T09:01:10Z</time>
      </trkpt>
      <trkpt lat="49.20928" lon="1.23819">
        <ele>12.9</ele>
        <time>2015-05-31T09:01:12Z</time>
      </trkpt>
      <trkpt lat="49.20919" lon="1.23832">
        <ele>12.9</ele>
        <time>2015-05-31T09:01:14Z</time>
      </trkpt>
      <trkpt lat="49.2091" lon="1.23846">
        <ele>12.8</ele>
        <time>2015-05-31T09:01:16Z</time>
      </trkpt>
      <trkpt lat="49.209" lon="1.2386">
        <ele>12.8</ele>
        <time>2015-05-31T09:01:18Z</time>
      </trkpt>
      <trkpt lat="49.20892" lon="1.23872">
        <ele>12.8</ele>
        <time>2015-05-31T09:01:20Z</time>
      </trkpt>
      <trkpt lat="49.20884" lon="1.23885">
        <ele>12.8</ele>
        <time>2015-05-31T09:01:22Z</time>
      </trkpt>
      <trkpt lat="49.20875" lon="1.23899">
        <ele>12.7</ele>
        <time>2015-05-31T09:01:24Z</time>
      </trkpt>
      <trkpt lat="49.20869" lon="1.2391">
        <ele>12.7</ele>
        <time>2015-05-31T09:01:26Z</time>
      </trkpt>
      <trkpt lat="49.2086" lon="1.23928">
        <ele>12.7</ele>
        <time>2015-05-31T09:01:29Z</time>
      </trkpt>
      <trkpt lat="49.20851" lon="1.2394">
        <ele>12.6</ele>
        <time>2015-05-31T09:01:31Z</time>
      </trkpt>
      <trkpt lat="49.20842" lon="1.23954">
        <ele>12.5</ele>
        <time>2015-05-31T09:01:33Z</time>
      </trkpt>
      <trkpt lat="49.20834" lon="1.23966">
        <ele>12.5</ele>
        <time>2015-05-31T09:01:35Z</time>
      </trkpt>
      <trkpt lat="49.20827" lon="1.23978">
        <ele>12.5</ele>
        <time>2015-05-31T09:01:37Z</time>
      </trkpt>
      <trkpt lat="49.2082" lon="1.23991">
        <ele>12.5</ele>
        <time>2015-05-31T09:01:39Z</time>
      </trkpt>
      <trkpt lat="49.20812" lon="1.24005">
        <ele>12.5</ele>
        <time>2015-05-31T09:01:41Z</time>
      </trkpt>
      <trkpt lat="49.20803" lon="1.2402">
        <ele>12.4</ele>
        <time>2015-05-31T09:01:43Z</time>
      </trkpt>
      <trkpt lat="49.20795" lon="1.24032">
        <ele>12.4</ele>
        <time>2015-05-31T09:01:45Z</time>
      </trkpt>
      <trkpt lat="49.20788" lon="1.24043">
        <ele>12.4</ele>
        <time>2015-05-31T09:01:47Z</time>
      </trkpt>
      <trkpt lat="49.20781" lon="1.24057">
        <ele>12.4</ele>
        <time>2015-05-31T09:01:49Z</time>
      </trkpt>
      <trkpt lat="49.20771" lon="1.24072">
        <ele>12.4</ele>
        <time>2015-05-31T09:01:51Z</time>
      </trkpt>
      <trkpt lat="49.20764" lon="1.24085">
        <ele>12.4</ele>
        <time>2015-05-31T09:01:53Z</time>
      </trkpt>
      <trkpt lat="49.20757" lon="1.24099">
        <ele>12.4</ele>
        <time>2015-05-31T09:01:55Z</time>
      </trkpt>
      <trkpt lat="49.20749" lon="1.24112">
        <ele>12.3</ele>
        <time>2015-05-31T09:01:57Z</time>
      </trkpt>
      <trkpt lat="49.2074" lon="1.24129">
        <ele>12.3</ele>
        <time>2015-05-31T09:02:00Z</time>
      </trkpt>
      <trkpt lat="49.20732" lon="1.24143">
        <ele>12.3</ele>
        <time>2015-05-31T09:02:02Z</time>
      </trkpt>
      <trkpt lat="49.20725" lon="1.24156">
        <ele>12.3</ele>
        <time>2015-05-31T09:02:04Z</time>
      </trkpt>
      <trkpt lat="49.20718" lon="1.2417">
        <ele>12.3</ele>
        <time>2015-05-31T09:02:06Z</time>
      </trkpt>
      <trkpt lat="49.20712" lon="1.24181">
        <ele>12.3</ele>
        <time>2015-05-31T09:02:08Z</time>
      </trkpt>
      <trkpt lat="49.20704" lon="1.24195">
        <ele>12.3</ele>
        <time>2015-05-31T09:02:10Z</time>
      </trkpt>
      <trkpt lat="49.20696" lon="1.24211">
        <ele>12.3</ele>
        <time>2015-05-31T09:02:12Z</time>
      </trkpt>
      <trkpt lat="49.20688" lon="1.24221">
        <ele>12.3</ele>
        <time>2015-05-31T09:02:14Z</time>
      </trkpt>
      <trkpt lat="49.20676" lon="1.24222">
        <ele>12.3</ele>
        <time>2015-05-31T09:02:17Z</time>
      </trkpt>
      <trkpt lat="49.20668" lon="1.24215">
        <ele>12.3</ele>
        <time>2015-05-31T09:02:22Z</time>
      </trkpt>
      <trkpt lat="49.20657" lon="1.24208">
        <ele>12.6</ele>
        <time>2015-05-31T09:02:26Z</time>
      </trkpt>
      <trkpt lat="49.20651" lon="1.24198">
        <ele>12.9</ele>
        <time>2015-05-31T09:02:30Z</time>
      </trkpt>
      <trkpt lat="49.20647" lon="1.24183">
        <ele>13.7</ele>
        <time>2015-05-31T09:02:35Z</time>
      </trkpt>
      <trkpt lat="49.20645" lon="1.24169">
        <ele>14.7</ele>
        <time>2015-05-31T09:02:41Z</time>
      </trkpt>
      <trkpt lat="49.2064" lon="1.24158">
        <ele>15.7</ele>
        <time>2015-05-31T09:02:46Z</time>
      </trkpt>
      <trkpt lat="49.20632" lon="1.2415">
        <ele>16.4</ele>
        <time>2015-05-31T09:02:50Z</time>
      </trkpt>
      <trkpt lat="49.20624" lon="1.24142">
        <ele>17.4</ele>
        <time>2015-05-31T09:02:55Z</time>
      </trkpt>
      <trkpt lat="49.20616" lon="1.24135">
        <ele>18.5</ele>
        <time>2015-05-31T09:03:00Z</time>
      </trkpt>
      <trkpt lat="49.20608" lon="1.24128">
        <ele>19.3</ele>
        <time>2015-05-31T09:03:04Z</time>
      </trkpt>
      <trkpt lat="49.20601" lon="1.24119">
        <ele>20.4</ele>
        <time>2015-05-31T09:03:09Z</time>
      </trkpt>
      <trkpt lat="49.20593" lon="1.24108">
        <ele>21.6</ele>
        <time>2015-05-31T09:03:14Z</time>
      </trkpt>
      <trkpt lat="49.20587" lon="1.24096">
        <ele>22.7</ele>
        <time>2015-05-31T09:03:19Z</time>
      </trkpt>
      <trkpt lat="49.20582" lon="1.24084">
        <ele>24.3</ele>
        <time>2015-05-31T09:03:25Z</time>
      </trkpt>
      <trkpt lat="49.20576" lon="1.24072">
        <ele>25.5</ele>
        <time>2015-05-31T09:03:30Z</time>
      </trkpt>
      <trkpt lat="49.20569" lon="1.24062">
        <ele>26.8</ele>
        <time>2015-05-31T09:03:35Z</time>
      </trkpt>
      <trkpt lat="49.20563" lon="1.24051">
        <ele>28.1</ele>
        <time>2015-05-31T09:03:40Z</time>
      </trkpt>
      <trkpt lat="49.20558" lon="1.24039">
        <ele>29.6</ele>
        <time>2015-05-31T09:03:46Z</time>
      </trkpt>
      <trkpt lat="49.20553" lon="1.24027">
        <ele>31.5</ele>
        <time>2015-05-31T09:03:54Z</time>
      </trkpt>
      <trkpt lat="49.20548" lon="1.24013">
        <ele>33.2</ele>
        <time>2015-05-31T09:04:01Z</time>
      </trkpt>
      <trkpt lat="49.20546" lon="1.23997">
        <ele>34.7</ele>
        <time>2015-05-31T09:04:08Z</time>
      </trkpt>
      <trkpt lat="49.20544" lon="1.23983">
        <ele>36.3</ele>
        <time>2015-05-31T09:04:16Z</time>
      </trkpt>
      <trkpt lat="49.20541" lon="1.23968">
        <ele>37.5</ele>
        <time>2015-05-31T09:04:22Z</time>
      </trkpt>
      <trkpt lat="49.20538" lon="1.23954">
        <ele>38.6</ele>
        <time>2015-05-31T09:04:27Z</time>
      </trkpt>
      <trkpt lat="49.20537" lon="1.23939">
        <ele>40</ele>
        <time>2015-05-31T09:04:34Z</time>
      </trkpt>
      <trkpt lat="49.20533" lon="1.23923">
        <ele>41.5</ele>
        <time>2015-05-31T09:04:41Z</time>
      </trkpt>
      <trkpt lat="49.20529" lon="1.23909">
        <ele>43</ele>
        <time>2015-05-31T09:04:48Z</time>
      </trkpt>
      <trkpt lat="49.20525" lon="1.23897">
        <ele>44.1</ele>
        <time>2015-05-31T09:04:53Z</time>
      </trkpt>
      <trkpt lat="49.20519" lon="1.23884">
        <ele>45.4</ele>
        <time>2015-05-31T09:04:59Z</time>
      </trkpt>
      <trkpt lat="49.20513" lon="1.23872">
        <ele>46.8</ele>
        <time>2015-05-31T09:05:05Z</time>
      </trkpt>
      <trkpt lat="49.20508" lon="1.23859">
        <ele>48.4</ele>
        <time>2015-05-31T09:05:12Z</time>
      </trkpt>
      <trkpt lat="49.20504" lon="1.23847">
        <ele>50</ele>
        <time>2015-05-31T09:05:19Z</time>
      </trkpt>
      <trkpt lat="49.20501" lon="1.23832">
        <ele>51.6</ele>
        <time>2015-05-31T09:05:26Z</time>
      </trkpt>
      <trkpt lat="49.20501" lon="1.23817">
        <ele>53.5</ele>
        <time>2015-05-31T09:05:34Z</time>
      </trkpt>
      <trkpt lat="49.20505" lon="1.23804">
        <ele>56.5</ele>
        <time>2015-05-31T09:05:46Z</time>
      </trkpt>
      <trkpt lat="49.20515" lon="1.23808">
        <ele>58.2</ele>
        <time>2015-05-31T09:05:55Z</time>
      </trkpt>
      <trkpt lat="49.20525" lon="1.23813">
        <ele>59.6</ele>
        <time>2015-05-31T09:06:02Z</time>
      </trkpt>
      <trkpt lat="49.20533" lon="1.23819">
        <ele>60.8</ele>
        <time>2015-05-31T09:06:09Z</time>
      </trkpt>
      <trkpt lat="49.20542" lon="1.23826">
        <ele>61.9</ele>
        <time>2015-05-31T09:06:15Z</time>
      </trkpt>
      <trkpt lat="49.20551" lon="1.2383">
        <ele>62.9</ele>
        <time>2015-05-31T09:06:20Z</time>
      </trkpt>
      <trkpt lat="49.20561" lon="1.23835">
        <ele>64.2</ele>
        <time>2015-05-31T09:06:26Z</time>
      </trkpt>
      <trkpt lat="49.20571" lon="1.2384">
        <ele>65.5</ele>
        <time>2015-05-31T09:06:32Z</time>
      </trkpt>
      <trkpt lat="49.2058" lon="1.23845">
        <ele>66.5</ele>
        <time>2015-05-31T09:06:37Z</time>
      </trkpt>
      <trkpt lat="49.20589" lon="1.2385">
        <ele>67.6</ele>
        <time>2015-05-31T09:06:42Z</time>
      </trkpt>
      <trkpt lat="49.20598" lon="1.23855">
        <ele>68.7</ele>
        <time>2015-05-31T09:06:47Z</time>
      </trkpt>
      <trkpt lat="49.20606" lon="1.23861">
        <ele>69.8</ele>
        <time>2015-05-31T09:06:52Z</time>
      </trkpt>
      <trkpt lat="49.20615" lon="1.23867">
        <ele>71.2</ele>
        <time>2015-05-31T09:06:58Z</time>
      </trkpt>
      <trkpt lat="49.20624" lon="1.23873">
        <ele>72.5</ele>
        <time>2015-05-31T09:07:04Z</time>
      </trkpt>
      <trkpt lat="49.20633" lon="1.23878">
        <ele>73.8</ele>
        <time>2015-05-31T09:07:10Z</time>
      </trkpt>
      <trkpt lat="49.20643" lon="1.23883">
        <ele>75.2</ele>
        <time>2015-05-31T09:07:16Z</time>
      </trkpt>
      <trkpt lat="49.20653" lon="1.23885">
        <ele>76.3</ele>
        <time>2015-05-31T09:07:21Z</time>
      </trkpt>
      <trkpt lat="49.20662" lon="1.23878">
        <ele>77.5</ele>
        <time>2015-05-31T09:07:26Z</time>
      </trkpt>
      <trkpt lat="49.20668" lon="1.23867">
        <ele>78.8</ele>
        <time>2015-05-31T09:07:31Z</time>
      </trkpt>
      <trkpt lat="49.2067" lon="1.23853">
        <ele>80.2</ele>
        <time>2015-05-31T09:07:37Z</time>
      </trkpt>
      <trkpt lat="49.20666" lon="1.23838">
        <ele>81.4</ele>
        <time>2015-05-31T09:07:43Z</time>
      </trkpt>
      <trkpt lat="49.2066" lon="1.23826">
        <ele>82.7</ele>
        <time>2015-05-31T09:07:49Z</time>
      </trkpt>
      <trkpt lat="49.20654" lon="1.23815">
        <ele>83.8</ele>
        <time>2015-05-31T09:07:54Z</time>
      </trkpt>
      <trkpt lat="49.20647" lon="1.23802">
        <ele>84.8</ele>
        <time>2015-05-31T09:07:59Z</time>
      </trkpt>
      <trkpt lat="49.2064" lon="1.23791">
        <ele>85.8</ele>
        <time>2015-05-31T09:08:04Z</time>
      </trkpt>
      <trkpt lat="49.20634" lon="1.23777">
        <ele>86.7</ele>
        <time>2015-05-31T09:08:09Z</time>
      </trkpt>
      <trkpt lat="49.20628" lon="1.23766">
        <ele>87.4</ele>
        <time>2015-05-31T09:08:13Z</time>
      </trkpt>
      <trkpt lat="49.20622" lon="1.23754">
        <ele>88.2</ele>
        <time>2015-05-31T09:08:17Z</time>
      </trkpt>
      <trkpt lat="49.20617" lon="1.23743">
        <ele>88.9</ele>
        <time>2015-05-31T09:08:21Z</time>
      </trkpt>
      <trkpt lat="49.20611" lon="1.23732">
        <ele>89.6</ele>
        <time>2015-05-31T09:08:25Z</time>
      </trkpt>
      <trkpt lat="49.20603" lon="1.2372">
        <ele>90.4</ele>
        <time>2015-05-31T09:08:30Z</time>
      </trkpt>
      <trkpt lat="49.20597" lon="1.23707">
        <ele>91.4</ele>
        <time>2015-05-31T09:08:35Z</time>
      </trkpt>
      <trkpt lat="49.2059" lon="1.23696">
        <ele>92.5</ele>
        <time>2015-05-31T09:08:40Z</time>
      </trkpt>
      <trkpt lat="49.20584" lon="1.23685">
        <ele>93.4</ele>
        <time>2015-05-31T09:08:45Z</time>
      </trkpt>
      <trkpt lat="49.20577" lon="1.23675">
        <ele>94.4</ele>
        <time>2015-05-31T09:08:50Z</time>
      </trkpt>
      <trkpt lat="49.2057" lon="1.23664">
        <ele>95.7</ele>
        <time>2015-05-31T09:08:56Z</time>
      </trkpt>
      <trkpt lat="49.20561" lon="1.23652">
        <ele>96.8</ele>
        <time>2015-05-31T09:09:01Z</time>
      </trkpt>
      <trkpt lat="49.20552" lon="1.23642">
        <ele>97.8</ele>
        <time>2015-05-31T09:09:06Z</time>
      </trkpt>
      <trkpt lat="49.20544" lon="1.23631">
        <ele>98.9</ele>
        <time>2015-05-31T09:09:11Z</time>
      </trkpt>
      <trkpt lat="49.20537" lon="1.23618">
        <ele>100</ele>
        <time>2015-05-31T09:09:16Z</time>
      </trkpt>
      <trkpt lat="49.2053" lon="1.23606">
        <ele>101.1</ele>
        <time>2015-05-31T09:09:21Z</time>
      </trkpt>
      <trkpt lat="49.20524" lon="1.23596">
        <ele>102</ele>
        <time>2015-05-31T09:09:25Z</time>
      </trkpt>
      <trkpt lat="49.20517" lon="1.23585">
        <ele>102.7</ele>
        <time>2015-05-31T09:09:29Z</time>
      </trkpt>
      <trkpt lat="49.20514" lon="1.23569">
        <ele>103.7</ele>
        <time>2015-05-31T09:09:34Z</time>
      </trkpt>
      <trkpt lat="49.20509" lon="1.23554">
        <ele>104.6</ele>
        <time>2015-05-31T09:09:39Z</time>
      </trkpt>
      <trkpt lat="49.20504" lon="1.23539">
        <ele>105.8</ele>
        <time>2015-05-31T09:09:44Z</time>
      </trkpt>
      <trkpt lat="49.205" lon="1.23525">
        <ele>106.9</ele>
        <time>2015-05-31T09:09:49Z</time>
      </trkpt>
      <trkpt lat="49.20496" lon="1.23511">
        <ele>107.9</ele>
        <time>2015-05-31T09:09:54Z</time>
      </trkpt>
      <trkpt lat="49.20493" lon="1.23498">
        <ele>109</ele>
        <time>2015-05-31T09:09:59Z</time>
      </trkpt>
      <trkpt lat="49.20491" lon="1.23483">
        <ele>110.1</ele>
        <time>2015-05-31T09:10:04Z</time>
      </trkpt>
      <trkpt lat="49.20492" lon="1.23469">
        <ele>111.4</ele>
        <time>2015-05-31T09:10:10Z</time>
      </trkpt>
      <trkpt lat="49.20489" lon="1.23456">
        <ele>112.5</ele>
        <time>2015-05-31T09:10:15Z</time>
      </trkpt>
      <trkpt lat="49.20483" lon="1.23442">
        <ele>113.5</ele>
        <time>2015-05-31T09:10:20Z</time>
      </trkpt>
      <trkpt lat="49.20479" lon="1.2343">
        <ele>114.3</ele>
        <time>2015-05-31T09:10:24Z</time>
      </trkpt>
      <trkpt lat="49.20474" lon="1.23416">
        <ele>115.3</ele>
        <time>2015-05-31T09:10:29Z</time>
      </trkpt>
      <trkpt lat="49.2047" lon="1.23402">
        <ele>116.2</ele>
        <time>2015-05-31T09:10:33Z</time>
      </trkpt>
      <trkpt lat="49.20466" lon="1.23387">
        <ele>117</ele>
        <time>2015-05-31T09:10:37Z</time>
      </trkpt>
      <trkpt lat="49.20462" lon="1.2337">
        <ele>117.7</ele>
        <time>2015-05-31T09:10:41Z</time>
      </trkpt>
      <trkpt lat="49.20458" lon="1.23358">
        <ele>118.2</ele>
        <time>2015-05-31T09:10:44Z</time>
      </trkpt>
      <trkpt lat="49.20453" lon="1.23342">
        <ele>118.8</ele>
        <time>2015-05-31T09:10:48Z</time>
      </trkpt>
      <trkpt lat="49.20449" lon="1.23329">
        <ele>119.2</ele>
        <time>2015-05-31T09:10:51Z</time>
      </trkpt>
      <trkpt lat="49.20445" lon="1.23312">
        <ele>119.8</ele>
        <time>2015-05-31T09:10:55Z</time>
      </trkpt>
      <trkpt lat="49.20441" lon="1.23298">
        <ele>120.2</ele>
        <time>2015-05-31T09:10:58Z</time>
      </trkpt>
      <trkpt lat="49.20437" lon="1.23283">
        <ele>120.6</ele>
        <time>2015-05-31T09:11:01Z</time>
      </trkpt>
      <trkpt lat="49.20433" lon="1.23268">
        <ele>120.9</ele>
        <time>2015-05-31T09:11:04Z</time>
      </trkpt>
      <trkpt lat="49.20429" lon="1.23252">
        <ele>121.1</ele>
        <time>2015-05-31T09:11:07Z</time>
      </trkpt>
      <trkpt lat="49.20424" lon="1.23237">
        <ele>121.4</ele>
        <time>2015-05-31T09:11:10Z</time>
      </trkpt>
      <trkpt lat="49.2042" lon="1.23221">
        <ele>121.7</ele>
        <time>2015-05-31T09:11:13Z</time>
      </trkpt>
      <trkpt lat="49.20415" lon="1.23204">
        <ele>122</ele>
        <time>2015-05-31T09:11:16Z</time>
      </trkpt>
      <trkpt lat="49.2041" lon="1.23188">
        <ele>122.2</ele>
        <time>2015-05-31T09:11:19Z</time>
      </trkpt>
      <trkpt lat="49.20406" lon="1.2317">
        <ele>122.4</ele>
        <time>2015-05-31T09:11:22Z</time>
      </trkpt>
      <trkpt lat="49.20401" lon="1.23152">
        <ele>122.6</ele>
        <time>2015-05-31T09:11:25Z</time>
      </trkpt>
      <trkpt lat="49.20396" lon="1.23133">
        <ele>122.7</ele>
        <time>2015-05-31T09:11:28Z</time>
      </trkpt>
      <trkpt lat="49.20391" lon="1.23116">
        <ele>122.8</ele>
        <time>2015-05-31T09:11:31Z</time>
      </trkpt>
      <trkpt lat="49.20382" lon="1.2311">
        <ele>122.9</ele>
        <time>2015-05-31T09:11:34Z</time>
      </trkpt>
      <trkpt lat="49.20374" lon="1.23118">
        <ele>122.9</ele>
        <time>2015-05-31T09:11:37Z</time>
      </trkpt>
      <trkpt lat="49.20364" lon="1.23128">
        <ele>122.9</ele>
        <time>2015-05-31T09:11:40Z</time>
      </trkpt>
      <trkpt lat="49.20354" lon="1.23139">
        <ele>123</ele>
        <time>2015-05-31T09:11:43Z</time>
      </trkpt>
      <trkpt lat="49.20343" lon="1.2315">
        <ele>123</ele>
        <time>2015-05-31T09:11:46Z</time>
      </trkpt>
      <trkpt lat="49.20333" lon="1.23161">
        <ele>123.1</ele>
        <time>2015-05-31T09:11:49Z</time>
      </trkpt>
      <trkpt lat="49.20324" lon="1.23172">
        <ele>123.1</ele>
        <time>2015-05-31T09:11:52Z</time>
      </trkpt>
      <trkpt lat="49.20314" lon="1.23182">
        <ele>123.4</ele>
        <time>2015-05-31T09:11:55Z</time>
      </trkpt>
      <trkpt lat="49.20305" lon="1.23192">
        <ele>123.6</ele>
        <time>2015-05-31T09:11:58Z</time>
      </trkpt>
      <trkpt lat="49.20295" lon="1.23201">
        <ele>123.9</ele>
        <time>2015-05-31T09:12:01Z</time>
      </trkpt>
      <trkpt lat="49.20284" lon="1.2321">
        <ele>124.1</ele>
        <time>2015-05-31T09:12:04Z</time>
      </trkpt>
      <trkpt lat="49.20272" lon="1.23218">
        <ele>124.3</ele>
        <time>2015-05-31T09:12:07Z</time>
      </trkpt>
      <trkpt lat="49.2026" lon="1.23227">
        <ele>124.5</ele>
        <time>2015-05-31T09:12:10Z</time>
      </trkpt>
      <trkpt lat="49.20249" lon="1.23235">
        <ele>124.7</ele>
        <time>2015-05-31T09:12:13Z</time>
      </trkpt>
      <trkpt lat="49.20237" lon="1.23243">
        <ele>124.9</ele>
        <time>2015-05-31T09:12:16Z</time>
      </trkpt>
      <trkpt lat="49.20226" lon="1.23251">
        <ele>125.2</ele>
        <time>2015-05-31T09:12:19Z</time>
      </trkpt>
      <trkpt lat="49.20216" lon="1.23259">
        <ele>125.5</ele>
        <time>2015-05-31T09:12:22Z</time>
      </trkpt>
      <trkpt lat="49.20204" lon="1.23266">
        <ele>125.8</ele>
        <time>2015-05-31T09:12:25Z</time>
      </trkpt>
      <trkpt lat="49.20193" lon="1.23272">
        <ele>126.4</ele>
        <time>2015-05-31T09:12:28Z</time>
      </trkpt>
      <trkpt lat="49.20183" lon="1.23279">
        <ele>126.8</ele>
        <time>2015-05-31T09:12:31Z</time>
      </trkpt>
      <trkpt lat="49.20173" lon="1.23284">
        <ele>127.2</ele>
        <time>2015-05-31T09:12:34Z</time>
      </trkpt>
      <trkpt lat="49.20162" lon="1.23289">
        <ele>127.6</ele>
        <time>2015-05-31T09:12:37Z</time>
      </trkpt>
      <trkpt lat="49.20152" lon="1.23295">
        <ele>127.9</ele>
        <time>2015-05-31T09:12:40Z</time>
      </trkpt>
      <trkpt lat="49.20144" lon="1.23303">
        <ele>128.2</ele>
        <time>2015-05-31T09:12:43Z</time>
      </trkpt>
      <trkpt lat="49.20135" lon="1.23313">
        <ele>128.6</ele>
        <time>2015-05-31T09:12:46Z</time>
      </trkpt>
      <trkpt lat="49.20126" lon="1.23324">
        <ele>128.9</ele>
        <time>2015-05-31T09:12:49Z</time>
      </trkpt>
      <trkpt lat="49.20118" lon="1.23334">
        <ele>129.2</ele>
        <time>2015-05-31T09:12:52Z</time>
      </trkpt>
      <trkpt lat="49.20108" lon="1.23345">
        <ele>129.4</ele>
        <time>2015-05-31T09:12:55Z</time>
      </trkpt>
      <trkpt lat="49.20099" lon="1.23356">
        <ele>129.8</ele>
        <time>2015-05-31T09:12:58Z</time>
      </trkpt>
      <trkpt lat="49.20089" lon="1.23367">
        <ele>130.2</ele>
        <time>2015-05-31T09:13:01Z</time>
      </trkpt>
      <trkpt lat="49.2008" lon="1.23378">
        <ele>130.4</ele>
        <time>2015-05-31T09:13:04Z</time>
      </trkpt>
      <trkpt lat="49.2007" lon="1.2339">
        <ele>130.7</ele>
        <time>2015-05-31T09:13:07Z</time>
      </trkpt>
      <trkpt lat="49.2006" lon="1.23401">
        <ele>131</ele>
        <time>2015-05-31T09:13:10Z</time>
      </trkpt>
      <trkpt lat="49.20049" lon="1.23412">
        <ele>131.4</ele>
        <time>2015-05-31T09:13:13Z</time>
      </trkpt>
      <trkpt lat="49.2004" lon="1.23423">
        <ele>131.6</ele>
        <time>2015-05-31T09:13:16Z</time>
      </trkpt>
      <trkpt lat="49.20031" lon="1.23434">
        <ele>131.8</ele>
        <time>2015-05-31T09:13:19Z</time>
      </trkpt>
      <trkpt lat="49.20021" lon="1.23444">
        <ele>132</ele>
        <time>2015-05-31T09:13:22Z</time>
      </trkpt>
      <trkpt lat="49.20011" lon="1.23455">
        <ele>132.2</ele>
        <time>2015-05-31T09:13:25Z</time>
      </trkpt>
      <trkpt lat="49.20001" lon="1.23466">
        <ele>132.3</ele>
        <time>2015-05-31T09:13:28Z</time>
      </trkpt>
      <trkpt lat="49.1999" lon="1.23476">
        <ele>132.4</ele>
        <time>2015-05-31T09:13:31Z</time>
      </trkpt>
      <trkpt lat="49.19981" lon="1.23485">
        <ele>132.5</ele>
        <time>2015-05-31T09:13:34Z</time>
      </trkpt>
      <trkpt lat="49.19974" lon="1.23493">
        <ele>132.6</ele>
        <time>2015-05-31T09:13:37Z</time>
      </trkpt>
      <trkpt lat="49.19967" lon="1.23508">
        <ele>132.8</ele>
        <time>2015-05-31T09:13:40Z</time>
      </trkpt>
      <trkpt lat="49.19959" lon="1.23521">
        <ele>133</ele>
        <time>2015-05-31T09:13:43Z</time>
      </trkpt>
      <trkpt lat="49.19951" lon="1.23533">
        <ele>133.2</ele>
        <time>2015-05-31T09:13:46Z</time>
      </trkpt>
      <trkpt lat="49.19942" lon="1.23546">
        <ele>133.3</ele>
        <time>2015-05-31T09:13:49Z</time>
      </trkpt>
      <trkpt lat="49.19934" lon="1.23559">
        <ele>133.5</ele>
        <time>2015-05-31T09:13:52Z</time>
      </trkpt>
      <trkpt lat="49.19942" lon="1.23548">
        <ele>133.9</ele>
        <time>2015-05-31T09:14:03Z</time>
      </trkpt>
      <trkpt lat="49.19949" lon="1.23536">
        <ele>134</ele>
        <time>2015-05-31T09:14:07Z</time>
      </trkpt>
      <trkpt lat="49.19956" lon="1.23527">
        <ele>134</ele>
        <time>2015-05-31T09:14:11Z</time>
      </trkpt>
      <trkpt lat="49.19948" lon="1.23538">
        <ele>134.2</ele>
        <time>2015-05-31T09:14:20Z</time>
      </trkpt>
      <trkpt lat="49.19939" lon="1.23551">
        <ele>134.3</ele>
        <time>2015-05-31T09:14:23Z</time>
      </trkpt>
      <trkpt lat="49.1993" lon="1.23565">
        <ele>134.4</ele>
        <time>2015-05-31T09:14:26Z</time>
      </trkpt>
      <trkpt lat="49.19921" lon="1.2358">
        <ele>134.6</ele>
        <time>2015-05-31T09:14:29Z</time>
      </trkpt>
      <trkpt lat="49.19914" lon="1.23589">
        <ele>134.7</ele>
        <time>2015-05-31T09:14:31Z</time>
      </trkpt>
      <trkpt lat="49.19906" lon="1.23599">
        <ele>134.7</ele>
        <time>2015-05-31T09:14:33Z</time>
      </trkpt>
      <trkpt lat="49.19898" lon="1.23608">
        <ele>134.8</ele>
        <time>2015-05-31T09:14:35Z</time>
      </trkpt>
      <trkpt lat="49.19889" lon="1.23617">
        <ele>134.9</ele>
        <time>2015-05-31T09:14:37Z</time>
      </trkpt>
      <trkpt lat="49.19881" lon="1.23625">
        <ele>134.9</ele>
        <time>2015-05-31T09:14:39Z</time>
      </trkpt>
      <trkpt lat="49.19872" lon="1.23633">
        <ele>135</ele>
        <time>2015-05-31T09:14:41Z</time>
      </trkpt>
      <trkpt lat="49.19862" lon="1.2364">
        <ele>135</ele>
        <time>2015-05-31T09:14:43Z</time>
      </trkpt>
      <trkpt lat="49.19852" lon="1.23646">
        <ele>135</ele>
        <time>2015-05-31T09:14:45Z</time>
      </trkpt>
      <trkpt lat="49.19843" lon="1.23652">
        <ele>135.1</ele>
        <time>2015-05-31T09:14:47Z</time>
      </trkpt>
      <trkpt lat="49.19834" lon="1.2366">
        <ele>135.1</ele>
        <time>2015-05-31T09:14:49Z</time>
      </trkpt>
      <trkpt lat="49.19826" lon="1.23669">
        <ele>135.1</ele>
        <time>2015-05-31T09:14:51Z</time>
      </trkpt>
      <trkpt lat="49.19818" lon="1.23679">
        <ele>135.2</ele>
        <time>2015-05-31T09:14:53Z</time>
      </trkpt>
      <trkpt lat="49.1981" lon="1.2369">
        <ele>135.2</ele>
        <time>2015-05-31T09:14:55Z</time>
      </trkpt>
      <trkpt lat="49.19802" lon="1.23702">
        <ele>135.2</ele>
        <time>2015-05-31T09:14:57Z</time>
      </trkpt>
      <trkpt lat="49.19794" lon="1.23714">
        <ele>135.2</ele>
        <time>2015-05-31T09:14:59Z</time>
      </trkpt>
      <trkpt lat="49.19786" lon="1.23726">
        <ele>135.1</ele>
        <time>2015-05-31T09:15:01Z</time>
      </trkpt>
      <trkpt lat="49.19778" lon="1.23738">
        <ele>135.1</ele>
        <time>2015-05-31T09:15:03Z</time>
      </trkpt>
      <trkpt lat="49.19771" lon="1.23752">
        <ele>135.1</ele>
        <time>2015-05-31T09:15:05Z</time>
      </trkpt>
      <trkpt lat="49.19764" lon="1.23766">
        <ele>135.1</ele>
        <time>2015-05-31T09:15:07Z</time>
      </trkpt>
      <trkpt lat="49.19756" lon="1.23781">
        <ele>135</ele>
        <time>2015-05-31T09:15:09Z</time>
      </trkpt>
      <trkpt lat="49.19749" lon="1.23795">
        <ele>135</ele>
        <time>2015-05-31T09:15:11Z</time>
      </trkpt>
      <trkpt lat="49.19741" lon="1.23809">
        <ele>134.9</ele>
        <time>2015-05-31T09:15:13Z</time>
      </trkpt>
      <trkpt lat="49.19732" lon="1.2382">
        <ele>134.8</ele>
        <time>2015-05-31T09:15:15Z</time>
      </trkpt>
      <trkpt lat="49.19722" lon="1.23827">
        <ele>134.7</ele>
        <time>2015-05-31T09:15:17Z</time>
      </trkpt>
      <trkpt lat="49.19711" lon="1.23833">
        <ele>134.7</ele>
        <time>2015-05-31T09:15:19Z</time>
      </trkpt>
      <trkpt lat="49.19701" lon="1.23839">
        <ele>134.6</ele>
        <time>2015-05-31T09:15:21Z</time>
      </trkpt>
      <trkpt lat="49.19691" lon="1.23845">
        <ele>134.5</ele>
        <time>2015-05-31T09:15:23Z</time>
      </trkpt>
      <trkpt lat="49.1968" lon="1.23851">
        <ele>134.4</ele>
        <time>2015-05-31T09:15:25Z</time>
      </trkpt>
      <trkpt lat="49.1967" lon="1.23857">
        <ele>134.3</ele>
        <time>2015-05-31T09:15:27Z</time>
      </trkpt>
      <trkpt lat="49.19659" lon="1.23863">
        <ele>134.2</ele>
        <time>2015-05-31T09:15:29Z</time>
      </trkpt>
      <trkpt lat="49.19648" lon="1.23869">
        <ele>134.1</ele>
        <time>2015-05-31T09:15:31Z</time>
      </trkpt>
      <trkpt lat="49.19638" lon="1.23874">
        <ele>134.1</ele>
        <time>2015-05-31T09:15:33Z</time>
      </trkpt>
      <trkpt lat="49.19629" lon="1.23878">
        <ele>134</ele>
        <time>2015-05-31T09:15:35Z</time>
      </trkpt>
      <trkpt lat="49.1962" lon="1.23887">
        <ele>133.9</ele>
        <time>2015-05-31T09:15:37Z</time>
      </trkpt>
      <trkpt lat="49.19611" lon="1.23896">
        <ele>133.9</ele>
        <time>2015-05-31T09:15:39Z</time>
      </trkpt>
      <trkpt lat="49.19602" lon="1.23906">
        <ele>134</ele>
        <time>2015-05-31T09:15:41Z</time>
      </trkpt>
      <trkpt lat="49.19593" lon="1.23915">
        <ele>134</ele>
        <time>2015-05-31T09:15:43Z</time>
      </trkpt>
      <trkpt lat="49.19585" lon="1.23924">
        <ele>134</ele>
        <time>2015-05-31T09:15:45Z</time>
      </trkpt>
      <trkpt lat="49.19576" lon="1.23932">
        <ele>134</ele>
        <time>2015-05-31T09:15:47Z</time>
      </trkpt>
      <trkpt lat="49.19566" lon="1.2394">
        <ele>134</ele>
        <time>2015-05-31T09:15:49Z</time>
      </trkpt>
      <trkpt lat="49.19557" lon="1.23947">
        <ele>134</ele>
        <time>2015-05-31T09:15:51Z</time>
      </trkpt>
      <trkpt lat="49.19548" lon="1.23955">
        <ele>134</ele>
        <time>2015-05-31T09:15:53Z</time>
      </trkpt>
      <trkpt lat="49.19538" lon="1.23962">
        <ele>134.1</ele>
        <time>2015-05-31T09:15:55Z</time>
      </trkpt>
      <trkpt lat="49.19529" lon="1.2397">
        <ele>134.1</ele>
        <time>2015-05-31T09:15:57Z</time>
      </trkpt>
      <trkpt lat="49.1952" lon="1.23978">
        <ele>134.1</ele>
        <time>2015-05-31T09:15:59Z</time>
      </trkpt>
      <trkpt lat="49.19511" lon="1.23987">
        <ele>134.2</ele>
        <time>2015-05-31T09:16:01Z</time>
      </trkpt>
      <trkpt lat="49.19502" lon="1.23995">
        <ele>134.2</ele>
        <time>2015-05-31T09:16:03Z</time>
      </trkpt>
      <trkpt lat="49.19493" lon="1.24006">
        <ele>134.2</ele>
        <time>2015-05-31T09:16:06Z</time>
      </trkpt>
      <trkpt lat="49.19483" lon="1.24017">
        <ele>134.2</ele>
        <time>2015-05-31T09:16:09Z</time>
      </trkpt>
      <trkpt lat="49.19476" lon="1.24026">
        <ele>134.2</ele>
        <time>2015-05-31T09:16:11Z</time>
      </trkpt>
      <trkpt lat="49.19469" lon="1.24034">
        <ele>134.4</ele>
        <time>2015-05-31T09:16:13Z</time>
      </trkpt>
      <trkpt lat="49.19458" lon="1.24046">
        <ele>134.5</ele>
        <time>2015-05-31T09:16:16Z</time>
      </trkpt>
      <trkpt lat="49.19451" lon="1.24056">
        <ele>134.6</ele>
        <time>2015-05-31T09:16:18Z</time>
      </trkpt>
      <trkpt lat="49.19447" lon="1.24072">
        <ele>134.7</ele>
        <time>2015-05-31T09:16:21Z</time>
      </trkpt>
      <trkpt lat="49.19456" lon="1.24085">
        <ele>134.7</ele>
        <time>2015-05-31T09:16:24Z</time>
      </trkpt>
      <trkpt lat="49.19464" lon="1.24096">
        <ele>134.7</ele>
        <time>2015-05-31T09:16:26Z</time>
      </trkpt>
      <trkpt lat="49.19472" lon="1.24107">
        <ele>134.7</ele>
        <time>2015-05-31T09:16:28Z</time>
      </trkpt>
      <trkpt lat="49.19481" lon="1.2412">
        <ele>134.7</ele>
        <time>2015-05-31T09:16:30Z</time>
      </trkpt>
      <trkpt lat="49.19491" lon="1.24133">
        <ele>134.6</ele>
        <time>2015-05-31T09:16:32Z</time>
      </trkpt>
      <trkpt lat="49.19502" lon="1.24145">
        <ele>134.5</ele>
        <time>2015-05-31T09:16:34Z</time>
      </trkpt>
      <trkpt lat="49.19516" lon="1.24153">
        <ele>134.3</ele>
        <time>2015-05-31T09:16:36Z</time>
      </trkpt>
      <trkpt lat="49.1953" lon="1.24157">
        <ele>134.2</ele>
        <time>2015-05-31T09:16:38Z</time>
      </trkpt>
      <trkpt lat="49.19544" lon="1.24156">
        <ele>134</ele>
        <time>2015-05-31T09:16:40Z</time>
      </trkpt>
      <trkpt lat="49.19558" lon="1.24154">
        <ele>133.7</ele>
        <time>2015-05-31T09:16:42Z</time>
      </trkpt>
      <trkpt lat="49.19573" lon="1.24152">
        <ele>133.4</ele>
        <time>2015-05-31T09:16:44Z</time>
      </trkpt>
      <trkpt lat="49.19588" lon="1.2415">
        <ele>133</ele>
        <time>2015-05-31T09:16:46Z</time>
      </trkpt>
      <trkpt lat="49.19603" lon="1.24151">
        <ele>132.7</ele>
        <time>2015-05-31T09:16:48Z</time>
      </trkpt>
      <trkpt lat="49.19615" lon="1.24156">
        <ele>132.2</ele>
        <time>2015-05-31T09:16:50Z</time>
      </trkpt>
      <trkpt lat="49.19618" lon="1.2417">
        <ele>131.4</ele>
        <time>2015-05-31T09:16:53Z</time>
      </trkpt>
      <trkpt lat="49.19611" lon="1.24183">
        <ele>130.7</ele>
        <time>2015-05-31T09:16:56Z</time>
      </trkpt>
      <trkpt lat="49.19603" lon="1.24195">
        <ele>130.2</ele>
        <time>2015-05-31T09:16:59Z</time>
      </trkpt>
      <trkpt lat="49.19596" lon="1.2421">
        <ele>129.8</ele>
        <time>2015-05-31T09:17:02Z</time>
      </trkpt>
      <trkpt lat="49.19586" lon="1.24224">
        <ele>129.5</ele>
        <time>2015-05-31T09:17:05Z</time>
      </trkpt>
      <trkpt lat="49.19579" lon="1.24235">
        <ele>129.4</ele>
        <time>2015-05-31T09:17:07Z</time>
      </trkpt>
      <trkpt lat="49.19571" lon="1.24242">
        <ele>129.3</ele>
        <time>2015-05-31T09:17:09Z</time>
      </trkpt>
      <trkpt lat="49.19562" lon="1.24252">
        <ele>129.2</ele>
        <time>2015-05-31T09:17:11Z</time>
      </trkpt>
      <trkpt lat="49.19554" lon="1.24262">
        <ele>129.2</ele>
        <time>2015-05-31T09:17:13Z</time>
      </trkpt>
      <trkpt lat="49.19546" lon="1.24272">
        <ele>129.1</ele>
        <time>2015-05-31T09:17:15Z</time>
      </trkpt>
      <trkpt lat="49.19537" lon="1.24282">
        <ele>129.1</ele>
        <time>2015-05-31T09:17:17Z</time>
      </trkpt>
      <trkpt lat="49.19529" lon="1.24294">
        <ele>129.1</ele>
        <time>2015-05-31T09:17:19Z</time>
      </trkpt>
      <trkpt lat="49.19521" lon="1.24306">
        <ele>129.2</ele>
        <time>2015-05-31T09:17:21Z</time>
      </trkpt>
      <trkpt lat="49.19512" lon="1.24318">
        <ele>129.2</ele>
        <time>2015-05-31T09:17:23Z</time>
      </trkpt>
      <trkpt lat="49.19504" lon="1.2433">
        <ele>129.2</ele>
        <time>2015-05-31T09:17:25Z</time>
      </trkpt>
      <trkpt lat="49.19495" lon="1.24343">
        <ele>129.2</ele>
        <time>2015-05-31T09:17:27Z</time>
      </trkpt>
      <trkpt lat="49.19486" lon="1.24357">
        <ele>129.1</ele>
        <time>2015-05-31T09:17:29Z</time>
      </trkpt>
      <trkpt lat="49.19484" lon="1.24375">
        <ele>129.1</ele>
        <time>2015-05-31T09:17:31Z</time>
      </trkpt>
      <trkpt lat="49.19488" lon="1.24393">
        <ele>129</ele>
        <time>2015-05-31T09:17:33Z</time>
      </trkpt>
      <trkpt lat="49.19493" lon="1.2441">
        <ele>128.9</ele>
        <time>2015-05-31T09:17:35Z</time>
      </trkpt>
      <trkpt lat="49.19498" lon="1.24428">
        <ele>128.7</ele>
        <time>2015-05-31T09:17:37Z</time>
      </trkpt>
      <trkpt lat="49.19503" lon="1.24445">
        <ele>128.5</ele>
        <time>2015-05-31T09:17:39Z</time>
      </trkpt>
      <trkpt lat="49.19508" lon="1.24463">
        <ele>128.3</ele>
        <time>2015-05-31T09:17:41Z</time>
      </trkpt>
      <trkpt lat="49.19513" lon="1.24482">
        <ele>128.1</ele>
        <time>2015-05-31T09:17:43Z</time>
      </trkpt>
      <trkpt lat="49.19515" lon="1.24498">
        <ele>127.9</ele>
        <time>2015-05-31T09:17:45Z</time>
      </trkpt>
      <trkpt lat="49.1951" lon="1.24513">
        <ele>127.6</ele>
        <time>2015-05-31T09:17:47Z</time>
      </trkpt>
      <trkpt lat="49.19507" lon="1.24528">
        <ele>127.2</ele>
        <time>2015-05-31T09:17:49Z</time>
      </trkpt>
      <trkpt lat="49.19506" lon="1.24544">
        <ele>126.7</ele>
        <time>2015-05-31T09:17:51Z</time>
      </trkpt>
      <trkpt lat="49.19501" lon="1.24561">
        <ele>126.1</ele>
        <time>2015-05-31T09:17:53Z</time>
      </trkpt>
      <trkpt lat="49.19499" lon="1.24578">
        <ele>125.5</ele>
        <time>2015-05-31T09:17:55Z</time>
      </trkpt>
      <trkpt lat="49.19503" lon="1.24595">
        <ele>124.5</ele>
        <time>2015-05-31T09:17:58Z</time>
      </trkpt>
      <trkpt lat="49.1951" lon="1.24605">
        <ele>123.1</ele>
        <time>2015-05-31T09:18:03Z</time>
      </trkpt>
      <trkpt lat="49.19517" lon="1.24614">
        <ele>121.4</ele>
        <time>2015-05-31T09:18:11Z</time>
      </trkpt>
      <trkpt lat="49.19509" lon="1.24617">
        <ele>119.1</ele>
        <time>2015-05-31T09:18:34Z</time>
      </trkpt>
      <trkpt lat="49.19501" lon="1.24624">
        <ele>118.4</ele>
        <time>2015-05-31T09:18:55Z</time>
      </trkpt>
      <trkpt lat="49.19509" lon="1.24631">
        <ele>118.1</ele>
        <time>2015-05-31T09:23:05Z</time>
      </trkpt>
      <trkpt lat="49.19516" lon="1.24641">
        <ele>118.6</ele>
        <time>2015-05-31T09:23:53Z</time>
      </trkpt>
      <trkpt lat="49.19516" lon="1.24656">
        <ele>118.7</ele>
        <time>2015-05-31T09:23:59Z</time>
      </trkpt>
      <trkpt lat="49.19517" lon="1.24671">
        <ele>119.1</ele>
        <time>2015-05-31T09:24:05Z</time>
      </trkpt>
      <trkpt lat="49.19519" lon="1.24685">
        <ele>119.8</ele>
        <time>2015-05-31T09:24:10Z</time>
      </trkpt>
      <trkpt lat="49.19522" lon="1.24699">
        <ele>120.6</ele>
        <time>2015-05-31T09:24:15Z</time>
      </trkpt>
      <trkpt lat="49.19523" lon="1.24714">
        <ele>122</ele>
        <time>2015-05-31T09:24:23Z</time>
      </trkpt>
      <trkpt lat="49.19524" lon="1.24728">
        <ele>122.9</ele>
        <time>2015-05-31T09:24:29Z</time>
      </trkpt>
      <trkpt lat="49.19526" lon="1.24742">
        <ele>123.6</ele>
        <time>2015-05-31T09:24:34Z</time>
      </trkpt>
      <trkpt lat="49.19528" lon="1.24755">
        <ele>124.5</ele>
        <time>2015-05-31T09:24:40Z</time>
      </trkpt>
      <trkpt lat="49.19535" lon="1.24765">
        <ele>125.4</ele>
        <time>2015-05-31T09:24:46Z</time>
      </trkpt>
      <trkpt lat="49.19543" lon="1.24772">
        <ele>126.1</ele>
        <time>2015-05-31T09:24:53Z</time>
      </trkpt>
      <trkpt lat="49.19555" lon="1.24783">
        <ele>126.8</ele>
        <time>2015-05-31T09:25:02Z</time>
      </trkpt>
      <trkpt lat="49.19561" lon="1.24795">
        <ele>126.9</ele>
        <time>2015-05-31T09:25:06Z</time>
      </trkpt>
      <trkpt lat="49.19561" lon="1.2481">
        <ele>127.2</ele>
        <time>2015-05-31T09:25:13Z</time>
      </trkpt>
      <trkpt lat="49.19556" lon="1.24825">
        <ele>127.3</ele>
        <time>2015-05-31T09:25:19Z</time>
      </trkpt>
      <trkpt lat="49.19551" lon="1.24838">
        <ele>127.4</ele>
        <time>2015-05-31T09:25:23Z</time>
      </trkpt>
      <trkpt lat="49.19546" lon="1.24851">
        <ele>127.9</ele>
        <time>2015-05-31T09:25:28Z</time>
      </trkpt>
      <trkpt lat="49.19537" lon="1.2485">
        <ele>128.6</ele>
        <time>2015-05-31T09:25:34Z</time>
      </trkpt>
      <trkpt lat="49.19527" lon="1.24845">
        <ele>129.2</ele>
        <time>2015-05-31T09:25:39Z</time>
      </trkpt>
      <trkpt lat="49.19517" lon="1.24841">
        <ele>129.6</ele>
        <time>2015-05-31T09:25:43Z</time>
      </trkpt>
      <trkpt lat="49.19506" lon="1.24837">
        <ele>130.1</ele>
        <time>2015-05-31T09:25:47Z</time>
      </trkpt>
      <trkpt lat="49.19496" lon="1.24833">
        <ele>130.7</ele>
        <time>2015-05-31T09:25:51Z</time>
      </trkpt>
      <trkpt lat="49.19485" lon="1.2483">
        <ele>131.1</ele>
        <time>2015-05-31T09:25:55Z</time>
      </trkpt>
      <trkpt lat="49.19474" lon="1.24828">
        <ele>131.4</ele>
        <time>2015-05-31T09:25:59Z</time>
      </trkpt>
      <trkpt lat="49.19463" lon="1.24827">
        <ele>131.7</ele>
        <time>2015-05-31T09:26:03Z</time>
      </trkpt>
      <trkpt lat="49.19454" lon="1.24826">
        <ele>131.8</ele>
        <time>2015-05-31T09:26:06Z</time>
      </trkpt>
      <trkpt lat="49.19444" lon="1.24824">
        <ele>132.1</ele>
        <time>2015-05-31T09:26:09Z</time>
      </trkpt>
      <trkpt lat="49.19435" lon="1.24823">
        <ele>132.3</ele>
        <time>2015-05-31T09:26:12Z</time>
      </trkpt>
      <trkpt lat="49.19426" lon="1.24825">
        <ele>132.5</ele>
        <time>2015-05-31T09:26:15Z</time>
      </trkpt>
      <trkpt lat="49.19417" lon="1.24834">
        <ele>132.7</ele>
        <time>2015-05-31T09:26:18Z</time>
      </trkpt>
      <trkpt lat="49.19409" lon="1.24843">
        <ele>132.8</ele>
        <time>2015-05-31T09:26:21Z</time>
      </trkpt>
      <trkpt lat="49.19404" lon="1.24854">
        <ele>132.9</ele>
        <time>2015-05-31T09:26:24Z</time>
      </trkpt>
      <trkpt lat="49.19407" lon="1.24871">
        <ele>133.1</ele>
        <time>2015-05-31T09:26:28Z</time>
      </trkpt>
      <trkpt lat="49.19414" lon="1.24886">
        <ele>133.1</ele>
        <time>2015-05-31T09:26:31Z</time>
      </trkpt>
      <trkpt lat="49.1942" lon="1.24901">
        <ele>133.2</ele>
        <time>2015-05-31T09:26:34Z</time>
      </trkpt>
      <trkpt lat="49.19427" lon="1.24917">
        <ele>133.2</ele>
        <time>2015-05-31T09:26:37Z</time>
      </trkpt>
      <trkpt lat="49.19434" lon="1.24935">
        <ele>133.3</ele>
        <time>2015-05-31T09:26:40Z</time>
      </trkpt>
      <trkpt lat="49.19439" lon="1.24946">
        <ele>133.3</ele>
        <time>2015-05-31T09:26:42Z</time>
      </trkpt>
      <trkpt lat="49.19444" lon="1.24958">
        <ele>133.4</ele>
        <time>2015-05-31T09:26:44Z</time>
      </trkpt>
      <trkpt lat="49.19449" lon="1.2497">
        <ele>133.4</ele>
        <time>2015-05-31T09:26:46Z</time>
      </trkpt>
      <trkpt lat="49.19454" lon="1.24982">
        <ele>133.5</ele>
        <time>2015-05-31T09:26:48Z</time>
      </trkpt>
      <trkpt lat="49.19459" lon="1.24994">
        <ele>133.7</ele>
        <time>2015-05-31T09:26:50Z</time>
      </trkpt>
      <trkpt lat="49.19464" lon="1.25007">
        <ele>133.8</ele>
        <time>2015-05-31T09:26:52Z</time>
      </trkpt>
      <trkpt lat="49.1947" lon="1.25019">
        <ele>134</ele>
        <time>2015-05-31T09:26:54Z</time>
      </trkpt>
      <trkpt lat="49.19476" lon="1.25031">
        <ele>134.1</ele>
        <time>2015-05-31T09:26:56Z</time>
      </trkpt>
      <trkpt lat="49.19482" lon="1.25043">
        <ele>134.3</ele>
        <time>2015-05-31T09:26:58Z</time>
      </trkpt>
      <trkpt lat="49.19488" lon="1.25055">
        <ele>134.4</ele>
        <time>2015-05-31T09:27:00Z</time>
      </trkpt>
      <trkpt lat="49.19495" lon="1.25066">
        <ele>134.5</ele>
        <time>2015-05-31T09:27:02Z</time>
      </trkpt>
      <trkpt lat="49.19502" lon="1.25078">
        <ele>134.7</ele>
        <time>2015-05-31T09:27:04Z</time>
      </trkpt>
      <trkpt lat="49.19509" lon="1.2509">
        <ele>134.8</ele>
        <time>2015-05-31T09:27:06Z</time>
      </trkpt>
      <trkpt lat="49.19517" lon="1.25101">
        <ele>135</ele>
        <time>2015-05-31T09:27:08Z</time>
      </trkpt>
      <trkpt lat="49.19524" lon="1.25113">
        <ele>135</ele>
        <time>2015-05-31T09:27:10Z</time>
      </trkpt>
      <trkpt lat="49.19532" lon="1.25124">
        <ele>135.1</ele>
        <time>2015-05-31T09:27:12Z</time>
      </trkpt>
      <trkpt lat="49.19539" lon="1.25136">
        <ele>135.1</ele>
        <time>2015-05-31T09:27:14Z</time>
      </trkpt>
      <trkpt lat="49.19546" lon="1.25147">
        <ele>135.1</ele>
        <time>2015-05-31T09:27:16Z</time>
      </trkpt>
      <trkpt lat="49.19553" lon="1.25159">
        <ele>135.1</ele>
        <time>2015-05-31T09:27:18Z</time>
      </trkpt>
      <trkpt lat="49.19559" lon="1.25171">
        <ele>135</ele>
        <time>2015-05-31T09:27:20Z</time>
      </trkpt>
      <trkpt lat="49.19566" lon="1.25185">
        <ele>135</ele>
        <time>2015-05-31T09:27:23Z</time>
      </trkpt>
      <trkpt lat="49.19571" lon="1.25197">
        <ele>134.8</ele>
        <time>2015-05-31T09:27:34Z</time>
      </trkpt>
      <trkpt lat="49.19577" lon="1.2521">
        <ele>134.7</ele>
        <time>2015-05-31T09:27:42Z</time>
      </trkpt>
      <trkpt lat="49.19584" lon="1.25221">
        <ele>134.7</ele>
        <time>2015-05-31T09:27:45Z</time>
      </trkpt>
      <trkpt lat="49.19592" lon="1.25234">
        <ele>134.7</ele>
        <time>2015-05-31T09:27:48Z</time>
      </trkpt>
      <trkpt lat="49.19599" lon="1.25248">
        <ele>134.7</ele>
        <time>2015-05-31T09:27:51Z</time>
      </trkpt>
      <trkpt lat="49.19607" lon="1.25263">
        <ele>134.6</ele>
        <time>2015-05-31T09:27:54Z</time>
      </trkpt>
      <trkpt lat="49.19616" lon="1.25279">
        <ele>134.5</ele>
        <time>2015-05-31T09:27:57Z</time>
      </trkpt>
      <trkpt lat="49.19622" lon="1.25291">
        <ele>134.4</ele>
        <time>2015-05-31T09:27:59Z</time>
      </trkpt>
      <trkpt lat="49.19628" lon="1.25302">
        <ele>134.3</ele>
        <time>2015-05-31T09:28:01Z</time>
      </trkpt>
      <trkpt lat="49.19636" lon="1.25317">
        <ele>134.2</ele>
        <time>2015-05-31T09:28:04Z</time>
      </trkpt>
      <trkpt lat="49.19638" lon="1.25332">
        <ele>134</ele>
        <time>2015-05-31T09:28:07Z</time>
      </trkpt>
      <trkpt lat="49.1964" lon="1.25347">
        <ele>133.9</ele>
        <time>2015-05-31T09:28:10Z</time>
      </trkpt>
      <trkpt lat="49.19642" lon="1.25363">
        <ele>133.9</ele>
        <time>2015-05-31T09:28:13Z</time>
      </trkpt>
      <trkpt lat="49.19643" lon="1.25378">
        <ele>133.9</ele>
        <time>2015-05-31T09:28:15Z</time>
      </trkpt>
      <trkpt lat="49.19643" lon="1.25398">
        <ele>133.9</ele>
        <time>2015-05-31T09:28:18Z</time>
      </trkpt>
      <trkpt lat="49.19643" lon="1.25412">
        <ele>133.9</ele>
        <time>2015-05-31T09:28:20Z</time>
      </trkpt>
      <trkpt lat="49.19641" lon="1.25429">
        <ele>133.9</ele>
        <time>2015-05-31T09:28:22Z</time>
      </trkpt>
      <trkpt lat="49.1964" lon="1.25448">
        <ele>133.9</ele>
        <time>2015-05-31T09:28:24Z</time>
      </trkpt>
      <trkpt lat="49.1964" lon="1.25464">
        <ele>133.8</ele>
        <time>2015-05-31T09:28:26Z</time>
      </trkpt>
      <trkpt lat="49.19641" lon="1.25478">
        <ele>133.7</ele>
        <time>2015-05-31T09:28:28Z</time>
      </trkpt>
      <trkpt lat="49.1964" lon="1.25496">
        <ele>133.5</ele>
        <time>2015-05-31T09:28:30Z</time>
      </trkpt>
      <trkpt lat="49.19638" lon="1.25511">
        <ele>133.3</ele>
        <time>2015-05-31T09:28:32Z</time>
      </trkpt>
      <trkpt lat="49.19637" lon="1.25526">
        <ele>133.1</ele>
        <time>2015-05-31T09:28:34Z</time>
      </trkpt>
      <trkpt lat="49.19635" lon="1.25542">
        <ele>132.8</ele>
        <time>2015-05-31T09:28:36Z</time>
      </trkpt>
      <trkpt lat="49.19633" lon="1.2556">
        <ele>132.6</ele>
        <time>2015-05-31T09:28:38Z</time>
      </trkpt>
      <trkpt lat="49.1963" lon="1.25577">
        <ele>132.2</ele>
        <time>2015-05-31T09:28:41Z</time>
      </trkpt>
      <trkpt lat="49.19629" lon="1.25596">
        <ele>131.8</ele>
        <time>2015-05-31T09:28:44Z</time>
      </trkpt>
      <trkpt lat="49.19627" lon="1.25615">
        <ele>131.6</ele>
        <time>2015-05-31T09:28:47Z</time>
      </trkpt>
      <trkpt lat="49.19627" lon="1.25636">
        <ele>131.3</ele>
        <time>2015-05-31T09:28:50Z</time>
      </trkpt>
      <trkpt lat="49.19627" lon="1.25657">
        <ele>131.1</ele>
        <time>2015-05-31T09:28:53Z</time>
      </trkpt>
      <trkpt lat="49.19625" lon="1.25671">
        <ele>131</ele>
        <time>2015-05-31T09:28:55Z</time>
      </trkpt>
      <trkpt lat="49.19623" lon="1.25688">
        <ele>130.6</ele>
        <time>2015-05-31T09:28:59Z</time>
      </trkpt>
      <trkpt lat="49.19622" lon="1.25705">
        <ele>130.2</ele>
        <time>2015-05-31T09:29:03Z</time>
      </trkpt>
      <trkpt lat="49.19625" lon="1.25718">
        <ele>130</ele>
        <time>2015-05-31T09:29:05Z</time>
      </trkpt>
      <trkpt lat="49.19631" lon="1.25736">
        <ele>129.6</ele>
        <time>2015-05-31T09:29:08Z</time>
      </trkpt>
      <trkpt lat="49.19634" lon="1.2575">
        <ele>129.3</ele>
        <time>2015-05-31T09:29:10Z</time>
      </trkpt>
      <trkpt lat="49.19639" lon="1.2577">
        <ele>128.9</ele>
        <time>2015-05-31T09:29:12Z</time>
      </trkpt>
      <trkpt lat="49.19641" lon="1.25788">
        <ele>128.6</ele>
        <time>2015-05-31T09:29:14Z</time>
      </trkpt>
      <trkpt lat="49.19644" lon="1.25807">
        <ele>128.1</ele>
        <time>2015-05-31T09:29:16Z</time>
      </trkpt>
      <trkpt lat="49.19646" lon="1.25821">
        <ele>127.6</ele>
        <time>2015-05-31T09:29:18Z</time>
      </trkpt>
      <trkpt lat="49.19648" lon="1.25837">
        <ele>126.7</ele>
        <time>2015-05-31T09:29:22Z</time>
      </trkpt>
      <trkpt lat="49.19649" lon="1.25853">
        <ele>125.3</ele>
        <time>2015-05-31T09:29:27Z</time>
      </trkpt>
      <trkpt lat="49.19654" lon="1.2587">
        <ele>124.5</ele>
        <time>2015-05-31T09:29:30Z</time>
      </trkpt>
      <trkpt lat="49.19658" lon="1.25883">
        <ele>123.9</ele>
        <time>2015-05-31T09:29:32Z</time>
      </trkpt>
      <trkpt lat="49.19664" lon="1.25896">
        <ele>122.7</ele>
        <time>2015-05-31T09:29:35Z</time>
      </trkpt>
      <trkpt lat="49.1967" lon="1.25912">
        <ele>120.9</ele>
        <time>2015-05-31T09:29:40Z</time>
      </trkpt>
      <trkpt lat="49.19679" lon="1.2592">
        <ele>119.9</ele>
        <time>2015-05-31T09:29:43Z</time>
      </trkpt>
      <trkpt lat="49.19689" lon="1.25925">
        <ele>118.2</ele>
        <time>2015-05-31T09:29:47Z</time>
      </trkpt>
      <trkpt lat="49.19699" lon="1.25928">
        <ele>117.1</ele>
        <time>2015-05-31T09:29:50Z</time>
      </trkpt>
      <trkpt lat="49.1971" lon="1.25928">
        <ele>115.5</ele>
        <time>2015-05-31T09:29:54Z</time>
      </trkpt>
      <trkpt lat="49.19722" lon="1.25931">
        <ele>114.2</ele>
        <time>2015-05-31T09:29:57Z</time>
      </trkpt>
      <trkpt lat="49.19731" lon="1.25929">
        <ele>113.3</ele>
        <time>2015-05-31T09:29:59Z</time>
      </trkpt>
      <trkpt lat="49.19743" lon="1.25931">
        <ele>110.8</ele>
        <time>2015-05-31T09:30:04Z</time>
      </trkpt>
      <trkpt lat="49.19752" lon="1.25933">
        <ele>109.4</ele>
        <time>2015-05-31T09:30:07Z</time>
      </trkpt>
      <trkpt lat="49.19762" lon="1.25936">
        <ele>108.1</ele>
        <time>2015-05-31T09:30:10Z</time>
      </trkpt>
      <trkpt lat="49.19773" lon="1.25937">
        <ele>106</ele>
        <time>2015-05-31T09:30:15Z</time>
      </trkpt>
      <trkpt lat="49.19786" lon="1.25935">
        <ele>104.7</ele>
        <time>2015-05-31T09:30:18Z</time>
      </trkpt>
      <trkpt lat="49.19798" lon="1.25937">
        <ele>103.3</ele>
        <time>2015-05-31T09:30:21Z</time>
      </trkpt>
      <trkpt lat="49.19807" lon="1.25938">
        <ele>102.5</ele>
        <time>2015-05-31T09:30:23Z</time>
      </trkpt>
      <trkpt lat="49.19818" lon="1.25939">
        <ele>101.5</ele>
        <time>2015-05-31T09:30:26Z</time>
      </trkpt>
      <trkpt lat="49.19829" lon="1.25942">
        <ele>100.8</ele>
        <time>2015-05-31T09:30:28Z</time>
      </trkpt>
      <trkpt lat="49.19838" lon="1.25946">
        <ele>100.2</ele>
        <time>2015-05-31T09:30:30Z</time>
      </trkpt>
      <trkpt lat="49.19849" lon="1.25951">
        <ele>99.4</ele>
        <time>2015-05-31T09:30:32Z</time>
      </trkpt>
      <trkpt lat="49.19861" lon="1.25955">
        <ele>98.4</ele>
        <time>2015-05-31T09:30:34Z</time>
      </trkpt>
      <trkpt lat="49.19873" lon="1.25962">
        <ele>97.4</ele>
        <time>2015-05-31T09:30:36Z</time>
      </trkpt>
      <trkpt lat="49.19887" lon="1.25968">
        <ele>96.4</ele>
        <time>2015-05-31T09:30:38Z</time>
      </trkpt>
      <trkpt lat="49.19899" lon="1.25974">
        <ele>95.3</ele>
        <time>2015-05-31T09:30:40Z</time>
      </trkpt>
      <trkpt lat="49.19911" lon="1.25978">
        <ele>94</ele>
        <time>2015-05-31T09:30:42Z</time>
      </trkpt>
      <trkpt lat="49.19922" lon="1.25982">
        <ele>92.8</ele>
        <time>2015-05-31T09:30:44Z</time>
      </trkpt>
      <trkpt lat="49.19931" lon="1.25985">
        <ele>91.3</ele>
        <time>2015-05-31T09:30:46Z</time>
      </trkpt>
      <trkpt lat="49.19941" lon="1.25988">
        <ele>89.2</ele>
        <time>2015-05-31T09:30:49Z</time>
      </trkpt>
      <trkpt lat="49.19948" lon="1.26">
        <ele>87.3</ele>
        <time>2015-05-31T09:30:52Z</time>
      </trkpt>
      <trkpt lat="49.19957" lon="1.26006">
        <ele>86.1</ele>
        <time>2015-05-31T09:30:54Z</time>
      </trkpt>
      <trkpt lat="49.19963" lon="1.26022">
        <ele>84.3</ele>
        <time>2015-05-31T09:30:57Z</time>
      </trkpt>
      <trkpt lat="49.19959" lon="1.26036">
        <ele>82.6</ele>
        <time>2015-05-31T09:31:00Z</time>
      </trkpt>
      <trkpt lat="49.19947" lon="1.26044">
        <ele>81.1</ele>
        <time>2015-05-31T09:31:03Z</time>
      </trkpt>
      <trkpt lat="49.19936" lon="1.26049">
        <ele>79.3</ele>
        <time>2015-05-31T09:31:06Z</time>
      </trkpt>
      <trkpt lat="49.19926" lon="1.26048">
        <ele>77.2</ele>
        <time>2015-05-31T09:31:10Z</time>
      </trkpt>
      <trkpt lat="49.19915" lon="1.26054">
        <ele>75.4</ele>
        <time>2015-05-31T09:31:14Z</time>
      </trkpt>
      <trkpt lat="49.19904" lon="1.26055">
        <ele>73.5</ele>
        <time>2015-05-31T09:31:18Z</time>
      </trkpt>
      <trkpt lat="49.19893" lon="1.26064">
        <ele>71.5</ele>
        <time>2015-05-31T09:31:22Z</time>
      </trkpt>
      <trkpt lat="49.19884" lon="1.26073">
        <ele>69.9</ele>
        <time>2015-05-31T09:31:25Z</time>
      </trkpt>
      <trkpt lat="49.19882" lon="1.26086">
        <ele>67.6</ele>
        <time>2015-05-31T09:31:29Z</time>
      </trkpt>
      <trkpt lat="49.19891" lon="1.26097">
        <ele>65.8</ele>
        <time>2015-05-31T09:31:32Z</time>
      </trkpt>
      <trkpt lat="49.199" lon="1.26106">
        <ele>63.6</ele>
        <time>2015-05-31T09:31:35Z</time>
      </trkpt>
      <trkpt lat="49.19908" lon="1.26115">
        <ele>61.5</ele>
        <time>2015-05-31T09:31:38Z</time>
      </trkpt>
      <trkpt lat="49.19916" lon="1.26127">
        <ele>59.4</ele>
        <time>2015-05-31T09:31:41Z</time>
      </trkpt>
      <trkpt lat="49.19922" lon="1.26138">
        <ele>58</ele>
        <time>2015-05-31T09:31:43Z</time>
      </trkpt>
      <trkpt lat="49.19929" lon="1.26149">
        <ele>56.6</ele>
        <time>2015-05-31T09:31:45Z</time>
      </trkpt>
      <trkpt lat="49.19936" lon="1.26158">
        <ele>55.2</ele>
        <time>2015-05-31T09:31:47Z</time>
      </trkpt>
      <trkpt lat="49.19946" lon="1.2617">
        <ele>53.7</ele>
        <time>2015-05-31T09:31:49Z</time>
      </trkpt>
      <trkpt lat="49.19957" lon="1.26179">
        <ele>52.3</ele>
        <time>2015-05-31T09:31:51Z</time>
      </trkpt>
      <trkpt lat="49.19969" lon="1.26192">
        <ele>50.8</ele>
        <time>2015-05-31T09:31:53Z</time>
      </trkpt>
      <trkpt lat="49.19978" lon="1.26202">
        <ele>49.2</ele>
        <time>2015-05-31T09:31:55Z</time>
      </trkpt>
      <trkpt lat="49.19986" lon="1.26213">
        <ele>47.6</ele>
        <time>2015-05-31T09:31:57Z</time>
      </trkpt>
      <trkpt lat="49.19996" lon="1.2622">
        <ele>45.9</ele>
        <time>2015-05-31T09:31:59Z</time>
      </trkpt>
      <trkpt lat="49.20006" lon="1.26227">
        <ele>44.2</ele>
        <time>2015-05-31T09:32:01Z</time>
      </trkpt>
      <trkpt lat="49.20014" lon="1.26239">
        <ele>42.3</ele>
        <time>2015-05-31T09:32:03Z</time>
      </trkpt>
      <trkpt lat="49.20022" lon="1.26254">
        <ele>39.7</ele>
        <time>2015-05-31T09:32:06Z</time>
      </trkpt>
      <trkpt lat="49.2003" lon="1.26261">
        <ele>38.1</ele>
        <time>2015-05-31T09:32:08Z</time>
      </trkpt>
      <trkpt lat="49.20039" lon="1.26273">
        <ele>35.6</ele>
        <time>2015-05-31T09:32:11Z</time>
      </trkpt>
      <trkpt lat="49.20046" lon="1.26283">
        <ele>33.2</ele>
        <time>2015-05-31T09:32:14Z</time>
      </trkpt>
      <trkpt lat="49.20054" lon="1.26294">
        <ele>30.9</ele>
        <time>2015-05-31T09:32:17Z</time>
      </trkpt>
      <trkpt lat="49.20062" lon="1.26302">
        <ele>28.8</ele>
        <time>2015-05-31T09:32:20Z</time>
      </trkpt>
      <trkpt lat="49.20069" lon="1.26311">
        <ele>26.7</ele>
        <time>2015-05-31T09:32:23Z</time>
      </trkpt>
      <trkpt lat="49.20077" lon="1.26318">
        <ele>24.8</ele>
        <time>2015-05-31T09:32:26Z</time>
      </trkpt>
      <trkpt lat="49.20086" lon="1.26326">
        <ele>23</ele>
        <time>2015-05-31T09:32:29Z</time>
      </trkpt>
      <trkpt lat="49.20096" lon="1.26329">
        <ele>21.3</ele>
        <time>2015-05-31T09:32:32Z</time>
      </trkpt>
      <trkpt lat="49.20108" lon="1.26335">
        <ele>19.8</ele>
        <time>2015-05-31T09:32:35Z</time>
      </trkpt>
      <trkpt lat="49.2012" lon="1.26343">
        <ele>18.6</ele>
        <time>2015-05-31T09:32:38Z</time>
      </trkpt>
      <trkpt lat="49.20131" lon="1.26348">
        <ele>17.8</ele>
        <time>2015-05-31T09:32:40Z</time>
      </trkpt>
      <trkpt lat="49.20141" lon="1.26354">
        <ele>16.9</ele>
        <time>2015-05-31T09:32:42Z</time>
      </trkpt>
      <trkpt lat="49.2015" lon="1.2636">
        <ele>15.8</ele>
        <time>2015-05-31T09:32:45Z</time>
      </trkpt>
      <trkpt lat="49.20154" lon="1.26375">
        <ele>14.8</ele>
        <time>2015-05-31T09:32:48Z</time>
      </trkpt>
      <trkpt lat="49.20154" lon="1.26395">
        <ele>13.8</ele>
        <time>2015-05-31T09:32:51Z</time>
      </trkpt>
      <trkpt lat="49.20154" lon="1.26409">
        <ele>13.2</ele>
        <time>2015-05-31T09:32:53Z</time>
      </trkpt>
      <trkpt lat="49.20154" lon="1.26425">
        <ele>12.7</ele>
        <time>2015-05-31T09:32:55Z</time>
      </trkpt>
      <trkpt lat="49.20155" lon="1.26441">
        <ele>12.3</ele>
        <time>2015-05-31T09:32:57Z</time>
      </trkpt>
      <trkpt lat="49.20156" lon="1.26458">
        <ele>11.9</ele>
        <time>2015-05-31T09:32:59Z</time>
      </trkpt>
      <trkpt lat="49.20158" lon="1.26475">
        <ele>11.6</ele>
        <time>2015-05-31T09:33:01Z</time>
      </trkpt>
      <trkpt lat="49.20159" lon="1.26493">
        <ele>11.3</ele>
        <time>2015-05-31T09:33:03Z</time>
      </trkpt>
      <trkpt lat="49.2016" lon="1.2651">
        <ele>11</ele>
        <time>2015-05-31T09:33:05Z</time>
      </trkpt>
      <trkpt lat="49.2016" lon="1.26526">
        <ele>10.7</ele>
        <time>2015-05-31T09:33:07Z</time>
      </trkpt>
      <trkpt lat="49.20162" lon="1.26543">
        <ele>10.3</ele>
        <time>2015-05-31T09:33:09Z</time>
      </trkpt>
      <trkpt lat="49.20163" lon="1.2656">
        <ele>10</ele>
        <time>2015-05-31T09:33:11Z</time>
      </trkpt>
      <trkpt lat="49.20167" lon="1.26578">
        <ele>9.7</ele>
        <time>2015-05-31T09:33:13Z</time>
      </trkpt>
      <trkpt lat="49.20168" lon="1.26595">
        <ele>9.5</ele>
        <time>2015-05-31T09:33:15Z</time>
      </trkpt>
      <trkpt lat="49.2017" lon="1.26612">
        <ele>9.2</ele>
        <time>2015-05-31T09:33:17Z</time>
      </trkpt>
      <trkpt lat="49.20171" lon="1.26628">
        <ele>9</ele>
        <time>2015-05-31T09:33:19Z</time>
      </trkpt>
      <trkpt lat="49.20174" lon="1.26646">
        <ele>8.8</ele>
        <time>2015-05-31T09:33:21Z</time>
      </trkpt>
      <trkpt lat="49.20177" lon="1.26662">
        <ele>8.6</ele>
        <time>2015-05-31T09:33:23Z</time>
      </trkpt>
      <trkpt lat="49.2018" lon="1.26679">
        <ele>8.5</ele>
        <time>2015-05-31T09:33:25Z</time>
      </trkpt>
      <trkpt lat="49.20182" lon="1.26695">
        <ele>8.3</ele>
        <time>2015-05-31T09:33:27Z</time>
      </trkpt>
      <trkpt lat="49.20187" lon="1.26713">
        <ele>8.2</ele>
        <time>2015-05-31T09:33:29Z</time>
      </trkpt>
      <trkpt lat="49.2019" lon="1.26731">
        <ele>8.1</ele>
        <time>2015-05-31T09:33:31Z</time>
      </trkpt>
      <trkpt lat="49.20194" lon="1.26749">
        <ele>8</ele>
        <time>2015-05-31T09:33:33Z</time>
      </trkpt>
      <trkpt lat="49.20197" lon="1.26767">
        <ele>7.9</ele>
        <time>2015-05-31T09:33:35Z</time>
      </trkpt>
      <trkpt lat="49.202" lon="1.26784">
        <ele>7.8</ele>
        <time>2015-05-31T09:33:37Z</time>
      </trkpt>
      <trkpt lat="49.20204" lon="1.26802">
        <ele>7.8</ele>
        <time>2015-05-31T09:33:39Z</time>
      </trkpt>
      <trkpt lat="49.20209" lon="1.2682">
        <ele>7.7</ele>
        <time>2015-05-31T09:33:41Z</time>
      </trkpt>
      <trkpt lat="49.20214" lon="1.26839">
        <ele>7.6</ele>
        <time>2015-05-31T09:33:43Z</time>
      </trkpt>
      <trkpt lat="49.20218" lon="1.26857">
        <ele>7.6</ele>
        <time>2015-05-31T09:33:45Z</time>
      </trkpt>
      <trkpt lat="49.20221" lon="1.26874">
        <ele>7.6</ele>
        <time>2015-05-31T09:33:47Z</time>
      </trkpt>
      <trkpt lat="49.20223" lon="1.26892">
        <ele>7.6</ele>
        <time>2015-05-31T09:33:49Z</time>
      </trkpt>
      <trkpt lat="49.20221" lon="1.26908">
        <ele>7.6</ele>
        <time>2015-05-31T09:33:51Z</time>
      </trkpt>
      <trkpt lat="49.20215" lon="1.2692">
        <ele>7.6</ele>
        <time>2015-05-31T09:33:53Z</time>
      </trkpt>
      <trkpt lat="49.20205" lon="1.26932">
        <ele>7.7</ele>
        <time>2015-05-31T09:33:56Z</time>
      </trkpt>
      <trkpt lat="49.20196" lon="1.26937">
        <ele>7.9</ele>
        <time>2015-05-31T09:33:58Z</time>
      </trkpt>
      <trkpt lat="49.20187" lon="1.26945">
        <ele>8</ele>
        <time>2015-05-31T09:34:00Z</time>
      </trkpt>
      <trkpt lat="49.20178" lon="1.26952">
        <ele>8.2</ele>
        <time>2015-05-31T09:34:02Z</time>
      </trkpt>
      <trkpt lat="49.20168" lon="1.26963">
        <ele>8.4</ele>
        <time>2015-05-31T09:34:05Z</time>
      </trkpt>
      <trkpt lat="49.2016" lon="1.26972">
        <ele>8.5</ele>
        <time>2015-05-31T09:34:07Z</time>
      </trkpt>
      <trkpt lat="49.20153" lon="1.26983">
        <ele>8.7</ele>
        <time>2015-05-31T09:34:09Z</time>
      </trkpt>
      <trkpt lat="49.20144" lon="1.26993">
        <ele>8.8</ele>
        <time>2015-05-31T09:34:11Z</time>
      </trkpt>
      <trkpt lat="49.20136" lon="1.27004">
        <ele>8.9</ele>
        <time>2015-05-31T09:34:13Z</time>
      </trkpt>
      <trkpt lat="49.20125" lon="1.27014">
        <ele>9</ele>
        <time>2015-05-31T09:34:15Z</time>
      </trkpt>
      <trkpt lat="49.20116" lon="1.27024">
        <ele>9.1</ele>
        <time>2015-05-31T09:34:17Z</time>
      </trkpt>
      <trkpt lat="49.20106" lon="1.27034">
        <ele>9.2</ele>
        <time>2015-05-31T09:34:19Z</time>
      </trkpt>
      <trkpt lat="49.20098" lon="1.27045">
        <ele>9.3</ele>
        <time>2015-05-31T09:34:21Z</time>
      </trkpt>
      <trkpt lat="49.20091" lon="1.27055">
        <ele>9.4</ele>
        <time>2015-05-31T09:34:23Z</time>
      </trkpt>
      <trkpt lat="49.20085" lon="1.27073">
        <ele>9.8</ele>
        <time>2015-05-31T09:34:26Z</time>
      </trkpt>
      <trkpt lat="49.20083" lon="1.27094">
        <ele>10.2</ele>
        <time>2015-05-31T09:34:29Z</time>
      </trkpt>
      <trkpt lat="49.20083" lon="1.27108">
        <ele>10.5</ele>
        <time>2015-05-31T09:34:31Z</time>
      </trkpt>
      <trkpt lat="49.20081" lon="1.27124">
        <ele>10.8</ele>
        <time>2015-05-31T09:34:34Z</time>
      </trkpt>
      <trkpt lat="49.20072" lon="1.2713">
        <ele>11</ele>
        <time>2015-05-31T09:34:38Z</time>
      </trkpt>
      <trkpt lat="49.20067" lon="1.27142">
        <ele>11.3</ele>
        <time>2015-05-31T09:34:45Z</time>
      </trkpt>
      <trkpt lat="49.20064" lon="1.27155">
        <ele>11.8</ele>
        <time>2015-05-31T09:34:50Z</time>
      </trkpt>
      <trkpt lat="49.20064" lon="1.27171">
        <ele>12.4</ele>
        <time>2015-05-31T09:34:54Z</time>
      </trkpt>
      <trkpt lat="49.20064" lon="1.27187">
        <ele>13</ele>
        <time>2015-05-31T09:34:58Z</time>
      </trkpt>
      <trkpt lat="49.20064" lon="1.27203">
        <ele>13.7</ele>
        <time>2015-05-31T09:35:02Z</time>
      </trkpt>
      <trkpt lat="49.20065" lon="1.27216">
        <ele>14.6</ele>
        <time>2015-05-31T09:35:06Z</time>
      </trkpt>
      <trkpt lat="49.20064" lon="1.2723">
        <ele>15.4</ele>
        <time>2015-05-31T09:35:10Z</time>
      </trkpt>
      <trkpt lat="49.20063" lon="1.27244">
        <ele>16.3</ele>
        <time>2015-05-31T09:35:14Z</time>
      </trkpt>
      <trkpt lat="49.20062" lon="1.2726">
        <ele>17.4</ele>
        <time>2015-05-31T09:35:19Z</time>
      </trkpt>
      <trkpt lat="49.20059" lon="1.27274">
        <ele>18.4</ele>
        <time>2015-05-31T09:35:23Z</time>
      </trkpt>
      <trkpt lat="49.20059" lon="1.27289">
        <ele>19.4</ele>
        <time>2015-05-31T09:35:27Z</time>
      </trkpt>
      <trkpt lat="49.20059" lon="1.27305">
        <ele>20.3</ele>
        <time>2015-05-31T09:35:31Z</time>
      </trkpt>
      <trkpt lat="49.20059" lon="1.27323">
        <ele>21.1</ele>
        <time>2015-05-31T09:35:35Z</time>
      </trkpt>
      <trkpt lat="49.20059" lon="1.2734">
        <ele>21.8</ele>
        <time>2015-05-31T09:35:39Z</time>
      </trkpt>
      <trkpt lat="49.2006" lon="1.27359">
        <ele>22.2</ele>
        <time>2015-05-31T09:35:42Z</time>
      </trkpt>
      <trkpt lat="49.20061" lon="1.27375">
        <ele>22.3</ele>
        <time>2015-05-31T09:35:44Z</time>
      </trkpt>
      <trkpt lat="49.20062" lon="1.27392">
        <ele>22.3</ele>
        <time>2015-05-31T09:35:46Z</time>
      </trkpt>
      <trkpt lat="49.20066" lon="1.27409">
        <ele>22.1</ele>
        <time>2015-05-31T09:35:48Z</time>
      </trkpt>
      <trkpt lat="49.20068" lon="1.27431">
        <ele>21.9</ele>
        <time>2015-05-31T09:35:50Z</time>
      </trkpt>
      <trkpt lat="49.20069" lon="1.27452">
        <ele>21.5</ele>
        <time>2015-05-31T09:35:52Z</time>
      </trkpt>
      <trkpt lat="49.20067" lon="1.27471">
        <ele>21.2</ele>
        <time>2015-05-31T09:35:54Z</time>
      </trkpt>
      <trkpt lat="49.20064" lon="1.27486">
        <ele>20.9</ele>
        <time>2015-05-31T09:35:56Z</time>
      </trkpt>
      <trkpt lat="49.20063" lon="1.27505">
        <ele>20.8</ele>
        <time>2015-05-31T09:35:59Z</time>
      </trkpt>
      <trkpt lat="49.20061" lon="1.2752">
        <ele>20.8</ele>
        <time>2015-05-31T09:36:02Z</time>
      </trkpt>
      <trkpt lat="49.20059" lon="1.27536">
        <ele>21.2</ele>
        <time>2015-05-31T09:36:06Z</time>
      </trkpt>
      <trkpt lat="49.20057" lon="1.27551">
        <ele>21.8</ele>
        <time>2015-05-31T09:36:10Z</time>
      </trkpt>
      <trkpt lat="49.20057" lon="1.27565">
        <ele>22.5</ele>
        <time>2015-05-31T09:36:14Z</time>
      </trkpt>
      <trkpt lat="49.20057" lon="1.2758">
        <ele>23.2</ele>
        <time>2015-05-31T09:36:18Z</time>
      </trkpt>
      <trkpt lat="49.2006" lon="1.27596">
        <ele>23.8</ele>
        <time>2015-05-31T09:36:22Z</time>
      </trkpt>
      <trkpt lat="49.20064" lon="1.2761">
        <ele>24</ele>
        <time>2015-05-31T09:36:25Z</time>
      </trkpt>
      <trkpt lat="49.20064" lon="1.27626">
        <ele>24</ele>
        <time>2015-05-31T09:36:29Z</time>
      </trkpt>
      <trkpt lat="49.20058" lon="1.27638">
        <ele>23.7</ele>
        <time>2015-05-31T09:36:36Z</time>
      </trkpt>
      <trkpt lat="49.2005" lon="1.2765">
        <ele>23.5</ele>
        <time>2015-05-31T09:36:48Z</time>
      </trkpt>
      <trkpt lat="49.20042" lon="1.27657">
        <ele>23.6</ele>
        <time>2015-05-31T09:36:53Z</time>
      </trkpt>
      <trkpt lat="49.20037" lon="1.27669">
        <ele>24.3</ele>
        <time>2015-05-31T09:36:58Z</time>
      </trkpt>
      <trkpt lat="49.20029" lon="1.27678">
        <ele>25.4</ele>
        <time>2015-05-31T09:37:04Z</time>
      </trkpt>
      <trkpt lat="49.20023" lon="1.27689">
        <ele>27.1</ele>
        <time>2015-05-31T09:37:11Z</time>
      </trkpt>
      <trkpt lat="49.20017" lon="1.277">
        <ele>28.6</ele>
        <time>2015-05-31T09:37:17Z</time>
      </trkpt>
      <trkpt lat="49.20015" lon="1.27715">
        <ele>31</ele>
        <time>2015-05-31T09:37:26Z</time>
      </trkpt>
      <trkpt lat="49.20011" lon="1.27728">
        <ele>33.2</ele>
        <time>2015-05-31T09:37:34Z</time>
      </trkpt>
      <trkpt lat="49.2001" lon="1.27743">
        <ele>36.2</ele>
        <time>2015-05-31T09:37:46Z</time>
      </trkpt>
      <trkpt lat="49.20005" lon="1.27755">
        <ele>39.7</ele>
        <time>2015-05-31T09:38:02Z</time>
      </trkpt>
      <trkpt lat="49.20001" lon="1.27768">
        <ele>42.4</ele>
        <time>2015-05-31T09:38:14Z</time>
      </trkpt>
      <trkpt lat="49.19998" lon="1.27782">
        <ele>45.5</ele>
        <time>2015-05-31T09:38:29Z</time>
      </trkpt>
      <trkpt lat="49.19997" lon="1.27797">
        <ele>47.6</ele>
        <time>2015-05-31T09:38:40Z</time>
      </trkpt>
      <trkpt lat="49.19996" lon="1.27811">
        <ele>49.9</ele>
        <time>2015-05-31T09:38:51Z</time>
      </trkpt>
      <trkpt lat="49.19994" lon="1.27826">
        <ele>52.1</ele>
        <time>2015-05-31T09:39:02Z</time>
      </trkpt>
      <trkpt lat="49.1999" lon="1.27839">
        <ele>55.1</ele>
        <time>2015-05-31T09:39:17Z</time>
      </trkpt>
      <trkpt lat="49.19982" lon="1.27849">
        <ele>56.5</ele>
        <time>2015-05-31T09:39:24Z</time>
      </trkpt>
      <trkpt lat="49.19975" lon="1.27857">
        <ele>58.2</ele>
        <time>2015-05-31T09:39:31Z</time>
      </trkpt>
      <trkpt lat="49.19967" lon="1.27865">
        <ele>59.7</ele>
        <time>2015-05-31T09:39:38Z</time>
      </trkpt>
      <trkpt lat="49.19959" lon="1.27872">
        <ele>61.3</ele>
        <time>2015-05-31T09:39:45Z</time>
      </trkpt>
      <trkpt lat="49.19951" lon="1.27878">
        <ele>62.7</ele>
        <time>2015-05-31T09:39:52Z</time>
      </trkpt>
      <trkpt lat="49.19943" lon="1.27885">
        <ele>64.1</ele>
        <time>2015-05-31T09:39:59Z</time>
      </trkpt>
      <trkpt lat="49.19934" lon="1.27893">
        <ele>65.5</ele>
        <time>2015-05-31T09:40:06Z</time>
      </trkpt>
      <trkpt lat="49.19925" lon="1.27901">
        <ele>66.8</ele>
        <time>2015-05-31T09:40:12Z</time>
      </trkpt>
      <trkpt lat="49.19918" lon="1.2791">
        <ele>68.3</ele>
        <time>2015-05-31T09:40:18Z</time>
      </trkpt>
      <trkpt lat="49.19911" lon="1.27918">
        <ele>70</ele>
        <time>2015-05-31T09:40:24Z</time>
      </trkpt>
      <trkpt lat="49.19902" lon="1.27925">
        <ele>72.1</ele>
        <time>2015-05-31T09:40:31Z</time>
      </trkpt>
      <trkpt lat="49.19898" lon="1.27938">
        <ele>75.9</ele>
        <time>2015-05-31T09:40:46Z</time>
      </trkpt>
      <trkpt lat="49.19891" lon="1.27948">
        <ele>78.3</ele>
        <time>2015-05-31T09:40:59Z</time>
      </trkpt>
      <trkpt lat="49.19886" lon="1.2796">
        <ele>79.7</ele>
        <time>2015-05-31T09:41:09Z</time>
      </trkpt>
      <trkpt lat="49.19885" lon="1.27974">
        <ele>80.7</ele>
        <time>2015-05-31T09:41:16Z</time>
      </trkpt>
      <trkpt lat="49.19879" lon="1.27985">
        <ele>81.9</ele>
        <time>2015-05-31T09:41:23Z</time>
      </trkpt>
      <trkpt lat="49.19875" lon="1.27998">
        <ele>83.3</ele>
        <time>2015-05-31T09:41:29Z</time>
      </trkpt>
      <trkpt lat="49.19869" lon="1.2801">
        <ele>85.3</ele>
        <time>2015-05-31T09:41:36Z</time>
      </trkpt>
      <trkpt lat="49.19864" lon="1.28023">
        <ele>88</ele>
        <time>2015-05-31T09:41:45Z</time>
      </trkpt>
      <trkpt lat="49.19862" lon="1.28039">
        <ele>90.1</ele>
        <time>2015-05-31T09:41:53Z</time>
      </trkpt>
      <trkpt lat="49.19863" lon="1.28054">
        <ele>91.9</ele>
        <time>2015-05-31T09:42:01Z</time>
      </trkpt>
      <trkpt lat="49.1986" lon="1.28068">
        <ele>93.9</ele>
        <time>2015-05-31T09:42:10Z</time>
      </trkpt>
      <trkpt lat="49.19857" lon="1.28081">
        <ele>95.6</ele>
        <time>2015-05-31T09:42:17Z</time>
      </trkpt>
      <trkpt lat="49.19856" lon="1.28097">
        <ele>98</ele>
        <time>2015-05-31T09:42:27Z</time>
      </trkpt>
      <trkpt lat="49.19856" lon="1.28112">
        <ele>99.7</ele>
        <time>2015-05-31T09:42:35Z</time>
      </trkpt>
      <trkpt lat="49.19857" lon="1.28126">
        <ele>101.2</ele>
        <time>2015-05-31T09:42:43Z</time>
      </trkpt>
      <trkpt lat="49.19861" lon="1.2814">
        <ele>102.6</ele>
        <time>2015-05-31T09:42:50Z</time>
      </trkpt>
      <trkpt lat="49.19861" lon="1.28154">
        <ele>104</ele>
        <time>2015-05-31T09:42:56Z</time>
      </trkpt>
      <trkpt lat="49.19862" lon="1.28169">
        <ele>105.9</ele>
        <time>2015-05-31T09:43:04Z</time>
      </trkpt>
      <trkpt lat="49.19863" lon="1.28185">
        <ele>107.9</ele>
        <time>2015-05-31T09:43:12Z</time>
      </trkpt>
      <trkpt lat="49.19861" lon="1.282">
        <ele>109.6</ele>
        <time>2015-05-31T09:43:19Z</time>
      </trkpt>
      <trkpt lat="49.19864" lon="1.28213">
        <ele>111.4</ele>
        <time>2015-05-31T09:43:26Z</time>
      </trkpt>
      <trkpt lat="49.19863" lon="1.28229">
        <ele>113.2</ele>
        <time>2015-05-31T09:43:33Z</time>
      </trkpt>
      <trkpt lat="49.19862" lon="1.28243">
        <ele>114.7</ele>
        <time>2015-05-31T09:43:39Z</time>
      </trkpt>
      <trkpt lat="49.19866" lon="1.28257">
        <ele>116.4</ele>
        <time>2015-05-31T09:43:48Z</time>
      </trkpt>
      <trkpt lat="49.19868" lon="1.28273">
        <ele>117.4</ele>
        <time>2015-05-31T09:43:54Z</time>
      </trkpt>
      <trkpt lat="49.19868" lon="1.28289">
        <ele>118.1</ele>
        <time>2015-05-31T09:43:59Z</time>
      </trkpt>
      <trkpt lat="49.19868" lon="1.28307">
        <ele>118.5</ele>
        <time>2015-05-31T09:44:03Z</time>
      </trkpt>
      <trkpt lat="49.19874" lon="1.28322">
        <ele>118.4</ele>
        <time>2015-05-31T09:44:06Z</time>
      </trkpt>
      <trkpt lat="49.19877" lon="1.28336">
        <ele>118.3</ele>
        <time>2015-05-31T09:44:09Z</time>
      </trkpt>
      <trkpt lat="49.19881" lon="1.28354">
        <ele>118.2</ele>
        <time>2015-05-31T09:44:13Z</time>
      </trkpt>
      <trkpt lat="49.19885" lon="1.28374">
        <ele>118.1</ele>
        <time>2015-05-31T09:44:17Z</time>
      </trkpt>
      <trkpt lat="49.19888" lon="1.28393">
        <ele>118</ele>
        <time>2015-05-31T09:44:20Z</time>
      </trkpt>
      <trkpt lat="49.19888" lon="1.2841">
        <ele>117.9</ele>
        <time>2015-05-31T09:44:22Z</time>
      </trkpt>
      <trkpt lat="49.19887" lon="1.28424">
        <ele>117.7</ele>
        <time>2015-05-31T09:44:24Z</time>
      </trkpt>
      <trkpt lat="49.1989" lon="1.28438">
        <ele>117.6</ele>
        <time>2015-05-31T09:44:26Z</time>
      </trkpt>
      <trkpt lat="49.19891" lon="1.28454">
        <ele>117.5</ele>
        <time>2015-05-31T09:44:28Z</time>
      </trkpt>
      <trkpt lat="49.19893" lon="1.28476">
        <ele>117.5</ele>
        <time>2015-05-31T09:44:31Z</time>
      </trkpt>
      <trkpt lat="49.19896" lon="1.28496">
        <ele>117.4</ele>
        <time>2015-05-31T09:44:34Z</time>
      </trkpt>
      <trkpt lat="49.199" lon="1.28518">
        <ele>117.4</ele>
        <time>2015-05-31T09:44:37Z</time>
      </trkpt>
      <trkpt lat="49.19904" lon="1.28535">
        <ele>117.4</ele>
        <time>2015-05-31T09:44:39Z</time>
      </trkpt>
      <trkpt lat="49.19907" lon="1.2855">
        <ele>117.4</ele>
        <time>2015-05-31T09:44:41Z</time>
      </trkpt>
      <trkpt lat="49.19909" lon="1.2857">
        <ele>117.4</ele>
        <time>2015-05-31T09:44:44Z</time>
      </trkpt>
      <trkpt lat="49.19908" lon="1.28588">
        <ele>117.4</ele>
        <time>2015-05-31T09:44:47Z</time>
      </trkpt>
      <trkpt lat="49.19909" lon="1.28602">
        <ele>117.4</ele>
        <time>2015-05-31T09:44:49Z</time>
      </trkpt>
      <trkpt lat="49.1991" lon="1.28621">
        <ele>117.4</ele>
        <time>2015-05-31T09:44:52Z</time>
      </trkpt>
      <trkpt lat="49.19906" lon="1.28638">
        <ele>117.6</ele>
        <time>2015-05-31T09:44:55Z</time>
      </trkpt>
      <trkpt lat="49.19905" lon="1.2866">
        <ele>117.9</ele>
        <time>2015-05-31T09:44:58Z</time>
      </trkpt>
      <trkpt lat="49.19906" lon="1.28674">
        <ele>118.1</ele>
        <time>2015-05-31T09:45:00Z</time>
      </trkpt>
      <trkpt lat="49.19906" lon="1.28691">
        <ele>118.5</ele>
        <time>2015-05-31T09:45:03Z</time>
      </trkpt>
      <trkpt lat="49.19907" lon="1.28705">
        <ele>118.9</ele>
        <time>2015-05-31T09:45:06Z</time>
      </trkpt>
      <trkpt lat="49.19913" lon="1.28717">
        <ele>119.2</ele>
        <time>2015-05-31T09:45:08Z</time>
      </trkpt>
      <trkpt lat="49.19918" lon="1.28728">
        <ele>119.4</ele>
        <time>2015-05-31T09:45:10Z</time>
      </trkpt>
      <trkpt lat="49.1992" lon="1.28749">
        <ele>119.6</ele>
        <time>2015-05-31T09:45:12Z</time>
      </trkpt>
      <trkpt lat="49.19926" lon="1.28765">
        <ele>119.8</ele>
        <time>2015-05-31T09:45:14Z</time>
      </trkpt>
      <trkpt lat="49.19928" lon="1.28783">
        <ele>119.8</ele>
        <time>2015-05-31T09:45:16Z</time>
      </trkpt>
      <trkpt lat="49.1993" lon="1.28798">
        <ele>119.8</ele>
        <time>2015-05-31T09:45:18Z</time>
      </trkpt>
      <trkpt lat="49.19931" lon="1.28816">
        <ele>119.8</ele>
        <time>2015-05-31T09:45:21Z</time>
      </trkpt>
      <trkpt lat="49.19932" lon="1.28832">
        <ele>119.9</ele>
        <time>2015-05-31T09:45:24Z</time>
      </trkpt>
      <trkpt lat="49.19935" lon="1.28849">
        <ele>120.1</ele>
        <time>2015-05-31T09:45:27Z</time>
      </trkpt>
      <trkpt lat="49.19936" lon="1.28865">
        <ele>120.3</ele>
        <time>2015-05-31T09:45:30Z</time>
      </trkpt>
      <trkpt lat="49.19938" lon="1.28883">
        <ele>120.4</ele>
        <time>2015-05-31T09:45:33Z</time>
      </trkpt>
      <trkpt lat="49.19939" lon="1.28899">
        <ele>120.5</ele>
        <time>2015-05-31T09:45:35Z</time>
      </trkpt>
      <trkpt lat="49.19934" lon="1.28915">
        <ele>120.5</ele>
        <time>2015-05-31T09:45:38Z</time>
      </trkpt>
      <trkpt lat="49.19928" lon="1.28929">
        <ele>120.6</ele>
        <time>2015-05-31T09:45:41Z</time>
      </trkpt>
      <trkpt lat="49.19927" lon="1.28949">
        <ele>120.6</ele>
        <time>2015-05-31T09:45:44Z</time>
      </trkpt>
      <trkpt lat="49.19925" lon="1.28964">
        <ele>120.6</ele>
        <time>2015-05-31T09:45:46Z</time>
      </trkpt>
      <trkpt lat="49.19925" lon="1.28981">
        <ele>120.5</ele>
        <time>2015-05-31T09:45:49Z</time>
      </trkpt>
      <trkpt lat="49.19925" lon="1.28999">
        <ele>120.3</ele>
        <time>2015-05-31T09:45:52Z</time>
      </trkpt>
      <trkpt lat="49.1992" lon="1.29017">
        <ele>120.2</ele>
        <time>2015-05-31T09:45:55Z</time>
      </trkpt>
      <trkpt lat="49.1992" lon="1.29038">
        <ele>120</ele>
        <time>2015-05-31T09:45:58Z</time>
      </trkpt>
      <trkpt lat="49.19919" lon="1.29053">
        <ele>119.9</ele>
        <time>2015-05-31T09:46:00Z</time>
      </trkpt>
      <trkpt lat="49.19921" lon="1.2907">
        <ele>119.7</ele>
        <time>2015-05-31T09:46:03Z</time>
      </trkpt>
      <trkpt lat="49.19922" lon="1.29087">
        <ele>119.3</ele>
        <time>2015-05-31T09:46:06Z</time>
      </trkpt>
      <trkpt lat="49.19925" lon="1.29103">
        <ele>119</ele>
        <time>2015-05-31T09:46:09Z</time>
      </trkpt>
      <trkpt lat="49.19929" lon="1.29118">
        <ele>118.9</ele>
        <time>2015-05-31T09:46:11Z</time>
      </trkpt>
      <trkpt lat="49.19933" lon="1.29134">
        <ele>118.7</ele>
        <time>2015-05-31T09:46:13Z</time>
      </trkpt>
      <trkpt lat="49.19938" lon="1.29145">
        <ele>118.6</ele>
        <time>2015-05-31T09:46:15Z</time>
      </trkpt>
      <trkpt lat="49.19945" lon="1.29162">
        <ele>118.5</ele>
        <time>2015-05-31T09:46:18Z</time>
      </trkpt>
      <trkpt lat="49.19949" lon="1.29174">
        <ele>118.4</ele>
        <time>2015-05-31T09:46:20Z</time>
      </trkpt>
      <trkpt lat="49.19955" lon="1.29187">
        <ele>118.3</ele>
        <time>2015-05-31T09:46:22Z</time>
      </trkpt>
      <trkpt lat="49.1996" lon="1.29199">
        <ele>118.2</ele>
        <time>2015-05-31T09:46:24Z</time>
      </trkpt>
      <trkpt lat="49.19966" lon="1.29215">
        <ele>118.2</ele>
        <time>2015-05-31T09:46:27Z</time>
      </trkpt>
      <trkpt lat="49.1997" lon="1.29229">
        <ele>118.2</ele>
        <time>2015-05-31T09:46:30Z</time>
      </trkpt>
      <trkpt lat="49.19974" lon="1.29246">
        <ele>118.2</ele>
        <time>2015-05-31T09:46:33Z</time>
      </trkpt>
      <trkpt lat="49.19977" lon="1.29263">
        <ele>118</ele>
        <time>2015-05-31T09:46:36Z</time>
      </trkpt>
      <trkpt lat="49.19979" lon="1.29277">
        <ele>117.5</ele>
        <time>2015-05-31T09:46:39Z</time>
      </trkpt>
      <trkpt lat="49.19985" lon="1.29288">
        <ele>117.2</ele>
        <time>2015-05-31T09:46:42Z</time>
      </trkpt>
      <trkpt lat="49.19988" lon="1.29303">
        <ele>116.9</ele>
        <time>2015-05-31T09:46:45Z</time>
      </trkpt>
      <trkpt lat="49.19994" lon="1.2932">
        <ele>116.7</ele>
        <time>2015-05-31T09:46:48Z</time>
      </trkpt>
      <trkpt lat="49.19998" lon="1.29335">
        <ele>116.5</ele>
        <time>2015-05-31T09:46:51Z</time>
      </trkpt>
      <trkpt lat="49.2" lon="1.29355">
        <ele>116.4</ele>
        <time>2015-05-31T09:46:54Z</time>
      </trkpt>
      <trkpt lat="49.20001" lon="1.29372">
        <ele>116.3</ele>
        <time>2015-05-31T09:46:57Z</time>
      </trkpt>
      <trkpt lat="49.20005" lon="1.29391">
        <ele>116.2</ele>
        <time>2015-05-31T09:47:00Z</time>
      </trkpt>
      <trkpt lat="49.20004" lon="1.29406">
        <ele>116</ele>
        <time>2015-05-31T09:47:03Z</time>
      </trkpt>
      <trkpt lat="49.20004" lon="1.29421">
        <ele>115.5</ele>
        <time>2015-05-31T09:47:13Z</time>
      </trkpt>
      <trkpt lat="49.20004" lon="1.29435">
        <ele>115.3</ele>
        <time>2015-05-31T09:47:21Z</time>
      </trkpt>
      <trkpt lat="49.19996" lon="1.29447">
        <ele>115.3</ele>
        <time>2015-05-31T09:47:28Z</time>
      </trkpt>
      <trkpt lat="49.19987" lon="1.29457">
        <ele>115.3</ele>
        <time>2015-05-31T09:47:31Z</time>
      </trkpt>
      <trkpt lat="49.19978" lon="1.29469">
        <ele>115.3</ele>
        <time>2015-05-31T09:47:34Z</time>
      </trkpt>
      <trkpt lat="49.1997" lon="1.29477">
        <ele>115.4</ele>
        <time>2015-05-31T09:47:36Z</time>
      </trkpt>
      <trkpt lat="49.1996" lon="1.29489">
        <ele>115.4</ele>
        <time>2015-05-31T09:47:39Z</time>
      </trkpt>
      <trkpt lat="49.19952" lon="1.29498">
        <ele>115.2</ele>
        <time>2015-05-31T09:47:41Z</time>
      </trkpt>
      <trkpt lat="49.19944" lon="1.29506">
        <ele>115</ele>
        <time>2015-05-31T09:47:43Z</time>
      </trkpt>
      <trkpt lat="49.19937" lon="1.29514">
        <ele>114.2</ele>
        <time>2015-05-31T09:47:50Z</time>
      </trkpt>
      <trkpt lat="49.19935" lon="1.2953">
        <ele>113.5</ele>
        <time>2015-05-31T09:48:02Z</time>
      </trkpt>
      <trkpt lat="49.1994" lon="1.29547">
        <ele>113.3</ele>
        <time>2015-05-31T09:48:06Z</time>
      </trkpt>
      <trkpt lat="49.19941" lon="1.29563">
        <ele>113.2</ele>
        <time>2015-05-31T09:48:09Z</time>
      </trkpt>
      <trkpt lat="49.19931" lon="1.2957">
        <ele>113</ele>
        <time>2015-05-31T09:48:13Z</time>
      </trkpt>
      <trkpt lat="49.19922" lon="1.29574">
        <ele>113</ele>
        <time>2015-05-31T09:48:16Z</time>
      </trkpt>
      <trkpt lat="49.19911" lon="1.29581">
        <ele>112.9</ele>
        <time>2015-05-31T09:48:19Z</time>
      </trkpt>
      <trkpt lat="49.19902" lon="1.29588">
        <ele>112.8</ele>
        <time>2015-05-31T09:48:21Z</time>
      </trkpt>
      <trkpt lat="49.19889" lon="1.29593">
        <ele>112.6</ele>
        <time>2015-05-31T09:48:23Z</time>
      </trkpt>
      <trkpt lat="49.19877" lon="1.296">
        <ele>112.4</ele>
        <time>2015-05-31T09:48:25Z</time>
      </trkpt>
      <trkpt lat="49.19866" lon="1.29606">
        <ele>112</ele>
        <time>2015-05-31T09:48:27Z</time>
      </trkpt>
      <trkpt lat="49.19856" lon="1.29613">
        <ele>111.4</ele>
        <time>2015-05-31T09:48:29Z</time>
      </trkpt>
      <trkpt lat="49.19841" lon="1.29612">
        <ele>110.7</ele>
        <time>2015-05-31T09:48:31Z</time>
      </trkpt>
      <trkpt lat="49.19827" lon="1.29609">
        <ele>109.9</ele>
        <time>2015-05-31T09:48:33Z</time>
      </trkpt>
      <trkpt lat="49.19812" lon="1.29606">
        <ele>109.2</ele>
        <time>2015-05-31T09:48:35Z</time>
      </trkpt>
      <trkpt lat="49.19797" lon="1.29602">
        <ele>108.5</ele>
        <time>2015-05-31T09:48:37Z</time>
      </trkpt>
      <trkpt lat="49.19783" lon="1.29599">
        <ele>107.9</ele>
        <time>2015-05-31T09:48:39Z</time>
      </trkpt>
      <trkpt lat="49.19771" lon="1.29593">
        <ele>107.3</ele>
        <time>2015-05-31T09:48:41Z</time>
      </trkpt>
      <trkpt lat="49.19759" lon="1.29586">
        <ele>106.8</ele>
        <time>2015-05-31T09:48:43Z</time>
      </trkpt>
      <trkpt lat="49.19749" lon="1.29579">
        <ele>106.3</ele>
        <time>2015-05-31T09:48:45Z</time>
      </trkpt>
      <trkpt lat="49.19739" lon="1.29573">
        <ele>106</ele>
        <time>2015-05-31T09:48:47Z</time>
      </trkpt>
      <trkpt lat="49.19731" lon="1.29566">
        <ele>105.6</ele>
        <time>2015-05-31T09:48:49Z</time>
      </trkpt>
      <trkpt lat="49.1972" lon="1.29557">
        <ele>105.3</ele>
        <time>2015-05-31T09:48:52Z</time>
      </trkpt>
      <trkpt lat="49.19712" lon="1.29566">
        <ele>104.9</ele>
        <time>2015-05-31T09:48:55Z</time>
      </trkpt>
      <trkpt lat="49.19709" lon="1.2958">
        <ele>104.6</ele>
        <time>2015-05-31T09:48:58Z</time>
      </trkpt>
      <trkpt lat="49.19705" lon="1.29593">
        <ele>104</ele>
        <time>2015-05-31T09:49:02Z</time>
      </trkpt>
      <trkpt lat="49.19698" lon="1.29608">
        <ele>103.7</ele>
        <time>2015-05-31T09:49:05Z</time>
      </trkpt>
      <trkpt lat="49.19694" lon="1.29622">
        <ele>103.4</ele>
        <time>2015-05-31T09:49:07Z</time>
      </trkpt>
      <trkpt lat="49.19689" lon="1.29638">
        <ele>103</ele>
        <time>2015-05-31T09:49:09Z</time>
      </trkpt>
      <trkpt lat="49.19685" lon="1.29656">
        <ele>102.5</ele>
        <time>2015-05-31T09:49:11Z</time>
      </trkpt>
      <trkpt lat="49.19681" lon="1.29676">
        <ele>102.1</ele>
        <time>2015-05-31T09:49:13Z</time>
      </trkpt>
      <trkpt lat="49.19678" lon="1.29697">
        <ele>101.6</ele>
        <time>2015-05-31T09:49:15Z</time>
      </trkpt>
      <trkpt lat="49.19673" lon="1.29718">
        <ele>101.1</ele>
        <time>2015-05-31T09:49:17Z</time>
      </trkpt>
      <trkpt lat="49.19668" lon="1.29739">
        <ele>100.5</ele>
        <time>2015-05-31T09:49:19Z</time>
      </trkpt>
      <trkpt lat="49.19663" lon="1.29761">
        <ele>100</ele>
        <time>2015-05-31T09:49:21Z</time>
      </trkpt>
      <trkpt lat="49.19657" lon="1.29781">
        <ele>99.5</ele>
        <time>2015-05-31T09:49:23Z</time>
      </trkpt>
      <trkpt lat="49.1965" lon="1.29799">
        <ele>98.9</ele>
        <time>2015-05-31T09:49:25Z</time>
      </trkpt>
      <trkpt lat="49.19643" lon="1.29818">
        <ele>98.4</ele>
        <time>2015-05-31T09:49:27Z</time>
      </trkpt>
      <trkpt lat="49.19633" lon="1.29834">
        <ele>97.7</ele>
        <time>2015-05-31T09:49:29Z</time>
      </trkpt>
      <trkpt lat="49.19623" lon="1.29841">
        <ele>97.1</ele>
        <time>2015-05-31T09:49:31Z</time>
      </trkpt>
      <trkpt lat="49.19614" lon="1.29845">
        <ele>96.5</ele>
        <time>2015-05-31T09:49:33Z</time>
      </trkpt>
      <trkpt lat="49.19603" lon="1.29849">
        <ele>95.9</ele>
        <time>2015-05-31T09:49:36Z</time>
      </trkpt>
      <trkpt lat="49.19593" lon="1.29854">
        <ele>95.6</ele>
        <time>2015-05-31T09:49:39Z</time>
      </trkpt>
      <trkpt lat="49.19581" lon="1.29859">
        <ele>95.5</ele>
        <time>2015-05-31T09:49:43Z</time>
      </trkpt>
      <trkpt lat="49.1957" lon="1.29859">
        <ele>96.1</ele>
        <time>2015-05-31T09:49:48Z</time>
      </trkpt>
      <trkpt lat="49.19561" lon="1.29864">
        <ele>96.5</ele>
        <time>2015-05-31T09:49:51Z</time>
      </trkpt>
      <trkpt lat="49.19551" lon="1.29865">
        <ele>97.2</ele>
        <time>2015-05-31T09:49:55Z</time>
      </trkpt>
      <trkpt lat="49.1954" lon="1.29866">
        <ele>98</ele>
        <time>2015-05-31T09:49:59Z</time>
      </trkpt>
      <trkpt lat="49.19531" lon="1.29872">
        <ele>99.4</ele>
        <time>2015-05-31T09:50:05Z</time>
      </trkpt>
      <trkpt lat="49.1952" lon="1.29874">
        <ele>100.5</ele>
        <time>2015-05-31T09:50:10Z</time>
      </trkpt>
      <trkpt lat="49.19508" lon="1.29872">
        <ele>101.6</ele>
        <time>2015-05-31T09:50:15Z</time>
      </trkpt>
      <trkpt lat="49.19498" lon="1.2987">
        <ele>102.5</ele>
        <time>2015-05-31T09:50:19Z</time>
      </trkpt>
      <trkpt lat="49.19486" lon="1.29869">
        <ele>103.3</ele>
        <time>2015-05-31T09:50:23Z</time>
      </trkpt>
      <trkpt lat="49.19475" lon="1.29868">
        <ele>104</ele>
        <time>2015-05-31T09:50:27Z</time>
      </trkpt>
      <trkpt lat="49.19465" lon="1.29864">
        <ele>104.3</ele>
        <time>2015-05-31T09:50:29Z</time>
      </trkpt>
      <trkpt lat="49.19457" lon="1.2986">
        <ele>104.5</ele>
        <time>2015-05-31T09:50:31Z</time>
      </trkpt>
      <trkpt lat="49.19446" lon="1.29855">
        <ele>104.9</ele>
        <time>2015-05-31T09:50:34Z</time>
      </trkpt>
      <trkpt lat="49.19434" lon="1.29854">
        <ele>105.2</ele>
        <time>2015-05-31T09:50:38Z</time>
      </trkpt>
      <trkpt lat="49.1942" lon="1.2985">
        <ele>105.3</ele>
        <time>2015-05-31T09:50:41Z</time>
      </trkpt>
      <trkpt lat="49.19409" lon="1.29847">
        <ele>105.2</ele>
        <time>2015-05-31T09:50:43Z</time>
      </trkpt>
      <trkpt lat="49.19398" lon="1.29844">
        <ele>105</ele>
        <time>2015-05-31T09:50:45Z</time>
      </trkpt>
      <trkpt lat="49.19388" lon="1.29842">
        <ele>104.6</ele>
        <time>2015-05-31T09:50:47Z</time>
      </trkpt>
      <trkpt lat="49.19379" lon="1.29838">
        <ele>104.2</ele>
        <time>2015-05-31T09:50:49Z</time>
      </trkpt>
      <trkpt lat="49.19367" lon="1.29833">
        <ele>103.4</ele>
        <time>2015-05-31T09:50:52Z</time>
      </trkpt>
      <trkpt lat="49.19358" lon="1.29827">
        <ele>102.8</ele>
        <time>2015-05-31T09:50:54Z</time>
      </trkpt>
      <trkpt lat="49.1935" lon="1.29821">
        <ele>102.2</ele>
        <time>2015-05-31T09:50:56Z</time>
      </trkpt>
      <trkpt lat="49.19336" lon="1.29815">
        <ele>101.2</ele>
        <time>2015-05-31T09:50:59Z</time>
      </trkpt>
      <trkpt lat="49.19326" lon="1.29813">
        <ele>100.4</ele>
        <time>2015-05-31T09:51:01Z</time>
      </trkpt>
      <trkpt lat="49.19316" lon="1.29812">
        <ele>99.6</ele>
        <time>2015-05-31T09:51:03Z</time>
      </trkpt>
      <trkpt lat="49.19307" lon="1.29812">
        <ele>98.6</ele>
        <time>2015-05-31T09:51:05Z</time>
      </trkpt>
      <trkpt lat="49.19298" lon="1.29815">
        <ele>97.7</ele>
        <time>2015-05-31T09:51:07Z</time>
      </trkpt>
      <trkpt lat="49.19287" lon="1.29815">
        <ele>96.7</ele>
        <time>2015-05-31T09:51:09Z</time>
      </trkpt>
      <trkpt lat="49.19275" lon="1.29815">
        <ele>95.6</ele>
        <time>2015-05-31T09:51:11Z</time>
      </trkpt>
      <trkpt lat="49.19264" lon="1.29816">
        <ele>94.6</ele>
        <time>2015-05-31T09:51:13Z</time>
      </trkpt>
      <trkpt lat="49.19253" lon="1.29819">
        <ele>93.4</ele>
        <time>2015-05-31T09:51:15Z</time>
      </trkpt>
      <trkpt lat="49.19242" lon="1.2982">
        <ele>92.1</ele>
        <time>2015-05-31T09:51:17Z</time>
      </trkpt>
      <trkpt lat="49.1923" lon="1.29818">
        <ele>90.7</ele>
        <time>2015-05-31T09:51:19Z</time>
      </trkpt>
      <trkpt lat="49.19221" lon="1.29815">
        <ele>89.4</ele>
        <time>2015-05-31T09:51:21Z</time>
      </trkpt>
      <trkpt lat="49.19212" lon="1.29812">
        <ele>87.8</ele>
        <time>2015-05-31T09:51:23Z</time>
      </trkpt>
      <trkpt lat="49.19202" lon="1.29807">
        <ele>86.1</ele>
        <time>2015-05-31T09:51:25Z</time>
      </trkpt>
      <trkpt lat="49.19192" lon="1.29803">
        <ele>84.4</ele>
        <time>2015-05-31T09:51:27Z</time>
      </trkpt>
      <trkpt lat="49.19183" lon="1.29797">
        <ele>82.6</ele>
        <time>2015-05-31T09:51:29Z</time>
      </trkpt>
      <trkpt lat="49.19174" lon="1.29791">
        <ele>80.7</ele>
        <time>2015-05-31T09:51:31Z</time>
      </trkpt>
      <trkpt lat="49.19164" lon="1.29783">
        <ele>78.8</ele>
        <time>2015-05-31T09:51:33Z</time>
      </trkpt>
      <trkpt lat="49.19153" lon="1.29773">
        <ele>76.8</ele>
        <time>2015-05-31T09:51:35Z</time>
      </trkpt>
      <trkpt lat="49.19145" lon="1.29769">
        <ele>75.1</ele>
        <time>2015-05-31T09:51:37Z</time>
      </trkpt>
      <trkpt lat="49.19132" lon="1.29766">
        <ele>72.8</ele>
        <time>2015-05-31T09:51:40Z</time>
      </trkpt>
      <trkpt lat="49.19121" lon="1.29763">
        <ele>70.2</ele>
        <time>2015-05-31T09:51:44Z</time>
      </trkpt>
      <trkpt lat="49.19111" lon="1.2976">
        <ele>68.3</ele>
        <time>2015-05-31T09:51:48Z</time>
      </trkpt>
      <trkpt lat="49.19101" lon="1.29756">
        <ele>66.8</ele>
        <time>2015-05-31T09:51:52Z</time>
      </trkpt>
      <trkpt lat="49.19092" lon="1.29752">
        <ele>66</ele>
        <time>2015-05-31T09:51:56Z</time>
      </trkpt>
      <trkpt lat="49.19082" lon="1.29748">
        <ele>65.7</ele>
        <time>2015-05-31T09:52:00Z</time>
      </trkpt>
      <trkpt lat="49.19073" lon="1.29745">
        <ele>65.7</ele>
        <time>2015-05-31T09:52:04Z</time>
      </trkpt>
      <trkpt lat="49.19063" lon="1.2974">
        <ele>65.9</ele>
        <time>2015-05-31T09:52:09Z</time>
      </trkpt>
      <trkpt lat="49.19053" lon="1.29737">
        <ele>66.5</ele>
        <time>2015-05-31T09:52:14Z</time>
      </trkpt>
      <trkpt lat="49.19044" lon="1.29734">
        <ele>68.3</ele>
        <time>2015-05-31T09:52:49Z</time>
      </trkpt>
      <trkpt lat="49.19034" lon="1.29731">
        <ele>68.8</ele>
        <time>2015-05-31T09:52:53Z</time>
      </trkpt>
      <trkpt lat="49.19023" lon="1.29727">
        <ele>69.3</ele>
        <time>2015-05-31T09:52:57Z</time>
      </trkpt>
      <trkpt lat="49.19012" lon="1.29724">
        <ele>69.8</ele>
        <time>2015-05-31T09:53:01Z</time>
      </trkpt>
      <trkpt lat="49.19001" lon="1.29721">
        <ele>70.4</ele>
        <time>2015-05-31T09:53:05Z</time>
      </trkpt>
      <trkpt lat="49.1901" lon="1.29724">
        <ele>72.2</ele>
        <time>2015-05-31T09:53:23Z</time>
      </trkpt>
      <trkpt lat="49.19022" lon="1.29728">
        <ele>72.4</ele>
        <time>2015-05-31T09:53:26Z</time>
      </trkpt>
      <trkpt lat="49.19034" lon="1.29732">
        <ele>72.3</ele>
        <time>2015-05-31T09:53:29Z</time>
      </trkpt>
      <trkpt lat="49.19046" lon="1.29735">
        <ele>72.1</ele>
        <time>2015-05-31T09:53:32Z</time>
      </trkpt>
      <trkpt lat="49.19058" lon="1.29739">
        <ele>71.7</ele>
        <time>2015-05-31T09:53:35Z</time>
      </trkpt>
      <trkpt lat="49.1907" lon="1.29744">
        <ele>71.2</ele>
        <time>2015-05-31T09:53:38Z</time>
      </trkpt>
      <trkpt lat="49.19082" lon="1.29748">
        <ele>70.5</ele>
        <time>2015-05-31T09:53:41Z</time>
      </trkpt>
      <trkpt lat="49.19094" lon="1.29752">
        <ele>69.6</ele>
        <time>2015-05-31T09:53:44Z</time>
      </trkpt>
      <trkpt lat="49.19107" lon="1.29757">
        <ele>68.6</ele>
        <time>2015-05-31T09:53:47Z</time>
      </trkpt>
      <trkpt lat="49.19119" lon="1.2976">
        <ele>67.6</ele>
        <time>2015-05-31T09:53:50Z</time>
      </trkpt>
      <trkpt lat="49.19129" lon="1.29762">
        <ele>66.9</ele>
        <time>2015-05-31T09:53:52Z</time>
      </trkpt>
      <trkpt lat="49.19142" lon="1.29766">
        <ele>66</ele>
        <time>2015-05-31T09:53:55Z</time>
      </trkpt>
      <trkpt lat="49.19153" lon="1.2977">
        <ele>65.1</ele>
        <time>2015-05-31T09:53:58Z</time>
      </trkpt>
      <trkpt lat="49.19163" lon="1.29772">
        <ele>64.2</ele>
        <time>2015-05-31T09:54:02Z</time>
      </trkpt>
      <trkpt lat="49.19173" lon="1.29775">
        <ele>63.5</ele>
        <time>2015-05-31T09:54:07Z</time>
      </trkpt>
      <trkpt lat="49.19182" lon="1.29778">
        <ele>63.4</ele>
        <time>2015-05-31T09:54:13Z</time>
      </trkpt>
      <trkpt lat="49.19191" lon="1.29782">
        <ele>64.3</ele>
        <time>2015-05-31T09:54:20Z</time>
      </trkpt>
      <trkpt lat="49.19201" lon="1.29786">
        <ele>66.1</ele>
        <time>2015-05-31T09:54:28Z</time>
      </trkpt>
      <trkpt lat="49.1921" lon="1.29788">
        <ele>68.6</ele>
        <time>2015-05-31T09:54:38Z</time>
      </trkpt>
      <trkpt lat="49.19219" lon="1.29789">
        <ele>71.1</ele>
        <time>2015-05-31T09:54:48Z</time>
      </trkpt>
      <trkpt lat="49.19229" lon="1.29792">
        <ele>73.4</ele>
        <time>2015-05-31T09:54:57Z</time>
      </trkpt>
      <trkpt lat="49.19238" lon="1.29796">
        <ele>74.9</ele>
        <time>2015-05-31T09:55:04Z</time>
      </trkpt>
      <trkpt lat="49.19248" lon="1.29799">
        <ele>76.6</ele>
        <time>2015-05-31T09:55:12Z</time>
      </trkpt>
      <trkpt lat="49.19258" lon="1.29801">
        <ele>78.2</ele>
        <time>2015-05-31T09:55:20Z</time>
      </trkpt>
      <trkpt lat="49.19267" lon="1.29802">
        <ele>79.7</ele>
        <time>2015-05-31T09:55:27Z</time>
      </trkpt>
      <trkpt lat="49.19277" lon="1.29804">
        <ele>81.6</ele>
        <time>2015-05-31T09:55:35Z</time>
      </trkpt>
      <trkpt lat="49.19287" lon="1.29805">
        <ele>83.4</ele>
        <time>2015-05-31T09:55:43Z</time>
      </trkpt>
      <trkpt lat="49.19298" lon="1.29806">
        <ele>85.5</ele>
        <time>2015-05-31T09:55:52Z</time>
      </trkpt>
      <trkpt lat="49.19307" lon="1.29808">
        <ele>86.8</ele>
        <time>2015-05-31T09:55:58Z</time>
      </trkpt>
      <trkpt lat="49.19317" lon="1.29808">
        <ele>88.1</ele>
        <time>2015-05-31T09:56:05Z</time>
      </trkpt>
      <trkpt lat="49.19327" lon="1.29809">
        <ele>89.2</ele>
        <time>2015-05-31T09:56:11Z</time>
      </trkpt>
      <trkpt lat="49.19336" lon="1.29811">
        <ele>90.2</ele>
        <time>2015-05-31T09:56:16Z</time>
      </trkpt>
      <trkpt lat="49.19346" lon="1.29815">
        <ele>91.4</ele>
        <time>2015-05-31T09:56:22Z</time>
      </trkpt>
      <trkpt lat="49.19354" lon="1.2982">
        <ele>92.7</ele>
        <time>2015-05-31T09:56:28Z</time>
      </trkpt>
      <trkpt lat="49.19363" lon="1.29824">
        <ele>94.1</ele>
        <time>2015-05-31T09:56:35Z</time>
      </trkpt>
      <trkpt lat="49.19373" lon="1.29827">
        <ele>95.2</ele>
        <time>2015-05-31T09:56:41Z</time>
      </trkpt>
      <trkpt lat="49.19383" lon="1.2983">
        <ele>96.2</ele>
        <time>2015-05-31T09:56:48Z</time>
      </trkpt>
      <trkpt lat="49.19393" lon="1.29833">
        <ele>97.2</ele>
        <time>2015-05-31T09:56:54Z</time>
      </trkpt>
      <trkpt lat="49.19403" lon="1.29837">
        <ele>98.3</ele>
        <time>2015-05-31T09:57:00Z</time>
      </trkpt>
      <trkpt lat="49.19412" lon="1.2984">
        <ele>99.3</ele>
        <time>2015-05-31T09:57:05Z</time>
      </trkpt>
      <trkpt lat="49.19422" lon="1.29845">
        <ele>100.7</ele>
        <time>2015-05-31T09:57:11Z</time>
      </trkpt>
      <trkpt lat="49.19431" lon="1.2985">
        <ele>101.7</ele>
        <time>2015-05-31T09:57:16Z</time>
      </trkpt>
      <trkpt lat="49.1944" lon="1.2985">
        <ele>103</ele>
        <time>2015-05-31T09:57:23Z</time>
      </trkpt>
      <trkpt lat="49.19449" lon="1.29858">
        <ele>104.2</ele>
        <time>2015-05-31T09:57:30Z</time>
      </trkpt>
      <trkpt lat="49.19458" lon="1.2986">
        <ele>104.8</ele>
        <time>2015-05-31T09:57:34Z</time>
      </trkpt>
      <trkpt lat="49.19468" lon="1.29862">
        <ele>105.3</ele>
        <time>2015-05-31T09:57:39Z</time>
      </trkpt>
      <trkpt lat="49.19477" lon="1.29862">
        <ele>106</ele>
        <time>2015-05-31T09:57:48Z</time>
      </trkpt>
      <trkpt lat="49.19487" lon="1.29865">
        <ele>106.6</ele>
        <time>2015-05-31T09:58:03Z</time>
      </trkpt>
      <trkpt lat="49.19499" lon="1.29869">
        <ele>106.6</ele>
        <time>2015-05-31T09:58:08Z</time>
      </trkpt>
      <trkpt lat="49.19508" lon="1.29869">
        <ele>106.4</ele>
        <time>2015-05-31T09:58:11Z</time>
      </trkpt>
      <trkpt lat="49.19517" lon="1.2987">
        <ele>106.2</ele>
        <time>2015-05-31T09:58:13Z</time>
      </trkpt>
      <trkpt lat="49.19527" lon="1.2987">
        <ele>105.8</ele>
        <time>2015-05-31T09:58:16Z</time>
      </trkpt>
      <trkpt lat="49.19537" lon="1.29867">
        <ele>105.2</ele>
        <time>2015-05-31T09:58:19Z</time>
      </trkpt>
      <trkpt lat="49.1955" lon="1.29865">
        <ele>104.6</ele>
        <time>2015-05-31T09:58:21Z</time>
      </trkpt>
      <trkpt lat="49.19561" lon="1.29863">
        <ele>104</ele>
        <time>2015-05-31T09:58:23Z</time>
      </trkpt>
      <trkpt lat="49.19571" lon="1.29857">
        <ele>103.2</ele>
        <time>2015-05-31T09:58:25Z</time>
      </trkpt>
      <trkpt lat="49.19582" lon="1.2985">
        <ele>102.4</ele>
        <time>2015-05-31T09:58:27Z</time>
      </trkpt>
      <trkpt lat="49.19595" lon="1.29843">
        <ele>101.4</ele>
        <time>2015-05-31T09:58:29Z</time>
      </trkpt>
      <trkpt lat="49.19609" lon="1.29837">
        <ele>100.5</ele>
        <time>2015-05-31T09:58:31Z</time>
      </trkpt>
      <trkpt lat="49.19617" lon="1.29831">
        <ele>99.6</ele>
        <time>2015-05-31T09:58:33Z</time>
      </trkpt>
      <trkpt lat="49.19626" lon="1.29829">
        <ele>96.5</ele>
        <time>2015-05-31T09:58:42Z</time>
      </trkpt>
      <trkpt lat="49.19636" lon="1.29838">
        <ele>95.4</ele>
        <time>2015-05-31T09:58:47Z</time>
      </trkpt>
      <trkpt lat="49.19645" lon="1.29848">
        <ele>94.6</ele>
        <time>2015-05-31T09:58:50Z</time>
      </trkpt>
      <trkpt lat="49.19653" lon="1.29856">
        <ele>93.9</ele>
        <time>2015-05-31T09:58:52Z</time>
      </trkpt>
      <trkpt lat="49.19661" lon="1.29868">
        <ele>93.3</ele>
        <time>2015-05-31T09:58:54Z</time>
      </trkpt>
      <trkpt lat="49.1967" lon="1.29882">
        <ele>92.6</ele>
        <time>2015-05-31T09:58:56Z</time>
      </trkpt>
      <trkpt lat="49.19677" lon="1.29895">
        <ele>91.9</ele>
        <time>2015-05-31T09:58:58Z</time>
      </trkpt>
      <trkpt lat="49.19682" lon="1.29911">
        <ele>91.3</ele>
        <time>2015-05-31T09:59:00Z</time>
      </trkpt>
      <trkpt lat="49.19685" lon="1.29925">
        <ele>90.7</ele>
        <time>2015-05-31T09:59:02Z</time>
      </trkpt>
      <trkpt lat="49.19686" lon="1.29941">
        <ele>90.1</ele>
        <time>2015-05-31T09:59:04Z</time>
      </trkpt>
      <trkpt lat="49.19685" lon="1.29957">
        <ele>89.7</ele>
        <time>2015-05-31T09:59:06Z</time>
      </trkpt>
      <trkpt lat="49.19684" lon="1.29974">
        <ele>89.2</ele>
        <time>2015-05-31T09:59:08Z</time>
      </trkpt>
      <trkpt lat="49.19683" lon="1.29989">
        <ele>88.7</ele>
        <time>2015-05-31T09:59:10Z</time>
      </trkpt>
      <trkpt lat="49.19681" lon="1.30005">
        <ele>88.3</ele>
        <time>2015-05-31T09:59:12Z</time>
      </trkpt>
      <trkpt lat="49.1968" lon="1.30021">
        <ele>87.9</ele>
        <time>2015-05-31T09:59:14Z</time>
      </trkpt>
      <trkpt lat="49.19678" lon="1.30038">
        <ele>87.4</ele>
        <time>2015-05-31T09:59:16Z</time>
      </trkpt>
      <trkpt lat="49.19677" lon="1.30056">
        <ele>86.8</ele>
        <time>2015-05-31T09:59:18Z</time>
      </trkpt>
      <trkpt lat="49.19676" lon="1.30076">
        <ele>86.4</ele>
        <time>2015-05-31T09:59:20Z</time>
      </trkpt>
      <trkpt lat="49.19677" lon="1.30097">
        <ele>86</ele>
        <time>2015-05-31T09:59:22Z</time>
      </trkpt>
      <trkpt lat="49.19679" lon="1.30116">
        <ele>85.3</ele>
        <time>2015-05-31T09:59:24Z</time>
      </trkpt>
      <trkpt lat="49.19682" lon="1.30133">
        <ele>84.8</ele>
        <time>2015-05-31T09:59:26Z</time>
      </trkpt>
      <trkpt lat="49.19686" lon="1.30147">
        <ele>84.5</ele>
        <time>2015-05-31T09:59:28Z</time>
      </trkpt>
      <trkpt lat="49.19693" lon="1.30163">
        <ele>84.3</ele>
        <time>2015-05-31T09:59:31Z</time>
      </trkpt>
      <trkpt lat="49.19698" lon="1.30178">
        <ele>84.3</ele>
        <time>2015-05-31T09:59:34Z</time>
      </trkpt>
      <trkpt lat="49.19702" lon="1.30197">
        <ele>84.2</ele>
        <time>2015-05-31T09:59:37Z</time>
      </trkpt>
      <trkpt lat="49.19705" lon="1.30212">
        <ele>84.2</ele>
        <time>2015-05-31T09:59:39Z</time>
      </trkpt>
      <trkpt lat="49.19707" lon="1.30227">
        <ele>84.2</ele>
        <time>2015-05-31T09:59:41Z</time>
      </trkpt>
      <trkpt lat="49.1971" lon="1.30243">
        <ele>84.2</ele>
        <time>2015-05-31T09:59:43Z</time>
      </trkpt>
      <trkpt lat="49.19713" lon="1.30259">
        <ele>84.2</ele>
        <time>2015-05-31T09:59:45Z</time>
      </trkpt>
      <trkpt lat="49.19716" lon="1.30276">
        <ele>84.2</ele>
        <time>2015-05-31T09:59:47Z</time>
      </trkpt>
      <trkpt lat="49.1972" lon="1.30292">
        <ele>84.2</ele>
        <time>2015-05-31T09:59:49Z</time>
      </trkpt>
      <trkpt lat="49.19725" lon="1.30306">
        <ele>84.1</ele>
        <time>2015-05-31T09:59:51Z</time>
      </trkpt>
      <trkpt lat="49.19732" lon="1.30319">
        <ele>84.1</ele>
        <time>2015-05-31T09:59:53Z</time>
      </trkpt>
      <trkpt lat="49.1974" lon="1.3033">
        <ele>84</ele>
        <time>2015-05-31T09:59:55Z</time>
      </trkpt>
      <trkpt lat="49.19748" lon="1.3034">
        <ele>84</ele>
        <time>2015-05-31T09:59:57Z</time>
      </trkpt>
      <trkpt lat="49.19756" lon="1.30349">
        <ele>84</ele>
        <time>2015-05-31T09:59:59Z</time>
      </trkpt>
      <trkpt lat="49.19763" lon="1.30359">
        <ele>83.9</ele>
        <time>2015-05-31T10:00:01Z</time>
      </trkpt>
      <trkpt lat="49.1977" lon="1.3037">
        <ele>83.9</ele>
        <time>2015-05-31T10:00:03Z</time>
      </trkpt>
      <trkpt lat="49.19775" lon="1.30383">
        <ele>83.9</ele>
        <time>2015-05-31T10:00:05Z</time>
      </trkpt>
      <trkpt lat="49.1978" lon="1.30396">
        <ele>83.9</ele>
        <time>2015-05-31T10:00:07Z</time>
      </trkpt>
      <trkpt lat="49.19785" lon="1.30411">
        <ele>83.8</ele>
        <time>2015-05-31T10:00:09Z</time>
      </trkpt>
      <trkpt lat="49.19789" lon="1.30426">
        <ele>83.8</ele>
        <time>2015-05-31T10:00:11Z</time>
      </trkpt>
      <trkpt lat="49.19793" lon="1.30441">
        <ele>83.8</ele>
        <time>2015-05-31T10:00:13Z</time>
      </trkpt>
      <trkpt lat="49.19798" lon="1.30457">
        <ele>83.8</ele>
        <time>2015-05-31T10:00:15Z</time>
      </trkpt>
      <trkpt lat="49.19803" lon="1.30472">
        <ele>83.7</ele>
        <time>2015-05-31T10:00:17Z</time>
      </trkpt>
      <trkpt lat="49.19807" lon="1.30488">
        <ele>83.6</ele>
        <time>2015-05-31T10:00:19Z</time>
      </trkpt>
      <trkpt lat="49.19812" lon="1.30504">
        <ele>83.5</ele>
        <time>2015-05-31T10:00:21Z</time>
      </trkpt>
      <trkpt lat="49.19817" lon="1.30521">
        <ele>83.4</ele>
        <time>2015-05-31T10:00:23Z</time>
      </trkpt>
      <trkpt lat="49.19823" lon="1.30538">
        <ele>83.3</ele>
        <time>2015-05-31T10:00:25Z</time>
      </trkpt>
      <trkpt lat="49.19828" lon="1.30555">
        <ele>83</ele>
        <time>2015-05-31T10:00:27Z</time>
      </trkpt>
      <trkpt lat="49.19833" lon="1.30572">
        <ele>82.7</ele>
        <time>2015-05-31T10:00:29Z</time>
      </trkpt>
      <trkpt lat="49.1984" lon="1.30589">
        <ele>82.5</ele>
        <time>2015-05-31T10:00:31Z</time>
      </trkpt>
      <trkpt lat="49.19846" lon="1.30604">
        <ele>82.1</ele>
        <time>2015-05-31T10:00:33Z</time>
      </trkpt>
      <trkpt lat="49.19843" lon="1.3062">
        <ele>80.9</ele>
        <time>2015-05-31T10:00:39Z</time>
      </trkpt>
      <trkpt lat="49.19835" lon="1.30633">
        <ele>80.3</ele>
        <time>2015-05-31T10:00:43Z</time>
      </trkpt>
      <trkpt lat="49.19824" lon="1.30644">
        <ele>79.9</ele>
        <time>2015-05-31T10:00:46Z</time>
      </trkpt>
      <trkpt lat="49.19815" lon="1.30652">
        <ele>79.6</ele>
        <time>2015-05-31T10:00:48Z</time>
      </trkpt>
      <trkpt lat="49.19806" lon="1.30658">
        <ele>79.3</ele>
        <time>2015-05-31T10:00:50Z</time>
      </trkpt>
      <trkpt lat="49.19796" lon="1.30665">
        <ele>79</ele>
        <time>2015-05-31T10:00:52Z</time>
      </trkpt>
      <trkpt lat="49.19787" lon="1.30675">
        <ele>78.6</ele>
        <time>2015-05-31T10:00:54Z</time>
      </trkpt>
      <trkpt lat="49.19782" lon="1.3069">
        <ele>78.1</ele>
        <time>2015-05-31T10:00:56Z</time>
      </trkpt>
      <trkpt lat="49.19776" lon="1.30705">
        <ele>77.4</ele>
        <time>2015-05-31T10:00:58Z</time>
      </trkpt>
      <trkpt lat="49.1977" lon="1.30722">
        <ele>76.7</ele>
        <time>2015-05-31T10:01:00Z</time>
      </trkpt>
      <trkpt lat="49.19762" lon="1.30738">
        <ele>76.1</ele>
        <time>2015-05-31T10:01:02Z</time>
      </trkpt>
      <trkpt lat="49.19754" lon="1.30752">
        <ele>75.4</ele>
        <time>2015-05-31T10:01:04Z</time>
      </trkpt>
      <trkpt lat="49.19744" lon="1.30764">
        <ele>74.5</ele>
        <time>2015-05-31T10:01:06Z</time>
      </trkpt>
      <trkpt lat="49.19731" lon="1.30777">
        <ele>73.6</ele>
        <time>2015-05-31T10:01:08Z</time>
      </trkpt>
      <trkpt lat="49.19718" lon="1.30788">
        <ele>72.6</ele>
        <time>2015-05-31T10:01:10Z</time>
      </trkpt>
      <trkpt lat="49.19705" lon="1.30799">
        <ele>71.6</ele>
        <time>2015-05-31T10:01:12Z</time>
      </trkpt>
      <trkpt lat="49.19694" lon="1.30809">
        <ele>70.3</ele>
        <time>2015-05-31T10:01:14Z</time>
      </trkpt>
      <trkpt lat="49.19684" lon="1.30816">
        <ele>68.9</ele>
        <time>2015-05-31T10:01:16Z</time>
      </trkpt>
      <trkpt lat="49.19673" lon="1.30822">
        <ele>67.1</ele>
        <time>2015-05-31T10:01:18Z</time>
      </trkpt>
      <trkpt lat="49.19661" lon="1.30828">
        <ele>65.4</ele>
        <time>2015-05-31T10:01:20Z</time>
      </trkpt>
      <trkpt lat="49.19645" lon="1.30834">
        <ele>63.4</ele>
        <time>2015-05-31T10:01:22Z</time>
      </trkpt>
      <trkpt lat="49.19629" lon="1.30838">
        <ele>61.7</ele>
        <time>2015-05-31T10:01:24Z</time>
      </trkpt>
      <trkpt lat="49.19617" lon="1.30844">
        <ele>59.9</ele>
        <time>2015-05-31T10:01:26Z</time>
      </trkpt>
      <trkpt lat="49.19609" lon="1.30854">
        <ele>58.1</ele>
        <time>2015-05-31T10:01:28Z</time>
      </trkpt>
      <trkpt lat="49.19604" lon="1.3087">
        <ele>55.6</ele>
        <time>2015-05-31T10:01:31Z</time>
      </trkpt>
      <trkpt lat="49.19601" lon="1.30884">
        <ele>53.2</ele>
        <time>2015-05-31T10:01:34Z</time>
      </trkpt>
      <trkpt lat="49.196" lon="1.30898">
        <ele>51</ele>
        <time>2015-05-31T10:01:37Z</time>
      </trkpt>
      <trkpt lat="49.19597" lon="1.30912">
        <ele>47.2</ele>
        <time>2015-05-31T10:01:44Z</time>
      </trkpt>
      <trkpt lat="49.19597" lon="1.30927">
        <ele>45.5</ele>
        <time>2015-05-31T10:01:48Z</time>
      </trkpt>
      <trkpt lat="49.19601" lon="1.30942">
        <ele>44.3</ele>
        <time>2015-05-31T10:01:52Z</time>
      </trkpt>
      <trkpt lat="49.19607" lon="1.30957">
        <ele>43.4</ele>
        <time>2015-05-31T10:01:56Z</time>
      </trkpt>
      <trkpt lat="49.19608" lon="1.30972">
        <ele>42.9</ele>
        <time>2015-05-31T10:02:00Z</time>
      </trkpt>
      <trkpt lat="49.19612" lon="1.30986">
        <ele>42.7</ele>
        <time>2015-05-31T10:02:04Z</time>
      </trkpt>
      <trkpt lat="49.19613" lon="1.31001">
        <ele>42.7</ele>
        <time>2015-05-31T10:02:08Z</time>
      </trkpt>
      <trkpt lat="49.19612" lon="1.31016">
        <ele>43.1</ele>
        <time>2015-05-31T10:02:13Z</time>
      </trkpt>
      <trkpt lat="49.19611" lon="1.31031">
        <ele>43.7</ele>
        <time>2015-05-31T10:02:18Z</time>
      </trkpt>
      <trkpt lat="49.19608" lon="1.31046">
        <ele>44.7</ele>
        <time>2015-05-31T10:02:24Z</time>
      </trkpt>
      <trkpt lat="49.1961" lon="1.3106">
        <ele>46</ele>
        <time>2015-05-31T10:02:30Z</time>
      </trkpt>
      <trkpt lat="49.19614" lon="1.31072">
        <ele>47</ele>
        <time>2015-05-31T10:02:34Z</time>
      </trkpt>
      <trkpt lat="49.19618" lon="1.31088">
        <ele>48.3</ele>
        <time>2015-05-31T10:02:40Z</time>
      </trkpt>
      <trkpt lat="49.19622" lon="1.311">
        <ele>49.8</ele>
        <time>2015-05-31T10:02:47Z</time>
      </trkpt>
      <trkpt lat="49.19625" lon="1.31114">
        <ele>51.3</ele>
        <time>2015-05-31T10:02:54Z</time>
      </trkpt>
      <trkpt lat="49.19626" lon="1.31129">
        <ele>53</ele>
        <time>2015-05-31T10:03:01Z</time>
      </trkpt>
      <trkpt lat="49.1963" lon="1.31142">
        <ele>54.6</ele>
        <time>2015-05-31T10:03:08Z</time>
      </trkpt>
      <trkpt lat="49.19633" lon="1.31158">
        <ele>55.6</ele>
        <time>2015-05-31T10:03:13Z</time>
      </trkpt>
      <trkpt lat="49.19634" lon="1.31173">
        <ele>56.6</ele>
        <time>2015-05-31T10:03:18Z</time>
      </trkpt>
      <trkpt lat="49.19639" lon="1.31186">
        <ele>57.2</ele>
        <time>2015-05-31T10:03:21Z</time>
      </trkpt>
      <trkpt lat="49.19644" lon="1.31198">
        <ele>57.8</ele>
        <time>2015-05-31T10:03:25Z</time>
      </trkpt>
      <trkpt lat="49.19648" lon="1.31212">
        <ele>58.4</ele>
        <time>2015-05-31T10:03:29Z</time>
      </trkpt>
      <trkpt lat="49.19651" lon="1.3123">
        <ele>59</ele>
        <time>2015-05-31T10:03:33Z</time>
      </trkpt>
      <trkpt lat="49.19655" lon="1.31243">
        <ele>59.4</ele>
        <time>2015-05-31T10:03:36Z</time>
      </trkpt>
      <trkpt lat="49.19659" lon="1.31258">
        <ele>59.9</ele>
        <time>2015-05-31T10:03:40Z</time>
      </trkpt>
      <trkpt lat="49.1965" lon="1.31267">
        <ele>60.9</ele>
        <time>2015-05-31T10:03:47Z</time>
      </trkpt>
      <trkpt lat="49.1964" lon="1.31268">
        <ele>61.7</ele>
        <time>2015-05-31T10:03:52Z</time>
      </trkpt>
      <trkpt lat="49.19631" lon="1.31269">
        <ele>62.5</ele>
        <time>2015-05-31T10:03:57Z</time>
      </trkpt>
      <trkpt lat="49.1962" lon="1.3127">
        <ele>63.4</ele>
        <time>2015-05-31T10:04:02Z</time>
      </trkpt>
      <trkpt lat="49.19609" lon="1.3127">
        <ele>64.4</ele>
        <time>2015-05-31T10:04:07Z</time>
      </trkpt>
      <trkpt lat="49.19599" lon="1.31271">
        <ele>65.4</ele>
        <time>2015-05-31T10:04:12Z</time>
      </trkpt>
      <trkpt lat="49.19588" lon="1.31271">
        <ele>66.4</ele>
        <time>2015-05-31T10:04:17Z</time>
      </trkpt>
      <trkpt lat="49.19578" lon="1.31272">
        <ele>67.5</ele>
        <time>2015-05-31T10:04:22Z</time>
      </trkpt>
      <trkpt lat="49.19569" lon="1.31272">
        <ele>68.5</ele>
        <time>2015-05-31T10:04:27Z</time>
      </trkpt>
      <trkpt lat="49.19559" lon="1.31273">
        <ele>69.5</ele>
        <time>2015-05-31T10:04:32Z</time>
      </trkpt>
      <trkpt lat="49.19549" lon="1.31273">
        <ele>70.5</ele>
        <time>2015-05-31T10:04:37Z</time>
      </trkpt>
      <trkpt lat="49.19539" lon="1.31274">
        <ele>71.5</ele>
        <time>2015-05-31T10:04:42Z</time>
      </trkpt>
      <trkpt lat="49.1953" lon="1.31274">
        <ele>72.7</ele>
        <time>2015-05-31T10:04:47Z</time>
      </trkpt>
      <trkpt lat="49.19521" lon="1.31274">
        <ele>73.8</ele>
        <time>2015-05-31T10:04:52Z</time>
      </trkpt>
      <trkpt lat="49.19512" lon="1.31272">
        <ele>74.9</ele>
        <time>2015-05-31T10:04:57Z</time>
      </trkpt>
      <trkpt lat="49.19502" lon="1.31271">
        <ele>75.9</ele>
        <time>2015-05-31T10:05:02Z</time>
      </trkpt>
      <trkpt lat="49.19493" lon="1.31269">
        <ele>77.1</ele>
        <time>2015-05-31T10:05:07Z</time>
      </trkpt>
      <trkpt lat="49.19483" lon="1.31267">
        <ele>78.1</ele>
        <time>2015-05-31T10:05:12Z</time>
      </trkpt>
      <trkpt lat="49.19474" lon="1.31265">
        <ele>78.9</ele>
        <time>2015-05-31T10:05:17Z</time>
      </trkpt>
      <trkpt lat="49.19463" lon="1.31263">
        <ele>79.9</ele>
        <time>2015-05-31T10:05:22Z</time>
      </trkpt>
      <trkpt lat="49.19454" lon="1.31262">
        <ele>80.7</ele>
        <time>2015-05-31T10:05:26Z</time>
      </trkpt>
      <trkpt lat="49.19445" lon="1.3126">
        <ele>81.5</ele>
        <time>2015-05-31T10:05:30Z</time>
      </trkpt>
      <trkpt lat="49.19434" lon="1.31257">
        <ele>82.5</ele>
        <time>2015-05-31T10:05:35Z</time>
      </trkpt>
      <trkpt lat="49.19424" lon="1.31251">
        <ele>83.4</ele>
        <time>2015-05-31T10:05:40Z</time>
      </trkpt>
      <trkpt lat="49.19413" lon="1.31245">
        <ele>84.3</ele>
        <time>2015-05-31T10:05:45Z</time>
      </trkpt>
      <trkpt lat="49.19403" lon="1.3124">
        <ele>85.4</ele>
        <time>2015-05-31T10:05:50Z</time>
      </trkpt>
      <trkpt lat="49.19393" lon="1.31235">
        <ele>86.4</ele>
        <time>2015-05-31T10:05:55Z</time>
      </trkpt>
      <trkpt lat="49.19383" lon="1.31233">
        <ele>87.5</ele>
        <time>2015-05-31T10:06:00Z</time>
      </trkpt>
      <trkpt lat="49.19373" lon="1.31233">
        <ele>88.5</ele>
        <time>2015-05-31T10:06:04Z</time>
      </trkpt>
      <trkpt lat="49.19363" lon="1.31238">
        <ele>89.6</ele>
        <time>2015-05-31T10:06:09Z</time>
      </trkpt>
      <trkpt lat="49.19353" lon="1.31247">
        <ele>90.6</ele>
        <time>2015-05-31T10:06:14Z</time>
      </trkpt>
      <trkpt lat="49.19344" lon="1.31257">
        <ele>91.6</ele>
        <time>2015-05-31T10:06:19Z</time>
      </trkpt>
      <trkpt lat="49.19337" lon="1.31266">
        <ele>92.3</ele>
        <time>2015-05-31T10:06:23Z</time>
      </trkpt>
      <trkpt lat="49.1933" lon="1.31276">
        <ele>93.1</ele>
        <time>2015-05-31T10:06:27Z</time>
      </trkpt>
      <trkpt lat="49.19324" lon="1.31288">
        <ele>93.9</ele>
        <time>2015-05-31T10:06:31Z</time>
      </trkpt>
      <trkpt lat="49.19318" lon="1.31301">
        <ele>94.7</ele>
        <time>2015-05-31T10:06:35Z</time>
      </trkpt>
      <trkpt lat="49.19314" lon="1.31316">
        <ele>95.5</ele>
        <time>2015-05-31T10:06:39Z</time>
      </trkpt>
      <trkpt lat="49.19311" lon="1.31333">
        <ele>96.3</ele>
        <time>2015-05-31T10:06:43Z</time>
      </trkpt>
      <trkpt lat="49.19311" lon="1.3135">
        <ele>97</ele>
        <time>2015-05-31T10:06:47Z</time>
      </trkpt>
      <trkpt lat="49.19312" lon="1.31367">
        <ele>97.6</ele>
        <time>2015-05-31T10:06:51Z</time>
      </trkpt>
      <trkpt lat="49.19311" lon="1.31386">
        <ele>98.3</ele>
        <time>2015-05-31T10:06:55Z</time>
      </trkpt>
      <trkpt lat="49.19309" lon="1.31402">
        <ele>98.6</ele>
        <time>2015-05-31T10:06:58Z</time>
      </trkpt>
      <trkpt lat="49.19308" lon="1.3142">
        <ele>98.9</ele>
        <time>2015-05-31T10:07:01Z</time>
      </trkpt>
      <trkpt lat="49.19314" lon="1.31431">
        <ele>99</ele>
        <time>2015-05-31T10:07:03Z</time>
      </trkpt>
      <trkpt lat="49.19325" lon="1.31439">
        <ele>98.9</ele>
        <time>2015-05-31T10:07:05Z</time>
      </trkpt>
      <trkpt lat="49.19339" lon="1.31447">
        <ele>98.7</ele>
        <time>2015-05-31T10:07:07Z</time>
      </trkpt>
      <trkpt lat="49.19352" lon="1.31457">
        <ele>98.3</ele>
        <time>2015-05-31T10:07:09Z</time>
      </trkpt>
      <trkpt lat="49.19365" lon="1.3147">
        <ele>97.7</ele>
        <time>2015-05-31T10:07:11Z</time>
      </trkpt>
      <trkpt lat="49.19374" lon="1.31485">
        <ele>97</ele>
        <time>2015-05-31T10:07:13Z</time>
      </trkpt>
      <trkpt lat="49.19376" lon="1.31506">
        <ele>96.2</ele>
        <time>2015-05-31T10:07:15Z</time>
      </trkpt>
      <trkpt lat="49.19374" lon="1.31528">
        <ele>95.5</ele>
        <time>2015-05-31T10:07:17Z</time>
      </trkpt>
      <trkpt lat="49.19372" lon="1.31548">
        <ele>94.8</ele>
        <time>2015-05-31T10:07:19Z</time>
      </trkpt>
      <trkpt lat="49.19377" lon="1.31565">
        <ele>94.1</ele>
        <time>2015-05-31T10:07:21Z</time>
      </trkpt>
      <trkpt lat="49.19387" lon="1.31578">
        <ele>93.4</ele>
        <time>2015-05-31T10:07:23Z</time>
      </trkpt>
      <trkpt lat="49.19394" lon="1.31594">
        <ele>92.7</ele>
        <time>2015-05-31T10:07:25Z</time>
      </trkpt>
      <trkpt lat="49.19393" lon="1.31611">
        <ele>92</ele>
        <time>2015-05-31T10:07:27Z</time>
      </trkpt>
      <trkpt lat="49.19389" lon="1.31626">
        <ele>91.5</ele>
        <time>2015-05-31T10:07:29Z</time>
      </trkpt>
      <trkpt lat="49.19385" lon="1.31641">
        <ele>90.9</ele>
        <time>2015-05-31T10:07:31Z</time>
      </trkpt>
      <trkpt lat="49.19382" lon="1.31655">
        <ele>90.5</ele>
        <time>2015-05-31T10:07:33Z</time>
      </trkpt>
      <trkpt lat="49.19378" lon="1.31669">
        <ele>90.1</ele>
        <time>2015-05-31T10:07:35Z</time>
      </trkpt>
      <trkpt lat="49.19375" lon="1.31684">
        <ele>89.7</ele>
        <time>2015-05-31T10:07:37Z</time>
      </trkpt>
      <trkpt lat="49.19372" lon="1.31698">
        <ele>89.4</ele>
        <time>2015-05-31T10:07:39Z</time>
      </trkpt>
      <trkpt lat="49.19369" lon="1.31714">
        <ele>89.2</ele>
        <time>2015-05-31T10:07:41Z</time>
      </trkpt>
      <trkpt lat="49.19367" lon="1.31729">
        <ele>88.9</ele>
        <time>2015-05-31T10:07:43Z</time>
      </trkpt>
      <trkpt lat="49.19368" lon="1.31745">
        <ele>88.7</ele>
        <time>2015-05-31T10:07:45Z</time>
      </trkpt>
      <trkpt lat="49.19372" lon="1.31763">
        <ele>88.5</ele>
        <time>2015-05-31T10:07:47Z</time>
      </trkpt>
      <trkpt lat="49.19377" lon="1.31782">
        <ele>88.1</ele>
        <time>2015-05-31T10:07:49Z</time>
      </trkpt>
      <trkpt lat="49.19383" lon="1.31802">
        <ele>87.6</ele>
        <time>2015-05-31T10:07:51Z</time>
      </trkpt>
      <trkpt lat="49.19384" lon="1.31823">
        <ele>87</ele>
        <time>2015-05-31T10:07:53Z</time>
      </trkpt>
      <trkpt lat="49.19381" lon="1.3184">
        <ele>86.4</ele>
        <time>2015-05-31T10:07:55Z</time>
      </trkpt>
      <trkpt lat="49.19377" lon="1.31856">
        <ele>85.9</ele>
        <time>2015-05-31T10:07:57Z</time>
      </trkpt>
      <trkpt lat="49.19372" lon="1.31871">
        <ele>85.5</ele>
        <time>2015-05-31T10:07:59Z</time>
      </trkpt>
      <trkpt lat="49.19368" lon="1.31886">
        <ele>85.1</ele>
        <time>2015-05-31T10:08:01Z</time>
      </trkpt>
      <trkpt lat="49.19363" lon="1.31901">
        <ele>84.8</ele>
        <time>2015-05-31T10:08:03Z</time>
      </trkpt>
      <trkpt lat="49.19358" lon="1.31917">
        <ele>84.5</ele>
        <time>2015-05-31T10:08:05Z</time>
      </trkpt>
      <trkpt lat="49.19354" lon="1.31932">
        <ele>84.3</ele>
        <time>2015-05-31T10:08:07Z</time>
      </trkpt>
      <trkpt lat="49.19349" lon="1.31949">
        <ele>84.1</ele>
        <time>2015-05-31T10:08:09Z</time>
      </trkpt>
      <trkpt lat="49.19344" lon="1.31967">
        <ele>83.9</ele>
        <time>2015-05-31T10:08:11Z</time>
      </trkpt>
      <trkpt lat="49.19338" lon="1.31984">
        <ele>83.8</ele>
        <time>2015-05-31T10:08:13Z</time>
      </trkpt>
      <trkpt lat="49.19333" lon="1.32002">
        <ele>83.6</ele>
        <time>2015-05-31T10:08:15Z</time>
      </trkpt>
      <trkpt lat="49.19327" lon="1.32019">
        <ele>83.4</ele>
        <time>2015-05-31T10:08:17Z</time>
      </trkpt>
      <trkpt lat="49.19322" lon="1.32036">
        <ele>83.2</ele>
        <time>2015-05-31T10:08:19Z</time>
      </trkpt>
      <trkpt lat="49.19317" lon="1.32053">
        <ele>83</ele>
        <time>2015-05-31T10:08:21Z</time>
      </trkpt>
      <trkpt lat="49.1931" lon="1.3207">
        <ele>82.8</ele>
        <time>2015-05-31T10:08:23Z</time>
      </trkpt>
      <trkpt lat="49.19304" lon="1.32086">
        <ele>82.5</ele>
        <time>2015-05-31T10:08:25Z</time>
      </trkpt>
      <trkpt lat="49.19298" lon="1.32103">
        <ele>82.2</ele>
        <time>2015-05-31T10:08:27Z</time>
      </trkpt>
      <trkpt lat="49.19292" lon="1.3212">
        <ele>81.9</ele>
        <time>2015-05-31T10:08:29Z</time>
      </trkpt>
      <trkpt lat="49.19286" lon="1.32137">
        <ele>81.7</ele>
        <time>2015-05-31T10:08:31Z</time>
      </trkpt>
      <trkpt lat="49.19281" lon="1.32154">
        <ele>81.4</ele>
        <time>2015-05-31T10:08:33Z</time>
      </trkpt>
      <trkpt lat="49.19275" lon="1.32169">
        <ele>81.1</ele>
        <time>2015-05-31T10:08:35Z</time>
      </trkpt>
      <trkpt lat="49.19268" lon="1.32182">
        <ele>80.8</ele>
        <time>2015-05-31T10:08:37Z</time>
      </trkpt>
      <trkpt lat="49.19257" lon="1.32186">
        <ele>80.4</ele>
        <time>2015-05-31T10:08:40Z</time>
      </trkpt>
      <trkpt lat="49.19245" lon="1.32177">
        <ele>80</ele>
        <time>2015-05-31T10:08:43Z</time>
      </trkpt>
      <trkpt lat="49.19233" lon="1.32169">
        <ele>79.8</ele>
        <time>2015-05-31T10:08:46Z</time>
      </trkpt>
      <trkpt lat="49.19222" lon="1.32173">
        <ele>79.6</ele>
        <time>2015-05-31T10:08:49Z</time>
      </trkpt>
      <trkpt lat="49.19216" lon="1.3219">
        <ele>79.6</ele>
        <time>2015-05-31T10:08:52Z</time>
      </trkpt>
      <trkpt lat="49.19211" lon="1.32208">
        <ele>79.6</ele>
        <time>2015-05-31T10:08:55Z</time>
      </trkpt>
      <trkpt lat="49.19208" lon="1.32222">
        <ele>79.6</ele>
        <time>2015-05-31T10:08:57Z</time>
      </trkpt>
      <trkpt lat="49.19205" lon="1.32235">
        <ele>79.5</ele>
        <time>2015-05-31T10:08:59Z</time>
      </trkpt>
      <trkpt lat="49.192" lon="1.32249">
        <ele>79.5</ele>
        <time>2015-05-31T10:09:01Z</time>
      </trkpt>
      <trkpt lat="49.19196" lon="1.32261">
        <ele>79.6</ele>
        <time>2015-05-31T10:09:03Z</time>
      </trkpt>
      <trkpt lat="49.19191" lon="1.32279">
        <ele>79.6</ele>
        <time>2015-05-31T10:09:06Z</time>
      </trkpt>
      <trkpt lat="49.19202" lon="1.32293">
        <ele>79.7</ele>
        <time>2015-05-31T10:09:09Z</time>
      </trkpt>
      <trkpt lat="49.19213" lon="1.32301">
        <ele>79.8</ele>
        <time>2015-05-31T10:09:11Z</time>
      </trkpt>
      <trkpt lat="49.19222" lon="1.32306">
        <ele>79.8</ele>
        <time>2015-05-31T10:09:13Z</time>
      </trkpt>
      <trkpt lat="49.19227" lon="1.32323">
        <ele>79.7</ele>
        <time>2015-05-31T10:09:16Z</time>
      </trkpt>
      <trkpt lat="49.19224" lon="1.3234">
        <ele>79.5</ele>
        <time>2015-05-31T10:09:19Z</time>
      </trkpt>
      <trkpt lat="49.1922" lon="1.32354">
        <ele>79.5</ele>
        <time>2015-05-31T10:09:21Z</time>
      </trkpt>
      <trkpt lat="49.19216" lon="1.3237">
        <ele>79.5</ele>
        <time>2015-05-31T10:09:23Z</time>
      </trkpt>
      <trkpt lat="49.19212" lon="1.32386">
        <ele>79.5</ele>
        <time>2015-05-31T10:09:25Z</time>
      </trkpt>
      <trkpt lat="49.19208" lon="1.32405">
        <ele>79.6</ele>
        <time>2015-05-31T10:09:27Z</time>
      </trkpt>
      <trkpt lat="49.19204" lon="1.32422">
        <ele>79.6</ele>
        <time>2015-05-31T10:09:29Z</time>
      </trkpt>
      <trkpt lat="49.192" lon="1.32441">
        <ele>79.7</ele>
        <time>2015-05-31T10:09:31Z</time>
      </trkpt>
      <trkpt lat="49.19196" lon="1.32459">
        <ele>79.8</ele>
        <time>2015-05-31T10:09:33Z</time>
      </trkpt>
      <trkpt lat="49.19192" lon="1.32478">
        <ele>79.8</ele>
        <time>2015-05-31T10:09:35Z</time>
      </trkpt>
      <trkpt lat="49.19187" lon="1.32495">
        <ele>79.8</ele>
        <time>2015-05-31T10:09:37Z</time>
      </trkpt>
      <trkpt lat="49.19183" lon="1.32512">
        <ele>79.9</ele>
        <time>2015-05-31T10:09:39Z</time>
      </trkpt>
      <trkpt lat="49.19179" lon="1.32529">
        <ele>80</ele>
        <time>2015-05-31T10:09:41Z</time>
      </trkpt>
      <trkpt lat="49.19174" lon="1.32544">
        <ele>80</ele>
        <time>2015-05-31T10:09:43Z</time>
      </trkpt>
      <trkpt lat="49.1917" lon="1.32559">
        <ele>80.1</ele>
        <time>2015-05-31T10:09:45Z</time>
      </trkpt>
      <trkpt lat="49.19166" lon="1.32574">
        <ele>80.2</ele>
        <time>2015-05-31T10:09:47Z</time>
      </trkpt>
      <trkpt lat="49.19163" lon="1.32588">
        <ele>80.3</ele>
        <time>2015-05-31T10:09:49Z</time>
      </trkpt>
      <trkpt lat="49.19159" lon="1.32602">
        <ele>80.5</ele>
        <time>2015-05-31T10:09:51Z</time>
      </trkpt>
      <trkpt lat="49.19154" lon="1.32616">
        <ele>80.7</ele>
        <time>2015-05-31T10:09:53Z</time>
      </trkpt>
      <trkpt lat="49.19148" lon="1.32627">
        <ele>80.8</ele>
        <time>2015-05-31T10:09:55Z</time>
      </trkpt>
      <trkpt lat="49.19144" lon="1.3264">
        <ele>81.1</ele>
        <time>2015-05-31T10:09:58Z</time>
      </trkpt>
      <trkpt lat="49.19152" lon="1.32654">
        <ele>81.1</ele>
        <time>2015-05-31T10:10:01Z</time>
      </trkpt>
      <trkpt lat="49.19162" lon="1.32662">
        <ele>81</ele>
        <time>2015-05-31T10:10:03Z</time>
      </trkpt>
      <trkpt lat="49.19173" lon="1.32671">
        <ele>80.8</ele>
        <time>2015-05-31T10:10:05Z</time>
      </trkpt>
      <trkpt lat="49.19184" lon="1.32681">
        <ele>80.6</ele>
        <time>2015-05-31T10:10:07Z</time>
      </trkpt>
      <trkpt lat="49.19191" lon="1.32695">
        <ele>80.4</ele>
        <time>2015-05-31T10:10:09Z</time>
      </trkpt>
      <trkpt lat="49.19192" lon="1.32713">
        <ele>80.2</ele>
        <time>2015-05-31T10:10:11Z</time>
      </trkpt>
      <trkpt lat="49.19191" lon="1.32732">
        <ele>79.9</ele>
        <time>2015-05-31T10:10:13Z</time>
      </trkpt>
      <trkpt lat="49.1919" lon="1.32751">
        <ele>79.7</ele>
        <time>2015-05-31T10:10:15Z</time>
      </trkpt>
      <trkpt lat="49.19188" lon="1.32769">
        <ele>79.6</ele>
        <time>2015-05-31T10:10:17Z</time>
      </trkpt>
      <trkpt lat="49.19186" lon="1.32787">
        <ele>79.4</ele>
        <time>2015-05-31T10:10:19Z</time>
      </trkpt>
      <trkpt lat="49.19184" lon="1.32806">
        <ele>79.4</ele>
        <time>2015-05-31T10:10:21Z</time>
      </trkpt>
      <trkpt lat="49.19182" lon="1.32824">
        <ele>79.5</ele>
        <time>2015-05-31T10:10:23Z</time>
      </trkpt>
      <trkpt lat="49.19179" lon="1.32842">
        <ele>79.6</ele>
        <time>2015-05-31T10:10:25Z</time>
      </trkpt>
      <trkpt lat="49.19177" lon="1.32857">
        <ele>79.7</ele>
        <time>2015-05-31T10:10:27Z</time>
      </trkpt>
      <trkpt lat="49.19172" lon="1.32869">
        <ele>79.8</ele>
        <time>2015-05-31T10:10:29Z</time>
      </trkpt>
      <trkpt lat="49.1916" lon="1.32873">
        <ele>79.9</ele>
        <time>2015-05-31T10:10:32Z</time>
      </trkpt>
      <trkpt lat="49.19147" lon="1.3287">
        <ele>80.3</ele>
        <time>2015-05-31T10:10:35Z</time>
      </trkpt>
      <trkpt lat="49.19135" lon="1.32868">
        <ele>80.6</ele>
        <time>2015-05-31T10:10:38Z</time>
      </trkpt>
      <trkpt lat="49.19123" lon="1.32864">
        <ele>81</ele>
        <time>2015-05-31T10:10:41Z</time>
      </trkpt>
      <trkpt lat="49.19111" lon="1.32862">
        <ele>81.5</ele>
        <time>2015-05-31T10:10:44Z</time>
      </trkpt>
      <trkpt lat="49.191" lon="1.3286">
        <ele>82.1</ele>
        <time>2015-05-31T10:10:47Z</time>
      </trkpt>
      <trkpt lat="49.19091" lon="1.32858">
        <ele>82.8</ele>
        <time>2015-05-31T10:10:50Z</time>
      </trkpt>
      <trkpt lat="49.19081" lon="1.32856">
        <ele>83.5</ele>
        <time>2015-05-31T10:10:53Z</time>
      </trkpt>
      <trkpt lat="49.19069" lon="1.32852">
        <ele>84.4</ele>
        <time>2015-05-31T10:10:57Z</time>
      </trkpt>
      <trkpt lat="49.19059" lon="1.3285">
        <ele>85</ele>
        <time>2015-05-31T10:11:00Z</time>
      </trkpt>
      <trkpt lat="49.19049" lon="1.32846">
        <ele>85.6</ele>
        <time>2015-05-31T10:11:03Z</time>
      </trkpt>
      <trkpt lat="49.1904" lon="1.32842">
        <ele>86.3</ele>
        <time>2015-05-31T10:11:06Z</time>
      </trkpt>
      <trkpt lat="49.19031" lon="1.32839">
        <ele>87.2</ele>
        <time>2015-05-31T10:11:10Z</time>
      </trkpt>
      <trkpt lat="49.19021" lon="1.32835">
        <ele>88.1</ele>
        <time>2015-05-31T10:11:14Z</time>
      </trkpt>
      <trkpt lat="49.19013" lon="1.32825">
        <ele>89.3</ele>
        <time>2015-05-31T10:11:20Z</time>
      </trkpt>
      <trkpt lat="49.19004" lon="1.32821">
        <ele>90</ele>
        <time>2015-05-31T10:11:24Z</time>
      </trkpt>
      <trkpt lat="49.18996" lon="1.32813">
        <ele>90.7</ele>
        <time>2015-05-31T10:11:28Z</time>
      </trkpt>
      <trkpt lat="49.18987" lon="1.32807">
        <ele>92.3</ele>
        <time>2015-05-31T10:11:34Z</time>
      </trkpt>
      <trkpt lat="49.18977" lon="1.32801">
        <ele>94.3</ele>
        <time>2015-05-31T10:11:41Z</time>
      </trkpt>
      <trkpt lat="49.18969" lon="1.32794">
        <ele>95.7</ele>
        <time>2015-05-31T10:11:46Z</time>
      </trkpt>
      <trkpt lat="49.1896" lon="1.32785">
        <ele>97.2</ele>
        <time>2015-05-31T10:11:53Z</time>
      </trkpt>
      <trkpt lat="49.18952" lon="1.32778">
        <ele>98.3</ele>
        <time>2015-05-31T10:11:58Z</time>
      </trkpt>
      <trkpt lat="49.18943" lon="1.32769">
        <ele>99.5</ele>
        <time>2015-05-31T10:12:05Z</time>
      </trkpt>
      <trkpt lat="49.18934" lon="1.3276">
        <ele>100.4</ele>
        <time>2015-05-31T10:12:10Z</time>
      </trkpt>
      <trkpt lat="49.18926" lon="1.32753">
        <ele>101.2</ele>
        <time>2015-05-31T10:12:14Z</time>
      </trkpt>
      <trkpt lat="49.18917" lon="1.32745">
        <ele>101.8</ele>
        <time>2015-05-31T10:12:18Z</time>
      </trkpt>
      <trkpt lat="49.18908" lon="1.32737">
        <ele>102.7</ele>
        <time>2015-05-31T10:12:23Z</time>
      </trkpt>
      <trkpt lat="49.18897" lon="1.32729">
        <ele>103.4</ele>
        <time>2015-05-31T10:12:27Z</time>
      </trkpt>
      <trkpt lat="49.18887" lon="1.3272">
        <ele>104.3</ele>
        <time>2015-05-31T10:12:32Z</time>
      </trkpt>
      <trkpt lat="49.18879" lon="1.32712">
        <ele>105</ele>
        <time>2015-05-31T10:12:36Z</time>
      </trkpt>
      <trkpt lat="49.18871" lon="1.32704">
        <ele>105.7</ele>
        <time>2015-05-31T10:12:40Z</time>
      </trkpt>
      <trkpt lat="49.18862" lon="1.32695">
        <ele>106.4</ele>
        <time>2015-05-31T10:12:44Z</time>
      </trkpt>
      <trkpt lat="49.18853" lon="1.32685">
        <ele>106.9</ele>
        <time>2015-05-31T10:12:48Z</time>
      </trkpt>
      <trkpt lat="49.18844" lon="1.32672">
        <ele>107.5</ele>
        <time>2015-05-31T10:12:52Z</time>
      </trkpt>
      <trkpt lat="49.18835" lon="1.32664">
        <ele>108.2</ele>
        <time>2015-05-31T10:12:56Z</time>
      </trkpt>
      <trkpt lat="49.18824" lon="1.32653">
        <ele>108.8</ele>
        <time>2015-05-31T10:13:00Z</time>
      </trkpt>
      <trkpt lat="49.18816" lon="1.32644">
        <ele>109.4</ele>
        <time>2015-05-31T10:13:03Z</time>
      </trkpt>
      <trkpt lat="49.18806" lon="1.32635">
        <ele>110</ele>
        <time>2015-05-31T10:13:07Z</time>
      </trkpt>
      <trkpt lat="49.18794" lon="1.32626">
        <ele>110.8</ele>
        <time>2015-05-31T10:13:11Z</time>
      </trkpt>
      <trkpt lat="49.18785" lon="1.32618">
        <ele>111.4</ele>
        <time>2015-05-31T10:13:15Z</time>
      </trkpt>
      <trkpt lat="49.18775" lon="1.32611">
        <ele>112</ele>
        <time>2015-05-31T10:13:19Z</time>
      </trkpt>
      <trkpt lat="49.18764" lon="1.326">
        <ele>112.7</ele>
        <time>2015-05-31T10:13:23Z</time>
      </trkpt>
      <trkpt lat="49.18754" lon="1.3259">
        <ele>113.3</ele>
        <time>2015-05-31T10:13:26Z</time>
      </trkpt>
      <trkpt lat="49.18748" lon="1.32578">
        <ele>113.8</ele>
        <time>2015-05-31T10:13:29Z</time>
      </trkpt>
      <trkpt lat="49.18753" lon="1.32564">
        <ele>114.3</ele>
        <time>2015-05-31T10:13:32Z</time>
      </trkpt>
      <trkpt lat="49.18757" lon="1.32551">
        <ele>114.6</ele>
        <time>2015-05-31T10:13:34Z</time>
      </trkpt>
      <trkpt lat="49.18761" lon="1.32536">
        <ele>114.8</ele>
        <time>2015-05-31T10:13:36Z</time>
      </trkpt>
      <trkpt lat="49.18767" lon="1.32524">
        <ele>115.1</ele>
        <time>2015-05-31T10:13:38Z</time>
      </trkpt>
      <trkpt lat="49.18775" lon="1.32514">
        <ele>115.2</ele>
        <time>2015-05-31T10:13:40Z</time>
      </trkpt>
      <trkpt lat="49.18784" lon="1.32505">
        <ele>115.4</ele>
        <time>2015-05-31T10:13:42Z</time>
      </trkpt>
      <trkpt lat="49.18792" lon="1.32493">
        <ele>115.5</ele>
        <time>2015-05-31T10:13:44Z</time>
      </trkpt>
      <trkpt lat="49.18799" lon="1.3248">
        <ele>115.6</ele>
        <time>2015-05-31T10:13:46Z</time>
      </trkpt>
      <trkpt lat="49.18807" lon="1.32468">
        <ele>115.6</ele>
        <time>2015-05-31T10:13:48Z</time>
      </trkpt>
      <trkpt lat="49.18811" lon="1.32454">
        <ele>115.5</ele>
        <time>2015-05-31T10:13:50Z</time>
      </trkpt>
      <trkpt lat="49.18804" lon="1.32439">
        <ele>115.5</ele>
        <time>2015-05-31T10:13:53Z</time>
      </trkpt>
      <trkpt lat="49.18797" lon="1.32429">
        <ele>115.4</ele>
        <time>2015-05-31T10:13:55Z</time>
      </trkpt>
      <trkpt lat="49.1879" lon="1.3242">
        <ele>115.4</ele>
        <time>2015-05-31T10:13:57Z</time>
      </trkpt>
      <trkpt lat="49.18783" lon="1.3241">
        <ele>115.5</ele>
        <time>2015-05-31T10:13:59Z</time>
      </trkpt>
      <trkpt lat="49.18772" lon="1.32397">
        <ele>115.6</ele>
        <time>2015-05-31T10:14:02Z</time>
      </trkpt>
      <trkpt lat="49.18763" lon="1.32386">
        <ele>115.8</ele>
        <time>2015-05-31T10:14:05Z</time>
      </trkpt>
      <trkpt lat="49.18755" lon="1.32376">
        <ele>115.9</ele>
        <time>2015-05-31T10:14:07Z</time>
      </trkpt>
      <trkpt lat="49.18745" lon="1.32365">
        <ele>116.3</ele>
        <time>2015-05-31T10:14:10Z</time>
      </trkpt>
      <trkpt lat="49.18737" lon="1.32356">
        <ele>116.7</ele>
        <time>2015-05-31T10:14:13Z</time>
      </trkpt>
      <trkpt lat="49.1873" lon="1.32346">
        <ele>117</ele>
        <time>2015-05-31T10:14:15Z</time>
      </trkpt>
      <trkpt lat="49.18725" lon="1.32335">
        <ele>117.2</ele>
        <time>2015-05-31T10:14:17Z</time>
      </trkpt>
      <trkpt lat="49.18719" lon="1.32322">
        <ele>117.5</ele>
        <time>2015-05-31T10:14:19Z</time>
      </trkpt>
      <trkpt lat="49.18716" lon="1.32309">
        <ele>117.7</ele>
        <time>2015-05-31T10:14:21Z</time>
      </trkpt>
      <trkpt lat="49.18712" lon="1.3229">
        <ele>118</ele>
        <time>2015-05-31T10:14:24Z</time>
      </trkpt>
      <trkpt lat="49.18709" lon="1.32276">
        <ele>118.3</ele>
        <time>2015-05-31T10:14:27Z</time>
      </trkpt>
      <trkpt lat="49.187" lon="1.32274">
        <ele>118.7</ele>
        <time>2015-05-31T10:14:31Z</time>
      </trkpt>
      <trkpt lat="49.1869" lon="1.32282">
        <ele>118.9</ele>
        <time>2015-05-31T10:14:35Z</time>
      </trkpt>
      <trkpt lat="49.18681" lon="1.32294">
        <ele>119.1</ele>
        <time>2015-05-31T10:14:38Z</time>
      </trkpt>
      <trkpt lat="49.18671" lon="1.32305">
        <ele>119.2</ele>
        <time>2015-05-31T10:14:41Z</time>
      </trkpt>
      <trkpt lat="49.18662" lon="1.32317">
        <ele>119.3</ele>
        <time>2015-05-31T10:14:44Z</time>
      </trkpt>
      <trkpt lat="49.18651" lon="1.3233">
        <ele>119.4</ele>
        <time>2015-05-31T10:14:47Z</time>
      </trkpt>
      <trkpt lat="49.18644" lon="1.32339">
        <ele>119.4</ele>
        <time>2015-05-31T10:14:49Z</time>
      </trkpt>
      <trkpt lat="49.18635" lon="1.3235">
        <ele>119.4</ele>
        <time>2015-05-31T10:14:52Z</time>
      </trkpt>
      <trkpt lat="49.18628" lon="1.32362">
        <ele>119.3</ele>
        <time>2015-05-31T10:14:55Z</time>
      </trkpt>
      <trkpt lat="49.18622" lon="1.32374">
        <ele>119.1</ele>
        <time>2015-05-31T10:14:58Z</time>
      </trkpt>
      <trkpt lat="49.18616" lon="1.32385">
        <ele>118.9</ele>
        <time>2015-05-31T10:15:00Z</time>
      </trkpt>
      <trkpt lat="49.18611" lon="1.324">
        <ele>118.7</ele>
        <time>2015-05-31T10:15:03Z</time>
      </trkpt>
      <trkpt lat="49.18618" lon="1.32416">
        <ele>118.5</ele>
        <time>2015-05-31T10:15:07Z</time>
      </trkpt>
      <trkpt lat="49.18622" lon="1.32431">
        <ele>118.4</ele>
        <time>2015-05-31T10:15:10Z</time>
      </trkpt>
      <trkpt lat="49.18625" lon="1.32451">
        <ele>118.3</ele>
        <time>2015-05-31T10:15:13Z</time>
      </trkpt>
      <trkpt lat="49.18625" lon="1.32471">
        <ele>118.4</ele>
        <time>2015-05-31T10:15:16Z</time>
      </trkpt>
      <trkpt lat="49.18625" lon="1.32487">
        <ele>118.4</ele>
        <time>2015-05-31T10:15:19Z</time>
      </trkpt>
      <trkpt lat="49.18628" lon="1.32508">
        <ele>118.5</ele>
        <time>2015-05-31T10:15:22Z</time>
      </trkpt>
      <trkpt lat="49.18632" lon="1.32525">
        <ele>118.5</ele>
        <time>2015-05-31T10:15:24Z</time>
      </trkpt>
      <trkpt lat="49.18637" lon="1.32541">
        <ele>118.5</ele>
        <time>2015-05-31T10:15:26Z</time>
      </trkpt>
      <trkpt lat="49.18642" lon="1.32554">
        <ele>118.5</ele>
        <time>2015-05-31T10:15:28Z</time>
      </trkpt>
      <trkpt lat="49.18643" lon="1.32577">
        <ele>118.5</ele>
        <time>2015-05-31T10:15:31Z</time>
      </trkpt>
      <trkpt lat="49.18644" lon="1.3259">
        <ele>118.5</ele>
        <time>2015-05-31T10:15:33Z</time>
      </trkpt>
      <trkpt lat="49.18645" lon="1.32606">
        <ele>118.5</ele>
        <time>2015-05-31T10:15:35Z</time>
      </trkpt>
      <trkpt lat="49.18643" lon="1.32628">
        <ele>118.4</ele>
        <time>2015-05-31T10:15:38Z</time>
      </trkpt>
      <trkpt lat="49.18642" lon="1.32644">
        <ele>118.3</ele>
        <time>2015-05-31T10:15:40Z</time>
      </trkpt>
      <trkpt lat="49.18637" lon="1.3266">
        <ele>118.2</ele>
        <time>2015-05-31T10:15:42Z</time>
      </trkpt>
      <trkpt lat="49.18631" lon="1.32674">
        <ele>118.1</ele>
        <time>2015-05-31T10:15:44Z</time>
      </trkpt>
      <trkpt lat="49.1863" lon="1.32688">
        <ele>118</ele>
        <time>2015-05-31T10:15:46Z</time>
      </trkpt>
      <trkpt lat="49.1862" lon="1.32696">
        <ele>117.8</ele>
        <time>2015-05-31T10:15:51Z</time>
      </trkpt>
      <trkpt lat="49.18613" lon="1.32705">
        <ele>117.2</ele>
        <time>2015-05-31T10:15:55Z</time>
      </trkpt>
      <trkpt lat="49.18607" lon="1.32715">
        <ele>115.9</ele>
        <time>2015-05-31T10:16:00Z</time>
      </trkpt>
      <trkpt lat="49.18597" lon="1.32729">
        <ele>113.6</ele>
        <time>2015-05-31T10:16:05Z</time>
      </trkpt>
      <trkpt lat="49.18588" lon="1.32738">
        <ele>111</ele>
        <time>2015-05-31T10:16:09Z</time>
      </trkpt>
      <trkpt lat="49.18582" lon="1.32751">
        <ele>104.8</ele>
        <time>2015-05-31T10:16:19Z</time>
      </trkpt>
      <trkpt lat="49.1858" lon="1.32765">
        <ele>102.5</ele>
        <time>2015-05-31T10:16:24Z</time>
      </trkpt>
      <trkpt lat="49.18584" lon="1.32781">
        <ele>100.5</ele>
        <time>2015-05-31T10:16:29Z</time>
      </trkpt>
      <trkpt lat="49.18589" lon="1.32795">
        <ele>99.2</ele>
        <time>2015-05-31T10:16:32Z</time>
      </trkpt>
      <trkpt lat="49.18596" lon="1.32805">
        <ele>97.9</ele>
        <time>2015-05-31T10:16:35Z</time>
      </trkpt>
      <trkpt lat="49.18604" lon="1.3282">
        <ele>96.5</ele>
        <time>2015-05-31T10:16:39Z</time>
      </trkpt>
      <trkpt lat="49.18608" lon="1.32832">
        <ele>95.8</ele>
        <time>2015-05-31T10:16:41Z</time>
      </trkpt>
      <trkpt lat="49.1861" lon="1.32847">
        <ele>93.9</ele>
        <time>2015-05-31T10:16:45Z</time>
      </trkpt>
      <trkpt lat="49.18609" lon="1.32861">
        <ele>91.6</ele>
        <time>2015-05-31T10:16:50Z</time>
      </trkpt>
      <trkpt lat="49.18605" lon="1.32876">
        <ele>88.7</ele>
        <time>2015-05-31T10:16:57Z</time>
      </trkpt>
      <trkpt lat="49.186" lon="1.32888">
        <ele>86.4</ele>
        <time>2015-05-31T10:17:05Z</time>
      </trkpt>
      <trkpt lat="49.18591" lon="1.32894">
        <ele>83.4</ele>
        <time>2015-05-31T10:17:24Z</time>
      </trkpt>
      <trkpt lat="49.18583" lon="1.32901">
        <ele>82.3</ele>
        <time>2015-05-31T10:17:44Z</time>
      </trkpt>
      <trkpt lat="49.18573" lon="1.32889">
        <ele>82.1</ele>
        <time>2015-05-31T10:17:50Z</time>
      </trkpt>
      <trkpt lat="49.18566" lon="1.32878">
        <ele>81.9</ele>
        <time>2015-05-31T10:17:53Z</time>
      </trkpt>
      <trkpt lat="49.18558" lon="1.32873">
        <ele>81.7</ele>
        <time>2015-05-31T10:17:56Z</time>
      </trkpt>
      <trkpt lat="49.18544" lon="1.32873">
        <ele>81.3</ele>
        <time>2015-05-31T10:17:59Z</time>
      </trkpt>
      <trkpt lat="49.18532" lon="1.32876">
        <ele>81.1</ele>
        <time>2015-05-31T10:18:02Z</time>
      </trkpt>
      <trkpt lat="49.18521" lon="1.32877">
        <ele>80.8</ele>
        <time>2015-05-31T10:18:05Z</time>
      </trkpt>
      <trkpt lat="49.18509" lon="1.32876">
        <ele>80.7</ele>
        <time>2015-05-31T10:18:08Z</time>
      </trkpt>
      <trkpt lat="49.185" lon="1.32878">
        <ele>80.5</ele>
        <time>2015-05-31T10:18:10Z</time>
      </trkpt>
      <trkpt lat="49.1849" lon="1.32877">
        <ele>80.3</ele>
        <time>2015-05-31T10:18:12Z</time>
      </trkpt>
      <trkpt lat="49.18481" lon="1.32874">
        <ele>80.1</ele>
        <time>2015-05-31T10:18:14Z</time>
      </trkpt>
      <trkpt lat="49.18472" lon="1.32871">
        <ele>79.8</ele>
        <time>2015-05-31T10:18:16Z</time>
      </trkpt>
      <trkpt lat="49.18463" lon="1.32866">
        <ele>79.2</ele>
        <time>2015-05-31T10:18:18Z</time>
      </trkpt>
      <trkpt lat="49.18454" lon="1.32861">
        <ele>78.5</ele>
        <time>2015-05-31T10:18:20Z</time>
      </trkpt>
      <trkpt lat="49.18445" lon="1.32856">
        <ele>77.7</ele>
        <time>2015-05-31T10:18:22Z</time>
      </trkpt>
      <trkpt lat="49.18438" lon="1.32844">
        <ele>76.3</ele>
        <time>2015-05-31T10:18:25Z</time>
      </trkpt>
      <trkpt lat="49.18431" lon="1.32834">
        <ele>75.4</ele>
        <time>2015-05-31T10:18:27Z</time>
      </trkpt>
      <trkpt lat="49.18426" lon="1.32823">
        <ele>74.5</ele>
        <time>2015-05-31T10:18:29Z</time>
      </trkpt>
      <trkpt lat="49.18418" lon="1.32803">
        <ele>73.1</ele>
        <time>2015-05-31T10:18:32Z</time>
      </trkpt>
      <trkpt lat="49.18413" lon="1.32787">
        <ele>72.1</ele>
        <time>2015-05-31T10:18:34Z</time>
      </trkpt>
      <trkpt lat="49.18407" lon="1.32773">
        <ele>71.1</ele>
        <time>2015-05-31T10:18:36Z</time>
      </trkpt>
      <trkpt lat="49.18399" lon="1.3276">
        <ele>69.9</ele>
        <time>2015-05-31T10:18:38Z</time>
      </trkpt>
      <trkpt lat="49.18391" lon="1.32749">
        <ele>68.6</ele>
        <time>2015-05-31T10:18:40Z</time>
      </trkpt>
      <trkpt lat="49.18381" lon="1.32738">
        <ele>66.9</ele>
        <time>2015-05-31T10:18:43Z</time>
      </trkpt>
      <trkpt lat="49.18371" lon="1.32735">
        <ele>64.2</ele>
        <time>2015-05-31T10:18:48Z</time>
      </trkpt>
      <trkpt lat="49.18361" lon="1.3274">
        <ele>61.4</ele>
        <time>2015-05-31T10:18:53Z</time>
      </trkpt>
      <trkpt lat="49.18353" lon="1.3275">
        <ele>59.1</ele>
        <time>2015-05-31T10:18:57Z</time>
      </trkpt>
      <trkpt lat="49.18345" lon="1.32761">
        <ele>56.9</ele>
        <time>2015-05-31T10:19:01Z</time>
      </trkpt>
      <trkpt lat="49.18339" lon="1.32775">
        <ele>55.3</ele>
        <time>2015-05-31T10:19:04Z</time>
      </trkpt>
      <trkpt lat="49.18337" lon="1.3279">
        <ele>53.6</ele>
        <time>2015-05-31T10:19:07Z</time>
      </trkpt>
      <trkpt lat="49.18334" lon="1.32809">
        <ele>52</ele>
        <time>2015-05-31T10:19:10Z</time>
      </trkpt>
      <trkpt lat="49.1833" lon="1.32826">
        <ele>50.3</ele>
        <time>2015-05-31T10:19:13Z</time>
      </trkpt>
      <trkpt lat="49.18323" lon="1.32838">
        <ele>48.7</ele>
        <time>2015-05-31T10:19:16Z</time>
      </trkpt>
      <trkpt lat="49.18317" lon="1.32851">
        <ele>47.1</ele>
        <time>2015-05-31T10:19:19Z</time>
      </trkpt>
      <trkpt lat="49.18321" lon="1.32865">
        <ele>43.7</ele>
        <time>2015-05-31T10:19:26Z</time>
      </trkpt>
      <trkpt lat="49.18327" lon="1.32879">
        <ele>42</ele>
        <time>2015-05-31T10:19:30Z</time>
      </trkpt>
      <trkpt lat="49.18335" lon="1.32892">
        <ele>40.4</ele>
        <time>2015-05-31T10:19:34Z</time>
      </trkpt>
      <trkpt lat="49.18342" lon="1.32905">
        <ele>38.4</ele>
        <time>2015-05-31T10:19:38Z</time>
      </trkpt>
      <trkpt lat="49.18339" lon="1.32923">
        <ele>36.8</ele>
        <time>2015-05-31T10:19:42Z</time>
      </trkpt>
      <trkpt lat="49.18337" lon="1.32941">
        <ele>36</ele>
        <time>2015-05-31T10:19:44Z</time>
      </trkpt>
      <trkpt lat="49.18338" lon="1.32957">
        <ele>35</ele>
        <time>2015-05-31T10:19:46Z</time>
      </trkpt>
      <trkpt lat="49.18342" lon="1.32971">
        <ele>34.1</ele>
        <time>2015-05-31T10:19:48Z</time>
      </trkpt>
      <trkpt lat="49.18347" lon="1.32984">
        <ele>33.2</ele>
        <time>2015-05-31T10:19:50Z</time>
      </trkpt>
      <trkpt lat="49.18348" lon="1.33002">
        <ele>32</ele>
        <time>2015-05-31T10:19:53Z</time>
      </trkpt>
      <trkpt lat="49.18352" lon="1.33016">
        <ele>30.4</ele>
        <time>2015-05-31T10:19:57Z</time>
      </trkpt>
      <trkpt lat="49.18362" lon="1.33023">
        <ele>28.9</ele>
        <time>2015-05-31T10:20:01Z</time>
      </trkpt>
      <trkpt lat="49.18371" lon="1.3303">
        <ele>27.6</ele>
        <time>2015-05-31T10:20:06Z</time>
      </trkpt>
      <trkpt lat="49.18381" lon="1.33033">
        <ele>26.2</ele>
        <time>2015-05-31T10:20:13Z</time>
      </trkpt>
      <trkpt lat="49.18388" lon="1.33032">
        <ele>24.8</ele>
        <time>2015-05-31T10:20:22Z</time>
      </trkpt>
    </trkseg>
  </trk>
</gpx>